<?xml version="1.0" encoding="UTF-8" standalone="no" ?>
<gpx xmlns="http://www.topografix.com/GPX/1/1" xmlns:xsi="http://www.w3.org/2001/XMLSchema-instance" xsi:schemaLocation="http://www.topografix.com/GPX/1/1 http://www.topografix.com/GPX/1/1/gpx.xsd" version="1.1" creator="VisuGPX - https://www.visugpx.com">
  <metadata>
    <name>Crete de Peyrolle,crete de Malefosse,crete de la Pinèe.</name>
    <desc><![CDATA[Crete de Peyrolle,crete de Malefosse,crete de la Pinèe.]]></desc>
  </metadata>
  <trk>
    <name><![CDATA[Traccia corrente: 30 SET 2015 08:18]]></name>
    <trkseg>
      <trkpt lat="44.93943" lon="6.68227">
        <ele>1321.55</ele>
        <time>2015-09-30T06:18:31Z</time>
      </trkpt>
      <trkpt lat="44.93943" lon="6.68226">
        <ele>1321.45</ele>
        <time>2015-09-30T06:18:32Z</time>
      </trkpt>
      <trkpt lat="44.93986" lon="6.68233">
        <ele>1321.64</ele>
        <time>2015-09-30T06:18:44Z</time>
      </trkpt>
      <trkpt lat="44.93988" lon="6.68228">
        <ele>1322.42</ele>
        <time>2015-09-30T06:19:02Z</time>
      </trkpt>
      <trkpt lat="44.93988" lon="6.68227">
        <ele>1323.91</ele>
        <time>2015-09-30T06:19:48Z</time>
      </trkpt>
      <trkpt lat="44.93989" lon="6.68227">
        <ele>1325.59</ele>
        <time>2015-09-30T06:20:41Z</time>
      </trkpt>
      <trkpt lat="44.93988" lon="6.68228">
        <ele>1326.59</ele>
        <time>2015-09-30T06:21:10Z</time>
      </trkpt>
      <trkpt lat="44.93988" lon="6.68228">
        <ele>1327.3</ele>
        <time>2015-09-30T06:21:33Z</time>
      </trkpt>
      <trkpt lat="44.93988" lon="6.68226">
        <ele>1328.3</ele>
        <time>2015-09-30T06:22:03Z</time>
      </trkpt>
      <trkpt lat="44.93988" lon="6.68231">
        <ele>1329.53</ele>
        <time>2015-09-30T06:22:32Z</time>
      </trkpt>
      <trkpt lat="44.93988" lon="6.68232">
        <ele>1329.97</ele>
        <time>2015-09-30T06:22:38Z</time>
      </trkpt>
      <trkpt lat="44.93992" lon="6.68235">
        <ele>1330.12</ele>
        <time>2015-09-30T06:22:45Z</time>
      </trkpt>
      <trkpt lat="44.93994" lon="6.68236">
        <ele>1330.31</ele>
        <time>2015-09-30T06:22:50Z</time>
      </trkpt>
      <trkpt lat="44.94006" lon="6.68227">
        <ele>1330.69</ele>
        <time>2015-09-30T06:22:57Z</time>
      </trkpt>
      <trkpt lat="44.94008" lon="6.68199">
        <ele>1330.58</ele>
        <time>2015-09-30T06:23:06Z</time>
      </trkpt>
      <trkpt lat="44.94001" lon="6.68169">
        <ele>1330.73</ele>
        <time>2015-09-30T06:23:12Z</time>
      </trkpt>
      <trkpt lat="44.93991" lon="6.68144">
        <ele>1331.16</ele>
        <time>2015-09-30T06:23:18Z</time>
      </trkpt>
      <trkpt lat="44.93985" lon="6.68131">
        <ele>1331.41</ele>
        <time>2015-09-30T06:23:22Z</time>
      </trkpt>
      <trkpt lat="44.93992" lon="6.68122">
        <ele>1332.17</ele>
        <time>2015-09-30T06:23:28Z</time>
      </trkpt>
      <trkpt lat="44.94014" lon="6.68128">
        <ele>1333.23</ele>
        <time>2015-09-30T06:23:37Z</time>
      </trkpt>
      <trkpt lat="44.94027" lon="6.68129">
        <ele>1333.92</ele>
        <time>2015-09-30T06:23:42Z</time>
      </trkpt>
      <trkpt lat="44.94045" lon="6.68134">
        <ele>1334.96</ele>
        <time>2015-09-30T06:23:49Z</time>
      </trkpt>
      <trkpt lat="44.94061" lon="6.68136">
        <ele>1335.57</ele>
        <time>2015-09-30T06:23:55Z</time>
      </trkpt>
      <trkpt lat="44.94074" lon="6.68134">
        <ele>1336.19</ele>
        <time>2015-09-30T06:24:00Z</time>
      </trkpt>
      <trkpt lat="44.94085" lon="6.68136">
        <ele>1336.81</ele>
        <time>2015-09-30T06:24:07Z</time>
      </trkpt>
      <trkpt lat="44.94088" lon="6.68137">
        <ele>1337.43</ele>
        <time>2015-09-30T06:24:17Z</time>
      </trkpt>
      <trkpt lat="44.941" lon="6.68137">
        <ele>1337.76</ele>
        <time>2015-09-30T06:24:24Z</time>
      </trkpt>
      <trkpt lat="44.94116" lon="6.6814">
        <ele>1338.04</ele>
        <time>2015-09-30T06:24:31Z</time>
      </trkpt>
      <trkpt lat="44.94137" lon="6.68144">
        <ele>1339.32</ele>
        <time>2015-09-30T06:24:41Z</time>
      </trkpt>
      <trkpt lat="44.94155" lon="6.68147">
        <ele>1340.04</ele>
        <time>2015-09-30T06:24:50Z</time>
      </trkpt>
      <trkpt lat="44.94171" lon="6.68147">
        <ele>1341.14</ele>
        <time>2015-09-30T06:24:58Z</time>
      </trkpt>
      <trkpt lat="44.94191" lon="6.68147">
        <ele>1342.09</ele>
        <time>2015-09-30T06:25:07Z</time>
      </trkpt>
      <trkpt lat="44.94215" lon="6.68142">
        <ele>1343.25</ele>
        <time>2015-09-30T06:25:17Z</time>
      </trkpt>
      <trkpt lat="44.94237" lon="6.68135">
        <ele>1344.45</ele>
        <time>2015-09-30T06:25:26Z</time>
      </trkpt>
      <trkpt lat="44.94259" lon="6.68127">
        <ele>1345.24</ele>
        <time>2015-09-30T06:25:35Z</time>
      </trkpt>
      <trkpt lat="44.94276" lon="6.68121">
        <ele>1345.82</ele>
        <time>2015-09-30T06:25:42Z</time>
      </trkpt>
      <trkpt lat="44.9429" lon="6.68117">
        <ele>1346.36</ele>
        <time>2015-09-30T06:25:47Z</time>
      </trkpt>
      <trkpt lat="44.94319" lon="6.68107">
        <ele>1347.5</ele>
        <time>2015-09-30T06:25:58Z</time>
      </trkpt>
      <trkpt lat="44.94343" lon="6.68103">
        <ele>1348.28</ele>
        <time>2015-09-30T06:26:06Z</time>
      </trkpt>
      <trkpt lat="44.9437" lon="6.68097">
        <ele>1348.9</ele>
        <time>2015-09-30T06:26:16Z</time>
      </trkpt>
      <trkpt lat="44.94398" lon="6.68092">
        <ele>1349.3</ele>
        <time>2015-09-30T06:26:26Z</time>
      </trkpt>
      <trkpt lat="44.94429" lon="6.6809">
        <ele>1349.58</ele>
        <time>2015-09-30T06:26:36Z</time>
      </trkpt>
      <trkpt lat="44.94449" lon="6.68089">
        <ele>1350.6</ele>
        <time>2015-09-30T06:26:44Z</time>
      </trkpt>
      <trkpt lat="44.94465" lon="6.68085">
        <ele>1351.46</ele>
        <time>2015-09-30T06:26:50Z</time>
      </trkpt>
      <trkpt lat="44.94488" lon="6.68075">
        <ele>1352.45</ele>
        <time>2015-09-30T06:26:59Z</time>
      </trkpt>
      <trkpt lat="44.94504" lon="6.68061">
        <ele>1353.6</ele>
        <time>2015-09-30T06:27:07Z</time>
      </trkpt>
      <trkpt lat="44.94522" lon="6.68035">
        <ele>1353.96</ele>
        <time>2015-09-30T06:27:17Z</time>
      </trkpt>
      <trkpt lat="44.94534" lon="6.68017">
        <ele>1353.8</ele>
        <time>2015-09-30T06:27:24Z</time>
      </trkpt>
      <trkpt lat="44.94546" lon="6.67991">
        <ele>1353.88</ele>
        <time>2015-09-30T06:27:33Z</time>
      </trkpt>
      <trkpt lat="44.9456" lon="6.67974">
        <ele>1353.92</ele>
        <time>2015-09-30T06:27:41Z</time>
      </trkpt>
      <trkpt lat="44.94579" lon="6.67959">
        <ele>1353.75</ele>
        <time>2015-09-30T06:27:48Z</time>
      </trkpt>
      <trkpt lat="44.94596" lon="6.67947">
        <ele>1354</ele>
        <time>2015-09-30T06:27:56Z</time>
      </trkpt>
      <trkpt lat="44.9462" lon="6.67924">
        <ele>1353.8</ele>
        <time>2015-09-30T06:28:05Z</time>
      </trkpt>
      <trkpt lat="44.94646" lon="6.67897">
        <ele>1352.87</ele>
        <time>2015-09-30T06:28:12Z</time>
      </trkpt>
      <trkpt lat="44.94681" lon="6.6788">
        <ele>1351.47</ele>
        <time>2015-09-30T06:28:19Z</time>
      </trkpt>
      <trkpt lat="44.94719" lon="6.67877">
        <ele>1350.45</ele>
        <time>2015-09-30T06:28:28Z</time>
      </trkpt>
      <trkpt lat="44.94752" lon="6.67877">
        <ele>1350.25</ele>
        <time>2015-09-30T06:28:38Z</time>
      </trkpt>
      <trkpt lat="44.94753" lon="6.67877">
        <ele>1350.56</ele>
        <time>2015-09-30T06:28:50Z</time>
      </trkpt>
      <trkpt lat="44.94754" lon="6.67877">
        <ele>1350.61</ele>
        <time>2015-09-30T06:28:51Z</time>
      </trkpt>
      <trkpt lat="44.94769" lon="6.67878">
        <ele>1351.03</ele>
        <time>2015-09-30T06:28:58Z</time>
      </trkpt>
      <trkpt lat="44.94788" lon="6.67879">
        <ele>1351.46</ele>
        <time>2015-09-30T06:29:07Z</time>
      </trkpt>
      <trkpt lat="44.94807" lon="6.67875">
        <ele>1351.7</ele>
        <time>2015-09-30T06:29:14Z</time>
      </trkpt>
      <trkpt lat="44.94828" lon="6.67868">
        <ele>1352.21</ele>
        <time>2015-09-30T06:29:22Z</time>
      </trkpt>
      <trkpt lat="44.94847" lon="6.67855">
        <ele>1353.23</ele>
        <time>2015-09-30T06:29:30Z</time>
      </trkpt>
      <trkpt lat="44.94861" lon="6.67842">
        <ele>1354.61</ele>
        <time>2015-09-30T06:29:37Z</time>
      </trkpt>
      <trkpt lat="44.94876" lon="6.67834">
        <ele>1355.72</ele>
        <time>2015-09-30T06:29:43Z</time>
      </trkpt>
      <trkpt lat="44.9489" lon="6.6783">
        <ele>1356.78</ele>
        <time>2015-09-30T06:29:48Z</time>
      </trkpt>
      <trkpt lat="44.94903" lon="6.6783">
        <ele>1358.28</ele>
        <time>2015-09-30T06:29:54Z</time>
      </trkpt>
      <trkpt lat="44.94918" lon="6.67827">
        <ele>1359.66</ele>
        <time>2015-09-30T06:30:01Z</time>
      </trkpt>
      <trkpt lat="44.94933" lon="6.67827">
        <ele>1360.4</ele>
        <time>2015-09-30T06:30:07Z</time>
      </trkpt>
      <trkpt lat="44.94942" lon="6.67827">
        <ele>1360.77</ele>
        <time>2015-09-30T06:30:11Z</time>
      </trkpt>
      <trkpt lat="44.94955" lon="6.67822">
        <ele>1361.4</ele>
        <time>2015-09-30T06:30:18Z</time>
      </trkpt>
      <trkpt lat="44.9496" lon="6.6782">
        <ele>1361.61</ele>
        <time>2015-09-30T06:30:24Z</time>
      </trkpt>
      <trkpt lat="44.94961" lon="6.67821">
        <ele>1361.77</ele>
        <time>2015-09-30T06:30:35Z</time>
      </trkpt>
      <trkpt lat="44.94961" lon="6.67821">
        <ele>1362.27</ele>
        <time>2015-09-30T06:30:59Z</time>
      </trkpt>
      <trkpt lat="44.94961" lon="6.67822">
        <ele>1363.36</ele>
        <time>2015-09-30T06:31:23Z</time>
      </trkpt>
      <trkpt lat="44.9496" lon="6.67819">
        <ele>1363.39</ele>
        <time>2015-09-30T06:31:35Z</time>
      </trkpt>
      <trkpt lat="44.94969" lon="6.67809">
        <ele>1363.8</ele>
        <time>2015-09-30T06:31:43Z</time>
      </trkpt>
      <trkpt lat="44.94987" lon="6.67793">
        <ele>1364.66</ele>
        <time>2015-09-30T06:31:51Z</time>
      </trkpt>
      <trkpt lat="44.95002" lon="6.67778">
        <ele>1365.11</ele>
        <time>2015-09-30T06:31:58Z</time>
      </trkpt>
      <trkpt lat="44.9502" lon="6.67762">
        <ele>1366.06</ele>
        <time>2015-09-30T06:32:05Z</time>
      </trkpt>
      <trkpt lat="44.95041" lon="6.67732">
        <ele>1366.62</ele>
        <time>2015-09-30T06:32:15Z</time>
      </trkpt>
      <trkpt lat="44.9506" lon="6.67702">
        <ele>1367.21</ele>
        <time>2015-09-30T06:32:23Z</time>
      </trkpt>
      <trkpt lat="44.95081" lon="6.67664">
        <ele>1367.41</ele>
        <time>2015-09-30T06:32:32Z</time>
      </trkpt>
      <trkpt lat="44.95098" lon="6.6764">
        <ele>1367.51</ele>
        <time>2015-09-30T06:32:39Z</time>
      </trkpt>
      <trkpt lat="44.95122" lon="6.67617">
        <ele>1367.39</ele>
        <time>2015-09-30T06:32:47Z</time>
      </trkpt>
      <trkpt lat="44.95141" lon="6.67609">
        <ele>1367.35</ele>
        <time>2015-09-30T06:32:53Z</time>
      </trkpt>
      <trkpt lat="44.95167" lon="6.67612">
        <ele>1367.85</ele>
        <time>2015-09-30T06:33:01Z</time>
      </trkpt>
      <trkpt lat="44.95191" lon="6.67624">
        <ele>1369.01</ele>
        <time>2015-09-30T06:33:09Z</time>
      </trkpt>
      <trkpt lat="44.95214" lon="6.67634">
        <ele>1370.35</ele>
        <time>2015-09-30T06:33:17Z</time>
      </trkpt>
      <trkpt lat="44.95242" lon="6.67649">
        <ele>1371.44</ele>
        <time>2015-09-30T06:33:26Z</time>
      </trkpt>
      <trkpt lat="44.95266" lon="6.6766">
        <ele>1371.77</ele>
        <time>2015-09-30T06:33:34Z</time>
      </trkpt>
      <trkpt lat="44.95289" lon="6.67672">
        <ele>1372.14</ele>
        <time>2015-09-30T06:33:42Z</time>
      </trkpt>
      <trkpt lat="44.9531" lon="6.67687">
        <ele>1372.33</ele>
        <time>2015-09-30T06:33:49Z</time>
      </trkpt>
      <trkpt lat="44.9534" lon="6.67705">
        <ele>1372.61</ele>
        <time>2015-09-30T06:33:58Z</time>
      </trkpt>
      <trkpt lat="44.95366" lon="6.67718">
        <ele>1373</ele>
        <time>2015-09-30T06:34:06Z</time>
      </trkpt>
      <trkpt lat="44.95392" lon="6.67728">
        <ele>1373.72</ele>
        <time>2015-09-30T06:34:14Z</time>
      </trkpt>
      <trkpt lat="44.95422" lon="6.67736">
        <ele>1374.03</ele>
        <time>2015-09-30T06:34:22Z</time>
      </trkpt>
      <trkpt lat="44.95447" lon="6.67737">
        <ele>1374.02</ele>
        <time>2015-09-30T06:34:29Z</time>
      </trkpt>
      <trkpt lat="44.95477" lon="6.67741">
        <ele>1374</ele>
        <time>2015-09-30T06:34:37Z</time>
      </trkpt>
      <trkpt lat="44.95505" lon="6.67751">
        <ele>1374</ele>
        <time>2015-09-30T06:34:45Z</time>
      </trkpt>
      <trkpt lat="44.95543" lon="6.6776">
        <ele>1374.68</ele>
        <time>2015-09-30T06:34:56Z</time>
      </trkpt>
      <trkpt lat="44.95563" lon="6.67761">
        <ele>1375.63</ele>
        <time>2015-09-30T06:35:03Z</time>
      </trkpt>
      <trkpt lat="44.95582" lon="6.67761">
        <ele>1376.74</ele>
        <time>2015-09-30T06:35:11Z</time>
      </trkpt>
      <trkpt lat="44.95594" lon="6.6776">
        <ele>1377.68</ele>
        <time>2015-09-30T06:35:16Z</time>
      </trkpt>
      <trkpt lat="44.95612" lon="6.67756">
        <ele>1378.4</ele>
        <time>2015-09-30T06:35:22Z</time>
      </trkpt>
      <trkpt lat="44.95633" lon="6.67751">
        <ele>1379.45</ele>
        <time>2015-09-30T06:35:30Z</time>
      </trkpt>
      <trkpt lat="44.95653" lon="6.67746">
        <ele>1381.02</ele>
        <time>2015-09-30T06:35:38Z</time>
      </trkpt>
      <trkpt lat="44.95671" lon="6.67736">
        <ele>1382.82</ele>
        <time>2015-09-30T06:35:46Z</time>
      </trkpt>
      <trkpt lat="44.9569" lon="6.67728">
        <ele>1384.43</ele>
        <time>2015-09-30T06:35:54Z</time>
      </trkpt>
      <trkpt lat="44.95713" lon="6.67716">
        <ele>1385.64</ele>
        <time>2015-09-30T06:36:04Z</time>
      </trkpt>
      <trkpt lat="44.9573" lon="6.6771">
        <ele>1386.5</ele>
        <time>2015-09-30T06:36:11Z</time>
      </trkpt>
      <trkpt lat="44.95753" lon="6.67701">
        <ele>1387.98</ele>
        <time>2015-09-30T06:36:21Z</time>
      </trkpt>
      <trkpt lat="44.95771" lon="6.67689">
        <ele>1388.95</ele>
        <time>2015-09-30T06:36:29Z</time>
      </trkpt>
      <trkpt lat="44.9579" lon="6.67677">
        <ele>1390.05</ele>
        <time>2015-09-30T06:36:37Z</time>
      </trkpt>
      <trkpt lat="44.95806" lon="6.67663">
        <ele>1391.22</ele>
        <time>2015-09-30T06:36:45Z</time>
      </trkpt>
      <trkpt lat="44.9582" lon="6.67651">
        <ele>1392.43</ele>
        <time>2015-09-30T06:36:53Z</time>
      </trkpt>
      <trkpt lat="44.9583" lon="6.67637">
        <ele>1393.66</ele>
        <time>2015-09-30T06:37:00Z</time>
      </trkpt>
      <trkpt lat="44.95836" lon="6.67627">
        <ele>1394.7</ele>
        <time>2015-09-30T06:37:05Z</time>
      </trkpt>
      <trkpt lat="44.95841" lon="6.67618">
        <ele>1395.48</ele>
        <time>2015-09-30T06:37:09Z</time>
      </trkpt>
      <trkpt lat="44.95852" lon="6.67606">
        <ele>1396.72</ele>
        <time>2015-09-30T06:37:16Z</time>
      </trkpt>
      <trkpt lat="44.9587" lon="6.67586">
        <ele>1397.1</ele>
        <time>2015-09-30T06:37:25Z</time>
      </trkpt>
      <trkpt lat="44.95893" lon="6.67566">
        <ele>1396.7</ele>
        <time>2015-09-30T06:37:34Z</time>
      </trkpt>
      <trkpt lat="44.95914" lon="6.67548">
        <ele>1397.09</ele>
        <time>2015-09-30T06:37:42Z</time>
      </trkpt>
      <trkpt lat="44.9594" lon="6.67523">
        <ele>1397.56</ele>
        <time>2015-09-30T06:37:52Z</time>
      </trkpt>
      <trkpt lat="44.95962" lon="6.67499">
        <ele>1397.9</ele>
        <time>2015-09-30T06:38:01Z</time>
      </trkpt>
      <trkpt lat="44.95985" lon="6.67476">
        <ele>1398.25</ele>
        <time>2015-09-30T06:38:10Z</time>
      </trkpt>
      <trkpt lat="44.95991" lon="6.67455">
        <ele>1398.81</ele>
        <time>2015-09-30T06:38:16Z</time>
      </trkpt>
      <trkpt lat="44.95986" lon="6.67424">
        <ele>1400.11</ele>
        <time>2015-09-30T06:38:26Z</time>
      </trkpt>
      <trkpt lat="44.95989" lon="6.67406">
        <ele>1401.24</ele>
        <time>2015-09-30T06:38:33Z</time>
      </trkpt>
      <trkpt lat="44.95996" lon="6.67387">
        <ele>1402.56</ele>
        <time>2015-09-30T06:38:41Z</time>
      </trkpt>
      <trkpt lat="44.96002" lon="6.67371">
        <ele>1403.81</ele>
        <time>2015-09-30T06:38:48Z</time>
      </trkpt>
      <trkpt lat="44.96011" lon="6.67349">
        <ele>1404.72</ele>
        <time>2015-09-30T06:38:57Z</time>
      </trkpt>
      <trkpt lat="44.96018" lon="6.67332">
        <ele>1405.71</ele>
        <time>2015-09-30T06:39:04Z</time>
      </trkpt>
      <trkpt lat="44.96025" lon="6.67313">
        <ele>1406.59</ele>
        <time>2015-09-30T06:39:12Z</time>
      </trkpt>
      <trkpt lat="44.96031" lon="6.67299">
        <ele>1407.26</ele>
        <time>2015-09-30T06:39:18Z</time>
      </trkpt>
      <trkpt lat="44.96041" lon="6.67277">
        <ele>1407.74</ele>
        <time>2015-09-30T06:39:27Z</time>
      </trkpt>
      <trkpt lat="44.96046" lon="6.67265">
        <ele>1408.27</ele>
        <time>2015-09-30T06:39:32Z</time>
      </trkpt>
      <trkpt lat="44.96055" lon="6.67248">
        <ele>1409.15</ele>
        <time>2015-09-30T06:39:40Z</time>
      </trkpt>
      <trkpt lat="44.96063" lon="6.67231">
        <ele>1409.88</ele>
        <time>2015-09-30T06:39:47Z</time>
      </trkpt>
      <trkpt lat="44.96076" lon="6.67205">
        <ele>1410.82</ele>
        <time>2015-09-30T06:39:57Z</time>
      </trkpt>
      <trkpt lat="44.96086" lon="6.67184">
        <ele>1411.41</ele>
        <time>2015-09-30T06:40:05Z</time>
      </trkpt>
      <trkpt lat="44.96095" lon="6.67158">
        <ele>1411.92</ele>
        <time>2015-09-30T06:40:14Z</time>
      </trkpt>
      <trkpt lat="44.96099" lon="6.67138">
        <ele>1412.59</ele>
        <time>2015-09-30T06:40:21Z</time>
      </trkpt>
      <trkpt lat="44.96108" lon="6.67114">
        <ele>1413.16</ele>
        <time>2015-09-30T06:40:30Z</time>
      </trkpt>
      <trkpt lat="44.96114" lon="6.6709">
        <ele>1414.25</ele>
        <time>2015-09-30T06:40:39Z</time>
      </trkpt>
      <trkpt lat="44.96117" lon="6.67066">
        <ele>1415.18</ele>
        <time>2015-09-30T06:40:47Z</time>
      </trkpt>
      <trkpt lat="44.96118" lon="6.67044">
        <ele>1415.99</ele>
        <time>2015-09-30T06:40:55Z</time>
      </trkpt>
      <trkpt lat="44.96119" lon="6.67024">
        <ele>1416.78</ele>
        <time>2015-09-30T06:41:03Z</time>
      </trkpt>
      <trkpt lat="44.96119" lon="6.67021">
        <ele>1416.88</ele>
        <time>2015-09-30T06:41:04Z</time>
      </trkpt>
      <trkpt lat="44.96124" lon="6.67">
        <ele>1418.1</ele>
        <time>2015-09-30T06:41:13Z</time>
      </trkpt>
      <trkpt lat="44.96129" lon="6.66988">
        <ele>1419.31</ele>
        <time>2015-09-30T06:41:20Z</time>
      </trkpt>
      <trkpt lat="44.96137" lon="6.66975">
        <ele>1420.71</ele>
        <time>2015-09-30T06:41:28Z</time>
      </trkpt>
      <trkpt lat="44.96147" lon="6.66965">
        <ele>1422.65</ele>
        <time>2015-09-30T06:41:37Z</time>
      </trkpt>
      <trkpt lat="44.96151" lon="6.66957">
        <ele>1423.41</ele>
        <time>2015-09-30T06:41:42Z</time>
      </trkpt>
      <trkpt lat="44.96151" lon="6.66946">
        <ele>1424.27</ele>
        <time>2015-09-30T06:41:47Z</time>
      </trkpt>
      <trkpt lat="44.96147" lon="6.66939">
        <ele>1424.74</ele>
        <time>2015-09-30T06:41:51Z</time>
      </trkpt>
      <trkpt lat="44.96137" lon="6.66932">
        <ele>1426.33</ele>
        <time>2015-09-30T06:41:59Z</time>
      </trkpt>
      <trkpt lat="44.96126" lon="6.66924">
        <ele>1427.3</ele>
        <time>2015-09-30T06:42:07Z</time>
      </trkpt>
      <trkpt lat="44.96113" lon="6.66918">
        <ele>1427.99</ele>
        <time>2015-09-30T06:42:14Z</time>
      </trkpt>
      <trkpt lat="44.96096" lon="6.6691">
        <ele>1429.16</ele>
        <time>2015-09-30T06:42:23Z</time>
      </trkpt>
      <trkpt lat="44.96079" lon="6.66905">
        <ele>1429.76</ele>
        <time>2015-09-30T06:42:31Z</time>
      </trkpt>
      <trkpt lat="44.96064" lon="6.66898">
        <ele>1430.3</ele>
        <time>2015-09-30T06:42:39Z</time>
      </trkpt>
      <trkpt lat="44.96048" lon="6.66895">
        <ele>1431.14</ele>
        <time>2015-09-30T06:42:48Z</time>
      </trkpt>
      <trkpt lat="44.96032" lon="6.66903">
        <ele>1432.65</ele>
        <time>2015-09-30T06:42:58Z</time>
      </trkpt>
      <trkpt lat="44.96018" lon="6.6691">
        <ele>1434.15</ele>
        <time>2015-09-30T06:43:07Z</time>
      </trkpt>
      <trkpt lat="44.96008" lon="6.66903">
        <ele>1435.25</ele>
        <time>2015-09-30T06:43:14Z</time>
      </trkpt>
      <trkpt lat="44.96007" lon="6.66898">
        <ele>1435.58</ele>
        <time>2015-09-30T06:43:17Z</time>
      </trkpt>
      <trkpt lat="44.96011" lon="6.66886">
        <ele>1436.31</ele>
        <time>2015-09-30T06:43:23Z</time>
      </trkpt>
      <trkpt lat="44.96024" lon="6.66879">
        <ele>1437.29</ele>
        <time>2015-09-30T06:43:31Z</time>
      </trkpt>
      <trkpt lat="44.96037" lon="6.66873">
        <ele>1438.31</ele>
        <time>2015-09-30T06:43:40Z</time>
      </trkpt>
      <trkpt lat="44.96046" lon="6.6687">
        <ele>1438.97</ele>
        <time>2015-09-30T06:43:48Z</time>
      </trkpt>
      <trkpt lat="44.96056" lon="6.66866">
        <ele>1440.21</ele>
        <time>2015-09-30T06:43:56Z</time>
      </trkpt>
      <trkpt lat="44.96061" lon="6.66864">
        <ele>1440.88</ele>
        <time>2015-09-30T06:44:00Z</time>
      </trkpt>
      <trkpt lat="44.9607" lon="6.6686">
        <ele>1442.29</ele>
        <time>2015-09-30T06:44:08Z</time>
      </trkpt>
      <trkpt lat="44.96078" lon="6.66854">
        <ele>1443.86</ele>
        <time>2015-09-30T06:44:17Z</time>
      </trkpt>
      <trkpt lat="44.96086" lon="6.66849">
        <ele>1445.14</ele>
        <time>2015-09-30T06:44:26Z</time>
      </trkpt>
      <trkpt lat="44.96096" lon="6.66845">
        <ele>1446.79</ele>
        <time>2015-09-30T06:44:36Z</time>
      </trkpt>
      <trkpt lat="44.96103" lon="6.66843">
        <ele>1447.73</ele>
        <time>2015-09-30T06:44:43Z</time>
      </trkpt>
      <trkpt lat="44.96106" lon="6.66842">
        <ele>1448.26</ele>
        <time>2015-09-30T06:44:46Z</time>
      </trkpt>
      <trkpt lat="44.96111" lon="6.66841">
        <ele>1449.31</ele>
        <time>2015-09-30T06:44:50Z</time>
      </trkpt>
      <trkpt lat="44.96125" lon="6.6684">
        <ele>1450.67</ele>
        <time>2015-09-30T06:45:00Z</time>
      </trkpt>
      <trkpt lat="44.96129" lon="6.6684">
        <ele>1451.16</ele>
        <time>2015-09-30T06:45:03Z</time>
      </trkpt>
      <trkpt lat="44.96139" lon="6.66838">
        <ele>1452.8</ele>
        <time>2015-09-30T06:45:12Z</time>
      </trkpt>
      <trkpt lat="44.96144" lon="6.66837">
        <ele>1453.44</ele>
        <time>2015-09-30T06:45:17Z</time>
      </trkpt>
      <trkpt lat="44.9615" lon="6.66834">
        <ele>1454.17</ele>
        <time>2015-09-30T06:45:23Z</time>
      </trkpt>
      <trkpt lat="44.96156" lon="6.66829">
        <ele>1455.35</ele>
        <time>2015-09-30T06:45:30Z</time>
      </trkpt>
      <trkpt lat="44.96157" lon="6.66828">
        <ele>1455.67</ele>
        <time>2015-09-30T06:45:32Z</time>
      </trkpt>
      <trkpt lat="44.9616" lon="6.66826">
        <ele>1456.24</ele>
        <time>2015-09-30T06:45:35Z</time>
      </trkpt>
      <trkpt lat="44.96169" lon="6.66818">
        <ele>1457.43</ele>
        <time>2015-09-30T06:45:44Z</time>
      </trkpt>
      <trkpt lat="44.96171" lon="6.66817">
        <ele>1457.53</ele>
        <time>2015-09-30T06:45:45Z</time>
      </trkpt>
      <trkpt lat="44.96175" lon="6.66815">
        <ele>1458.11</ele>
        <time>2015-09-30T06:45:49Z</time>
      </trkpt>
      <trkpt lat="44.96183" lon="6.6681">
        <ele>1459.27</ele>
        <time>2015-09-30T06:45:57Z</time>
      </trkpt>
      <trkpt lat="44.96191" lon="6.66804">
        <ele>1460.1</ele>
        <time>2015-09-30T06:46:05Z</time>
      </trkpt>
      <trkpt lat="44.96192" lon="6.66803">
        <ele>1460.1</ele>
        <time>2015-09-30T06:46:06Z</time>
      </trkpt>
      <trkpt lat="44.96201" lon="6.66793">
        <ele>1461.5</ele>
        <time>2015-09-30T06:46:15Z</time>
      </trkpt>
      <trkpt lat="44.9621" lon="6.66786">
        <ele>1462.63</ele>
        <time>2015-09-30T06:46:23Z</time>
      </trkpt>
      <trkpt lat="44.96218" lon="6.6678">
        <ele>1463.4</ele>
        <time>2015-09-30T06:46:30Z</time>
      </trkpt>
      <trkpt lat="44.96226" lon="6.66774">
        <ele>1464.34</ele>
        <time>2015-09-30T06:46:37Z</time>
      </trkpt>
      <trkpt lat="44.96236" lon="6.66769">
        <ele>1465.43</ele>
        <time>2015-09-30T06:46:45Z</time>
      </trkpt>
      <trkpt lat="44.96244" lon="6.66765">
        <ele>1466.14</ele>
        <time>2015-09-30T06:46:51Z</time>
      </trkpt>
      <trkpt lat="44.96252" lon="6.66764">
        <ele>1466.67</ele>
        <time>2015-09-30T06:46:57Z</time>
      </trkpt>
      <trkpt lat="44.96257" lon="6.66764">
        <ele>1467.53</ele>
        <time>2015-09-30T06:47:02Z</time>
      </trkpt>
      <trkpt lat="44.9627" lon="6.66761">
        <ele>1468.26</ele>
        <time>2015-09-30T06:47:11Z</time>
      </trkpt>
      <trkpt lat="44.96279" lon="6.66757">
        <ele>1469.27</ele>
        <time>2015-09-30T06:47:18Z</time>
      </trkpt>
      <trkpt lat="44.96288" lon="6.66752">
        <ele>1470.47</ele>
        <time>2015-09-30T06:47:25Z</time>
      </trkpt>
      <trkpt lat="44.96295" lon="6.66748">
        <ele>1471.4</ele>
        <time>2015-09-30T06:47:31Z</time>
      </trkpt>
      <trkpt lat="44.96305" lon="6.66742">
        <ele>1472.29</ele>
        <time>2015-09-30T06:47:39Z</time>
      </trkpt>
      <trkpt lat="44.96316" lon="6.66738">
        <ele>1473.19</ele>
        <time>2015-09-30T06:47:47Z</time>
      </trkpt>
      <trkpt lat="44.9632" lon="6.66736">
        <ele>1474.08</ele>
        <time>2015-09-30T06:47:51Z</time>
      </trkpt>
      <trkpt lat="44.96326" lon="6.66732">
        <ele>1474.93</ele>
        <time>2015-09-30T06:47:56Z</time>
      </trkpt>
      <trkpt lat="44.96336" lon="6.66727">
        <ele>1476.05</ele>
        <time>2015-09-30T06:48:04Z</time>
      </trkpt>
      <trkpt lat="44.96346" lon="6.66723">
        <ele>1477.45</ele>
        <time>2015-09-30T06:48:13Z</time>
      </trkpt>
      <trkpt lat="44.96352" lon="6.66718">
        <ele>1478.55</ele>
        <time>2015-09-30T06:48:18Z</time>
      </trkpt>
      <trkpt lat="44.96354" lon="6.66716">
        <ele>1478.87</ele>
        <time>2015-09-30T06:48:20Z</time>
      </trkpt>
      <trkpt lat="44.96361" lon="6.66708">
        <ele>1480.02</ele>
        <time>2015-09-30T06:48:27Z</time>
      </trkpt>
      <trkpt lat="44.96368" lon="6.66701">
        <ele>1481.54</ele>
        <time>2015-09-30T06:48:35Z</time>
      </trkpt>
      <trkpt lat="44.96375" lon="6.66692">
        <ele>1482.92</ele>
        <time>2015-09-30T06:48:43Z</time>
      </trkpt>
      <trkpt lat="44.96384" lon="6.66682">
        <ele>1484.28</ele>
        <time>2015-09-30T06:48:52Z</time>
      </trkpt>
      <trkpt lat="44.96386" lon="6.66678">
        <ele>1484.86</ele>
        <time>2015-09-30T06:48:55Z</time>
      </trkpt>
      <trkpt lat="44.96394" lon="6.66674">
        <ele>1486.77</ele>
        <time>2015-09-30T06:49:03Z</time>
      </trkpt>
      <trkpt lat="44.96398" lon="6.66673">
        <ele>1487.24</ele>
        <time>2015-09-30T06:49:06Z</time>
      </trkpt>
      <trkpt lat="44.96413" lon="6.66666">
        <ele>1489.3</ele>
        <time>2015-09-30T06:49:18Z</time>
      </trkpt>
      <trkpt lat="44.96421" lon="6.66659">
        <ele>1490.69</ele>
        <time>2015-09-30T06:49:26Z</time>
      </trkpt>
      <trkpt lat="44.96429" lon="6.66652">
        <ele>1491.92</ele>
        <time>2015-09-30T06:49:34Z</time>
      </trkpt>
      <trkpt lat="44.96435" lon="6.66645">
        <ele>1493</ele>
        <time>2015-09-30T06:49:41Z</time>
      </trkpt>
      <trkpt lat="44.9644" lon="6.66639">
        <ele>1493.78</ele>
        <time>2015-09-30T06:49:47Z</time>
      </trkpt>
      <trkpt lat="44.96448" lon="6.66633">
        <ele>1495.43</ele>
        <time>2015-09-30T06:49:55Z</time>
      </trkpt>
      <trkpt lat="44.96456" lon="6.66624">
        <ele>1496.76</ele>
        <time>2015-09-30T06:50:03Z</time>
      </trkpt>
      <trkpt lat="44.96458" lon="6.66621">
        <ele>1497.06</ele>
        <time>2015-09-30T06:50:05Z</time>
      </trkpt>
      <trkpt lat="44.96468" lon="6.66611">
        <ele>1498.45</ele>
        <time>2015-09-30T06:50:14Z</time>
      </trkpt>
      <trkpt lat="44.96478" lon="6.66602">
        <ele>1500.01</ele>
        <time>2015-09-30T06:50:23Z</time>
      </trkpt>
      <trkpt lat="44.96485" lon="6.66598">
        <ele>1500.84</ele>
        <time>2015-09-30T06:50:29Z</time>
      </trkpt>
      <trkpt lat="44.96499" lon="6.66592">
        <ele>1502.35</ele>
        <time>2015-09-30T06:50:40Z</time>
      </trkpt>
      <trkpt lat="44.9651" lon="6.6659">
        <ele>1503.58</ele>
        <time>2015-09-30T06:50:48Z</time>
      </trkpt>
      <trkpt lat="44.96519" lon="6.66587">
        <ele>1504.96</ele>
        <time>2015-09-30T06:50:56Z</time>
      </trkpt>
      <trkpt lat="44.9652" lon="6.66586">
        <ele>1505.05</ele>
        <time>2015-09-30T06:50:57Z</time>
      </trkpt>
      <trkpt lat="44.9653" lon="6.6657">
        <ele>1506.68</ele>
        <time>2015-09-30T06:51:08Z</time>
      </trkpt>
      <trkpt lat="44.96534" lon="6.66558">
        <ele>1508.02</ele>
        <time>2015-09-30T06:51:15Z</time>
      </trkpt>
      <trkpt lat="44.96538" lon="6.66542">
        <ele>1508.98</ele>
        <time>2015-09-30T06:51:23Z</time>
      </trkpt>
      <trkpt lat="44.96539" lon="6.66532">
        <ele>1509.6</ele>
        <time>2015-09-30T06:51:28Z</time>
      </trkpt>
      <trkpt lat="44.96541" lon="6.66523">
        <ele>1510.32</ele>
        <time>2015-09-30T06:51:33Z</time>
      </trkpt>
      <trkpt lat="44.96546" lon="6.66508">
        <ele>1511.51</ele>
        <time>2015-09-30T06:51:41Z</time>
      </trkpt>
      <trkpt lat="44.96548" lon="6.66503">
        <ele>1512.15</ele>
        <time>2015-09-30T06:51:44Z</time>
      </trkpt>
      <trkpt lat="44.96558" lon="6.66495">
        <ele>1513.74</ele>
        <time>2015-09-30T06:51:52Z</time>
      </trkpt>
      <trkpt lat="44.9656" lon="6.66493">
        <ele>1514.1</ele>
        <time>2015-09-30T06:51:54Z</time>
      </trkpt>
      <trkpt lat="44.96569" lon="6.66487">
        <ele>1515.95</ele>
        <time>2015-09-30T06:52:03Z</time>
      </trkpt>
      <trkpt lat="44.9657" lon="6.66486">
        <ele>1516.09</ele>
        <time>2015-09-30T06:52:04Z</time>
      </trkpt>
      <trkpt lat="44.96579" lon="6.66485">
        <ele>1517.55</ele>
        <time>2015-09-30T06:52:12Z</time>
      </trkpt>
      <trkpt lat="44.96581" lon="6.66486">
        <ele>1517.7</ele>
        <time>2015-09-30T06:52:13Z</time>
      </trkpt>
      <trkpt lat="44.96583" lon="6.66485">
        <ele>1517.93</ele>
        <time>2015-09-30T06:52:15Z</time>
      </trkpt>
      <trkpt lat="44.96591" lon="6.66479">
        <ele>1519.49</ele>
        <time>2015-09-30T06:52:23Z</time>
      </trkpt>
      <trkpt lat="44.96599" lon="6.66474">
        <ele>1520.52</ele>
        <time>2015-09-30T06:52:31Z</time>
      </trkpt>
      <trkpt lat="44.96606" lon="6.66468">
        <ele>1522.03</ele>
        <time>2015-09-30T06:52:40Z</time>
      </trkpt>
      <trkpt lat="44.96609" lon="6.66465">
        <ele>1522.56</ele>
        <time>2015-09-30T06:52:43Z</time>
      </trkpt>
      <trkpt lat="44.96616" lon="6.66452">
        <ele>1524.2</ele>
        <time>2015-09-30T06:52:52Z</time>
      </trkpt>
      <trkpt lat="44.96623" lon="6.66444">
        <ele>1525.51</ele>
        <time>2015-09-30T06:53:00Z</time>
      </trkpt>
      <trkpt lat="44.96625" lon="6.6644">
        <ele>1526.08</ele>
        <time>2015-09-30T06:53:04Z</time>
      </trkpt>
      <trkpt lat="44.9663" lon="6.66436">
        <ele>1526.93</ele>
        <time>2015-09-30T06:53:08Z</time>
      </trkpt>
      <trkpt lat="44.96637" lon="6.66432">
        <ele>1528.07</ele>
        <time>2015-09-30T06:53:14Z</time>
      </trkpt>
      <trkpt lat="44.96646" lon="6.66428">
        <ele>1529.58</ele>
        <time>2015-09-30T06:53:23Z</time>
      </trkpt>
      <trkpt lat="44.96654" lon="6.66421">
        <ele>1531.02</ele>
        <time>2015-09-30T06:53:31Z</time>
      </trkpt>
      <trkpt lat="44.96661" lon="6.66416">
        <ele>1532.54</ele>
        <time>2015-09-30T06:53:38Z</time>
      </trkpt>
      <trkpt lat="44.96666" lon="6.66409">
        <ele>1533.72</ele>
        <time>2015-09-30T06:53:45Z</time>
      </trkpt>
      <trkpt lat="44.96672" lon="6.66399">
        <ele>1535.45</ele>
        <time>2015-09-30T06:53:53Z</time>
      </trkpt>
      <trkpt lat="44.96673" lon="6.66398">
        <ele>1535.63</ele>
        <time>2015-09-30T06:53:54Z</time>
      </trkpt>
      <trkpt lat="44.96678" lon="6.66385">
        <ele>1537.02</ele>
        <time>2015-09-30T06:54:02Z</time>
      </trkpt>
      <trkpt lat="44.96679" lon="6.66377">
        <ele>1537.94</ele>
        <time>2015-09-30T06:54:07Z</time>
      </trkpt>
      <trkpt lat="44.96683" lon="6.66368">
        <ele>1538.74</ele>
        <time>2015-09-30T06:54:13Z</time>
      </trkpt>
      <trkpt lat="44.9669" lon="6.6636">
        <ele>1539.68</ele>
        <time>2015-09-30T06:54:20Z</time>
      </trkpt>
      <trkpt lat="44.96697" lon="6.66352">
        <ele>1541.06</ele>
        <time>2015-09-30T06:54:29Z</time>
      </trkpt>
      <trkpt lat="44.96698" lon="6.66351">
        <ele>1541.16</ele>
        <time>2015-09-30T06:54:30Z</time>
      </trkpt>
      <trkpt lat="44.96699" lon="6.66348">
        <ele>1541.46</ele>
        <time>2015-09-30T06:54:32Z</time>
      </trkpt>
      <trkpt lat="44.96706" lon="6.6634">
        <ele>1543.01</ele>
        <time>2015-09-30T06:54:40Z</time>
      </trkpt>
      <trkpt lat="44.96712" lon="6.66333">
        <ele>1544.55</ele>
        <time>2015-09-30T06:54:48Z</time>
      </trkpt>
      <trkpt lat="44.96723" lon="6.66323">
        <ele>1546.48</ele>
        <time>2015-09-30T06:54:59Z</time>
      </trkpt>
      <trkpt lat="44.96729" lon="6.66317">
        <ele>1547.62</ele>
        <time>2015-09-30T06:55:06Z</time>
      </trkpt>
      <trkpt lat="44.96735" lon="6.6631">
        <ele>1549.07</ele>
        <time>2015-09-30T06:55:13Z</time>
      </trkpt>
      <trkpt lat="44.9674" lon="6.66303">
        <ele>1550.21</ele>
        <time>2015-09-30T06:55:20Z</time>
      </trkpt>
      <trkpt lat="44.96747" lon="6.66294">
        <ele>1551.33</ele>
        <time>2015-09-30T06:55:29Z</time>
      </trkpt>
      <trkpt lat="44.96756" lon="6.66283">
        <ele>1552.95</ele>
        <time>2015-09-30T06:55:38Z</time>
      </trkpt>
      <trkpt lat="44.96757" lon="6.66282">
        <ele>1553.15</ele>
        <time>2015-09-30T06:55:39Z</time>
      </trkpt>
      <trkpt lat="44.96762" lon="6.66272">
        <ele>1554.42</ele>
        <time>2015-09-30T06:55:47Z</time>
      </trkpt>
      <trkpt lat="44.96765" lon="6.66266">
        <ele>1555.15</ele>
        <time>2015-09-30T06:55:51Z</time>
      </trkpt>
      <trkpt lat="44.96767" lon="6.66256">
        <ele>1556.55</ele>
        <time>2015-09-30T06:55:58Z</time>
      </trkpt>
      <trkpt lat="44.96769" lon="6.66247">
        <ele>1557.53</ele>
        <time>2015-09-30T06:56:04Z</time>
      </trkpt>
      <trkpt lat="44.96771" lon="6.66239">
        <ele>1558.36</ele>
        <time>2015-09-30T06:56:09Z</time>
      </trkpt>
      <trkpt lat="44.96777" lon="6.66227">
        <ele>1560.12</ele>
        <time>2015-09-30T06:56:18Z</time>
      </trkpt>
      <trkpt lat="44.96783" lon="6.66218">
        <ele>1561.34</ele>
        <time>2015-09-30T06:56:26Z</time>
      </trkpt>
      <trkpt lat="44.9679" lon="6.66207">
        <ele>1562.85</ele>
        <time>2015-09-30T06:56:34Z</time>
      </trkpt>
      <trkpt lat="44.96796" lon="6.66202">
        <ele>1564.16</ele>
        <time>2015-09-30T06:56:41Z</time>
      </trkpt>
      <trkpt lat="44.96798" lon="6.66201">
        <ele>1564.4</ele>
        <time>2015-09-30T06:56:43Z</time>
      </trkpt>
      <trkpt lat="44.96805" lon="6.66196">
        <ele>1565.69</ele>
        <time>2015-09-30T06:56:51Z</time>
      </trkpt>
      <trkpt lat="44.96807" lon="6.66195">
        <ele>1565.98</ele>
        <time>2015-09-30T06:56:53Z</time>
      </trkpt>
      <trkpt lat="44.96812" lon="6.66195">
        <ele>1566.52</ele>
        <time>2015-09-30T06:56:57Z</time>
      </trkpt>
      <trkpt lat="44.96821" lon="6.66189">
        <ele>1568.25</ele>
        <time>2015-09-30T06:57:06Z</time>
      </trkpt>
      <trkpt lat="44.96826" lon="6.66182">
        <ele>1570</ele>
        <time>2015-09-30T06:57:14Z</time>
      </trkpt>
      <trkpt lat="44.96826" lon="6.66171">
        <ele>1571.63</ele>
        <time>2015-09-30T06:57:22Z</time>
      </trkpt>
      <trkpt lat="44.9682" lon="6.66164">
        <ele>1572.9</ele>
        <time>2015-09-30T06:57:30Z</time>
      </trkpt>
      <trkpt lat="44.9682" lon="6.66163">
        <ele>1572.98</ele>
        <time>2015-09-30T06:57:31Z</time>
      </trkpt>
      <trkpt lat="44.96817" lon="6.66159">
        <ele>1573.56</ele>
        <time>2015-09-30T06:57:36Z</time>
      </trkpt>
      <trkpt lat="44.96809" lon="6.66163">
        <ele>1574.94</ele>
        <time>2015-09-30T06:57:44Z</time>
      </trkpt>
      <trkpt lat="44.96803" lon="6.66163">
        <ele>1575.87</ele>
        <time>2015-09-30T06:57:51Z</time>
      </trkpt>
      <trkpt lat="44.96795" lon="6.66169">
        <ele>1576.69</ele>
        <time>2015-09-30T06:58:00Z</time>
      </trkpt>
      <trkpt lat="44.96789" lon="6.66172">
        <ele>1577.17</ele>
        <time>2015-09-30T06:58:05Z</time>
      </trkpt>
      <trkpt lat="44.96788" lon="6.66174">
        <ele>1577.42</ele>
        <time>2015-09-30T06:58:07Z</time>
      </trkpt>
      <trkpt lat="44.96781" lon="6.66181">
        <ele>1578.95</ele>
        <time>2015-09-30T06:58:16Z</time>
      </trkpt>
      <trkpt lat="44.96775" lon="6.66188">
        <ele>1579.71</ele>
        <time>2015-09-30T06:58:23Z</time>
      </trkpt>
      <trkpt lat="44.96768" lon="6.66193">
        <ele>1580.9</ele>
        <time>2015-09-30T06:58:31Z</time>
      </trkpt>
      <trkpt lat="44.96758" lon="6.66196">
        <ele>1582.8</ele>
        <time>2015-09-30T06:58:42Z</time>
      </trkpt>
      <trkpt lat="44.9675" lon="6.66198">
        <ele>1583.81</ele>
        <time>2015-09-30T06:58:51Z</time>
      </trkpt>
      <trkpt lat="44.96748" lon="6.66198">
        <ele>1584.02</ele>
        <time>2015-09-30T06:58:53Z</time>
      </trkpt>
      <trkpt lat="44.96743" lon="6.66202">
        <ele>1584.92</ele>
        <time>2015-09-30T06:58:59Z</time>
      </trkpt>
      <trkpt lat="44.96735" lon="6.66206">
        <ele>1586.43</ele>
        <time>2015-09-30T06:59:08Z</time>
      </trkpt>
      <trkpt lat="44.96728" lon="6.66212">
        <ele>1588.17</ele>
        <time>2015-09-30T06:59:16Z</time>
      </trkpt>
      <trkpt lat="44.96722" lon="6.66219">
        <ele>1589.56</ele>
        <time>2015-09-30T06:59:23Z</time>
      </trkpt>
      <trkpt lat="44.9672" lon="6.66223">
        <ele>1590.31</ele>
        <time>2015-09-30T06:59:27Z</time>
      </trkpt>
      <trkpt lat="44.96719" lon="6.66224">
        <ele>1590.69</ele>
        <time>2015-09-30T06:59:29Z</time>
      </trkpt>
      <trkpt lat="44.96715" lon="6.66224">
        <ele>1591.35</ele>
        <time>2015-09-30T06:59:33Z</time>
      </trkpt>
      <trkpt lat="44.96705" lon="6.66229">
        <ele>1592.47</ele>
        <time>2015-09-30T06:59:42Z</time>
      </trkpt>
      <trkpt lat="44.96698" lon="6.66235">
        <ele>1593.56</ele>
        <time>2015-09-30T06:59:49Z</time>
      </trkpt>
      <trkpt lat="44.9669" lon="6.66239">
        <ele>1595.19</ele>
        <time>2015-09-30T06:59:59Z</time>
      </trkpt>
      <trkpt lat="44.96685" lon="6.66235">
        <ele>1596.55</ele>
        <time>2015-09-30T07:00:07Z</time>
      </trkpt>
      <trkpt lat="44.96685" lon="6.66227">
        <ele>1597</ele>
        <time>2015-09-30T07:00:12Z</time>
      </trkpt>
      <trkpt lat="44.96689" lon="6.66218">
        <ele>1597.58</ele>
        <time>2015-09-30T07:00:20Z</time>
      </trkpt>
      <trkpt lat="44.96694" lon="6.66213">
        <ele>1598.04</ele>
        <time>2015-09-30T07:00:27Z</time>
      </trkpt>
      <trkpt lat="44.96702" lon="6.66209">
        <ele>1598.57</ele>
        <time>2015-09-30T07:00:35Z</time>
      </trkpt>
      <trkpt lat="44.96705" lon="6.66209">
        <ele>1598.87</ele>
        <time>2015-09-30T07:00:38Z</time>
      </trkpt>
      <trkpt lat="44.96709" lon="6.66201">
        <ele>1599.49</ele>
        <time>2015-09-30T07:00:45Z</time>
      </trkpt>
      <trkpt lat="44.96713" lon="6.66197">
        <ele>1600</ele>
        <time>2015-09-30T07:00:50Z</time>
      </trkpt>
      <trkpt lat="44.96717" lon="6.66186">
        <ele>1601.01</ele>
        <time>2015-09-30T07:00:59Z</time>
      </trkpt>
      <trkpt lat="44.96721" lon="6.66175">
        <ele>1601.91</ele>
        <time>2015-09-30T07:01:07Z</time>
      </trkpt>
      <trkpt lat="44.96727" lon="6.66165">
        <ele>1602.94</ele>
        <time>2015-09-30T07:01:16Z</time>
      </trkpt>
      <trkpt lat="44.96734" lon="6.6616">
        <ele>1604.01</ele>
        <time>2015-09-30T07:01:25Z</time>
      </trkpt>
      <trkpt lat="44.96735" lon="6.66159">
        <ele>1604.08</ele>
        <time>2015-09-30T07:01:26Z</time>
      </trkpt>
      <trkpt lat="44.96739" lon="6.66156">
        <ele>1604.34</ele>
        <time>2015-09-30T07:01:31Z</time>
      </trkpt>
      <trkpt lat="44.96742" lon="6.66156">
        <ele>1604.58</ele>
        <time>2015-09-30T07:01:34Z</time>
      </trkpt>
      <trkpt lat="44.96749" lon="6.66147">
        <ele>1605.96</ele>
        <time>2015-09-30T07:01:42Z</time>
      </trkpt>
      <trkpt lat="44.96751" lon="6.66139">
        <ele>1606.54</ele>
        <time>2015-09-30T07:01:47Z</time>
      </trkpt>
      <trkpt lat="44.96752" lon="6.66128">
        <ele>1607.44</ele>
        <time>2015-09-30T07:01:53Z</time>
      </trkpt>
      <trkpt lat="44.96755" lon="6.66114">
        <ele>1609.02</ele>
        <time>2015-09-30T07:02:02Z</time>
      </trkpt>
      <trkpt lat="44.96756" lon="6.66099">
        <ele>1610.32</ele>
        <time>2015-09-30T07:02:12Z</time>
      </trkpt>
      <trkpt lat="44.96758" lon="6.66088">
        <ele>1611.33</ele>
        <time>2015-09-30T07:02:20Z</time>
      </trkpt>
      <trkpt lat="44.96761" lon="6.66081">
        <ele>1612.03</ele>
        <time>2015-09-30T07:02:26Z</time>
      </trkpt>
      <trkpt lat="44.96764" lon="6.66077">
        <ele>1612.39</ele>
        <time>2015-09-30T07:02:29Z</time>
      </trkpt>
      <trkpt lat="44.9677" lon="6.66067">
        <ele>1614.04</ele>
        <time>2015-09-30T07:02:39Z</time>
      </trkpt>
      <trkpt lat="44.96769" lon="6.66064">
        <ele>1614.38</ele>
        <time>2015-09-30T07:02:41Z</time>
      </trkpt>
      <trkpt lat="44.96762" lon="6.66057">
        <ele>1615.4</ele>
        <time>2015-09-30T07:02:49Z</time>
      </trkpt>
      <trkpt lat="44.96754" lon="6.66057">
        <ele>1616.44</ele>
        <time>2015-09-30T07:02:56Z</time>
      </trkpt>
      <trkpt lat="44.96744" lon="6.66064">
        <ele>1617.28</ele>
        <time>2015-09-30T07:03:05Z</time>
      </trkpt>
      <trkpt lat="44.96735" lon="6.66068">
        <ele>1618.39</ele>
        <time>2015-09-30T07:03:13Z</time>
      </trkpt>
      <trkpt lat="44.96724" lon="6.66069">
        <ele>1619.54</ele>
        <time>2015-09-30T07:03:22Z</time>
      </trkpt>
      <trkpt lat="44.96714" lon="6.66074">
        <ele>1620.3</ele>
        <time>2015-09-30T07:03:31Z</time>
      </trkpt>
      <trkpt lat="44.96705" lon="6.66079">
        <ele>1621.36</ele>
        <time>2015-09-30T07:03:40Z</time>
      </trkpt>
      <trkpt lat="44.96698" lon="6.66088">
        <ele>1622.73</ele>
        <time>2015-09-30T07:03:47Z</time>
      </trkpt>
      <trkpt lat="44.96694" lon="6.66105">
        <ele>1624.32</ele>
        <time>2015-09-30T07:03:57Z</time>
      </trkpt>
      <trkpt lat="44.96697" lon="6.66117">
        <ele>1625.35</ele>
        <time>2015-09-30T07:04:04Z</time>
      </trkpt>
      <trkpt lat="44.96696" lon="6.66122">
        <ele>1625.83</ele>
        <time>2015-09-30T07:04:07Z</time>
      </trkpt>
      <trkpt lat="44.96691" lon="6.66136">
        <ele>1627.19</ele>
        <time>2015-09-30T07:04:17Z</time>
      </trkpt>
      <trkpt lat="44.9669" lon="6.66138">
        <ele>1627.24</ele>
        <time>2015-09-30T07:04:18Z</time>
      </trkpt>
      <trkpt lat="44.96685" lon="6.66143">
        <ele>1627.49</ele>
        <time>2015-09-30T07:04:23Z</time>
      </trkpt>
      <trkpt lat="44.96676" lon="6.66151">
        <ele>1628.55</ele>
        <time>2015-09-30T07:04:32Z</time>
      </trkpt>
      <trkpt lat="44.9667" lon="6.66155">
        <ele>1629.3</ele>
        <time>2015-09-30T07:04:39Z</time>
      </trkpt>
      <trkpt lat="44.96665" lon="6.66149">
        <ele>1629.96</ele>
        <time>2015-09-30T07:04:46Z</time>
      </trkpt>
      <trkpt lat="44.96661" lon="6.66139">
        <ele>1630.69</ele>
        <time>2015-09-30T07:04:54Z</time>
      </trkpt>
      <trkpt lat="44.96662" lon="6.66131">
        <ele>1631.23</ele>
        <time>2015-09-30T07:05:00Z</time>
      </trkpt>
      <trkpt lat="44.96663" lon="6.66127">
        <ele>1631.44</ele>
        <time>2015-09-30T07:05:03Z</time>
      </trkpt>
      <trkpt lat="44.96665" lon="6.66123">
        <ele>1631.72</ele>
        <time>2015-09-30T07:05:06Z</time>
      </trkpt>
      <trkpt lat="44.96668" lon="6.66108">
        <ele>1633.01</ele>
        <time>2015-09-30T07:05:15Z</time>
      </trkpt>
      <trkpt lat="44.96668" lon="6.66103">
        <ele>1633.4</ele>
        <time>2015-09-30T07:05:18Z</time>
      </trkpt>
      <trkpt lat="44.96671" lon="6.66088">
        <ele>1634.46</ele>
        <time>2015-09-30T07:05:27Z</time>
      </trkpt>
      <trkpt lat="44.96675" lon="6.66072">
        <ele>1635.22</ele>
        <time>2015-09-30T07:05:35Z</time>
      </trkpt>
      <trkpt lat="44.96677" lon="6.66059">
        <ele>1635.96</ele>
        <time>2015-09-30T07:05:43Z</time>
      </trkpt>
      <trkpt lat="44.96678" lon="6.66053">
        <ele>1636.22</ele>
        <time>2015-09-30T07:05:46Z</time>
      </trkpt>
      <trkpt lat="44.96686" lon="6.66044">
        <ele>1636.97</ele>
        <time>2015-09-30T07:05:53Z</time>
      </trkpt>
      <trkpt lat="44.96693" lon="6.66034">
        <ele>1637.7</ele>
        <time>2015-09-30T07:06:00Z</time>
      </trkpt>
      <trkpt lat="44.967" lon="6.66027">
        <ele>1638.57</ele>
        <time>2015-09-30T07:06:08Z</time>
      </trkpt>
      <trkpt lat="44.96706" lon="6.66021">
        <ele>1639.06</ele>
        <time>2015-09-30T07:06:16Z</time>
      </trkpt>
      <trkpt lat="44.96707" lon="6.66019">
        <ele>1639.52</ele>
        <time>2015-09-30T07:06:27Z</time>
      </trkpt>
      <trkpt lat="44.96702" lon="6.66019">
        <ele>1639.53</ele>
        <time>2015-09-30T07:06:48Z</time>
      </trkpt>
      <trkpt lat="44.967" lon="6.66021">
        <ele>1639.37</ele>
        <time>2015-09-30T07:07:10Z</time>
      </trkpt>
      <trkpt lat="44.96699" lon="6.66025">
        <ele>1639.02</ele>
        <time>2015-09-30T07:07:28Z</time>
      </trkpt>
      <trkpt lat="44.967" lon="6.66028">
        <ele>1639.14</ele>
        <time>2015-09-30T07:07:39Z</time>
      </trkpt>
      <trkpt lat="44.96702" lon="6.66024">
        <ele>1639.71</ele>
        <time>2015-09-30T07:07:48Z</time>
      </trkpt>
      <trkpt lat="44.96706" lon="6.66024">
        <ele>1640.24</ele>
        <time>2015-09-30T07:08:00Z</time>
      </trkpt>
      <trkpt lat="44.9671" lon="6.66028">
        <ele>1639.97</ele>
        <time>2015-09-30T07:08:14Z</time>
      </trkpt>
      <trkpt lat="44.96713" lon="6.66023">
        <ele>1639.93</ele>
        <time>2015-09-30T07:08:22Z</time>
      </trkpt>
      <trkpt lat="44.96715" lon="6.6602">
        <ele>1640.39</ele>
        <time>2015-09-30T07:08:30Z</time>
      </trkpt>
      <trkpt lat="44.9672" lon="6.6602">
        <ele>1640.95</ele>
        <time>2015-09-30T07:08:44Z</time>
      </trkpt>
      <trkpt lat="44.96724" lon="6.66012">
        <ele>1641.69</ele>
        <time>2015-09-30T07:08:53Z</time>
      </trkpt>
      <trkpt lat="44.96733" lon="6.66008">
        <ele>1642.79</ele>
        <time>2015-09-30T07:09:05Z</time>
      </trkpt>
      <trkpt lat="44.96736" lon="6.66006">
        <ele>1643.23</ele>
        <time>2015-09-30T07:09:09Z</time>
      </trkpt>
      <trkpt lat="44.96746" lon="6.65998">
        <ele>1644.45</ele>
        <time>2015-09-30T07:09:20Z</time>
      </trkpt>
      <trkpt lat="44.96752" lon="6.65991">
        <ele>1645.91</ele>
        <time>2015-09-30T07:09:29Z</time>
      </trkpt>
      <trkpt lat="44.96758" lon="6.65983">
        <ele>1646.93</ele>
        <time>2015-09-30T07:09:37Z</time>
      </trkpt>
      <trkpt lat="44.96766" lon="6.65972">
        <ele>1648.24</ele>
        <time>2015-09-30T07:09:47Z</time>
      </trkpt>
      <trkpt lat="44.96769" lon="6.65966">
        <ele>1649.05</ele>
        <time>2015-09-30T07:09:51Z</time>
      </trkpt>
      <trkpt lat="44.96772" lon="6.65956">
        <ele>1649.61</ele>
        <time>2015-09-30T07:09:57Z</time>
      </trkpt>
      <trkpt lat="44.96776" lon="6.65948">
        <ele>1650.27</ele>
        <time>2015-09-30T07:10:02Z</time>
      </trkpt>
      <trkpt lat="44.9678" lon="6.65934">
        <ele>1651.35</ele>
        <time>2015-09-30T07:10:10Z</time>
      </trkpt>
      <trkpt lat="44.96783" lon="6.65924">
        <ele>1652.23</ele>
        <time>2015-09-30T07:10:16Z</time>
      </trkpt>
      <trkpt lat="44.96785" lon="6.65919">
        <ele>1652.52</ele>
        <time>2015-09-30T07:10:19Z</time>
      </trkpt>
      <trkpt lat="44.96788" lon="6.65905">
        <ele>1653.56</ele>
        <time>2015-09-30T07:10:28Z</time>
      </trkpt>
      <trkpt lat="44.96791" lon="6.659">
        <ele>1654.54</ele>
        <time>2015-09-30T07:10:32Z</time>
      </trkpt>
      <trkpt lat="44.96791" lon="6.65888">
        <ele>1655.21</ele>
        <time>2015-09-30T07:10:39Z</time>
      </trkpt>
      <trkpt lat="44.96792" lon="6.65882">
        <ele>1655.71</ele>
        <time>2015-09-30T07:10:43Z</time>
      </trkpt>
      <trkpt lat="44.96787" lon="6.65868">
        <ele>1656.85</ele>
        <time>2015-09-30T07:10:52Z</time>
      </trkpt>
      <trkpt lat="44.96786" lon="6.65867">
        <ele>1656.95</ele>
        <time>2015-09-30T07:10:53Z</time>
      </trkpt>
      <trkpt lat="44.96781" lon="6.65852">
        <ele>1658.15</ele>
        <time>2015-09-30T07:11:03Z</time>
      </trkpt>
      <trkpt lat="44.96779" lon="6.65832">
        <ele>1659.81</ele>
        <time>2015-09-30T07:11:13Z</time>
      </trkpt>
      <trkpt lat="44.96774" lon="6.6582">
        <ele>1660.81</ele>
        <time>2015-09-30T07:11:21Z</time>
      </trkpt>
      <trkpt lat="44.9677" lon="6.65807">
        <ele>1661.92</ele>
        <time>2015-09-30T07:11:29Z</time>
      </trkpt>
      <trkpt lat="44.96761" lon="6.65799">
        <ele>1663.56</ele>
        <time>2015-09-30T07:11:38Z</time>
      </trkpt>
      <trkpt lat="44.96758" lon="6.65802">
        <ele>1664.3</ele>
        <time>2015-09-30T07:11:42Z</time>
      </trkpt>
      <trkpt lat="44.96755" lon="6.65805">
        <ele>1664.77</ele>
        <time>2015-09-30T07:11:45Z</time>
      </trkpt>
      <trkpt lat="44.96754" lon="6.65816">
        <ele>1666.41</ele>
        <time>2015-09-30T07:11:53Z</time>
      </trkpt>
      <trkpt lat="44.96754" lon="6.65835">
        <ele>1667.92</ele>
        <time>2015-09-30T07:12:04Z</time>
      </trkpt>
      <trkpt lat="44.96753" lon="6.65848">
        <ele>1669.18</ele>
        <time>2015-09-30T07:12:12Z</time>
      </trkpt>
      <trkpt lat="44.96753" lon="6.6585">
        <ele>1669.36</ele>
        <time>2015-09-30T07:12:13Z</time>
      </trkpt>
      <trkpt lat="44.96748" lon="6.65863">
        <ele>1670.92</ele>
        <time>2015-09-30T07:12:22Z</time>
      </trkpt>
      <trkpt lat="44.96744" lon="6.65869">
        <ele>1671.85</ele>
        <time>2015-09-30T07:12:28Z</time>
      </trkpt>
      <trkpt lat="44.9674" lon="6.6588">
        <ele>1672.89</ele>
        <time>2015-09-30T07:12:36Z</time>
      </trkpt>
      <trkpt lat="44.96739" lon="6.65881">
        <ele>1673.03</ele>
        <time>2015-09-30T07:12:37Z</time>
      </trkpt>
      <trkpt lat="44.9673" lon="6.6589">
        <ele>1674.74</ele>
        <time>2015-09-30T07:12:47Z</time>
      </trkpt>
      <trkpt lat="44.9672" lon="6.65894">
        <ele>1676.15</ele>
        <time>2015-09-30T07:12:56Z</time>
      </trkpt>
      <trkpt lat="44.9671" lon="6.65901">
        <ele>1677.11</ele>
        <time>2015-09-30T07:13:05Z</time>
      </trkpt>
      <trkpt lat="44.96701" lon="6.65908">
        <ele>1678.3</ele>
        <time>2015-09-30T07:13:14Z</time>
      </trkpt>
      <trkpt lat="44.96693" lon="6.65915">
        <ele>1679.36</ele>
        <time>2015-09-30T07:13:22Z</time>
      </trkpt>
      <trkpt lat="44.96691" lon="6.65917">
        <ele>1679.68</ele>
        <time>2015-09-30T07:13:24Z</time>
      </trkpt>
      <trkpt lat="44.96689" lon="6.65921">
        <ele>1680.22</ele>
        <time>2015-09-30T07:13:27Z</time>
      </trkpt>
      <trkpt lat="44.96682" lon="6.65929">
        <ele>1680.98</ele>
        <time>2015-09-30T07:13:34Z</time>
      </trkpt>
      <trkpt lat="44.96673" lon="6.6594">
        <ele>1681.7</ele>
        <time>2015-09-30T07:13:42Z</time>
      </trkpt>
      <trkpt lat="44.96664" lon="6.65948">
        <ele>1682.75</ele>
        <time>2015-09-30T07:13:50Z</time>
      </trkpt>
      <trkpt lat="44.96654" lon="6.65944">
        <ele>1684.07</ele>
        <time>2015-09-30T07:13:59Z</time>
      </trkpt>
      <trkpt lat="44.96646" lon="6.65931">
        <ele>1685.07</ele>
        <time>2015-09-30T07:14:08Z</time>
      </trkpt>
      <trkpt lat="44.9664" lon="6.65922">
        <ele>1686.21</ele>
        <time>2015-09-30T07:14:16Z</time>
      </trkpt>
      <trkpt lat="44.96639" lon="6.6592">
        <ele>1686.43</ele>
        <time>2015-09-30T07:14:18Z</time>
      </trkpt>
      <trkpt lat="44.96633" lon="6.65917">
        <ele>1687.51</ele>
        <time>2015-09-30T07:14:23Z</time>
      </trkpt>
      <trkpt lat="44.96631" lon="6.65917">
        <ele>1687.82</ele>
        <time>2015-09-30T07:14:25Z</time>
      </trkpt>
      <trkpt lat="44.96628" lon="6.65921">
        <ele>1688.52</ele>
        <time>2015-09-30T07:14:29Z</time>
      </trkpt>
      <trkpt lat="44.96628" lon="6.65934">
        <ele>1689.52</ele>
        <time>2015-09-30T07:14:37Z</time>
      </trkpt>
      <trkpt lat="44.96631" lon="6.65941">
        <ele>1690.18</ele>
        <time>2015-09-30T07:14:43Z</time>
      </trkpt>
      <trkpt lat="44.96633" lon="6.65944">
        <ele>1690.69</ele>
        <time>2015-09-30T07:14:46Z</time>
      </trkpt>
      <trkpt lat="44.96638" lon="6.6595">
        <ele>1691.48</ele>
        <time>2015-09-30T07:14:53Z</time>
      </trkpt>
      <trkpt lat="44.96638" lon="6.65951">
        <ele>1691.6</ele>
        <time>2015-09-30T07:14:54Z</time>
      </trkpt>
      <trkpt lat="44.96631" lon="6.65966">
        <ele>1692.24</ele>
        <time>2015-09-30T07:15:04Z</time>
      </trkpt>
      <trkpt lat="44.96625" lon="6.65969">
        <ele>1692.63</ele>
        <time>2015-09-30T07:15:09Z</time>
      </trkpt>
      <trkpt lat="44.96622" lon="6.65971">
        <ele>1693.25</ele>
        <time>2015-09-30T07:15:12Z</time>
      </trkpt>
      <trkpt lat="44.96615" lon="6.65966">
        <ele>1694.22</ele>
        <time>2015-09-30T07:15:18Z</time>
      </trkpt>
      <trkpt lat="44.9661" lon="6.65954">
        <ele>1695.54</ele>
        <time>2015-09-30T07:15:27Z</time>
      </trkpt>
      <trkpt lat="44.96607" lon="6.65938">
        <ele>1696.7</ele>
        <time>2015-09-30T07:15:36Z</time>
      </trkpt>
      <trkpt lat="44.96605" lon="6.65923">
        <ele>1697.41</ele>
        <time>2015-09-30T07:15:44Z</time>
      </trkpt>
      <trkpt lat="44.96604" lon="6.65908">
        <ele>1697.98</ele>
        <time>2015-09-30T07:15:53Z</time>
      </trkpt>
      <trkpt lat="44.96602" lon="6.65895">
        <ele>1699.52</ele>
        <time>2015-09-30T07:16:01Z</time>
      </trkpt>
      <trkpt lat="44.96602" lon="6.65882">
        <ele>1700.58</ele>
        <time>2015-09-30T07:16:09Z</time>
      </trkpt>
      <trkpt lat="44.96606" lon="6.65869">
        <ele>1701.65</ele>
        <time>2015-09-30T07:16:17Z</time>
      </trkpt>
      <trkpt lat="44.9661" lon="6.65847">
        <ele>1703.42</ele>
        <time>2015-09-30T07:16:30Z</time>
      </trkpt>
      <trkpt lat="44.96611" lon="6.65835">
        <ele>1704.26</ele>
        <time>2015-09-30T07:16:37Z</time>
      </trkpt>
      <trkpt lat="44.96611" lon="6.65822">
        <ele>1705.56</ele>
        <time>2015-09-30T07:16:45Z</time>
      </trkpt>
      <trkpt lat="44.96611" lon="6.65812">
        <ele>1707</ele>
        <time>2015-09-30T07:16:51Z</time>
      </trkpt>
      <trkpt lat="44.96607" lon="6.65802">
        <ele>1708.15</ele>
        <time>2015-09-30T07:16:59Z</time>
      </trkpt>
      <trkpt lat="44.96602" lon="6.65798">
        <ele>1708.92</ele>
        <time>2015-09-30T07:17:04Z</time>
      </trkpt>
      <trkpt lat="44.96594" lon="6.65785">
        <ele>1711.63</ele>
        <time>2015-09-30T07:17:15Z</time>
      </trkpt>
      <trkpt lat="44.96589" lon="6.65773">
        <ele>1713.08</ele>
        <time>2015-09-30T07:17:24Z</time>
      </trkpt>
      <trkpt lat="44.96587" lon="6.65767">
        <ele>1713.29</ele>
        <time>2015-09-30T07:17:27Z</time>
      </trkpt>
      <trkpt lat="44.9659" lon="6.65749">
        <ele>1714.13</ele>
        <time>2015-09-30T07:17:36Z</time>
      </trkpt>
      <trkpt lat="44.96599" lon="6.6574">
        <ele>1714.84</ele>
        <time>2015-09-30T07:17:44Z</time>
      </trkpt>
      <trkpt lat="44.96609" lon="6.65735">
        <ele>1715.97</ele>
        <time>2015-09-30T07:17:53Z</time>
      </trkpt>
      <trkpt lat="44.96619" lon="6.65734">
        <ele>1716.95</ele>
        <time>2015-09-30T07:18:01Z</time>
      </trkpt>
      <trkpt lat="44.9663" lon="6.65731">
        <ele>1718.24</ele>
        <time>2015-09-30T07:18:10Z</time>
      </trkpt>
      <trkpt lat="44.96635" lon="6.65729">
        <ele>1718.7</ele>
        <time>2015-09-30T07:18:14Z</time>
      </trkpt>
      <trkpt lat="44.96646" lon="6.65725">
        <ele>1720.46</ele>
        <time>2015-09-30T07:18:23Z</time>
      </trkpt>
      <trkpt lat="44.96655" lon="6.65722">
        <ele>1721.85</ele>
        <time>2015-09-30T07:18:31Z</time>
      </trkpt>
      <trkpt lat="44.96664" lon="6.65718">
        <ele>1723.12</ele>
        <time>2015-09-30T07:18:39Z</time>
      </trkpt>
      <trkpt lat="44.9667" lon="6.65716">
        <ele>1723.93</ele>
        <time>2015-09-30T07:18:45Z</time>
      </trkpt>
      <trkpt lat="44.96676" lon="6.65711">
        <ele>1725.12</ele>
        <time>2015-09-30T07:18:53Z</time>
      </trkpt>
      <trkpt lat="44.96683" lon="6.65698">
        <ele>1726.64</ele>
        <time>2015-09-30T07:19:02Z</time>
      </trkpt>
      <trkpt lat="44.96691" lon="6.65688">
        <ele>1727.79</ele>
        <time>2015-09-30T07:19:10Z</time>
      </trkpt>
      <trkpt lat="44.967" lon="6.65679">
        <ele>1729.12</ele>
        <time>2015-09-30T07:19:19Z</time>
      </trkpt>
      <trkpt lat="44.96706" lon="6.65674">
        <ele>1729.87</ele>
        <time>2015-09-30T07:19:25Z</time>
      </trkpt>
      <trkpt lat="44.96712" lon="6.6566">
        <ele>1730.75</ele>
        <time>2015-09-30T07:19:34Z</time>
      </trkpt>
      <trkpt lat="44.96715" lon="6.65656">
        <ele>1731.14</ele>
        <time>2015-09-30T07:19:37Z</time>
      </trkpt>
      <trkpt lat="44.96717" lon="6.65647">
        <ele>1731.57</ele>
        <time>2015-09-30T07:19:42Z</time>
      </trkpt>
      <trkpt lat="44.96719" lon="6.65635">
        <ele>1732.73</ele>
        <time>2015-09-30T07:19:50Z</time>
      </trkpt>
      <trkpt lat="44.96717" lon="6.65623">
        <ele>1734.11</ele>
        <time>2015-09-30T07:19:58Z</time>
      </trkpt>
      <trkpt lat="44.96716" lon="6.6562">
        <ele>1734.46</ele>
        <time>2015-09-30T07:20:00Z</time>
      </trkpt>
      <trkpt lat="44.96716" lon="6.65614">
        <ele>1735.34</ele>
        <time>2015-09-30T07:20:04Z</time>
      </trkpt>
      <trkpt lat="44.96713" lon="6.656">
        <ele>1737.02</ele>
        <time>2015-09-30T07:20:14Z</time>
      </trkpt>
      <trkpt lat="44.96712" lon="6.65599">
        <ele>1737.22</ele>
        <time>2015-09-30T07:20:15Z</time>
      </trkpt>
      <trkpt lat="44.96713" lon="6.65594">
        <ele>1738</ele>
        <time>2015-09-30T07:20:19Z</time>
      </trkpt>
      <trkpt lat="44.96711" lon="6.65581">
        <ele>1739.94</ele>
        <time>2015-09-30T07:20:28Z</time>
      </trkpt>
      <trkpt lat="44.96713" lon="6.65571">
        <ele>1741.32</ele>
        <time>2015-09-30T07:20:35Z</time>
      </trkpt>
      <trkpt lat="44.96713" lon="6.65566">
        <ele>1741.95</ele>
        <time>2015-09-30T07:20:39Z</time>
      </trkpt>
      <trkpt lat="44.96715" lon="6.65562">
        <ele>1742.5</ele>
        <time>2015-09-30T07:20:42Z</time>
      </trkpt>
      <trkpt lat="44.96714" lon="6.65545">
        <ele>1744.45</ele>
        <time>2015-09-30T07:20:54Z</time>
      </trkpt>
      <trkpt lat="44.96711" lon="6.65532">
        <ele>1745.65</ele>
        <time>2015-09-30T07:21:03Z</time>
      </trkpt>
      <trkpt lat="44.96712" lon="6.65519">
        <ele>1746.93</ele>
        <time>2015-09-30T07:21:12Z</time>
      </trkpt>
      <trkpt lat="44.96713" lon="6.65513">
        <ele>1747.63</ele>
        <time>2015-09-30T07:21:16Z</time>
      </trkpt>
      <trkpt lat="44.96714" lon="6.65498">
        <ele>1749.1</ele>
        <time>2015-09-30T07:21:26Z</time>
      </trkpt>
      <trkpt lat="44.96713" lon="6.65497">
        <ele>1749.25</ele>
        <time>2015-09-30T07:21:27Z</time>
      </trkpt>
      <trkpt lat="44.9671" lon="6.65495">
        <ele>1749.66</ele>
        <time>2015-09-30T07:21:30Z</time>
      </trkpt>
      <trkpt lat="44.96708" lon="6.65496">
        <ele>1750.03</ele>
        <time>2015-09-30T07:21:32Z</time>
      </trkpt>
      <trkpt lat="44.96704" lon="6.65505">
        <ele>1750.94</ele>
        <time>2015-09-30T07:21:40Z</time>
      </trkpt>
      <trkpt lat="44.96702" lon="6.65511">
        <ele>1751.28</ele>
        <time>2015-09-30T07:21:45Z</time>
      </trkpt>
      <trkpt lat="44.96703" lon="6.65516">
        <ele>1751.6</ele>
        <time>2015-09-30T07:21:48Z</time>
      </trkpt>
      <trkpt lat="44.96701" lon="6.65525">
        <ele>1752.33</ele>
        <time>2015-09-30T07:21:54Z</time>
      </trkpt>
      <trkpt lat="44.967" lon="6.65539">
        <ele>1753.38</ele>
        <time>2015-09-30T07:22:03Z</time>
      </trkpt>
      <trkpt lat="44.96698" lon="6.65553">
        <ele>1754.42</ele>
        <time>2015-09-30T07:22:12Z</time>
      </trkpt>
      <trkpt lat="44.96694" lon="6.65565">
        <ele>1755</ele>
        <time>2015-09-30T07:22:19Z</time>
      </trkpt>
      <trkpt lat="44.96689" lon="6.65579">
        <ele>1755.91</ele>
        <time>2015-09-30T07:22:28Z</time>
      </trkpt>
      <trkpt lat="44.96686" lon="6.65586">
        <ele>1756.63</ele>
        <time>2015-09-30T07:22:33Z</time>
      </trkpt>
      <trkpt lat="44.9668" lon="6.65597">
        <ele>1757.63</ele>
        <time>2015-09-30T07:22:43Z</time>
      </trkpt>
      <trkpt lat="44.96671" lon="6.65601">
        <ele>1758.91</ele>
        <time>2015-09-30T07:22:52Z</time>
      </trkpt>
      <trkpt lat="44.96663" lon="6.65601">
        <ele>1759.88</ele>
        <time>2015-09-30T07:22:59Z</time>
      </trkpt>
      <trkpt lat="44.96656" lon="6.65607">
        <ele>1760.94</ele>
        <time>2015-09-30T07:23:08Z</time>
      </trkpt>
      <trkpt lat="44.9665" lon="6.65614">
        <ele>1762.01</ele>
        <time>2015-09-30T07:23:17Z</time>
      </trkpt>
      <trkpt lat="44.96647" lon="6.6562">
        <ele>1762.5</ele>
        <time>2015-09-30T07:23:22Z</time>
      </trkpt>
      <trkpt lat="44.96641" lon="6.6563">
        <ele>1763.52</ele>
        <time>2015-09-30T07:23:31Z</time>
      </trkpt>
      <trkpt lat="44.96631" lon="6.65635">
        <ele>1764</ele>
        <time>2015-09-30T07:23:37Z</time>
      </trkpt>
      <trkpt lat="44.96629" lon="6.65635">
        <ele>1764.06</ele>
        <time>2015-09-30T07:23:39Z</time>
      </trkpt>
      <trkpt lat="44.96624" lon="6.65635">
        <ele>1764.27</ele>
        <time>2015-09-30T07:23:44Z</time>
      </trkpt>
      <trkpt lat="44.96615" lon="6.65626">
        <ele>1764.84</ele>
        <time>2015-09-30T07:23:52Z</time>
      </trkpt>
      <trkpt lat="44.96616" lon="6.65615">
        <ele>1765.5</ele>
        <time>2015-09-30T07:24:01Z</time>
      </trkpt>
      <trkpt lat="44.96616" lon="6.65615">
        <ele>1765.59</ele>
        <time>2015-09-30T07:24:02Z</time>
      </trkpt>
      <trkpt lat="44.96623" lon="6.65611">
        <ele>1766.16</ele>
        <time>2015-09-30T07:24:10Z</time>
      </trkpt>
      <trkpt lat="44.9663" lon="6.65608">
        <ele>1766.5</ele>
        <time>2015-09-30T07:24:17Z</time>
      </trkpt>
      <trkpt lat="44.9664" lon="6.65601">
        <ele>1766.72</ele>
        <time>2015-09-30T07:24:26Z</time>
      </trkpt>
      <trkpt lat="44.96647" lon="6.65592">
        <ele>1767.06</ele>
        <time>2015-09-30T07:24:34Z</time>
      </trkpt>
      <trkpt lat="44.96652" lon="6.65579">
        <ele>1767.49</ele>
        <time>2015-09-30T07:24:42Z</time>
      </trkpt>
      <trkpt lat="44.96655" lon="6.65574">
        <ele>1767.96</ele>
        <time>2015-09-30T07:24:46Z</time>
      </trkpt>
      <trkpt lat="44.96657" lon="6.65569">
        <ele>1768.3</ele>
        <time>2015-09-30T07:24:49Z</time>
      </trkpt>
      <trkpt lat="44.96659" lon="6.65563">
        <ele>1768.86</ele>
        <time>2015-09-30T07:24:53Z</time>
      </trkpt>
      <trkpt lat="44.9666" lon="6.6556">
        <ele>1769.12</ele>
        <time>2015-09-30T07:24:55Z</time>
      </trkpt>
      <trkpt lat="44.96666" lon="6.6555">
        <ele>1769.96</ele>
        <time>2015-09-30T07:25:04Z</time>
      </trkpt>
      <trkpt lat="44.96667" lon="6.65549">
        <ele>1770.1</ele>
        <time>2015-09-30T07:25:05Z</time>
      </trkpt>
      <trkpt lat="44.96669" lon="6.65535">
        <ele>1771.28</ele>
        <time>2015-09-30T07:25:14Z</time>
      </trkpt>
      <trkpt lat="44.96667" lon="6.65521">
        <ele>1772.24</ele>
        <time>2015-09-30T07:25:23Z</time>
      </trkpt>
      <trkpt lat="44.96665" lon="6.65507">
        <ele>1773.3</ele>
        <time>2015-09-30T07:25:32Z</time>
      </trkpt>
      <trkpt lat="44.96664" lon="6.65504">
        <ele>1773.55</ele>
        <time>2015-09-30T07:25:34Z</time>
      </trkpt>
      <trkpt lat="44.96662" lon="6.65489">
        <ele>1775.17</ele>
        <time>2015-09-30T07:25:43Z</time>
      </trkpt>
      <trkpt lat="44.96655" lon="6.65477">
        <ele>1777.16</ele>
        <time>2015-09-30T07:25:53Z</time>
      </trkpt>
      <trkpt lat="44.96652" lon="6.65477">
        <ele>1777.69</ele>
        <time>2015-09-30T07:25:56Z</time>
      </trkpt>
      <trkpt lat="44.96648" lon="6.65481">
        <ele>1778.48</ele>
        <time>2015-09-30T07:26:01Z</time>
      </trkpt>
      <trkpt lat="44.96645" lon="6.65494">
        <ele>1779.69</ele>
        <time>2015-09-30T07:26:10Z</time>
      </trkpt>
      <trkpt lat="44.96642" lon="6.65506">
        <ele>1780.5</ele>
        <time>2015-09-30T07:26:18Z</time>
      </trkpt>
      <trkpt lat="44.9664" lon="6.6551">
        <ele>1780.88</ele>
        <time>2015-09-30T07:26:21Z</time>
      </trkpt>
      <trkpt lat="44.96634" lon="6.6552">
        <ele>1782.17</ele>
        <time>2015-09-30T07:26:29Z</time>
      </trkpt>
      <trkpt lat="44.96624" lon="6.65527">
        <ele>1783.11</ele>
        <time>2015-09-30T07:26:37Z</time>
      </trkpt>
      <trkpt lat="44.96622" lon="6.65528">
        <ele>1783.31</ele>
        <time>2015-09-30T07:26:39Z</time>
      </trkpt>
      <trkpt lat="44.96617" lon="6.65531">
        <ele>1783.66</ele>
        <time>2015-09-30T07:26:43Z</time>
      </trkpt>
      <trkpt lat="44.96608" lon="6.65541">
        <ele>1784.77</ele>
        <time>2015-09-30T07:26:52Z</time>
      </trkpt>
      <trkpt lat="44.966" lon="6.65549">
        <ele>1785.48</ele>
        <time>2015-09-30T07:27:00Z</time>
      </trkpt>
      <trkpt lat="44.96588" lon="6.65552">
        <ele>1786.42</ele>
        <time>2015-09-30T07:27:09Z</time>
      </trkpt>
      <trkpt lat="44.96586" lon="6.65551">
        <ele>1786.98</ele>
        <time>2015-09-30T07:27:15Z</time>
      </trkpt>
      <trkpt lat="44.96583" lon="6.65549">
        <ele>1787.38</ele>
        <time>2015-09-30T07:27:34Z</time>
      </trkpt>
      <trkpt lat="44.96583" lon="6.65542">
        <ele>1787.49</ele>
        <time>2015-09-30T07:27:38Z</time>
      </trkpt>
      <trkpt lat="44.96584" lon="6.65531">
        <ele>1787.61</ele>
        <time>2015-09-30T07:27:44Z</time>
      </trkpt>
      <trkpt lat="44.96593" lon="6.65516">
        <ele>1787.9</ele>
        <time>2015-09-30T07:27:53Z</time>
      </trkpt>
      <trkpt lat="44.96596" lon="6.65509">
        <ele>1788.4</ele>
        <time>2015-09-30T07:27:57Z</time>
      </trkpt>
      <trkpt lat="44.96599" lon="6.65503">
        <ele>1788.74</ele>
        <time>2015-09-30T07:28:01Z</time>
      </trkpt>
      <trkpt lat="44.96605" lon="6.65493">
        <ele>1789.3</ele>
        <time>2015-09-30T07:28:07Z</time>
      </trkpt>
      <trkpt lat="44.96608" lon="6.65487">
        <ele>1789.75</ele>
        <time>2015-09-30T07:28:11Z</time>
      </trkpt>
      <trkpt lat="44.96613" lon="6.65472">
        <ele>1790.88</ele>
        <time>2015-09-30T07:28:20Z</time>
      </trkpt>
      <trkpt lat="44.96614" lon="6.6547">
        <ele>1791</ele>
        <time>2015-09-30T07:28:21Z</time>
      </trkpt>
      <trkpt lat="44.96615" lon="6.65456">
        <ele>1792.36</ele>
        <time>2015-09-30T07:28:30Z</time>
      </trkpt>
      <trkpt lat="44.9662" lon="6.65441">
        <ele>1793.76</ele>
        <time>2015-09-30T07:28:39Z</time>
      </trkpt>
      <trkpt lat="44.96623" lon="6.65437">
        <ele>1794.18</ele>
        <time>2015-09-30T07:28:42Z</time>
      </trkpt>
      <trkpt lat="44.9663" lon="6.6543">
        <ele>1795.47</ele>
        <time>2015-09-30T07:28:50Z</time>
      </trkpt>
      <trkpt lat="44.96631" lon="6.6543">
        <ele>1795.63</ele>
        <time>2015-09-30T07:28:51Z</time>
      </trkpt>
      <trkpt lat="44.96636" lon="6.65428">
        <ele>1796.39</ele>
        <time>2015-09-30T07:28:55Z</time>
      </trkpt>
      <trkpt lat="44.96641" lon="6.65427">
        <ele>1796.96</ele>
        <time>2015-09-30T07:28:59Z</time>
      </trkpt>
      <trkpt lat="44.96651" lon="6.65427">
        <ele>1797.57</ele>
        <time>2015-09-30T07:29:07Z</time>
      </trkpt>
      <trkpt lat="44.96661" lon="6.65423">
        <ele>1798.61</ele>
        <time>2015-09-30T07:29:15Z</time>
      </trkpt>
      <trkpt lat="44.9667" lon="6.65415">
        <ele>1799.95</ele>
        <time>2015-09-30T07:29:23Z</time>
      </trkpt>
      <trkpt lat="44.9667" lon="6.65414">
        <ele>1800.09</ele>
        <time>2015-09-30T07:29:24Z</time>
      </trkpt>
      <trkpt lat="44.96675" lon="6.65402">
        <ele>1801.36</ele>
        <time>2015-09-30T07:29:32Z</time>
      </trkpt>
      <trkpt lat="44.96675" lon="6.65399">
        <ele>1801.61</ele>
        <time>2015-09-30T07:29:34Z</time>
      </trkpt>
      <trkpt lat="44.96671" lon="6.65392">
        <ele>1802.14</ele>
        <time>2015-09-30T07:29:39Z</time>
      </trkpt>
      <trkpt lat="44.96667" lon="6.65392">
        <ele>1802.93</ele>
        <time>2015-09-30T07:29:43Z</time>
      </trkpt>
      <trkpt lat="44.9666" lon="6.65397">
        <ele>1803.79</ele>
        <time>2015-09-30T07:29:50Z</time>
      </trkpt>
      <trkpt lat="44.96649" lon="6.65402">
        <ele>1804.73</ele>
        <time>2015-09-30T07:29:58Z</time>
      </trkpt>
      <trkpt lat="44.96648" lon="6.65402">
        <ele>1804.87</ele>
        <time>2015-09-30T07:29:59Z</time>
      </trkpt>
      <trkpt lat="44.96635" lon="6.65403">
        <ele>1806.06</ele>
        <time>2015-09-30T07:30:09Z</time>
      </trkpt>
      <trkpt lat="44.96625" lon="6.65403">
        <ele>1806.69</ele>
        <time>2015-09-30T07:30:16Z</time>
      </trkpt>
      <trkpt lat="44.96611" lon="6.65403">
        <ele>1807.03</ele>
        <time>2015-09-30T07:30:25Z</time>
      </trkpt>
      <trkpt lat="44.966" lon="6.65403">
        <ele>1807.7</ele>
        <time>2015-09-30T07:30:32Z</time>
      </trkpt>
      <trkpt lat="44.96589" lon="6.65412">
        <ele>1808.48</ele>
        <time>2015-09-30T07:30:41Z</time>
      </trkpt>
      <trkpt lat="44.96587" lon="6.65413">
        <ele>1808.74</ele>
        <time>2015-09-30T07:30:43Z</time>
      </trkpt>
      <trkpt lat="44.96583" lon="6.65421">
        <ele>1809.38</ele>
        <time>2015-09-30T07:30:48Z</time>
      </trkpt>
      <trkpt lat="44.96577" lon="6.65437">
        <ele>1811.29</ele>
        <time>2015-09-30T07:30:57Z</time>
      </trkpt>
      <trkpt lat="44.96574" lon="6.65437">
        <ele>1811.56</ele>
        <time>2015-09-30T07:30:59Z</time>
      </trkpt>
      <trkpt lat="44.96566" lon="6.65423">
        <ele>1812.65</ele>
        <time>2015-09-30T07:31:09Z</time>
      </trkpt>
      <trkpt lat="44.96569" lon="6.65407">
        <ele>1813.28</ele>
        <time>2015-09-30T07:31:17Z</time>
      </trkpt>
      <trkpt lat="44.96579" lon="6.65393">
        <ele>1814.04</ele>
        <time>2015-09-30T07:31:26Z</time>
      </trkpt>
      <trkpt lat="44.96588" lon="6.65387">
        <ele>1814.8</ele>
        <time>2015-09-30T07:31:34Z</time>
      </trkpt>
      <trkpt lat="44.96596" lon="6.65383">
        <ele>1815.87</ele>
        <time>2015-09-30T07:31:41Z</time>
      </trkpt>
      <trkpt lat="44.96608" lon="6.65377">
        <ele>1817.02</ele>
        <time>2015-09-30T07:31:49Z</time>
      </trkpt>
      <trkpt lat="44.96618" lon="6.65369">
        <ele>1818.02</ele>
        <time>2015-09-30T07:31:57Z</time>
      </trkpt>
      <trkpt lat="44.96621" lon="6.65367">
        <ele>1818.27</ele>
        <time>2015-09-30T07:31:59Z</time>
      </trkpt>
      <trkpt lat="44.96632" lon="6.6536">
        <ele>1819.71</ele>
        <time>2015-09-30T07:32:08Z</time>
      </trkpt>
      <trkpt lat="44.96633" lon="6.65359">
        <ele>1819.71</ele>
        <time>2015-09-30T07:32:09Z</time>
      </trkpt>
      <trkpt lat="44.96642" lon="6.6535">
        <ele>1821.22</ele>
        <time>2015-09-30T07:32:18Z</time>
      </trkpt>
      <trkpt lat="44.96644" lon="6.65348">
        <ele>1821.48</ele>
        <time>2015-09-30T07:32:20Z</time>
      </trkpt>
      <trkpt lat="44.96652" lon="6.65342">
        <ele>1822.19</ele>
        <time>2015-09-30T07:32:28Z</time>
      </trkpt>
      <trkpt lat="44.96658" lon="6.65338">
        <ele>1822.69</ele>
        <time>2015-09-30T07:32:33Z</time>
      </trkpt>
      <trkpt lat="44.96667" lon="6.65329">
        <ele>1823.92</ele>
        <time>2015-09-30T07:32:42Z</time>
      </trkpt>
      <trkpt lat="44.96671" lon="6.65319">
        <ele>1824.71</ele>
        <time>2015-09-30T07:32:49Z</time>
      </trkpt>
      <trkpt lat="44.96675" lon="6.65304">
        <ele>1825.99</ele>
        <time>2015-09-30T07:32:58Z</time>
      </trkpt>
      <trkpt lat="44.96676" lon="6.65291">
        <ele>1826.91</ele>
        <time>2015-09-30T07:33:05Z</time>
      </trkpt>
      <trkpt lat="44.96676" lon="6.65278">
        <ele>1827.67</ele>
        <time>2015-09-30T07:33:13Z</time>
      </trkpt>
      <trkpt lat="44.96676" lon="6.6527">
        <ele>1828.05</ele>
        <time>2015-09-30T07:33:18Z</time>
      </trkpt>
      <trkpt lat="44.96674" lon="6.6526">
        <ele>1829.05</ele>
        <time>2015-09-30T07:33:24Z</time>
      </trkpt>
      <trkpt lat="44.96674" lon="6.65251">
        <ele>1830.14</ele>
        <time>2015-09-30T07:33:29Z</time>
      </trkpt>
      <trkpt lat="44.96673" lon="6.65233">
        <ele>1831.19</ele>
        <time>2015-09-30T07:33:38Z</time>
      </trkpt>
      <trkpt lat="44.96672" lon="6.65223">
        <ele>1832.03</ele>
        <time>2015-09-30T07:33:43Z</time>
      </trkpt>
      <trkpt lat="44.96669" lon="6.6521">
        <ele>1832.72</ele>
        <time>2015-09-30T07:33:50Z</time>
      </trkpt>
      <trkpt lat="44.96664" lon="6.65209">
        <ele>1833.34</ele>
        <time>2015-09-30T07:33:55Z</time>
      </trkpt>
      <trkpt lat="44.9666" lon="6.65218">
        <ele>1834.5</ele>
        <time>2015-09-30T07:34:02Z</time>
      </trkpt>
      <trkpt lat="44.96659" lon="6.65231">
        <ele>1835.65</ele>
        <time>2015-09-30T07:34:09Z</time>
      </trkpt>
      <trkpt lat="44.9666" lon="6.65247">
        <ele>1836.77</ele>
        <time>2015-09-30T07:34:17Z</time>
      </trkpt>
      <trkpt lat="44.96659" lon="6.65265">
        <ele>1837.52</ele>
        <time>2015-09-30T07:34:27Z</time>
      </trkpt>
      <trkpt lat="44.96653" lon="6.65282">
        <ele>1838.32</ele>
        <time>2015-09-30T07:34:37Z</time>
      </trkpt>
      <trkpt lat="44.96646" lon="6.65291">
        <ele>1838.74</ele>
        <time>2015-09-30T07:34:44Z</time>
      </trkpt>
      <trkpt lat="44.96637" lon="6.65299">
        <ele>1839.9</ele>
        <time>2015-09-30T07:34:52Z</time>
      </trkpt>
      <trkpt lat="44.96626" lon="6.65307">
        <ele>1841.16</ele>
        <time>2015-09-30T07:35:02Z</time>
      </trkpt>
      <trkpt lat="44.96625" lon="6.65308">
        <ele>1841.27</ele>
        <time>2015-09-30T07:35:03Z</time>
      </trkpt>
      <trkpt lat="44.96618" lon="6.65309">
        <ele>1841.85</ele>
        <time>2015-09-30T07:35:08Z</time>
      </trkpt>
      <trkpt lat="44.96604" lon="6.6531">
        <ele>1843.09</ele>
        <time>2015-09-30T07:35:18Z</time>
      </trkpt>
      <trkpt lat="44.96592" lon="6.6531">
        <ele>1843.75</ele>
        <time>2015-09-30T07:35:26Z</time>
      </trkpt>
      <trkpt lat="44.96582" lon="6.65316">
        <ele>1844.9</ele>
        <time>2015-09-30T07:35:34Z</time>
      </trkpt>
      <trkpt lat="44.96581" lon="6.65317">
        <ele>1845.06</ele>
        <time>2015-09-30T07:35:35Z</time>
      </trkpt>
      <trkpt lat="44.96568" lon="6.65324">
        <ele>1846.85</ele>
        <time>2015-09-30T07:35:46Z</time>
      </trkpt>
      <trkpt lat="44.96556" lon="6.65326">
        <ele>1847.99</ele>
        <time>2015-09-30T07:35:56Z</time>
      </trkpt>
      <trkpt lat="44.96546" lon="6.65328">
        <ele>1848.85</ele>
        <time>2015-09-30T07:36:04Z</time>
      </trkpt>
      <trkpt lat="44.96533" lon="6.65336">
        <ele>1850.16</ele>
        <time>2015-09-30T07:36:14Z</time>
      </trkpt>
      <trkpt lat="44.9652" lon="6.65347">
        <ele>1851.44</ele>
        <time>2015-09-30T07:36:25Z</time>
      </trkpt>
      <trkpt lat="44.96514" lon="6.65357">
        <ele>1852.68</ele>
        <time>2015-09-30T07:36:33Z</time>
      </trkpt>
      <trkpt lat="44.96502" lon="6.65368">
        <ele>1853.6</ele>
        <time>2015-09-30T07:36:44Z</time>
      </trkpt>
      <trkpt lat="44.96494" lon="6.65376">
        <ele>1854.51</ele>
        <time>2015-09-30T07:36:51Z</time>
      </trkpt>
      <trkpt lat="44.96485" lon="6.65387">
        <ele>1855.47</ele>
        <time>2015-09-30T07:37:00Z</time>
      </trkpt>
      <trkpt lat="44.96479" lon="6.65401">
        <ele>1856.27</ele>
        <time>2015-09-30T07:37:08Z</time>
      </trkpt>
      <trkpt lat="44.96477" lon="6.65407">
        <ele>1856.53</ele>
        <time>2015-09-30T07:37:11Z</time>
      </trkpt>
      <trkpt lat="44.96473" lon="6.65412">
        <ele>1856.97</ele>
        <time>2015-09-30T07:37:15Z</time>
      </trkpt>
      <trkpt lat="44.96469" lon="6.65427">
        <ele>1858.18</ele>
        <time>2015-09-30T07:37:24Z</time>
      </trkpt>
      <trkpt lat="44.96466" lon="6.65439">
        <ele>1858.68</ele>
        <time>2015-09-30T07:37:30Z</time>
      </trkpt>
      <trkpt lat="44.96463" lon="6.65451">
        <ele>1859.45</ele>
        <time>2015-09-30T07:37:38Z</time>
      </trkpt>
      <trkpt lat="44.96463" lon="6.65454">
        <ele>1859.65</ele>
        <time>2015-09-30T07:37:40Z</time>
      </trkpt>
      <trkpt lat="44.96461" lon="6.6546">
        <ele>1860.1</ele>
        <time>2015-09-30T07:37:44Z</time>
      </trkpt>
      <trkpt lat="44.96463" lon="6.6547">
        <ele>1861.17</ele>
        <time>2015-09-30T07:37:50Z</time>
      </trkpt>
      <trkpt lat="44.96464" lon="6.65485">
        <ele>1862.26</ele>
        <time>2015-09-30T07:37:59Z</time>
      </trkpt>
      <trkpt lat="44.96466" lon="6.65492">
        <ele>1862.88</ele>
        <time>2015-09-30T07:38:03Z</time>
      </trkpt>
      <trkpt lat="44.96466" lon="6.65502">
        <ele>1863.97</ele>
        <time>2015-09-30T07:38:10Z</time>
      </trkpt>
      <trkpt lat="44.96462" lon="6.65506">
        <ele>1864.58</ele>
        <time>2015-09-30T07:38:14Z</time>
      </trkpt>
      <trkpt lat="44.9646" lon="6.65507">
        <ele>1864.86</ele>
        <time>2015-09-30T07:38:16Z</time>
      </trkpt>
      <trkpt lat="44.96454" lon="6.65496">
        <ele>1865.91</ele>
        <time>2015-09-30T07:38:25Z</time>
      </trkpt>
      <trkpt lat="44.96452" lon="6.65482">
        <ele>1866.31</ele>
        <time>2015-09-30T07:38:33Z</time>
      </trkpt>
      <trkpt lat="44.96449" lon="6.65464">
        <ele>1866.69</ele>
        <time>2015-09-30T07:38:42Z</time>
      </trkpt>
      <trkpt lat="44.96446" lon="6.65451">
        <ele>1867.44</ele>
        <time>2015-09-30T07:38:49Z</time>
      </trkpt>
      <trkpt lat="44.96444" lon="6.65442">
        <ele>1867.93</ele>
        <time>2015-09-30T07:38:54Z</time>
      </trkpt>
      <trkpt lat="44.9644" lon="6.65426">
        <ele>1869.12</ele>
        <time>2015-09-30T07:39:03Z</time>
      </trkpt>
      <trkpt lat="44.96442" lon="6.65408">
        <ele>1870.15</ele>
        <time>2015-09-30T07:39:12Z</time>
      </trkpt>
      <trkpt lat="44.96445" lon="6.65399">
        <ele>1871.02</ele>
        <time>2015-09-30T07:39:18Z</time>
      </trkpt>
      <trkpt lat="44.96447" lon="6.65394">
        <ele>1871.37</ele>
        <time>2015-09-30T07:39:22Z</time>
      </trkpt>
      <trkpt lat="44.96449" lon="6.65391">
        <ele>1871.54</ele>
        <time>2015-09-30T07:39:24Z</time>
      </trkpt>
      <trkpt lat="44.96453" lon="6.65379">
        <ele>1872.59</ele>
        <time>2015-09-30T07:39:33Z</time>
      </trkpt>
      <trkpt lat="44.96459" lon="6.65367">
        <ele>1873.41</ele>
        <time>2015-09-30T07:39:42Z</time>
      </trkpt>
      <trkpt lat="44.96465" lon="6.65357">
        <ele>1874.41</ele>
        <time>2015-09-30T07:39:50Z</time>
      </trkpt>
      <trkpt lat="44.96468" lon="6.65354">
        <ele>1874.7</ele>
        <time>2015-09-30T07:39:53Z</time>
      </trkpt>
      <trkpt lat="44.96473" lon="6.65342">
        <ele>1875.59</ele>
        <time>2015-09-30T07:40:03Z</time>
      </trkpt>
      <trkpt lat="44.96477" lon="6.65334">
        <ele>1876.4</ele>
        <time>2015-09-30T07:40:10Z</time>
      </trkpt>
      <trkpt lat="44.9648" lon="6.6533">
        <ele>1877.08</ele>
        <time>2015-09-30T07:40:14Z</time>
      </trkpt>
      <trkpt lat="44.96482" lon="6.65328">
        <ele>1877.37</ele>
        <time>2015-09-30T07:40:16Z</time>
      </trkpt>
      <trkpt lat="44.96484" lon="6.65325">
        <ele>1877.74</ele>
        <time>2015-09-30T07:40:19Z</time>
      </trkpt>
      <trkpt lat="44.96488" lon="6.65319">
        <ele>1878.38</ele>
        <time>2015-09-30T07:40:24Z</time>
      </trkpt>
      <trkpt lat="44.96497" lon="6.65307">
        <ele>1879.89</ele>
        <time>2015-09-30T07:40:36Z</time>
      </trkpt>
      <trkpt lat="44.96503" lon="6.65295">
        <ele>1881.05</ele>
        <time>2015-09-30T07:40:45Z</time>
      </trkpt>
      <trkpt lat="44.96511" lon="6.65285">
        <ele>1882.24</ele>
        <time>2015-09-30T07:40:54Z</time>
      </trkpt>
      <trkpt lat="44.96518" lon="6.65275">
        <ele>1883.12</ele>
        <time>2015-09-30T07:41:03Z</time>
      </trkpt>
      <trkpt lat="44.96521" lon="6.65269">
        <ele>1883.82</ele>
        <time>2015-09-30T07:41:09Z</time>
      </trkpt>
      <trkpt lat="44.96526" lon="6.65257">
        <ele>1884.84</ele>
        <time>2015-09-30T07:41:18Z</time>
      </trkpt>
      <trkpt lat="44.96529" lon="6.6525">
        <ele>1885.47</ele>
        <time>2015-09-30T07:41:23Z</time>
      </trkpt>
      <trkpt lat="44.96535" lon="6.65243">
        <ele>1886.48</ele>
        <time>2015-09-30T07:41:30Z</time>
      </trkpt>
      <trkpt lat="44.96541" lon="6.65235">
        <ele>1887.82</ele>
        <time>2015-09-30T07:41:38Z</time>
      </trkpt>
      <trkpt lat="44.96547" lon="6.65225">
        <ele>1888.72</ele>
        <time>2015-09-30T07:41:47Z</time>
      </trkpt>
      <trkpt lat="44.9655" lon="6.65222">
        <ele>1889.05</ele>
        <time>2015-09-30T07:41:50Z</time>
      </trkpt>
      <trkpt lat="44.96558" lon="6.65213">
        <ele>1890.23</ele>
        <time>2015-09-30T07:42:00Z</time>
      </trkpt>
      <trkpt lat="44.96559" lon="6.65211">
        <ele>1890.32</ele>
        <time>2015-09-30T07:42:01Z</time>
      </trkpt>
      <trkpt lat="44.96563" lon="6.65194">
        <ele>1891.57</ele>
        <time>2015-09-30T07:42:11Z</time>
      </trkpt>
      <trkpt lat="44.96562" lon="6.65177">
        <ele>1892.67</ele>
        <time>2015-09-30T07:42:20Z</time>
      </trkpt>
      <trkpt lat="44.96564" lon="6.65162">
        <ele>1893.65</ele>
        <time>2015-09-30T07:42:29Z</time>
      </trkpt>
      <trkpt lat="44.96568" lon="6.6515">
        <ele>1894.22</ele>
        <time>2015-09-30T07:42:36Z</time>
      </trkpt>
      <trkpt lat="44.96575" lon="6.65136">
        <ele>1895.4</ele>
        <time>2015-09-30T07:42:46Z</time>
      </trkpt>
      <trkpt lat="44.96579" lon="6.65126">
        <ele>1896</ele>
        <time>2015-09-30T07:42:52Z</time>
      </trkpt>
      <trkpt lat="44.96577" lon="6.65114">
        <ele>1896.49</ele>
        <time>2015-09-30T07:42:58Z</time>
      </trkpt>
      <trkpt lat="44.96576" lon="6.65113">
        <ele>1896.54</ele>
        <time>2015-09-30T07:42:59Z</time>
      </trkpt>
      <trkpt lat="44.96569" lon="6.651">
        <ele>1897.65</ele>
        <time>2015-09-30T07:43:08Z</time>
      </trkpt>
      <trkpt lat="44.96566" lon="6.65092">
        <ele>1898.14</ele>
        <time>2015-09-30T07:43:13Z</time>
      </trkpt>
      <trkpt lat="44.96561" lon="6.65082">
        <ele>1898.65</ele>
        <time>2015-09-30T07:43:19Z</time>
      </trkpt>
      <trkpt lat="44.96555" lon="6.65068">
        <ele>1899.5</ele>
        <time>2015-09-30T07:43:28Z</time>
      </trkpt>
      <trkpt lat="44.96551" lon="6.65055">
        <ele>1900.39</ele>
        <time>2015-09-30T07:43:35Z</time>
      </trkpt>
      <trkpt lat="44.96547" lon="6.65043">
        <ele>1901.06</ele>
        <time>2015-09-30T07:43:42Z</time>
      </trkpt>
      <trkpt lat="44.96544" lon="6.65026">
        <ele>1901.66</ele>
        <time>2015-09-30T07:43:50Z</time>
      </trkpt>
      <trkpt lat="44.96543" lon="6.65018">
        <ele>1902.04</ele>
        <time>2015-09-30T07:43:54Z</time>
      </trkpt>
      <trkpt lat="44.96543" lon="6.65">
        <ele>1902.74</ele>
        <time>2015-09-30T07:44:03Z</time>
      </trkpt>
      <trkpt lat="44.96549" lon="6.64985">
        <ele>1903.31</ele>
        <time>2015-09-30T07:44:11Z</time>
      </trkpt>
      <trkpt lat="44.96551" lon="6.64982">
        <ele>1903.55</ele>
        <time>2015-09-30T07:44:13Z</time>
      </trkpt>
      <trkpt lat="44.96563" lon="6.64979">
        <ele>1905.26</ele>
        <time>2015-09-30T07:44:23Z</time>
      </trkpt>
      <trkpt lat="44.96574" lon="6.64984">
        <ele>1906.64</ele>
        <time>2015-09-30T07:44:32Z</time>
      </trkpt>
      <trkpt lat="44.96583" lon="6.64978">
        <ele>1907.43</ele>
        <time>2015-09-30T07:44:41Z</time>
      </trkpt>
      <trkpt lat="44.96586" lon="6.64963">
        <ele>1908.37</ele>
        <time>2015-09-30T07:44:50Z</time>
      </trkpt>
      <trkpt lat="44.96583" lon="6.64945">
        <ele>1909.89</ele>
        <time>2015-09-30T07:45:01Z</time>
      </trkpt>
      <trkpt lat="44.96579" lon="6.64927">
        <ele>1911.62</ele>
        <time>2015-09-30T07:45:12Z</time>
      </trkpt>
      <trkpt lat="44.96578" lon="6.64915">
        <ele>1912.54</ele>
        <time>2015-09-30T07:45:20Z</time>
      </trkpt>
      <trkpt lat="44.96577" lon="6.64907">
        <ele>1913.08</ele>
        <time>2015-09-30T07:45:25Z</time>
      </trkpt>
      <trkpt lat="44.96573" lon="6.64889">
        <ele>1914.19</ele>
        <time>2015-09-30T07:45:35Z</time>
      </trkpt>
      <trkpt lat="44.96573" lon="6.64875">
        <ele>1914.89</ele>
        <time>2015-09-30T07:45:44Z</time>
      </trkpt>
      <trkpt lat="44.96574" lon="6.64872">
        <ele>1915.06</ele>
        <time>2015-09-30T07:45:46Z</time>
      </trkpt>
      <trkpt lat="44.96575" lon="6.64855">
        <ele>1916.09</ele>
        <time>2015-09-30T07:45:55Z</time>
      </trkpt>
      <trkpt lat="44.96575" lon="6.6485">
        <ele>1916.27</ele>
        <time>2015-09-30T07:45:57Z</time>
      </trkpt>
      <trkpt lat="44.96568" lon="6.64832">
        <ele>1917.4</ele>
        <time>2015-09-30T07:46:07Z</time>
      </trkpt>
      <trkpt lat="44.96567" lon="6.6482">
        <ele>1918.11</ele>
        <time>2015-09-30T07:46:14Z</time>
      </trkpt>
      <trkpt lat="44.96571" lon="6.64809">
        <ele>1919.29</ele>
        <time>2015-09-30T07:46:22Z</time>
      </trkpt>
      <trkpt lat="44.96572" lon="6.64808">
        <ele>1919.42</ele>
        <time>2015-09-30T07:46:23Z</time>
      </trkpt>
      <trkpt lat="44.96576" lon="6.64804">
        <ele>1919.73</ele>
        <time>2015-09-30T07:46:27Z</time>
      </trkpt>
      <trkpt lat="44.9658" lon="6.64798">
        <ele>1920.05</ele>
        <time>2015-09-30T07:46:31Z</time>
      </trkpt>
      <trkpt lat="44.96582" lon="6.64791">
        <ele>1920.64</ele>
        <time>2015-09-30T07:46:35Z</time>
      </trkpt>
      <trkpt lat="44.96584" lon="6.64784">
        <ele>1921.45</ele>
        <time>2015-09-30T07:46:40Z</time>
      </trkpt>
      <trkpt lat="44.96584" lon="6.64778">
        <ele>1921.81</ele>
        <time>2015-09-30T07:46:44Z</time>
      </trkpt>
      <trkpt lat="44.96584" lon="6.64773">
        <ele>1922.06</ele>
        <time>2015-09-30T07:46:47Z</time>
      </trkpt>
      <trkpt lat="44.96583" lon="6.6476">
        <ele>1922.7</ele>
        <time>2015-09-30T07:46:54Z</time>
      </trkpt>
      <trkpt lat="44.96578" lon="6.64744">
        <ele>1923.18</ele>
        <time>2015-09-30T07:47:03Z</time>
      </trkpt>
      <trkpt lat="44.96577" lon="6.64736">
        <ele>1923.84</ele>
        <time>2015-09-30T07:47:08Z</time>
      </trkpt>
      <trkpt lat="44.96577" lon="6.6473">
        <ele>1924.32</ele>
        <time>2015-09-30T07:47:12Z</time>
      </trkpt>
      <trkpt lat="44.9658" lon="6.64717">
        <ele>1925.21</ele>
        <time>2015-09-30T07:47:21Z</time>
      </trkpt>
      <trkpt lat="44.96585" lon="6.64699">
        <ele>1926.61</ele>
        <time>2015-09-30T07:47:31Z</time>
      </trkpt>
      <trkpt lat="44.96586" lon="6.64696">
        <ele>1926.78</ele>
        <time>2015-09-30T07:47:33Z</time>
      </trkpt>
      <trkpt lat="44.96587" lon="6.6469">
        <ele>1927.06</ele>
        <time>2015-09-30T07:47:36Z</time>
      </trkpt>
      <trkpt lat="44.96587" lon="6.64675">
        <ele>1927.87</ele>
        <time>2015-09-30T07:47:44Z</time>
      </trkpt>
      <trkpt lat="44.96586" lon="6.64668">
        <ele>1928.27</ele>
        <time>2015-09-30T07:47:48Z</time>
      </trkpt>
      <trkpt lat="44.96582" lon="6.64651">
        <ele>1928.93</ele>
        <time>2015-09-30T07:47:57Z</time>
      </trkpt>
      <trkpt lat="44.96578" lon="6.64633">
        <ele>1929.63</ele>
        <time>2015-09-30T07:48:06Z</time>
      </trkpt>
      <trkpt lat="44.96575" lon="6.64616">
        <ele>1930.66</ele>
        <time>2015-09-30T07:48:14Z</time>
      </trkpt>
      <trkpt lat="44.96575" lon="6.64601">
        <ele>1931.31</ele>
        <time>2015-09-30T07:48:23Z</time>
      </trkpt>
      <trkpt lat="44.96579" lon="6.64585">
        <ele>1931.91</ele>
        <time>2015-09-30T07:48:31Z</time>
      </trkpt>
      <trkpt lat="44.96586" lon="6.64574">
        <ele>1932.58</ele>
        <time>2015-09-30T07:48:39Z</time>
      </trkpt>
      <trkpt lat="44.96587" lon="6.64573">
        <ele>1932.65</ele>
        <time>2015-09-30T07:48:40Z</time>
      </trkpt>
      <trkpt lat="44.96596" lon="6.64562">
        <ele>1933.36</ele>
        <time>2015-09-30T07:48:48Z</time>
      </trkpt>
      <trkpt lat="44.96605" lon="6.64547">
        <ele>1934.22</ele>
        <time>2015-09-30T07:48:58Z</time>
      </trkpt>
      <trkpt lat="44.96606" lon="6.64542">
        <ele>1934.39</ele>
        <time>2015-09-30T07:49:01Z</time>
      </trkpt>
      <trkpt lat="44.96614" lon="6.64527">
        <ele>1935.13</ele>
        <time>2015-09-30T07:49:09Z</time>
      </trkpt>
      <trkpt lat="44.9662" lon="6.64517">
        <ele>1935.94</ele>
        <time>2015-09-30T07:49:15Z</time>
      </trkpt>
      <trkpt lat="44.96621" lon="6.64514">
        <ele>1936.17</ele>
        <time>2015-09-30T07:49:17Z</time>
      </trkpt>
      <trkpt lat="44.96624" lon="6.64496">
        <ele>1937.25</ele>
        <time>2015-09-30T07:49:28Z</time>
      </trkpt>
      <trkpt lat="44.96625" lon="6.64492">
        <ele>1937.52</ele>
        <time>2015-09-30T07:49:30Z</time>
      </trkpt>
      <trkpt lat="44.96627" lon="6.64476">
        <ele>1938.64</ele>
        <time>2015-09-30T07:49:39Z</time>
      </trkpt>
      <trkpt lat="44.96627" lon="6.64474">
        <ele>1938.74</ele>
        <time>2015-09-30T07:49:40Z</time>
      </trkpt>
      <trkpt lat="44.96627" lon="6.64463">
        <ele>1939.5</ele>
        <time>2015-09-30T07:49:46Z</time>
      </trkpt>
      <trkpt lat="44.96627" lon="6.64456">
        <ele>1939.82</ele>
        <time>2015-09-30T07:49:50Z</time>
      </trkpt>
      <trkpt lat="44.96627" lon="6.64453">
        <ele>1940.07</ele>
        <time>2015-09-30T07:49:52Z</time>
      </trkpt>
      <trkpt lat="44.96625" lon="6.6444">
        <ele>1940.99</ele>
        <time>2015-09-30T07:50:00Z</time>
      </trkpt>
      <trkpt lat="44.96625" lon="6.64426">
        <ele>1941.53</ele>
        <time>2015-09-30T07:50:08Z</time>
      </trkpt>
      <trkpt lat="44.96629" lon="6.64407">
        <ele>1942.63</ele>
        <time>2015-09-30T07:50:18Z</time>
      </trkpt>
      <trkpt lat="44.96634" lon="6.64392">
        <ele>1943.95</ele>
        <time>2015-09-30T07:50:27Z</time>
      </trkpt>
      <trkpt lat="44.96638" lon="6.64378">
        <ele>1944.88</ele>
        <time>2015-09-30T07:50:35Z</time>
      </trkpt>
      <trkpt lat="44.96643" lon="6.64371">
        <ele>1945.54</ele>
        <time>2015-09-30T07:50:42Z</time>
      </trkpt>
      <trkpt lat="44.96644" lon="6.64358">
        <ele>1946.48</ele>
        <time>2015-09-30T07:50:51Z</time>
      </trkpt>
      <trkpt lat="44.96641" lon="6.64348">
        <ele>1947.01</ele>
        <time>2015-09-30T07:50:58Z</time>
      </trkpt>
      <trkpt lat="44.9664" lon="6.64337">
        <ele>1948.02</ele>
        <time>2015-09-30T07:51:07Z</time>
      </trkpt>
      <trkpt lat="44.96638" lon="6.64335">
        <ele>1948.37</ele>
        <time>2015-09-30T07:51:09Z</time>
      </trkpt>
      <trkpt lat="44.96634" lon="6.64323">
        <ele>1949.85</ele>
        <time>2015-09-30T07:51:19Z</time>
      </trkpt>
      <trkpt lat="44.96633" lon="6.64316">
        <ele>1950.78</ele>
        <time>2015-09-30T07:51:24Z</time>
      </trkpt>
      <trkpt lat="44.96631" lon="6.64306">
        <ele>1951.85</ele>
        <time>2015-09-30T07:51:31Z</time>
      </trkpt>
      <trkpt lat="44.9663" lon="6.64296">
        <ele>1952.88</ele>
        <time>2015-09-30T07:51:38Z</time>
      </trkpt>
      <trkpt lat="44.96624" lon="6.64287">
        <ele>1954</ele>
        <time>2015-09-30T07:51:46Z</time>
      </trkpt>
      <trkpt lat="44.9662" lon="6.64278">
        <ele>1955.49</ele>
        <time>2015-09-30T07:51:54Z</time>
      </trkpt>
      <trkpt lat="44.96613" lon="6.64271">
        <ele>1956.73</ele>
        <time>2015-09-30T07:52:03Z</time>
      </trkpt>
      <trkpt lat="44.96607" lon="6.64265">
        <ele>1957.58</ele>
        <time>2015-09-30T07:52:10Z</time>
      </trkpt>
      <trkpt lat="44.96606" lon="6.64262">
        <ele>1957.8</ele>
        <time>2015-09-30T07:52:12Z</time>
      </trkpt>
      <trkpt lat="44.96605" lon="6.64259">
        <ele>1958.11</ele>
        <time>2015-09-30T07:52:15Z</time>
      </trkpt>
      <trkpt lat="44.96603" lon="6.64247">
        <ele>1959.51</ele>
        <time>2015-09-30T07:52:24Z</time>
      </trkpt>
      <trkpt lat="44.96603" lon="6.64239">
        <ele>1960.77</ele>
        <time>2015-09-30T07:52:32Z</time>
      </trkpt>
      <trkpt lat="44.96604" lon="6.64237">
        <ele>1961.09</ele>
        <time>2015-09-30T07:52:34Z</time>
      </trkpt>
      <trkpt lat="44.96605" lon="6.64234">
        <ele>1961.46</ele>
        <time>2015-09-30T07:52:37Z</time>
      </trkpt>
      <trkpt lat="44.96606" lon="6.64222">
        <ele>1962.5</ele>
        <time>2015-09-30T07:52:45Z</time>
      </trkpt>
      <trkpt lat="44.96611" lon="6.64209">
        <ele>1963.91</ele>
        <time>2015-09-30T07:52:54Z</time>
      </trkpt>
      <trkpt lat="44.96614" lon="6.642">
        <ele>1964.12</ele>
        <time>2015-09-30T07:53:00Z</time>
      </trkpt>
      <trkpt lat="44.96619" lon="6.64186">
        <ele>1965.27</ele>
        <time>2015-09-30T07:53:10Z</time>
      </trkpt>
      <trkpt lat="44.96618" lon="6.64171">
        <ele>1966.49</ele>
        <time>2015-09-30T07:53:18Z</time>
      </trkpt>
      <trkpt lat="44.96617" lon="6.6416">
        <ele>1967.05</ele>
        <time>2015-09-30T07:53:23Z</time>
      </trkpt>
      <trkpt lat="44.96608" lon="6.6414">
        <ele>1967.66</ele>
        <time>2015-09-30T07:53:33Z</time>
      </trkpt>
      <trkpt lat="44.96605" lon="6.64131">
        <ele>1967.7</ele>
        <time>2015-09-30T07:53:37Z</time>
      </trkpt>
      <trkpt lat="44.96605" lon="6.64125">
        <ele>1967.71</ele>
        <time>2015-09-30T07:53:41Z</time>
      </trkpt>
      <trkpt lat="44.96606" lon="6.64111">
        <ele>1967.93</ele>
        <time>2015-09-30T07:53:48Z</time>
      </trkpt>
      <trkpt lat="44.96606" lon="6.64109">
        <ele>1968.08</ele>
        <time>2015-09-30T07:53:49Z</time>
      </trkpt>
      <trkpt lat="44.96607" lon="6.64094">
        <ele>1968.75</ele>
        <time>2015-09-30T07:53:56Z</time>
      </trkpt>
      <trkpt lat="44.96607" lon="6.64077">
        <ele>1969.31</ele>
        <time>2015-09-30T07:54:04Z</time>
      </trkpt>
      <trkpt lat="44.96608" lon="6.64065">
        <ele>1969.49</ele>
        <time>2015-09-30T07:54:10Z</time>
      </trkpt>
      <trkpt lat="44.96611" lon="6.64053">
        <ele>1970.26</ele>
        <time>2015-09-30T07:54:16Z</time>
      </trkpt>
      <trkpt lat="44.96606" lon="6.6403">
        <ele>1971.27</ele>
        <time>2015-09-30T07:54:25Z</time>
      </trkpt>
      <trkpt lat="44.96599" lon="6.64009">
        <ele>1971.44</ele>
        <time>2015-09-30T07:54:33Z</time>
      </trkpt>
      <trkpt lat="44.96598" lon="6.64006">
        <ele>1971.5</ele>
        <time>2015-09-30T07:54:35Z</time>
      </trkpt>
      <trkpt lat="44.966" lon="6.63987">
        <ele>1971.49</ele>
        <time>2015-09-30T07:54:42Z</time>
      </trkpt>
      <trkpt lat="44.96609" lon="6.6398">
        <ele>1971.23</ele>
        <time>2015-09-30T07:54:48Z</time>
      </trkpt>
      <trkpt lat="44.9662" lon="6.63967">
        <ele>1971.87</ele>
        <time>2015-09-30T07:54:56Z</time>
      </trkpt>
      <trkpt lat="44.96619" lon="6.63948">
        <ele>1972.06</ele>
        <time>2015-09-30T07:55:03Z</time>
      </trkpt>
      <trkpt lat="44.96614" lon="6.6392">
        <ele>1971.87</ele>
        <time>2015-09-30T07:55:13Z</time>
      </trkpt>
      <trkpt lat="44.96612" lon="6.639">
        <ele>1972.11</ele>
        <time>2015-09-30T07:55:21Z</time>
      </trkpt>
      <trkpt lat="44.96605" lon="6.63881">
        <ele>1972.56</ele>
        <time>2015-09-30T07:55:30Z</time>
      </trkpt>
      <trkpt lat="44.96598" lon="6.63865">
        <ele>1973.01</ele>
        <time>2015-09-30T07:55:38Z</time>
      </trkpt>
      <trkpt lat="44.96588" lon="6.63841">
        <ele>1973.64</ele>
        <time>2015-09-30T07:55:49Z</time>
      </trkpt>
      <trkpt lat="44.9658" lon="6.6383">
        <ele>1973.82</ele>
        <time>2015-09-30T07:55:56Z</time>
      </trkpt>
      <trkpt lat="44.96569" lon="6.63814">
        <ele>1974.27</ele>
        <time>2015-09-30T07:56:06Z</time>
      </trkpt>
      <trkpt lat="44.96564" lon="6.63796">
        <ele>1974.36</ele>
        <time>2015-09-30T07:56:14Z</time>
      </trkpt>
      <trkpt lat="44.96566" lon="6.63783">
        <ele>1975.11</ele>
        <time>2015-09-30T07:56:21Z</time>
      </trkpt>
      <trkpt lat="44.96566" lon="6.63777">
        <ele>1975.41</ele>
        <time>2015-09-30T07:56:24Z</time>
      </trkpt>
      <trkpt lat="44.96563" lon="6.6376">
        <ele>1976.28</ele>
        <time>2015-09-30T07:56:33Z</time>
      </trkpt>
      <trkpt lat="44.96564" lon="6.63745">
        <ele>1977.54</ele>
        <time>2015-09-30T07:56:42Z</time>
      </trkpt>
      <trkpt lat="44.96568" lon="6.63732">
        <ele>1978.52</ele>
        <time>2015-09-30T07:56:51Z</time>
      </trkpt>
      <trkpt lat="44.96572" lon="6.63719">
        <ele>1979.83</ele>
        <time>2015-09-30T07:57:00Z</time>
      </trkpt>
      <trkpt lat="44.96574" lon="6.63713">
        <ele>1980.37</ele>
        <time>2015-09-30T07:57:04Z</time>
      </trkpt>
      <trkpt lat="44.96578" lon="6.637">
        <ele>1981.66</ele>
        <time>2015-09-30T07:57:13Z</time>
      </trkpt>
      <trkpt lat="44.96583" lon="6.63685">
        <ele>1982.4</ele>
        <time>2015-09-30T07:57:23Z</time>
      </trkpt>
      <trkpt lat="44.96586" lon="6.63673">
        <ele>1982.86</ele>
        <time>2015-09-30T07:57:29Z</time>
      </trkpt>
      <trkpt lat="44.96588" lon="6.63659">
        <ele>1983.68</ele>
        <time>2015-09-30T07:57:38Z</time>
      </trkpt>
      <trkpt lat="44.96589" lon="6.63645">
        <ele>1984.22</ele>
        <time>2015-09-30T07:57:46Z</time>
      </trkpt>
      <trkpt lat="44.96593" lon="6.63633">
        <ele>1984.72</ele>
        <time>2015-09-30T07:57:53Z</time>
      </trkpt>
      <trkpt lat="44.96603" lon="6.63627">
        <ele>1985.54</ele>
        <time>2015-09-30T07:58:01Z</time>
      </trkpt>
      <trkpt lat="44.96609" lon="6.63617">
        <ele>1986.42</ele>
        <time>2015-09-30T07:58:09Z</time>
      </trkpt>
      <trkpt lat="44.9661" lon="6.63615">
        <ele>1986.74</ele>
        <time>2015-09-30T07:58:11Z</time>
      </trkpt>
      <trkpt lat="44.96612" lon="6.63604">
        <ele>1987.79</ele>
        <time>2015-09-30T07:58:19Z</time>
      </trkpt>
      <trkpt lat="44.96615" lon="6.63591">
        <ele>1988.52</ele>
        <time>2015-09-30T07:58:28Z</time>
      </trkpt>
      <trkpt lat="44.96618" lon="6.63579">
        <ele>1989.76</ele>
        <time>2015-09-30T07:58:36Z</time>
      </trkpt>
      <trkpt lat="44.9662" lon="6.63565">
        <ele>1990.78</ele>
        <time>2015-09-30T07:58:44Z</time>
      </trkpt>
      <trkpt lat="44.9662" lon="6.63549">
        <ele>1991.24</ele>
        <time>2015-09-30T07:58:53Z</time>
      </trkpt>
      <trkpt lat="44.96627" lon="6.63532">
        <ele>1991.83</ele>
        <time>2015-09-30T07:59:02Z</time>
      </trkpt>
      <trkpt lat="44.96634" lon="6.63519">
        <ele>1992.7</ele>
        <time>2015-09-30T07:59:10Z</time>
      </trkpt>
      <trkpt lat="44.96641" lon="6.63505">
        <ele>1994.13</ele>
        <time>2015-09-30T07:59:20Z</time>
      </trkpt>
      <trkpt lat="44.96646" lon="6.63493">
        <ele>1995.32</ele>
        <time>2015-09-30T07:59:28Z</time>
      </trkpt>
      <trkpt lat="44.96649" lon="6.63477">
        <ele>1995.97</ele>
        <time>2015-09-30T07:59:37Z</time>
      </trkpt>
      <trkpt lat="44.96651" lon="6.63461">
        <ele>1996.64</ele>
        <time>2015-09-30T07:59:46Z</time>
      </trkpt>
      <trkpt lat="44.96653" lon="6.63447">
        <ele>1997.48</ele>
        <time>2015-09-30T07:59:54Z</time>
      </trkpt>
      <trkpt lat="44.96654" lon="6.6344">
        <ele>1998.18</ele>
        <time>2015-09-30T07:59:58Z</time>
      </trkpt>
      <trkpt lat="44.96656" lon="6.63435">
        <ele>1998.65</ele>
        <time>2015-09-30T08:00:02Z</time>
      </trkpt>
      <trkpt lat="44.96666" lon="6.63425">
        <ele>1999.54</ele>
        <time>2015-09-30T08:00:12Z</time>
      </trkpt>
      <trkpt lat="44.96675" lon="6.63412">
        <ele>2000.4</ele>
        <time>2015-09-30T08:00:21Z</time>
      </trkpt>
      <trkpt lat="44.9668" lon="6.63393">
        <ele>2001.66</ele>
        <time>2015-09-30T08:00:31Z</time>
      </trkpt>
      <trkpt lat="44.96683" lon="6.63381">
        <ele>2002.31</ele>
        <time>2015-09-30T08:00:38Z</time>
      </trkpt>
      <trkpt lat="44.96687" lon="6.63369">
        <ele>2002.89</ele>
        <time>2015-09-30T08:00:46Z</time>
      </trkpt>
      <trkpt lat="44.96693" lon="6.63355">
        <ele>2003.57</ele>
        <time>2015-09-30T08:00:54Z</time>
      </trkpt>
      <trkpt lat="44.96697" lon="6.63343">
        <ele>2003.99</ele>
        <time>2015-09-30T08:01:02Z</time>
      </trkpt>
      <trkpt lat="44.96701" lon="6.63337">
        <ele>2004.25</ele>
        <time>2015-09-30T08:01:06Z</time>
      </trkpt>
      <trkpt lat="44.96712" lon="6.63327">
        <ele>2004.96</ele>
        <time>2015-09-30T08:01:14Z</time>
      </trkpt>
      <trkpt lat="44.96722" lon="6.63334">
        <ele>2005.36</ele>
        <time>2015-09-30T08:01:20Z</time>
      </trkpt>
      <trkpt lat="44.96725" lon="6.63336">
        <ele>2005.18</ele>
        <time>2015-09-30T08:01:26Z</time>
      </trkpt>
      <trkpt lat="44.96726" lon="6.6334">
        <ele>2005.11</ele>
        <time>2015-09-30T08:01:40Z</time>
      </trkpt>
      <trkpt lat="44.96728" lon="6.63339">
        <ele>2005.52</ele>
        <time>2015-09-30T08:01:56Z</time>
      </trkpt>
      <trkpt lat="44.96728" lon="6.63341">
        <ele>2005.01</ele>
        <time>2015-09-30T08:02:09Z</time>
      </trkpt>
      <trkpt lat="44.96726" lon="6.63344">
        <ele>2004.91</ele>
        <time>2015-09-30T08:02:26Z</time>
      </trkpt>
      <trkpt lat="44.96726" lon="6.63343">
        <ele>2005.02</ele>
        <time>2015-09-30T08:02:37Z</time>
      </trkpt>
      <trkpt lat="44.96722" lon="6.63347">
        <ele>2004.93</ele>
        <time>2015-09-30T08:02:44Z</time>
      </trkpt>
      <trkpt lat="44.96719" lon="6.63358">
        <ele>2005.51</ele>
        <time>2015-09-30T08:02:54Z</time>
      </trkpt>
      <trkpt lat="44.9672" lon="6.63371">
        <ele>2005.95</ele>
        <time>2015-09-30T08:03:04Z</time>
      </trkpt>
      <trkpt lat="44.96721" lon="6.63385">
        <ele>2006.49</ele>
        <time>2015-09-30T08:03:13Z</time>
      </trkpt>
      <trkpt lat="44.96721" lon="6.63394">
        <ele>2007.08</ele>
        <time>2015-09-30T08:03:20Z</time>
      </trkpt>
      <trkpt lat="44.96721" lon="6.63408">
        <ele>2008.31</ele>
        <time>2015-09-30T08:03:30Z</time>
      </trkpt>
      <trkpt lat="44.96722" lon="6.63419">
        <ele>2009.2</ele>
        <time>2015-09-30T08:03:37Z</time>
      </trkpt>
      <trkpt lat="44.96723" lon="6.63434">
        <ele>2010</ele>
        <time>2015-09-30T08:03:47Z</time>
      </trkpt>
      <trkpt lat="44.96724" lon="6.63447">
        <ele>2010.95</ele>
        <time>2015-09-30T08:03:57Z</time>
      </trkpt>
      <trkpt lat="44.96728" lon="6.63461">
        <ele>2012.24</ele>
        <time>2015-09-30T08:04:08Z</time>
      </trkpt>
      <trkpt lat="44.96731" lon="6.63474">
        <ele>2012.83</ele>
        <time>2015-09-30T08:04:18Z</time>
      </trkpt>
      <trkpt lat="44.96736" lon="6.63486">
        <ele>2013.89</ele>
        <time>2015-09-30T08:04:27Z</time>
      </trkpt>
      <trkpt lat="44.96741" lon="6.63497">
        <ele>2015.19</ele>
        <time>2015-09-30T08:04:37Z</time>
      </trkpt>
      <trkpt lat="44.96745" lon="6.63507">
        <ele>2016.33</ele>
        <time>2015-09-30T08:04:47Z</time>
      </trkpt>
      <trkpt lat="44.96749" lon="6.63518">
        <ele>2017.24</ele>
        <time>2015-09-30T08:04:57Z</time>
      </trkpt>
      <trkpt lat="44.96753" lon="6.63528">
        <ele>2017.96</ele>
        <time>2015-09-30T08:05:06Z</time>
      </trkpt>
      <trkpt lat="44.96759" lon="6.63543">
        <ele>2019.14</ele>
        <time>2015-09-30T08:05:18Z</time>
      </trkpt>
      <trkpt lat="44.96759" lon="6.63546">
        <ele>2019.23</ele>
        <time>2015-09-30T08:05:20Z</time>
      </trkpt>
      <trkpt lat="44.96762" lon="6.63558">
        <ele>2020.53</ele>
        <time>2015-09-30T08:05:31Z</time>
      </trkpt>
      <trkpt lat="44.96766" lon="6.63569">
        <ele>2021.67</ele>
        <time>2015-09-30T08:05:42Z</time>
      </trkpt>
      <trkpt lat="44.96769" lon="6.63576">
        <ele>2021.97</ele>
        <time>2015-09-30T08:05:47Z</time>
      </trkpt>
      <trkpt lat="44.96773" lon="6.63587">
        <ele>2022.65</ele>
        <time>2015-09-30T08:05:56Z</time>
      </trkpt>
      <trkpt lat="44.96776" lon="6.63595">
        <ele>2023.34</ele>
        <time>2015-09-30T08:06:03Z</time>
      </trkpt>
      <trkpt lat="44.9678" lon="6.63607">
        <ele>2024.17</ele>
        <time>2015-09-30T08:06:12Z</time>
      </trkpt>
      <trkpt lat="44.96784" lon="6.63619">
        <ele>2025.14</ele>
        <time>2015-09-30T08:06:23Z</time>
      </trkpt>
      <trkpt lat="44.96788" lon="6.63631">
        <ele>2026.53</ele>
        <time>2015-09-30T08:06:33Z</time>
      </trkpt>
      <trkpt lat="44.96789" lon="6.63644">
        <ele>2027.65</ele>
        <time>2015-09-30T08:06:42Z</time>
      </trkpt>
      <trkpt lat="44.96788" lon="6.63656">
        <ele>2029.01</ele>
        <time>2015-09-30T08:06:52Z</time>
      </trkpt>
      <trkpt lat="44.96787" lon="6.63668">
        <ele>2030.13</ele>
        <time>2015-09-30T08:07:02Z</time>
      </trkpt>
      <trkpt lat="44.96787" lon="6.63672">
        <ele>2030.75</ele>
        <time>2015-09-30T08:07:11Z</time>
      </trkpt>
      <trkpt lat="44.96787" lon="6.63673">
        <ele>2030.66</ele>
        <time>2015-09-30T08:07:16Z</time>
      </trkpt>
      <trkpt lat="44.96789" lon="6.63688">
        <ele>2031.18</ele>
        <time>2015-09-30T08:07:27Z</time>
      </trkpt>
      <trkpt lat="44.96791" lon="6.637">
        <ele>2032.18</ele>
        <time>2015-09-30T08:07:36Z</time>
      </trkpt>
      <trkpt lat="44.96793" lon="6.6371">
        <ele>2033.54</ele>
        <time>2015-09-30T08:07:44Z</time>
      </trkpt>
      <trkpt lat="44.96796" lon="6.63718">
        <ele>2034.44</ele>
        <time>2015-09-30T08:07:51Z</time>
      </trkpt>
      <trkpt lat="44.96798" lon="6.63723">
        <ele>2035.03</ele>
        <time>2015-09-30T08:07:55Z</time>
      </trkpt>
      <trkpt lat="44.96804" lon="6.6372">
        <ele>2036.53</ele>
        <time>2015-09-30T08:08:04Z</time>
      </trkpt>
      <trkpt lat="44.96806" lon="6.63716">
        <ele>2036.86</ele>
        <time>2015-09-30T08:08:08Z</time>
      </trkpt>
      <trkpt lat="44.96811" lon="6.63701">
        <ele>2037.66</ele>
        <time>2015-09-30T08:08:19Z</time>
      </trkpt>
      <trkpt lat="44.96812" lon="6.63691">
        <ele>2038.88</ele>
        <time>2015-09-30T08:08:28Z</time>
      </trkpt>
      <trkpt lat="44.96813" lon="6.63687">
        <ele>2039.8</ele>
        <time>2015-09-30T08:08:37Z</time>
      </trkpt>
      <trkpt lat="44.96816" lon="6.63677">
        <ele>2040.36</ele>
        <time>2015-09-30T08:08:44Z</time>
      </trkpt>
      <trkpt lat="44.96821" lon="6.63669">
        <ele>2040.7</ele>
        <time>2015-09-30T08:08:51Z</time>
      </trkpt>
      <trkpt lat="44.96824" lon="6.63663">
        <ele>2041.24</ele>
        <time>2015-09-30T08:08:56Z</time>
      </trkpt>
      <trkpt lat="44.96824" lon="6.63659">
        <ele>2041.53</ele>
        <time>2015-09-30T08:08:58Z</time>
      </trkpt>
      <trkpt lat="44.96825" lon="6.63654">
        <ele>2041.85</ele>
        <time>2015-09-30T08:09:01Z</time>
      </trkpt>
      <trkpt lat="44.9683" lon="6.63636">
        <ele>2042.75</ele>
        <time>2015-09-30T08:09:12Z</time>
      </trkpt>
      <trkpt lat="44.96834" lon="6.63626">
        <ele>2043.54</ele>
        <time>2015-09-30T08:09:19Z</time>
      </trkpt>
      <trkpt lat="44.96835" lon="6.63621">
        <ele>2043.83</ele>
        <time>2015-09-30T08:09:22Z</time>
      </trkpt>
      <trkpt lat="44.96835" lon="6.63614">
        <ele>2044.14</ele>
        <time>2015-09-30T08:09:26Z</time>
      </trkpt>
      <trkpt lat="44.96835" lon="6.63608">
        <ele>2044.64</ele>
        <time>2015-09-30T08:09:30Z</time>
      </trkpt>
      <trkpt lat="44.96835" lon="6.63604">
        <ele>2044.88</ele>
        <time>2015-09-30T08:09:32Z</time>
      </trkpt>
      <trkpt lat="44.96834" lon="6.63597">
        <ele>2045.46</ele>
        <time>2015-09-30T08:09:36Z</time>
      </trkpt>
      <trkpt lat="44.96835" lon="6.6358">
        <ele>2047.06</ele>
        <time>2015-09-30T08:09:46Z</time>
      </trkpt>
      <trkpt lat="44.96836" lon="6.63574">
        <ele>2047.6</ele>
        <time>2015-09-30T08:09:51Z</time>
      </trkpt>
      <trkpt lat="44.96836" lon="6.63564">
        <ele>2048.3</ele>
        <time>2015-09-30T08:09:57Z</time>
      </trkpt>
      <trkpt lat="44.96836" lon="6.63559">
        <ele>2048.71</ele>
        <time>2015-09-30T08:10:00Z</time>
      </trkpt>
      <trkpt lat="44.96832" lon="6.63547">
        <ele>2049.82</ele>
        <time>2015-09-30T08:10:09Z</time>
      </trkpt>
      <trkpt lat="44.96828" lon="6.63535">
        <ele>2050.61</ele>
        <time>2015-09-30T08:10:17Z</time>
      </trkpt>
      <trkpt lat="44.96828" lon="6.6352">
        <ele>2051.94</ele>
        <time>2015-09-30T08:10:27Z</time>
      </trkpt>
      <trkpt lat="44.96827" lon="6.63505">
        <ele>2052.95</ele>
        <time>2015-09-30T08:10:36Z</time>
      </trkpt>
      <trkpt lat="44.96828" lon="6.63489">
        <ele>2054.14</ele>
        <time>2015-09-30T08:10:46Z</time>
      </trkpt>
      <trkpt lat="44.9683" lon="6.63474">
        <ele>2055.35</ele>
        <time>2015-09-30T08:10:55Z</time>
      </trkpt>
      <trkpt lat="44.96832" lon="6.63461">
        <ele>2056.74</ele>
        <time>2015-09-30T08:11:04Z</time>
      </trkpt>
      <trkpt lat="44.96835" lon="6.63449">
        <ele>2057.6</ele>
        <time>2015-09-30T08:11:12Z</time>
      </trkpt>
      <trkpt lat="44.96838" lon="6.63435">
        <ele>2058.84</ele>
        <time>2015-09-30T08:11:22Z</time>
      </trkpt>
      <trkpt lat="44.9684" lon="6.63425">
        <ele>2059.92</ele>
        <time>2015-09-30T08:11:29Z</time>
      </trkpt>
      <trkpt lat="44.96842" lon="6.63414">
        <ele>2060.86</ele>
        <time>2015-09-30T08:11:36Z</time>
      </trkpt>
      <trkpt lat="44.96846" lon="6.634">
        <ele>2061.92</ele>
        <time>2015-09-30T08:11:46Z</time>
      </trkpt>
      <trkpt lat="44.96848" lon="6.6339">
        <ele>2062.93</ele>
        <time>2015-09-30T08:11:53Z</time>
      </trkpt>
      <trkpt lat="44.9685" lon="6.63377">
        <ele>2063.92</ele>
        <time>2015-09-30T08:12:02Z</time>
      </trkpt>
      <trkpt lat="44.96851" lon="6.63364">
        <ele>2064.85</ele>
        <time>2015-09-30T08:12:10Z</time>
      </trkpt>
      <trkpt lat="44.96853" lon="6.63351">
        <ele>2066.03</ele>
        <time>2015-09-30T08:12:19Z</time>
      </trkpt>
      <trkpt lat="44.96853" lon="6.63348">
        <ele>2066.2</ele>
        <time>2015-09-30T08:12:21Z</time>
      </trkpt>
      <trkpt lat="44.96855" lon="6.63334">
        <ele>2067.11</ele>
        <time>2015-09-30T08:12:30Z</time>
      </trkpt>
      <trkpt lat="44.96858" lon="6.63327">
        <ele>2067.72</ele>
        <time>2015-09-30T08:12:35Z</time>
      </trkpt>
      <trkpt lat="44.96861" lon="6.63316">
        <ele>2068.37</ele>
        <time>2015-09-30T08:12:43Z</time>
      </trkpt>
      <trkpt lat="44.96864" lon="6.63307">
        <ele>2068.97</ele>
        <time>2015-09-30T08:12:50Z</time>
      </trkpt>
      <trkpt lat="44.96868" lon="6.63292">
        <ele>2069.99</ele>
        <time>2015-09-30T08:13:00Z</time>
      </trkpt>
      <trkpt lat="44.96871" lon="6.63281">
        <ele>2070.96</ele>
        <time>2015-09-30T08:13:08Z</time>
      </trkpt>
      <trkpt lat="44.96875" lon="6.6327">
        <ele>2071.88</ele>
        <time>2015-09-30T08:13:16Z</time>
      </trkpt>
      <trkpt lat="44.9688" lon="6.63255">
        <ele>2073.05</ele>
        <time>2015-09-30T08:13:25Z</time>
      </trkpt>
      <trkpt lat="44.96885" lon="6.63246">
        <ele>2074.01</ele>
        <time>2015-09-30T08:13:32Z</time>
      </trkpt>
      <trkpt lat="44.9689" lon="6.63237">
        <ele>2074.81</ele>
        <time>2015-09-30T08:13:39Z</time>
      </trkpt>
      <trkpt lat="44.96897" lon="6.63224">
        <ele>2076.79</ele>
        <time>2015-09-30T08:13:50Z</time>
      </trkpt>
      <trkpt lat="44.96903" lon="6.63217">
        <ele>2077.89</ele>
        <time>2015-09-30T08:13:58Z</time>
      </trkpt>
      <trkpt lat="44.96911" lon="6.6321">
        <ele>2079.02</ele>
        <time>2015-09-30T08:14:07Z</time>
      </trkpt>
      <trkpt lat="44.96916" lon="6.63201">
        <ele>2080</ele>
        <time>2015-09-30T08:14:15Z</time>
      </trkpt>
      <trkpt lat="44.96922" lon="6.63193">
        <ele>2081.26</ele>
        <time>2015-09-30T08:14:23Z</time>
      </trkpt>
      <trkpt lat="44.96926" lon="6.63185">
        <ele>2082.33</ele>
        <time>2015-09-30T08:14:29Z</time>
      </trkpt>
      <trkpt lat="44.96932" lon="6.63176">
        <ele>2083.67</ele>
        <time>2015-09-30T08:14:37Z</time>
      </trkpt>
      <trkpt lat="44.96936" lon="6.6317">
        <ele>2084.56</ele>
        <time>2015-09-30T08:14:42Z</time>
      </trkpt>
      <trkpt lat="44.96943" lon="6.63165">
        <ele>2085.72</ele>
        <time>2015-09-30T08:14:50Z</time>
      </trkpt>
      <trkpt lat="44.96945" lon="6.63171">
        <ele>2086.41</ele>
        <time>2015-09-30T08:14:56Z</time>
      </trkpt>
      <trkpt lat="44.96942" lon="6.63186">
        <ele>2087.42</ele>
        <time>2015-09-30T08:15:06Z</time>
      </trkpt>
      <trkpt lat="44.96939" lon="6.63197">
        <ele>2088.11</ele>
        <time>2015-09-30T08:15:14Z</time>
      </trkpt>
      <trkpt lat="44.96938" lon="6.632">
        <ele>2088.46</ele>
        <time>2015-09-30T08:15:17Z</time>
      </trkpt>
      <trkpt lat="44.96936" lon="6.63203">
        <ele>2088.74</ele>
        <time>2015-09-30T08:15:20Z</time>
      </trkpt>
      <trkpt lat="44.96935" lon="6.63214">
        <ele>2089.92</ele>
        <time>2015-09-30T08:15:28Z</time>
      </trkpt>
      <trkpt lat="44.96937" lon="6.63226">
        <ele>2090.83</ele>
        <time>2015-09-30T08:15:36Z</time>
      </trkpt>
      <trkpt lat="44.96937" lon="6.63237">
        <ele>2092.06</ele>
        <time>2015-09-30T08:15:44Z</time>
      </trkpt>
      <trkpt lat="44.96945" lon="6.63315">
        <ele>2118.3</ele>
        <time>2015-09-30T08:17:39Z</time>
      </trkpt>
      <trkpt lat="44.96945" lon="6.63311">
        <ele>2118.29</ele>
        <time>2015-09-30T08:17:40Z</time>
      </trkpt>
      <trkpt lat="44.96951" lon="6.63306">
        <ele>2094.2</ele>
        <time>2015-09-30T08:17:45Z</time>
      </trkpt>
      <trkpt lat="44.96952" lon="6.63307">
        <ele>2075</ele>
        <time>2015-09-30T08:17:46Z</time>
      </trkpt>
      <trkpt lat="44.96952" lon="6.63308">
        <ele>2059.64</ele>
        <time>2015-09-30T08:17:47Z</time>
      </trkpt>
      <trkpt lat="44.96952" lon="6.6331">
        <ele>2047.42</ele>
        <time>2015-09-30T08:17:48Z</time>
      </trkpt>
      <trkpt lat="44.96952" lon="6.63311">
        <ele>2037.59</ele>
        <time>2015-09-30T08:17:49Z</time>
      </trkpt>
      <trkpt lat="44.96953" lon="6.6331">
        <ele>2029.74</ele>
        <time>2015-09-30T08:17:50Z</time>
      </trkpt>
      <trkpt lat="44.96953" lon="6.63312">
        <ele>2023.46</ele>
        <time>2015-09-30T08:17:52Z</time>
      </trkpt>
      <trkpt lat="44.96954" lon="6.63313">
        <ele>2018.43</ele>
        <time>2015-09-30T08:17:53Z</time>
      </trkpt>
      <trkpt lat="44.96954" lon="6.63314">
        <ele>2014.42</ele>
        <time>2015-09-30T08:17:54Z</time>
      </trkpt>
      <trkpt lat="44.96954" lon="6.63313">
        <ele>2011.21</ele>
        <time>2015-09-30T08:17:55Z</time>
      </trkpt>
      <trkpt lat="44.96953" lon="6.63312">
        <ele>2006.63</ele>
        <time>2015-09-30T08:17:57Z</time>
      </trkpt>
      <trkpt lat="44.96953" lon="6.63311">
        <ele>2002.7</ele>
        <time>2015-09-30T08:18:00Z</time>
      </trkpt>
      <trkpt lat="44.96952" lon="6.63311">
        <ele>1999.86</ele>
        <time>2015-09-30T08:18:05Z</time>
      </trkpt>
      <trkpt lat="44.96954" lon="6.63298">
        <ele>2001.06</ele>
        <time>2015-09-30T08:18:48Z</time>
      </trkpt>
      <trkpt lat="44.96953" lon="6.63299">
        <ele>2002.31</ele>
        <time>2015-09-30T08:19:08Z</time>
      </trkpt>
      <trkpt lat="44.96953" lon="6.63301">
        <ele>2003.41</ele>
        <time>2015-09-30T08:19:20Z</time>
      </trkpt>
      <trkpt lat="44.96954" lon="6.63309">
        <ele>2003.67</ele>
        <time>2015-09-30T08:19:27Z</time>
      </trkpt>
      <trkpt lat="44.9696" lon="6.63319">
        <ele>2004.42</ele>
        <time>2015-09-30T08:19:35Z</time>
      </trkpt>
      <trkpt lat="44.96962" lon="6.63323">
        <ele>2004.69</ele>
        <time>2015-09-30T08:19:38Z</time>
      </trkpt>
      <trkpt lat="44.96969" lon="6.63333">
        <ele>2005.98</ele>
        <time>2015-09-30T08:19:46Z</time>
      </trkpt>
      <trkpt lat="44.96975" lon="6.63342">
        <ele>2007.32</ele>
        <time>2015-09-30T08:19:54Z</time>
      </trkpt>
      <trkpt lat="44.96976" lon="6.63343">
        <ele>2007.45</ele>
        <time>2015-09-30T08:19:55Z</time>
      </trkpt>
      <trkpt lat="44.96985" lon="6.63346">
        <ele>2008.7</ele>
        <time>2015-09-30T08:20:04Z</time>
      </trkpt>
      <trkpt lat="44.96986" lon="6.63344">
        <ele>2009.01</ele>
        <time>2015-09-30T08:20:06Z</time>
      </trkpt>
      <trkpt lat="44.96998" lon="6.63341">
        <ele>2011.06</ele>
        <time>2015-09-30T08:20:17Z</time>
      </trkpt>
      <trkpt lat="44.97007" lon="6.63336">
        <ele>2012.91</ele>
        <time>2015-09-30T08:20:26Z</time>
      </trkpt>
      <trkpt lat="44.97007" lon="6.63323">
        <ele>2014.54</ele>
        <time>2015-09-30T08:20:34Z</time>
      </trkpt>
      <trkpt lat="44.97007" lon="6.63321">
        <ele>2014.68</ele>
        <time>2015-09-30T08:20:35Z</time>
      </trkpt>
      <trkpt lat="44.97003" lon="6.63311">
        <ele>2015.78</ele>
        <time>2015-09-30T08:20:43Z</time>
      </trkpt>
      <trkpt lat="44.97003" lon="6.63307">
        <ele>2016.96</ele>
        <time>2015-09-30T08:20:53Z</time>
      </trkpt>
      <trkpt lat="44.97003" lon="6.63292">
        <ele>2018.41</ele>
        <time>2015-09-30T08:21:04Z</time>
      </trkpt>
      <trkpt lat="44.97007" lon="6.63283">
        <ele>2019.88</ele>
        <time>2015-09-30T08:21:12Z</time>
      </trkpt>
      <trkpt lat="44.97011" lon="6.63274">
        <ele>2021.49</ele>
        <time>2015-09-30T08:21:21Z</time>
      </trkpt>
      <trkpt lat="44.97015" lon="6.63268">
        <ele>2022.65</ele>
        <time>2015-09-30T08:21:30Z</time>
      </trkpt>
      <trkpt lat="44.97015" lon="6.63269">
        <ele>2023.57</ele>
        <time>2015-09-30T08:21:40Z</time>
      </trkpt>
      <trkpt lat="44.9702" lon="6.63264">
        <ele>2024.39</ele>
        <time>2015-09-30T08:21:46Z</time>
      </trkpt>
      <trkpt lat="44.97029" lon="6.63255">
        <ele>2025.96</ele>
        <time>2015-09-30T08:21:56Z</time>
      </trkpt>
      <trkpt lat="44.97036" lon="6.63248">
        <ele>2027.74</ele>
        <time>2015-09-30T08:22:05Z</time>
      </trkpt>
      <trkpt lat="44.97043" lon="6.6324">
        <ele>2029.72</ele>
        <time>2015-09-30T08:22:15Z</time>
      </trkpt>
      <trkpt lat="44.97049" lon="6.63231">
        <ele>2031.15</ele>
        <time>2015-09-30T08:22:24Z</time>
      </trkpt>
      <trkpt lat="44.97055" lon="6.63223">
        <ele>2032.44</ele>
        <time>2015-09-30T08:22:32Z</time>
      </trkpt>
      <trkpt lat="44.9706" lon="6.63214">
        <ele>2034.1</ele>
        <time>2015-09-30T08:22:40Z</time>
      </trkpt>
      <trkpt lat="44.97062" lon="6.63213">
        <ele>2034.44</ele>
        <time>2015-09-30T08:22:42Z</time>
      </trkpt>
      <trkpt lat="44.97066" lon="6.63206">
        <ele>2035.74</ele>
        <time>2015-09-30T08:22:49Z</time>
      </trkpt>
      <trkpt lat="44.97073" lon="6.63197">
        <ele>2037.69</ele>
        <time>2015-09-30T08:22:58Z</time>
      </trkpt>
      <trkpt lat="44.97079" lon="6.63193">
        <ele>2039.11</ele>
        <time>2015-09-30T08:23:05Z</time>
      </trkpt>
      <trkpt lat="44.97086" lon="6.63183">
        <ele>2040.51</ele>
        <time>2015-09-30T08:23:14Z</time>
      </trkpt>
      <trkpt lat="44.9709" lon="6.63173">
        <ele>2041.53</ele>
        <time>2015-09-30T08:23:21Z</time>
      </trkpt>
      <trkpt lat="44.97091" lon="6.63161">
        <ele>2042.85</ele>
        <time>2015-09-30T08:23:29Z</time>
      </trkpt>
      <trkpt lat="44.97092" lon="6.6316">
        <ele>2042.94</ele>
        <time>2015-09-30T08:23:30Z</time>
      </trkpt>
      <trkpt lat="44.97098" lon="6.63149">
        <ele>2044.12</ele>
        <time>2015-09-30T08:23:40Z</time>
      </trkpt>
      <trkpt lat="44.97103" lon="6.63138">
        <ele>2045.44</ele>
        <time>2015-09-30T08:23:49Z</time>
      </trkpt>
      <trkpt lat="44.97108" lon="6.63124">
        <ele>2047.02</ele>
        <time>2015-09-30T08:24:00Z</time>
      </trkpt>
      <trkpt lat="44.9711" lon="6.63113">
        <ele>2048.13</ele>
        <time>2015-09-30T08:24:08Z</time>
      </trkpt>
      <trkpt lat="44.97118" lon="6.63098">
        <ele>2050.24</ele>
        <time>2015-09-30T08:24:20Z</time>
      </trkpt>
      <trkpt lat="44.97125" lon="6.63091">
        <ele>2051.67</ele>
        <time>2015-09-30T08:24:29Z</time>
      </trkpt>
      <trkpt lat="44.97129" lon="6.63085">
        <ele>2052.5</ele>
        <time>2015-09-30T08:24:35Z</time>
      </trkpt>
      <trkpt lat="44.97133" lon="6.63076">
        <ele>2053.76</ele>
        <time>2015-09-30T08:24:43Z</time>
      </trkpt>
      <trkpt lat="44.97142" lon="6.63068">
        <ele>2055.7</ele>
        <time>2015-09-30T08:24:54Z</time>
      </trkpt>
      <trkpt lat="44.9715" lon="6.63057">
        <ele>2057.41</ele>
        <time>2015-09-30T08:25:05Z</time>
      </trkpt>
      <trkpt lat="44.97157" lon="6.63046">
        <ele>2058.92</ele>
        <time>2015-09-30T08:25:16Z</time>
      </trkpt>
      <trkpt lat="44.97158" lon="6.63045">
        <ele>2059.04</ele>
        <time>2015-09-30T08:25:17Z</time>
      </trkpt>
      <trkpt lat="44.97168" lon="6.63028">
        <ele>2061.46</ele>
        <time>2015-09-30T08:25:30Z</time>
      </trkpt>
      <trkpt lat="44.97173" lon="6.6302">
        <ele>2062.33</ele>
        <time>2015-09-30T08:25:37Z</time>
      </trkpt>
      <trkpt lat="44.97178" lon="6.63008">
        <ele>2063.73</ele>
        <time>2015-09-30T08:25:46Z</time>
      </trkpt>
      <trkpt lat="44.97183" lon="6.62996">
        <ele>2065.47</ele>
        <time>2015-09-30T08:25:56Z</time>
      </trkpt>
      <trkpt lat="44.97185" lon="6.62983">
        <ele>2067.04</ele>
        <time>2015-09-30T08:26:05Z</time>
      </trkpt>
      <trkpt lat="44.97186" lon="6.62974">
        <ele>2067.88</ele>
        <time>2015-09-30T08:26:11Z</time>
      </trkpt>
      <trkpt lat="44.97185" lon="6.62959">
        <ele>2069.73</ele>
        <time>2015-09-30T08:26:21Z</time>
      </trkpt>
      <trkpt lat="44.97187" lon="6.62949">
        <ele>2071.05</ele>
        <time>2015-09-30T08:26:29Z</time>
      </trkpt>
      <trkpt lat="44.97192" lon="6.62937">
        <ele>2072.34</ele>
        <time>2015-09-30T08:26:38Z</time>
      </trkpt>
      <trkpt lat="44.97193" lon="6.62934">
        <ele>2072.81</ele>
        <time>2015-09-30T08:26:40Z</time>
      </trkpt>
      <trkpt lat="44.97197" lon="6.62928">
        <ele>2073.51</ele>
        <time>2015-09-30T08:26:45Z</time>
      </trkpt>
      <trkpt lat="44.97199" lon="6.62922">
        <ele>2074.42</ele>
        <time>2015-09-30T08:26:50Z</time>
      </trkpt>
      <trkpt lat="44.97203" lon="6.6291">
        <ele>2075.54</ele>
        <time>2015-09-30T08:26:59Z</time>
      </trkpt>
      <trkpt lat="44.97205" lon="6.62906">
        <ele>2075.89</ele>
        <time>2015-09-30T08:27:01Z</time>
      </trkpt>
      <trkpt lat="44.97206" lon="6.62904">
        <ele>2076.2</ele>
        <time>2015-09-30T08:27:03Z</time>
      </trkpt>
      <trkpt lat="44.97205" lon="6.62899">
        <ele>2076.72</ele>
        <time>2015-09-30T08:27:06Z</time>
      </trkpt>
      <trkpt lat="44.97206" lon="6.62888">
        <ele>2077.38</ele>
        <time>2015-09-30T08:27:14Z</time>
      </trkpt>
      <trkpt lat="44.97204" lon="6.62877">
        <ele>2078.43</ele>
        <time>2015-09-30T08:27:21Z</time>
      </trkpt>
      <trkpt lat="44.97207" lon="6.62862">
        <ele>2080.24</ele>
        <time>2015-09-30T08:27:31Z</time>
      </trkpt>
      <trkpt lat="44.97214" lon="6.62853">
        <ele>2081.7</ele>
        <time>2015-09-30T08:27:39Z</time>
      </trkpt>
      <trkpt lat="44.97216" lon="6.62847">
        <ele>2082.93</ele>
        <time>2015-09-30T08:27:46Z</time>
      </trkpt>
      <trkpt lat="44.97217" lon="6.62835">
        <ele>2084.48</ele>
        <time>2015-09-30T08:27:56Z</time>
      </trkpt>
      <trkpt lat="44.97218" lon="6.62826">
        <ele>2085.63</ele>
        <time>2015-09-30T08:28:04Z</time>
      </trkpt>
      <trkpt lat="44.97218" lon="6.62822">
        <ele>2086.04</ele>
        <time>2015-09-30T08:28:07Z</time>
      </trkpt>
      <trkpt lat="44.97218" lon="6.62814">
        <ele>2086.95</ele>
        <time>2015-09-30T08:28:14Z</time>
      </trkpt>
      <trkpt lat="44.97223" lon="6.62801">
        <ele>2088.39</ele>
        <time>2015-09-30T08:28:24Z</time>
      </trkpt>
      <trkpt lat="44.97225" lon="6.62787">
        <ele>2090.28</ele>
        <time>2015-09-30T08:28:35Z</time>
      </trkpt>
      <trkpt lat="44.97225" lon="6.62785">
        <ele>2090.42</ele>
        <time>2015-09-30T08:28:36Z</time>
      </trkpt>
      <trkpt lat="44.97227" lon="6.62772">
        <ele>2092.01</ele>
        <time>2015-09-30T08:28:46Z</time>
      </trkpt>
      <trkpt lat="44.97229" lon="6.6276">
        <ele>2093.29</ele>
        <time>2015-09-30T08:28:56Z</time>
      </trkpt>
      <trkpt lat="44.97228" lon="6.62753">
        <ele>2093.9</ele>
        <time>2015-09-30T08:29:02Z</time>
      </trkpt>
      <trkpt lat="44.97232" lon="6.62739">
        <ele>2095.5</ele>
        <time>2015-09-30T08:29:13Z</time>
      </trkpt>
      <trkpt lat="44.97232" lon="6.62731">
        <ele>2095.95</ele>
        <time>2015-09-30T08:29:18Z</time>
      </trkpt>
      <trkpt lat="44.9723" lon="6.62718">
        <ele>2097.58</ele>
        <time>2015-09-30T08:29:28Z</time>
      </trkpt>
      <trkpt lat="44.97231" lon="6.62715">
        <ele>2097.85</ele>
        <time>2015-09-30T08:29:30Z</time>
      </trkpt>
      <trkpt lat="44.97232" lon="6.62711">
        <ele>2098.28</ele>
        <time>2015-09-30T08:29:33Z</time>
      </trkpt>
      <trkpt lat="44.97231" lon="6.62694">
        <ele>2099.78</ele>
        <time>2015-09-30T08:29:45Z</time>
      </trkpt>
      <trkpt lat="44.97231" lon="6.62687">
        <ele>2100.93</ele>
        <time>2015-09-30T08:29:54Z</time>
      </trkpt>
      <trkpt lat="44.97232" lon="6.62687">
        <ele>2102.45</ele>
        <time>2015-09-30T08:30:19Z</time>
      </trkpt>
      <trkpt lat="44.97234" lon="6.62682">
        <ele>2102.81</ele>
        <time>2015-09-30T08:30:28Z</time>
      </trkpt>
      <trkpt lat="44.97235" lon="6.62683">
        <ele>2103.57</ele>
        <time>2015-09-30T08:30:37Z</time>
      </trkpt>
      <trkpt lat="44.97234" lon="6.62682">
        <ele>2104.39</ele>
        <time>2015-09-30T08:30:59Z</time>
      </trkpt>
      <trkpt lat="44.97239" lon="6.62678">
        <ele>2104.67</ele>
        <time>2015-09-30T08:31:15Z</time>
      </trkpt>
      <trkpt lat="44.97244" lon="6.6268">
        <ele>2105.45</ele>
        <time>2015-09-30T08:31:24Z</time>
      </trkpt>
      <trkpt lat="44.97243" lon="6.62681">
        <ele>2106.72</ele>
        <time>2015-09-30T08:31:46Z</time>
      </trkpt>
      <trkpt lat="44.97243" lon="6.62682">
        <ele>2107.2</ele>
        <time>2015-09-30T08:32:06Z</time>
      </trkpt>
      <trkpt lat="44.97242" lon="6.62683">
        <ele>2107.83</ele>
        <time>2015-09-30T08:32:18Z</time>
      </trkpt>
      <trkpt lat="44.97245" lon="6.62688">
        <ele>2107.83</ele>
        <time>2015-09-30T08:32:23Z</time>
      </trkpt>
      <trkpt lat="44.97245" lon="6.62695">
        <ele>2107.96</ele>
        <time>2015-09-30T08:32:27Z</time>
      </trkpt>
      <trkpt lat="44.97244" lon="6.62703">
        <ele>2108.42</ele>
        <time>2015-09-30T08:32:33Z</time>
      </trkpt>
      <trkpt lat="44.97248" lon="6.6272">
        <ele>2109.11</ele>
        <time>2015-09-30T08:32:43Z</time>
      </trkpt>
      <trkpt lat="44.97252" lon="6.62724">
        <ele>2109.79</ele>
        <time>2015-09-30T08:32:47Z</time>
      </trkpt>
      <trkpt lat="44.97254" lon="6.62727">
        <ele>2110.27</ele>
        <time>2015-09-30T08:32:50Z</time>
      </trkpt>
      <trkpt lat="44.97256" lon="6.62734">
        <ele>2111</ele>
        <time>2015-09-30T08:32:55Z</time>
      </trkpt>
      <trkpt lat="44.97259" lon="6.62743">
        <ele>2111.76</ele>
        <time>2015-09-30T08:33:03Z</time>
      </trkpt>
      <trkpt lat="44.97259" lon="6.62757">
        <ele>2112.83</ele>
        <time>2015-09-30T08:33:12Z</time>
      </trkpt>
      <trkpt lat="44.97259" lon="6.6277">
        <ele>2114.1</ele>
        <time>2015-09-30T08:33:21Z</time>
      </trkpt>
      <trkpt lat="44.97261" lon="6.62782">
        <ele>2115.35</ele>
        <time>2015-09-30T08:33:29Z</time>
      </trkpt>
      <trkpt lat="44.97264" lon="6.62792">
        <ele>2116.45</ele>
        <time>2015-09-30T08:33:37Z</time>
      </trkpt>
      <trkpt lat="44.97267" lon="6.62796">
        <ele>2117.14</ele>
        <time>2015-09-30T08:33:41Z</time>
      </trkpt>
      <trkpt lat="44.9727" lon="6.62798">
        <ele>2117.7</ele>
        <time>2015-09-30T08:33:45Z</time>
      </trkpt>
      <trkpt lat="44.97273" lon="6.62798">
        <ele>2117.9</ele>
        <time>2015-09-30T08:33:47Z</time>
      </trkpt>
      <trkpt lat="44.97279" lon="6.62798">
        <ele>2118.79</ele>
        <time>2015-09-30T08:33:55Z</time>
      </trkpt>
      <trkpt lat="44.9728" lon="6.62799">
        <ele>2118.95</ele>
        <time>2015-09-30T08:33:56Z</time>
      </trkpt>
      <trkpt lat="44.97288" lon="6.62807">
        <ele>2120.39</ele>
        <time>2015-09-30T08:34:06Z</time>
      </trkpt>
      <trkpt lat="44.97295" lon="6.62814">
        <ele>2121.58</ele>
        <time>2015-09-30T08:34:14Z</time>
      </trkpt>
      <trkpt lat="44.97298" lon="6.62819">
        <ele>2122.45</ele>
        <time>2015-09-30T08:34:21Z</time>
      </trkpt>
      <trkpt lat="44.973" lon="6.62829">
        <ele>2123.56</ele>
        <time>2015-09-30T08:34:31Z</time>
      </trkpt>
      <trkpt lat="44.97297" lon="6.62838">
        <ele>2124.85</ele>
        <time>2015-09-30T08:34:39Z</time>
      </trkpt>
      <trkpt lat="44.97296" lon="6.62841">
        <ele>2125.29</ele>
        <time>2015-09-30T08:34:41Z</time>
      </trkpt>
      <trkpt lat="44.97295" lon="6.62854">
        <ele>2126.95</ele>
        <time>2015-09-30T08:34:51Z</time>
      </trkpt>
      <trkpt lat="44.97295" lon="6.62861">
        <ele>2127.85</ele>
        <time>2015-09-30T08:34:57Z</time>
      </trkpt>
      <trkpt lat="44.97301" lon="6.6287">
        <ele>2129.14</ele>
        <time>2015-09-30T08:35:06Z</time>
      </trkpt>
      <trkpt lat="44.97301" lon="6.62874">
        <ele>2129.73</ele>
        <time>2015-09-30T08:35:13Z</time>
      </trkpt>
      <trkpt lat="44.97307" lon="6.62884">
        <ele>2130.38</ele>
        <time>2015-09-30T08:35:22Z</time>
      </trkpt>
      <trkpt lat="44.97312" lon="6.62895">
        <ele>2131.46</ele>
        <time>2015-09-30T08:35:31Z</time>
      </trkpt>
      <trkpt lat="44.97313" lon="6.62899">
        <ele>2131.89</ele>
        <time>2015-09-30T08:35:34Z</time>
      </trkpt>
      <trkpt lat="44.97313" lon="6.62915">
        <ele>2133.16</ele>
        <time>2015-09-30T08:35:45Z</time>
      </trkpt>
      <trkpt lat="44.97312" lon="6.62929">
        <ele>2134.53</ele>
        <time>2015-09-30T08:35:54Z</time>
      </trkpt>
      <trkpt lat="44.97311" lon="6.6294">
        <ele>2135.38</ele>
        <time>2015-09-30T08:36:02Z</time>
      </trkpt>
      <trkpt lat="44.97312" lon="6.62955">
        <ele>2136.89</ele>
        <time>2015-09-30T08:36:11Z</time>
      </trkpt>
      <trkpt lat="44.97314" lon="6.62967">
        <ele>2138.58</ele>
        <time>2015-09-30T08:36:19Z</time>
      </trkpt>
      <trkpt lat="44.97316" lon="6.62981">
        <ele>2140.36</ele>
        <time>2015-09-30T08:36:29Z</time>
      </trkpt>
      <trkpt lat="44.97313" lon="6.62997">
        <ele>2141.32</ele>
        <time>2015-09-30T08:36:39Z</time>
      </trkpt>
      <trkpt lat="44.9731" lon="6.63012">
        <ele>2142.31</ele>
        <time>2015-09-30T08:36:49Z</time>
      </trkpt>
      <trkpt lat="44.97309" lon="6.63025">
        <ele>2143.54</ele>
        <time>2015-09-30T08:36:58Z</time>
      </trkpt>
      <trkpt lat="44.97308" lon="6.6304">
        <ele>2145.39</ele>
        <time>2015-09-30T08:37:08Z</time>
      </trkpt>
      <trkpt lat="44.97307" lon="6.63055">
        <ele>2146.71</ele>
        <time>2015-09-30T08:37:18Z</time>
      </trkpt>
      <trkpt lat="44.97306" lon="6.63071">
        <ele>2148.45</ele>
        <time>2015-09-30T08:37:29Z</time>
      </trkpt>
      <trkpt lat="44.97305" lon="6.63087">
        <ele>2149.44</ele>
        <time>2015-09-30T08:37:39Z</time>
      </trkpt>
      <trkpt lat="44.97305" lon="6.63098">
        <ele>2150.54</ele>
        <time>2015-09-30T08:37:47Z</time>
      </trkpt>
      <trkpt lat="44.97306" lon="6.63113">
        <ele>2151.73</ele>
        <time>2015-09-30T08:37:57Z</time>
      </trkpt>
      <trkpt lat="44.97303" lon="6.63126">
        <ele>2152.99</ele>
        <time>2015-09-30T08:38:06Z</time>
      </trkpt>
      <trkpt lat="44.97301" lon="6.63139">
        <ele>2154.35</ele>
        <time>2015-09-30T08:38:15Z</time>
      </trkpt>
      <trkpt lat="44.97301" lon="6.63155">
        <ele>2155.93</ele>
        <time>2015-09-30T08:38:25Z</time>
      </trkpt>
      <trkpt lat="44.97302" lon="6.63165">
        <ele>2156.86</ele>
        <time>2015-09-30T08:38:31Z</time>
      </trkpt>
      <trkpt lat="44.97302" lon="6.63179">
        <ele>2158.34</ele>
        <time>2015-09-30T08:38:40Z</time>
      </trkpt>
      <trkpt lat="44.97304" lon="6.63193">
        <ele>2159.65</ele>
        <time>2015-09-30T08:38:49Z</time>
      </trkpt>
      <trkpt lat="44.97303" lon="6.63207">
        <ele>2161.17</ele>
        <time>2015-09-30T08:38:59Z</time>
      </trkpt>
      <trkpt lat="44.97302" lon="6.63219">
        <ele>2162.82</ele>
        <time>2015-09-30T08:39:08Z</time>
      </trkpt>
      <trkpt lat="44.973" lon="6.63234">
        <ele>2164.57</ele>
        <time>2015-09-30T08:39:18Z</time>
      </trkpt>
      <trkpt lat="44.97299" lon="6.63237">
        <ele>2164.99</ele>
        <time>2015-09-30T08:39:21Z</time>
      </trkpt>
      <trkpt lat="44.97292" lon="6.63247">
        <ele>2166.1</ele>
        <time>2015-09-30T08:39:30Z</time>
      </trkpt>
      <trkpt lat="44.97287" lon="6.63255">
        <ele>2167.08</ele>
        <time>2015-09-30T08:39:37Z</time>
      </trkpt>
      <trkpt lat="44.97283" lon="6.63267">
        <ele>2168.78</ele>
        <time>2015-09-30T08:39:46Z</time>
      </trkpt>
      <trkpt lat="44.9728" lon="6.63279">
        <ele>2170.47</ele>
        <time>2015-09-30T08:39:55Z</time>
      </trkpt>
      <trkpt lat="44.97278" lon="6.63293">
        <ele>2171.96</ele>
        <time>2015-09-30T08:40:05Z</time>
      </trkpt>
      <trkpt lat="44.97276" lon="6.63306">
        <ele>2173.15</ele>
        <time>2015-09-30T08:40:15Z</time>
      </trkpt>
      <trkpt lat="44.97274" lon="6.63319">
        <ele>2174.63</ele>
        <time>2015-09-30T08:40:24Z</time>
      </trkpt>
      <trkpt lat="44.97272" lon="6.63329">
        <ele>2175.79</ele>
        <time>2015-09-30T08:40:32Z</time>
      </trkpt>
      <trkpt lat="44.97272" lon="6.6334">
        <ele>2176.6</ele>
        <time>2015-09-30T08:40:40Z</time>
      </trkpt>
      <trkpt lat="44.9727" lon="6.63352">
        <ele>2177.81</ele>
        <time>2015-09-30T08:40:48Z</time>
      </trkpt>
      <trkpt lat="44.97268" lon="6.63368">
        <ele>2179.4</ele>
        <time>2015-09-30T08:40:58Z</time>
      </trkpt>
      <trkpt lat="44.97268" lon="6.63384">
        <ele>2180.62</ele>
        <time>2015-09-30T08:41:07Z</time>
      </trkpt>
      <trkpt lat="44.9727" lon="6.63398">
        <ele>2181.72</ele>
        <time>2015-09-30T08:41:15Z</time>
      </trkpt>
      <trkpt lat="44.97273" lon="6.63411">
        <ele>2182.91</ele>
        <time>2015-09-30T08:41:23Z</time>
      </trkpt>
      <trkpt lat="44.97276" lon="6.63428">
        <ele>2184.27</ele>
        <time>2015-09-30T08:41:33Z</time>
      </trkpt>
      <trkpt lat="44.97279" lon="6.63445">
        <ele>2186.14</ele>
        <time>2015-09-30T08:41:44Z</time>
      </trkpt>
      <trkpt lat="44.97281" lon="6.63451">
        <ele>2186.64</ele>
        <time>2015-09-30T08:41:48Z</time>
      </trkpt>
      <trkpt lat="44.97283" lon="6.63459">
        <ele>2187.67</ele>
        <time>2015-09-30T08:41:55Z</time>
      </trkpt>
      <trkpt lat="44.97284" lon="6.63471">
        <ele>2188.82</ele>
        <time>2015-09-30T08:42:04Z</time>
      </trkpt>
      <trkpt lat="44.97288" lon="6.63473">
        <ele>2189.67</ele>
        <time>2015-09-30T08:42:12Z</time>
      </trkpt>
      <trkpt lat="44.97292" lon="6.63469">
        <ele>2190.25</ele>
        <time>2015-09-30T08:42:17Z</time>
      </trkpt>
      <trkpt lat="44.97292" lon="6.63451">
        <ele>2190.84</ele>
        <time>2015-09-30T08:42:28Z</time>
      </trkpt>
      <trkpt lat="44.9729" lon="6.63436">
        <ele>2191.67</ele>
        <time>2015-09-30T08:42:37Z</time>
      </trkpt>
      <trkpt lat="44.97289" lon="6.63429">
        <ele>2192.26</ele>
        <time>2015-09-30T08:42:42Z</time>
      </trkpt>
      <trkpt lat="44.97288" lon="6.63425">
        <ele>2193.26</ele>
        <time>2015-09-30T08:42:50Z</time>
      </trkpt>
      <trkpt lat="44.97288" lon="6.63425">
        <ele>2193.44</ele>
        <time>2015-09-30T08:42:55Z</time>
      </trkpt>
      <trkpt lat="44.97289" lon="6.6342">
        <ele>2193.52</ele>
        <time>2015-09-30T08:43:04Z</time>
      </trkpt>
      <trkpt lat="44.97291" lon="6.63414">
        <ele>2193.98</ele>
        <time>2015-09-30T08:43:09Z</time>
      </trkpt>
      <trkpt lat="44.97294" lon="6.63401">
        <ele>2195.47</ele>
        <time>2015-09-30T08:43:18Z</time>
      </trkpt>
      <trkpt lat="44.97298" lon="6.63386">
        <ele>2196.93</ele>
        <time>2015-09-30T08:43:28Z</time>
      </trkpt>
      <trkpt lat="44.97298" lon="6.63385">
        <ele>2197.1</ele>
        <time>2015-09-30T08:43:29Z</time>
      </trkpt>
      <trkpt lat="44.97302" lon="6.63372">
        <ele>2198.45</ele>
        <time>2015-09-30T08:43:39Z</time>
      </trkpt>
      <trkpt lat="44.97306" lon="6.63358">
        <ele>2199.58</ele>
        <time>2015-09-30T08:43:49Z</time>
      </trkpt>
      <trkpt lat="44.97307" lon="6.63354">
        <ele>2199.97</ele>
        <time>2015-09-30T08:43:52Z</time>
      </trkpt>
      <trkpt lat="44.97308" lon="6.63341">
        <ele>2201.42</ele>
        <time>2015-09-30T08:44:01Z</time>
      </trkpt>
      <trkpt lat="44.97309" lon="6.63339">
        <ele>2201.71</ele>
        <time>2015-09-30T08:44:03Z</time>
      </trkpt>
      <trkpt lat="44.97311" lon="6.63337">
        <ele>2201.92</ele>
        <time>2015-09-30T08:44:05Z</time>
      </trkpt>
      <trkpt lat="44.97316" lon="6.63337">
        <ele>2202.31</ele>
        <time>2015-09-30T08:44:09Z</time>
      </trkpt>
      <trkpt lat="44.97318" lon="6.63351">
        <ele>2203.46</ele>
        <time>2015-09-30T08:44:19Z</time>
      </trkpt>
      <trkpt lat="44.97316" lon="6.63364">
        <ele>2204.25</ele>
        <time>2015-09-30T08:44:27Z</time>
      </trkpt>
      <trkpt lat="44.97315" lon="6.63375">
        <ele>2204.91</ele>
        <time>2015-09-30T08:44:34Z</time>
      </trkpt>
      <trkpt lat="44.97317" lon="6.63388">
        <ele>2206.28</ele>
        <time>2015-09-30T08:44:43Z</time>
      </trkpt>
      <trkpt lat="44.97317" lon="6.63389">
        <ele>2206.4</ele>
        <time>2015-09-30T08:44:44Z</time>
      </trkpt>
      <trkpt lat="44.97318" lon="6.63393">
        <ele>2206.79</ele>
        <time>2015-09-30T08:44:47Z</time>
      </trkpt>
      <trkpt lat="44.97323" lon="6.63406">
        <ele>2208.25</ele>
        <time>2015-09-30T08:44:56Z</time>
      </trkpt>
      <trkpt lat="44.97328" lon="6.63412">
        <ele>2208.93</ele>
        <time>2015-09-30T08:45:02Z</time>
      </trkpt>
      <trkpt lat="44.97332" lon="6.63425">
        <ele>2210.63</ele>
        <time>2015-09-30T08:45:12Z</time>
      </trkpt>
      <trkpt lat="44.97337" lon="6.63435">
        <ele>2212.19</ele>
        <time>2015-09-30T08:45:21Z</time>
      </trkpt>
      <trkpt lat="44.97341" lon="6.63448">
        <ele>2213.67</ele>
        <time>2015-09-30T08:45:31Z</time>
      </trkpt>
      <trkpt lat="44.97343" lon="6.63455">
        <ele>2214.63</ele>
        <time>2015-09-30T08:45:36Z</time>
      </trkpt>
      <trkpt lat="44.97342" lon="6.63461">
        <ele>2215.54</ele>
        <time>2015-09-30T08:45:40Z</time>
      </trkpt>
      <trkpt lat="44.97346" lon="6.63465">
        <ele>2216.17</ele>
        <time>2015-09-30T08:45:45Z</time>
      </trkpt>
      <trkpt lat="44.97351" lon="6.63463">
        <ele>2216.57</ele>
        <time>2015-09-30T08:45:50Z</time>
      </trkpt>
      <trkpt lat="44.97354" lon="6.63457">
        <ele>2216.84</ele>
        <time>2015-09-30T08:45:54Z</time>
      </trkpt>
      <trkpt lat="44.97355" lon="6.63441">
        <ele>2218.16</ele>
        <time>2015-09-30T08:46:05Z</time>
      </trkpt>
      <trkpt lat="44.97355" lon="6.63431">
        <ele>2218.95</ele>
        <time>2015-09-30T08:46:11Z</time>
      </trkpt>
      <trkpt lat="44.97358" lon="6.63419">
        <ele>2219.87</ele>
        <time>2015-09-30T08:46:19Z</time>
      </trkpt>
      <trkpt lat="44.97363" lon="6.63405">
        <ele>2221.2</ele>
        <time>2015-09-30T08:46:29Z</time>
      </trkpt>
      <trkpt lat="44.97367" lon="6.634">
        <ele>2222.31</ele>
        <time>2015-09-30T08:46:35Z</time>
      </trkpt>
      <trkpt lat="44.97367" lon="6.63397">
        <ele>2222.57</ele>
        <time>2015-09-30T08:46:37Z</time>
      </trkpt>
      <trkpt lat="44.97369" lon="6.63395">
        <ele>2222.78</ele>
        <time>2015-09-30T08:46:39Z</time>
      </trkpt>
      <trkpt lat="44.9737" lon="6.63391">
        <ele>2223.1</ele>
        <time>2015-09-30T08:46:42Z</time>
      </trkpt>
      <trkpt lat="44.97376" lon="6.63378">
        <ele>2224.74</ele>
        <time>2015-09-30T08:46:52Z</time>
      </trkpt>
      <trkpt lat="44.97382" lon="6.63366">
        <ele>2225.97</ele>
        <time>2015-09-30T08:47:02Z</time>
      </trkpt>
      <trkpt lat="44.97389" lon="6.63355">
        <ele>2227.8</ele>
        <time>2015-09-30T08:47:12Z</time>
      </trkpt>
      <trkpt lat="44.9739" lon="6.63354">
        <ele>2228.86</ele>
        <time>2015-09-30T08:47:21Z</time>
      </trkpt>
      <trkpt lat="44.9739" lon="6.63353">
        <ele>2229.18</ele>
        <time>2015-09-30T08:47:44Z</time>
      </trkpt>
      <trkpt lat="44.97391" lon="6.63351">
        <ele>2229.65</ele>
        <time>2015-09-30T08:47:56Z</time>
      </trkpt>
      <trkpt lat="44.97393" lon="6.63348">
        <ele>2229.71</ele>
        <time>2015-09-30T08:47:59Z</time>
      </trkpt>
      <trkpt lat="44.97398" lon="6.63341">
        <ele>2230.31</ele>
        <time>2015-09-30T08:48:05Z</time>
      </trkpt>
      <trkpt lat="44.974" lon="6.63337">
        <ele>2230.7</ele>
        <time>2015-09-30T08:48:08Z</time>
      </trkpt>
      <trkpt lat="44.97403" lon="6.63324">
        <ele>2231.7</ele>
        <time>2015-09-30T08:48:16Z</time>
      </trkpt>
      <trkpt lat="44.9741" lon="6.63311">
        <ele>2233.21</ele>
        <time>2015-09-30T08:48:26Z</time>
      </trkpt>
      <trkpt lat="44.97412" lon="6.63302">
        <ele>2233.99</ele>
        <time>2015-09-30T08:48:32Z</time>
      </trkpt>
      <trkpt lat="44.97415" lon="6.63291">
        <ele>2235.25</ele>
        <time>2015-09-30T08:48:40Z</time>
      </trkpt>
      <trkpt lat="44.97419" lon="6.63278">
        <ele>2236.46</ele>
        <time>2015-09-30T08:48:49Z</time>
      </trkpt>
      <trkpt lat="44.97424" lon="6.63264">
        <ele>2238.12</ele>
        <time>2015-09-30T08:49:00Z</time>
      </trkpt>
      <trkpt lat="44.97428" lon="6.6325">
        <ele>2239.48</ele>
        <time>2015-09-30T08:49:10Z</time>
      </trkpt>
      <trkpt lat="44.97429" lon="6.63248">
        <ele>2239.6</ele>
        <time>2015-09-30T08:49:11Z</time>
      </trkpt>
      <trkpt lat="44.9743" lon="6.63243">
        <ele>2239.99</ele>
        <time>2015-09-30T08:49:15Z</time>
      </trkpt>
      <trkpt lat="44.97433" lon="6.63239">
        <ele>2240.56</ele>
        <time>2015-09-30T08:49:19Z</time>
      </trkpt>
      <trkpt lat="44.97436" lon="6.63236">
        <ele>2241.32</ele>
        <time>2015-09-30T08:49:23Z</time>
      </trkpt>
      <trkpt lat="44.97438" lon="6.63237">
        <ele>2242.84</ele>
        <time>2015-09-30T08:49:30Z</time>
      </trkpt>
      <trkpt lat="44.97438" lon="6.63237">
        <ele>2243.69</ele>
        <time>2015-09-30T08:49:52Z</time>
      </trkpt>
      <trkpt lat="44.9744" lon="6.63239">
        <ele>2244.09</ele>
        <time>2015-09-30T08:50:03Z</time>
      </trkpt>
      <trkpt lat="44.9744" lon="6.6324">
        <ele>2244.14</ele>
        <time>2015-09-30T08:50:04Z</time>
      </trkpt>
      <trkpt lat="44.97449" lon="6.63251">
        <ele>2245.5</ele>
        <time>2015-09-30T08:50:15Z</time>
      </trkpt>
      <trkpt lat="44.97454" lon="6.63263">
        <ele>2246.67</ele>
        <time>2015-09-30T08:50:24Z</time>
      </trkpt>
      <trkpt lat="44.9746" lon="6.63278">
        <ele>2248.08</ele>
        <time>2015-09-30T08:50:35Z</time>
      </trkpt>
      <trkpt lat="44.97466" lon="6.63288">
        <ele>2249.21</ele>
        <time>2015-09-30T08:50:43Z</time>
      </trkpt>
      <trkpt lat="44.9747" lon="6.63297">
        <ele>2250.07</ele>
        <time>2015-09-30T08:50:50Z</time>
      </trkpt>
      <trkpt lat="44.97474" lon="6.63303">
        <ele>2250.72</ele>
        <time>2015-09-30T08:50:55Z</time>
      </trkpt>
      <trkpt lat="44.97481" lon="6.63315">
        <ele>2252.42</ele>
        <time>2015-09-30T08:51:06Z</time>
      </trkpt>
      <trkpt lat="44.97486" lon="6.63327">
        <ele>2253.74</ele>
        <time>2015-09-30T08:51:15Z</time>
      </trkpt>
      <trkpt lat="44.97487" lon="6.63328">
        <ele>2253.8</ele>
        <time>2015-09-30T08:51:16Z</time>
      </trkpt>
      <trkpt lat="44.9749" lon="6.63334">
        <ele>2254.3</ele>
        <time>2015-09-30T08:51:21Z</time>
      </trkpt>
      <trkpt lat="44.97497" lon="6.63348">
        <ele>2255.62</ele>
        <time>2015-09-30T08:51:31Z</time>
      </trkpt>
      <trkpt lat="44.97503" lon="6.63359">
        <ele>2257.03</ele>
        <time>2015-09-30T08:51:40Z</time>
      </trkpt>
      <trkpt lat="44.9751" lon="6.6337">
        <ele>2258.28</ele>
        <time>2015-09-30T08:51:49Z</time>
      </trkpt>
      <trkpt lat="44.97511" lon="6.63375">
        <ele>2258.66</ele>
        <time>2015-09-30T08:51:52Z</time>
      </trkpt>
      <trkpt lat="44.97518" lon="6.63387">
        <ele>2259.74</ele>
        <time>2015-09-30T08:52:02Z</time>
      </trkpt>
      <trkpt lat="44.97523" lon="6.63399">
        <ele>2261.15</ele>
        <time>2015-09-30T08:52:11Z</time>
      </trkpt>
      <trkpt lat="44.97529" lon="6.63414">
        <ele>2262.91</ele>
        <time>2015-09-30T08:52:21Z</time>
      </trkpt>
      <trkpt lat="44.97531" lon="6.63421">
        <ele>2263.42</ele>
        <time>2015-09-30T08:52:26Z</time>
      </trkpt>
      <trkpt lat="44.97534" lon="6.63428">
        <ele>2263.9</ele>
        <time>2015-09-30T08:52:31Z</time>
      </trkpt>
      <trkpt lat="44.97539" lon="6.63446">
        <ele>2265.57</ele>
        <time>2015-09-30T08:52:43Z</time>
      </trkpt>
      <trkpt lat="44.97545" lon="6.63462">
        <ele>2266.78</ele>
        <time>2015-09-30T08:52:54Z</time>
      </trkpt>
      <trkpt lat="44.97549" lon="6.63475">
        <ele>2267.86</ele>
        <time>2015-09-30T08:53:03Z</time>
      </trkpt>
      <trkpt lat="44.9755" lon="6.63478">
        <ele>2268.01</ele>
        <time>2015-09-30T08:53:05Z</time>
      </trkpt>
      <trkpt lat="44.97555" lon="6.63493">
        <ele>2269.28</ele>
        <time>2015-09-30T08:53:16Z</time>
      </trkpt>
      <trkpt lat="44.97558" lon="6.63499">
        <ele>2269.71</ele>
        <time>2015-09-30T08:53:21Z</time>
      </trkpt>
      <trkpt lat="44.97562" lon="6.63514">
        <ele>2270.64</ele>
        <time>2015-09-30T08:53:31Z</time>
      </trkpt>
      <trkpt lat="44.97563" lon="6.63517">
        <ele>2271.01</ele>
        <time>2015-09-30T08:53:33Z</time>
      </trkpt>
      <trkpt lat="44.97571" lon="6.63539">
        <ele>2273.28</ele>
        <time>2015-09-30T08:53:48Z</time>
      </trkpt>
      <trkpt lat="44.97574" lon="6.63554">
        <ele>2274.64</ele>
        <time>2015-09-30T08:53:58Z</time>
      </trkpt>
      <trkpt lat="44.97577" lon="6.63563">
        <ele>2275.49</ele>
        <time>2015-09-30T08:54:05Z</time>
      </trkpt>
      <trkpt lat="44.97581" lon="6.63579">
        <ele>2276.75</ele>
        <time>2015-09-30T08:54:16Z</time>
      </trkpt>
      <trkpt lat="44.97586" lon="6.63593">
        <ele>2277.99</ele>
        <time>2015-09-30T08:54:26Z</time>
      </trkpt>
      <trkpt lat="44.97586" lon="6.63595">
        <ele>2278.12</ele>
        <time>2015-09-30T08:54:27Z</time>
      </trkpt>
      <trkpt lat="44.97594" lon="6.63603">
        <ele>2279.27</ele>
        <time>2015-09-30T08:54:36Z</time>
      </trkpt>
      <trkpt lat="44.97598" lon="6.636">
        <ele>2280.09</ele>
        <time>2015-09-30T08:54:40Z</time>
      </trkpt>
      <trkpt lat="44.97597" lon="6.63589">
        <ele>2281.47</ele>
        <time>2015-09-30T08:54:47Z</time>
      </trkpt>
      <trkpt lat="44.97597" lon="6.63584">
        <ele>2281.63</ele>
        <time>2015-09-30T08:54:50Z</time>
      </trkpt>
      <trkpt lat="44.97597" lon="6.63577">
        <ele>2282.2</ele>
        <time>2015-09-30T08:54:58Z</time>
      </trkpt>
      <trkpt lat="44.97596" lon="6.63576">
        <ele>2282.61</ele>
        <time>2015-09-30T08:55:22Z</time>
      </trkpt>
      <trkpt lat="44.97596" lon="6.63576">
        <ele>2283.28</ele>
        <time>2015-09-30T08:55:59Z</time>
      </trkpt>
      <trkpt lat="44.97592" lon="6.63572">
        <ele>2283.46</ele>
        <time>2015-09-30T08:56:09Z</time>
      </trkpt>
      <trkpt lat="44.97592" lon="6.6356">
        <ele>2283.59</ele>
        <time>2015-09-30T08:56:19Z</time>
      </trkpt>
      <trkpt lat="44.97592" lon="6.63551">
        <ele>2283.84</ele>
        <time>2015-09-30T08:56:26Z</time>
      </trkpt>
      <trkpt lat="44.9759" lon="6.63542">
        <ele>2283.91</ele>
        <time>2015-09-30T08:56:33Z</time>
      </trkpt>
      <trkpt lat="44.97589" lon="6.63539">
        <ele>2283.93</ele>
        <time>2015-09-30T08:56:35Z</time>
      </trkpt>
      <trkpt lat="44.97589" lon="6.63536">
        <ele>2283.98</ele>
        <time>2015-09-30T08:56:37Z</time>
      </trkpt>
      <trkpt lat="44.97588" lon="6.63534">
        <ele>2284.06</ele>
        <time>2015-09-30T08:56:39Z</time>
      </trkpt>
      <trkpt lat="44.97588" lon="6.6353">
        <ele>2284.3</ele>
        <time>2015-09-30T08:56:46Z</time>
      </trkpt>
      <trkpt lat="44.97587" lon="6.63527">
        <ele>2285.04</ele>
        <time>2015-09-30T08:57:10Z</time>
      </trkpt>
      <trkpt lat="44.97587" lon="6.63521">
        <ele>2285.31</ele>
        <time>2015-09-30T08:57:15Z</time>
      </trkpt>
      <trkpt lat="44.97588" lon="6.63516">
        <ele>2285.45</ele>
        <time>2015-09-30T08:57:19Z</time>
      </trkpt>
      <trkpt lat="44.97586" lon="6.63511">
        <ele>2285.49</ele>
        <time>2015-09-30T08:57:23Z</time>
      </trkpt>
      <trkpt lat="44.97586" lon="6.63491">
        <ele>2285.9</ele>
        <time>2015-09-30T08:57:35Z</time>
      </trkpt>
      <trkpt lat="44.97584" lon="6.63477">
        <ele>2286.1</ele>
        <time>2015-09-30T08:57:43Z</time>
      </trkpt>
      <trkpt lat="44.97586" lon="6.63467">
        <ele>2286.45</ele>
        <time>2015-09-30T08:57:48Z</time>
      </trkpt>
      <trkpt lat="44.97586" lon="6.63461">
        <ele>2286.58</ele>
        <time>2015-09-30T08:57:51Z</time>
      </trkpt>
      <trkpt lat="44.97591" lon="6.63448">
        <ele>2286.81</ele>
        <time>2015-09-30T08:58:00Z</time>
      </trkpt>
      <trkpt lat="44.97595" lon="6.63442">
        <ele>2287.11</ele>
        <time>2015-09-30T08:58:08Z</time>
      </trkpt>
      <trkpt lat="44.97596" lon="6.63443">
        <ele>2287.64</ele>
        <time>2015-09-30T08:58:46Z</time>
      </trkpt>
      <trkpt lat="44.97596" lon="6.63439">
        <ele>2287.97</ele>
        <time>2015-09-30T08:59:17Z</time>
      </trkpt>
      <trkpt lat="44.97601" lon="6.63426">
        <ele>2288.52</ele>
        <time>2015-09-30T08:59:24Z</time>
      </trkpt>
      <trkpt lat="44.97616" lon="6.63407">
        <ele>2289.25</ele>
        <time>2015-09-30T08:59:34Z</time>
      </trkpt>
      <trkpt lat="44.97636" lon="6.63386">
        <ele>2289.92</ele>
        <time>2015-09-30T08:59:45Z</time>
      </trkpt>
      <trkpt lat="44.97654" lon="6.63367">
        <ele>2290.11</ele>
        <time>2015-09-30T08:59:55Z</time>
      </trkpt>
      <trkpt lat="44.97665" lon="6.63344">
        <ele>2290.58</ele>
        <time>2015-09-30T09:00:03Z</time>
      </trkpt>
      <trkpt lat="44.97666" lon="6.63318">
        <ele>2291.08</ele>
        <time>2015-09-30T09:00:11Z</time>
      </trkpt>
      <trkpt lat="44.97659" lon="6.63287">
        <ele>2291.97</ele>
        <time>2015-09-30T09:00:22Z</time>
      </trkpt>
      <trkpt lat="44.97655" lon="6.6327">
        <ele>2292.35</ele>
        <time>2015-09-30T09:00:30Z</time>
      </trkpt>
      <trkpt lat="44.97655" lon="6.63265">
        <ele>2292.69</ele>
        <time>2015-09-30T09:00:35Z</time>
      </trkpt>
      <trkpt lat="44.97644" lon="6.63247">
        <ele>2293.01</ele>
        <time>2015-09-30T09:00:44Z</time>
      </trkpt>
      <trkpt lat="44.97631" lon="6.6324">
        <ele>2293.13</ele>
        <time>2015-09-30T09:00:52Z</time>
      </trkpt>
      <trkpt lat="44.97619" lon="6.63234">
        <ele>2293.57</ele>
        <time>2015-09-30T09:01:00Z</time>
      </trkpt>
      <trkpt lat="44.97608" lon="6.6323">
        <ele>2293.99</ele>
        <time>2015-09-30T09:01:07Z</time>
      </trkpt>
      <trkpt lat="44.97594" lon="6.63222">
        <ele>2294.89</ele>
        <time>2015-09-30T09:01:16Z</time>
      </trkpt>
      <trkpt lat="44.97579" lon="6.63209">
        <ele>2295.35</ele>
        <time>2015-09-30T09:01:25Z</time>
      </trkpt>
      <trkpt lat="44.97566" lon="6.63187">
        <ele>2295.91</ele>
        <time>2015-09-30T09:01:35Z</time>
      </trkpt>
      <trkpt lat="44.97556" lon="6.63167">
        <ele>2296.11</ele>
        <time>2015-09-30T09:01:44Z</time>
      </trkpt>
      <trkpt lat="44.97543" lon="6.63138">
        <ele>2296.83</ele>
        <time>2015-09-30T09:01:55Z</time>
      </trkpt>
      <trkpt lat="44.97535" lon="6.63112">
        <ele>2297.22</ele>
        <time>2015-09-30T09:02:04Z</time>
      </trkpt>
      <trkpt lat="44.97542" lon="6.63094">
        <ele>2297.66</ele>
        <time>2015-09-30T09:02:11Z</time>
      </trkpt>
      <trkpt lat="44.9756" lon="6.63083">
        <ele>2298.09</ele>
        <time>2015-09-30T09:02:20Z</time>
      </trkpt>
      <trkpt lat="44.97582" lon="6.63074">
        <ele>2298.72</ele>
        <time>2015-09-30T09:02:30Z</time>
      </trkpt>
      <trkpt lat="44.97604" lon="6.63065">
        <ele>2299.33</ele>
        <time>2015-09-30T09:02:40Z</time>
      </trkpt>
      <trkpt lat="44.97621" lon="6.63058">
        <ele>2299.81</ele>
        <time>2015-09-30T09:02:48Z</time>
      </trkpt>
      <trkpt lat="44.97641" lon="6.6305">
        <ele>2300.74</ele>
        <time>2015-09-30T09:02:57Z</time>
      </trkpt>
      <trkpt lat="44.97662" lon="6.63038">
        <ele>2301.28</ele>
        <time>2015-09-30T09:03:07Z</time>
      </trkpt>
      <trkpt lat="44.97674" lon="6.63025">
        <ele>2301.29</ele>
        <time>2015-09-30T09:03:14Z</time>
      </trkpt>
      <trkpt lat="44.97681" lon="6.63004">
        <ele>2302.18</ele>
        <time>2015-09-30T09:03:22Z</time>
      </trkpt>
      <trkpt lat="44.97688" lon="6.62975">
        <ele>2303.05</ele>
        <time>2015-09-30T09:03:32Z</time>
      </trkpt>
      <trkpt lat="44.97694" lon="6.62945">
        <ele>2303.91</ele>
        <time>2015-09-30T09:03:43Z</time>
      </trkpt>
      <trkpt lat="44.97698" lon="6.62914">
        <ele>2304.76</ele>
        <time>2015-09-30T09:03:54Z</time>
      </trkpt>
      <trkpt lat="44.97693" lon="6.62895">
        <ele>2305</ele>
        <time>2015-09-30T09:04:01Z</time>
      </trkpt>
      <trkpt lat="44.97681" lon="6.62878">
        <ele>2305.62</ele>
        <time>2015-09-30T09:04:09Z</time>
      </trkpt>
      <trkpt lat="44.97674" lon="6.62866">
        <ele>2306.2</ele>
        <time>2015-09-30T09:04:17Z</time>
      </trkpt>
      <trkpt lat="44.97672" lon="6.62864">
        <ele>2306.4</ele>
        <time>2015-09-30T09:04:19Z</time>
      </trkpt>
      <trkpt lat="44.97666" lon="6.62858">
        <ele>2306.59</ele>
        <time>2015-09-30T09:04:26Z</time>
      </trkpt>
      <trkpt lat="44.97662" lon="6.6285">
        <ele>2306.77</ele>
        <time>2015-09-30T09:04:33Z</time>
      </trkpt>
      <trkpt lat="44.97653" lon="6.62835">
        <ele>2307.6</ele>
        <time>2015-09-30T09:04:45Z</time>
      </trkpt>
      <trkpt lat="44.97648" lon="6.62824">
        <ele>2308.32</ele>
        <time>2015-09-30T09:04:53Z</time>
      </trkpt>
      <trkpt lat="44.9764" lon="6.6281">
        <ele>2308.85</ele>
        <time>2015-09-30T09:05:03Z</time>
      </trkpt>
      <trkpt lat="44.97633" lon="6.62799">
        <ele>2309.39</ele>
        <time>2015-09-30T09:05:11Z</time>
      </trkpt>
      <trkpt lat="44.97621" lon="6.62784">
        <ele>2310.02</ele>
        <time>2015-09-30T09:05:22Z</time>
      </trkpt>
      <trkpt lat="44.97614" lon="6.6277">
        <ele>2310.8</ele>
        <time>2015-09-30T09:05:30Z</time>
      </trkpt>
      <trkpt lat="44.97604" lon="6.62759">
        <ele>2311.18</ele>
        <time>2015-09-30T09:05:38Z</time>
      </trkpt>
      <trkpt lat="44.97587" lon="6.62747">
        <ele>2311.93</ele>
        <time>2015-09-30T09:05:49Z</time>
      </trkpt>
      <trkpt lat="44.97581" lon="6.62743">
        <ele>2312.04</ele>
        <time>2015-09-30T09:05:53Z</time>
      </trkpt>
      <trkpt lat="44.97575" lon="6.6274">
        <ele>2312.29</ele>
        <time>2015-09-30T09:05:57Z</time>
      </trkpt>
      <trkpt lat="44.97561" lon="6.62729">
        <ele>2313</ele>
        <time>2015-09-30T09:06:07Z</time>
      </trkpt>
      <trkpt lat="44.97546" lon="6.6271">
        <ele>2313.54</ele>
        <time>2015-09-30T09:06:18Z</time>
      </trkpt>
      <trkpt lat="44.97538" lon="6.62688">
        <ele>2314.2</ele>
        <time>2015-09-30T09:06:29Z</time>
      </trkpt>
      <trkpt lat="44.97538" lon="6.62667">
        <ele>2314.84</ele>
        <time>2015-09-30T09:06:39Z</time>
      </trkpt>
      <trkpt lat="44.97541" lon="6.62645">
        <ele>2315.17</ele>
        <time>2015-09-30T09:06:48Z</time>
      </trkpt>
      <trkpt lat="44.97544" lon="6.62617">
        <ele>2316.25</ele>
        <time>2015-09-30T09:06:59Z</time>
      </trkpt>
      <trkpt lat="44.97549" lon="6.62586">
        <ele>2317.29</ele>
        <time>2015-09-30T09:07:10Z</time>
      </trkpt>
      <trkpt lat="44.97555" lon="6.62561">
        <ele>2318.09</ele>
        <time>2015-09-30T09:07:19Z</time>
      </trkpt>
      <trkpt lat="44.97562" lon="6.62539">
        <ele>2318.84</ele>
        <time>2015-09-30T09:07:28Z</time>
      </trkpt>
      <trkpt lat="44.97568" lon="6.62522">
        <ele>2319.49</ele>
        <time>2015-09-30T09:07:35Z</time>
      </trkpt>
      <trkpt lat="44.97577" lon="6.625">
        <ele>2319.93</ele>
        <time>2015-09-30T09:07:44Z</time>
      </trkpt>
      <trkpt lat="44.97583" lon="6.62474">
        <ele>2320.51</ele>
        <time>2015-09-30T09:07:54Z</time>
      </trkpt>
      <trkpt lat="44.9758" lon="6.62445">
        <ele>2322.2</ele>
        <time>2015-09-30T09:08:04Z</time>
      </trkpt>
      <trkpt lat="44.9758" lon="6.62419">
        <ele>2322.68</ele>
        <time>2015-09-30T09:08:13Z</time>
      </trkpt>
      <trkpt lat="44.9759" lon="6.62404">
        <ele>2323.29</ele>
        <time>2015-09-30T09:08:20Z</time>
      </trkpt>
      <trkpt lat="44.97606" lon="6.62386">
        <ele>2323.99</ele>
        <time>2015-09-30T09:08:30Z</time>
      </trkpt>
      <trkpt lat="44.97618" lon="6.62369">
        <ele>2324.71</ele>
        <time>2015-09-30T09:08:39Z</time>
      </trkpt>
      <trkpt lat="44.97622" lon="6.62344">
        <ele>2325.46</ele>
        <time>2015-09-30T09:08:47Z</time>
      </trkpt>
      <trkpt lat="44.97616" lon="6.62316">
        <ele>2326.43</ele>
        <time>2015-09-30T09:08:56Z</time>
      </trkpt>
      <trkpt lat="44.97621" lon="6.62292">
        <ele>2327.44</ele>
        <time>2015-09-30T09:09:05Z</time>
      </trkpt>
      <trkpt lat="44.97638" lon="6.62273">
        <ele>2327.79</ele>
        <time>2015-09-30T09:09:15Z</time>
      </trkpt>
      <trkpt lat="44.97651" lon="6.62262">
        <ele>2328.66</ele>
        <time>2015-09-30T09:09:22Z</time>
      </trkpt>
      <trkpt lat="44.97669" lon="6.62248">
        <ele>2329.45</ele>
        <time>2015-09-30T09:09:32Z</time>
      </trkpt>
      <trkpt lat="44.97684" lon="6.62236">
        <ele>2330.17</ele>
        <time>2015-09-30T09:09:40Z</time>
      </trkpt>
      <trkpt lat="44.97692" lon="6.6222">
        <ele>2330.8</ele>
        <time>2015-09-30T09:09:48Z</time>
      </trkpt>
      <trkpt lat="44.97693" lon="6.62199">
        <ele>2331.57</ele>
        <time>2015-09-30T09:09:56Z</time>
      </trkpt>
      <trkpt lat="44.97686" lon="6.62176">
        <ele>2332.61</ele>
        <time>2015-09-30T09:10:05Z</time>
      </trkpt>
      <trkpt lat="44.97677" lon="6.62166">
        <ele>2332.97</ele>
        <time>2015-09-30T09:10:10Z</time>
      </trkpt>
      <trkpt lat="44.97663" lon="6.62141">
        <ele>2333.69</ele>
        <time>2015-09-30T09:10:21Z</time>
      </trkpt>
      <trkpt lat="44.97663" lon="6.62113">
        <ele>2334.85</ele>
        <time>2015-09-30T09:10:30Z</time>
      </trkpt>
      <trkpt lat="44.9767" lon="6.6209">
        <ele>2335.59</ele>
        <time>2015-09-30T09:10:39Z</time>
      </trkpt>
      <trkpt lat="44.97682" lon="6.62071">
        <ele>2336.34</ele>
        <time>2015-09-30T09:10:48Z</time>
      </trkpt>
      <trkpt lat="44.97694" lon="6.62051">
        <ele>2336.88</ele>
        <time>2015-09-30T09:10:57Z</time>
      </trkpt>
      <trkpt lat="44.97707" lon="6.62028">
        <ele>2337.31</ele>
        <time>2015-09-30T09:11:07Z</time>
      </trkpt>
      <trkpt lat="44.97713" lon="6.62002">
        <ele>2338.09</ele>
        <time>2015-09-30T09:11:16Z</time>
      </trkpt>
      <trkpt lat="44.97707" lon="6.61981">
        <ele>2338.9</ele>
        <time>2015-09-30T09:11:24Z</time>
      </trkpt>
      <trkpt lat="44.97698" lon="6.61967">
        <ele>2339.69</ele>
        <time>2015-09-30T09:11:31Z</time>
      </trkpt>
      <trkpt lat="44.97684" lon="6.61951">
        <ele>2340.47</ele>
        <time>2015-09-30T09:11:40Z</time>
      </trkpt>
      <trkpt lat="44.97668" lon="6.61934">
        <ele>2340.78</ele>
        <time>2015-09-30T09:11:49Z</time>
      </trkpt>
      <trkpt lat="44.9765" lon="6.61929">
        <ele>2341.42</ele>
        <time>2015-09-30T09:11:58Z</time>
      </trkpt>
      <trkpt lat="44.97637" lon="6.61938">
        <ele>2341.86</ele>
        <time>2015-09-30T09:12:06Z</time>
      </trkpt>
      <trkpt lat="44.97627" lon="6.61946">
        <ele>2342.3</ele>
        <time>2015-09-30T09:12:12Z</time>
      </trkpt>
      <trkpt lat="44.97611" lon="6.61943">
        <ele>2343.08</ele>
        <time>2015-09-30T09:12:20Z</time>
      </trkpt>
      <trkpt lat="44.97601" lon="6.61921">
        <ele>2344</ele>
        <time>2015-09-30T09:12:29Z</time>
      </trkpt>
      <trkpt lat="44.97594" lon="6.61905">
        <ele>2344.63</ele>
        <time>2015-09-30T09:12:37Z</time>
      </trkpt>
      <trkpt lat="44.97586" lon="6.61892">
        <ele>2344.82</ele>
        <time>2015-09-30T09:12:44Z</time>
      </trkpt>
      <trkpt lat="44.97585" lon="6.61889">
        <ele>2345.19</ele>
        <time>2015-09-30T09:12:51Z</time>
      </trkpt>
      <trkpt lat="44.97584" lon="6.61886">
        <ele>2345.11</ele>
        <time>2015-09-30T09:13:05Z</time>
      </trkpt>
      <trkpt lat="44.97585" lon="6.61888">
        <ele>2345.32</ele>
        <time>2015-09-30T09:13:19Z</time>
      </trkpt>
      <trkpt lat="44.9758" lon="6.61877">
        <ele>2345.53</ele>
        <time>2015-09-30T09:13:27Z</time>
      </trkpt>
      <trkpt lat="44.97569" lon="6.61855">
        <ele>2346.22</ele>
        <time>2015-09-30T09:13:38Z</time>
      </trkpt>
      <trkpt lat="44.97558" lon="6.61839">
        <ele>2346.46</ele>
        <time>2015-09-30T09:13:46Z</time>
      </trkpt>
      <trkpt lat="44.97551" lon="6.6183">
        <ele>2346.71</ele>
        <time>2015-09-30T09:13:51Z</time>
      </trkpt>
      <trkpt lat="44.97529" lon="6.61818">
        <ele>2347.42</ele>
        <time>2015-09-30T09:14:03Z</time>
      </trkpt>
      <trkpt lat="44.97512" lon="6.61812">
        <ele>2348</ele>
        <time>2015-09-30T09:14:12Z</time>
      </trkpt>
      <trkpt lat="44.97495" lon="6.61805">
        <ele>2348.58</ele>
        <time>2015-09-30T09:14:22Z</time>
      </trkpt>
      <trkpt lat="44.9748" lon="6.61797">
        <ele>2348.86</ele>
        <time>2015-09-30T09:14:31Z</time>
      </trkpt>
      <trkpt lat="44.97462" lon="6.61788">
        <ele>2349.38</ele>
        <time>2015-09-30T09:14:41Z</time>
      </trkpt>
      <trkpt lat="44.97448" lon="6.61776">
        <ele>2349.81</ele>
        <time>2015-09-30T09:14:50Z</time>
      </trkpt>
      <trkpt lat="44.97436" lon="6.61761">
        <ele>2350.49</ele>
        <time>2015-09-30T09:14:59Z</time>
      </trkpt>
      <trkpt lat="44.97426" lon="6.61744">
        <ele>2350.98</ele>
        <time>2015-09-30T09:15:08Z</time>
      </trkpt>
      <trkpt lat="44.97421" lon="6.61731">
        <ele>2351.49</ele>
        <time>2015-09-30T09:15:16Z</time>
      </trkpt>
      <trkpt lat="44.97416" lon="6.61711">
        <ele>2352.33</ele>
        <time>2015-09-30T09:15:25Z</time>
      </trkpt>
      <trkpt lat="44.97416" lon="6.61685">
        <ele>2352.92</ele>
        <time>2015-09-30T09:15:35Z</time>
      </trkpt>
      <trkpt lat="44.97416" lon="6.6166">
        <ele>2353.25</ele>
        <time>2015-09-30T09:15:43Z</time>
      </trkpt>
      <trkpt lat="44.9742" lon="6.6164">
        <ele>2353.79</ele>
        <time>2015-09-30T09:15:50Z</time>
      </trkpt>
      <trkpt lat="44.97424" lon="6.61603">
        <ele>2354.85</ele>
        <time>2015-09-30T09:16:02Z</time>
      </trkpt>
      <trkpt lat="44.97422" lon="6.61579">
        <ele>2355.45</ele>
        <time>2015-09-30T09:16:10Z</time>
      </trkpt>
      <trkpt lat="44.97419" lon="6.61554">
        <ele>2355.92</ele>
        <time>2015-09-30T09:16:19Z</time>
      </trkpt>
      <trkpt lat="44.97414" lon="6.61521">
        <ele>2356.37</ele>
        <time>2015-09-30T09:16:30Z</time>
      </trkpt>
      <trkpt lat="44.97411" lon="6.61498">
        <ele>2356.58</ele>
        <time>2015-09-30T09:16:39Z</time>
      </trkpt>
      <trkpt lat="44.97408" lon="6.61473">
        <ele>2356.96</ele>
        <time>2015-09-30T09:16:48Z</time>
      </trkpt>
      <trkpt lat="44.97402" lon="6.61449">
        <ele>2357.42</ele>
        <time>2015-09-30T09:16:57Z</time>
      </trkpt>
      <trkpt lat="44.97394" lon="6.61423">
        <ele>2358.33</ele>
        <time>2015-09-30T09:17:07Z</time>
      </trkpt>
      <trkpt lat="44.97386" lon="6.61397">
        <ele>2358.92</ele>
        <time>2015-09-30T09:17:17Z</time>
      </trkpt>
      <trkpt lat="44.97382" lon="6.61373">
        <ele>2359.59</ele>
        <time>2015-09-30T09:17:26Z</time>
      </trkpt>
      <trkpt lat="44.97385" lon="6.61343">
        <ele>2360.39</ele>
        <time>2015-09-30T09:17:36Z</time>
      </trkpt>
      <trkpt lat="44.97392" lon="6.61316">
        <ele>2360.74</ele>
        <time>2015-09-30T09:17:45Z</time>
      </trkpt>
      <trkpt lat="44.974" lon="6.61289">
        <ele>2361.13</ele>
        <time>2015-09-30T09:17:54Z</time>
      </trkpt>
      <trkpt lat="44.97408" lon="6.61259">
        <ele>2361.57</ele>
        <time>2015-09-30T09:18:04Z</time>
      </trkpt>
      <trkpt lat="44.97417" lon="6.61235">
        <ele>2362.18</ele>
        <time>2015-09-30T09:18:13Z</time>
      </trkpt>
      <trkpt lat="44.97425" lon="6.6121">
        <ele>2362.61</ele>
        <time>2015-09-30T09:18:22Z</time>
      </trkpt>
      <trkpt lat="44.97434" lon="6.61189">
        <ele>2363.11</ele>
        <time>2015-09-30T09:18:30Z</time>
      </trkpt>
      <trkpt lat="44.97443" lon="6.61163">
        <ele>2363.65</ele>
        <time>2015-09-30T09:18:40Z</time>
      </trkpt>
      <trkpt lat="44.97444" lon="6.61159">
        <ele>2364.03</ele>
        <time>2015-09-30T09:18:46Z</time>
      </trkpt>
      <trkpt lat="44.97444" lon="6.61159">
        <ele>2364.33</ele>
        <time>2015-09-30T09:19:11Z</time>
      </trkpt>
      <trkpt lat="44.97444" lon="6.61159">
        <ele>2364.38</ele>
        <time>2015-09-30T09:19:37Z</time>
      </trkpt>
      <trkpt lat="44.97445" lon="6.61158">
        <ele>2364.66</ele>
        <time>2015-09-30T09:19:57Z</time>
      </trkpt>
      <trkpt lat="44.97444" lon="6.61157">
        <ele>2365.16</ele>
        <time>2015-09-30T09:20:27Z</time>
      </trkpt>
      <trkpt lat="44.97443" lon="6.61153">
        <ele>2365.26</ele>
        <time>2015-09-30T09:20:30Z</time>
      </trkpt>
      <trkpt lat="44.97441" lon="6.61137">
        <ele>2365.38</ele>
        <time>2015-09-30T09:20:38Z</time>
      </trkpt>
      <trkpt lat="44.97439" lon="6.61124">
        <ele>2365.59</ele>
        <time>2015-09-30T09:20:43Z</time>
      </trkpt>
      <trkpt lat="44.97435" lon="6.611">
        <ele>2365.61</ele>
        <time>2015-09-30T09:20:51Z</time>
      </trkpt>
      <trkpt lat="44.97423" lon="6.61072">
        <ele>2365.96</ele>
        <time>2015-09-30T09:21:01Z</time>
      </trkpt>
      <trkpt lat="44.97413" lon="6.61061">
        <ele>2366.61</ele>
        <time>2015-09-30T09:21:07Z</time>
      </trkpt>
      <trkpt lat="44.97398" lon="6.61049">
        <ele>2367.08</ele>
        <time>2015-09-30T09:21:14Z</time>
      </trkpt>
      <trkpt lat="44.97379" lon="6.61034">
        <ele>2367.56</ele>
        <time>2015-09-30T09:21:24Z</time>
      </trkpt>
      <trkpt lat="44.97358" lon="6.61018">
        <ele>2368.14</ele>
        <time>2015-09-30T09:21:35Z</time>
      </trkpt>
      <trkpt lat="44.97344" lon="6.61011">
        <ele>2368.57</ele>
        <time>2015-09-30T09:21:42Z</time>
      </trkpt>
      <trkpt lat="44.9732" lon="6.61002">
        <ele>2369</ele>
        <time>2015-09-30T09:21:52Z</time>
      </trkpt>
      <trkpt lat="44.97302" lon="6.61003">
        <ele>2369.27</ele>
        <time>2015-09-30T09:22:00Z</time>
      </trkpt>
      <trkpt lat="44.97286" lon="6.61001">
        <ele>2370.12</ele>
        <time>2015-09-30T09:22:07Z</time>
      </trkpt>
      <trkpt lat="44.97277" lon="6.60985">
        <ele>2370.79</ele>
        <time>2015-09-30T09:22:14Z</time>
      </trkpt>
      <trkpt lat="44.97263" lon="6.60966">
        <ele>2371.32</ele>
        <time>2015-09-30T09:22:23Z</time>
      </trkpt>
      <trkpt lat="44.97254" lon="6.60957">
        <ele>2371.75</ele>
        <time>2015-09-30T09:22:28Z</time>
      </trkpt>
      <trkpt lat="44.9723" lon="6.60945">
        <ele>2372.28</ele>
        <time>2015-09-30T09:22:39Z</time>
      </trkpt>
      <trkpt lat="44.97203" lon="6.60942">
        <ele>2372.64</ele>
        <time>2015-09-30T09:22:50Z</time>
      </trkpt>
      <trkpt lat="44.97187" lon="6.60944">
        <ele>2373.27</ele>
        <time>2015-09-30T09:22:58Z</time>
      </trkpt>
      <trkpt lat="44.97163" lon="6.6095">
        <ele>2373.89</ele>
        <time>2015-09-30T09:23:08Z</time>
      </trkpt>
      <trkpt lat="44.97143" lon="6.60956">
        <ele>2374.28</ele>
        <time>2015-09-30T09:23:17Z</time>
      </trkpt>
      <trkpt lat="44.97122" lon="6.60963">
        <ele>2374.83</ele>
        <time>2015-09-30T09:23:26Z</time>
      </trkpt>
      <trkpt lat="44.97103" lon="6.6097">
        <ele>2375.72</ele>
        <time>2015-09-30T09:23:35Z</time>
      </trkpt>
      <trkpt lat="44.97089" lon="6.60978">
        <ele>2376.13</ele>
        <time>2015-09-30T09:23:42Z</time>
      </trkpt>
      <trkpt lat="44.97067" lon="6.60982">
        <ele>2376.79</ele>
        <time>2015-09-30T09:23:51Z</time>
      </trkpt>
      <trkpt lat="44.97046" lon="6.6098">
        <ele>2377.1</ele>
        <time>2015-09-30T09:24:00Z</time>
      </trkpt>
      <trkpt lat="44.97031" lon="6.60964">
        <ele>2377.44</ele>
        <time>2015-09-30T09:24:08Z</time>
      </trkpt>
      <trkpt lat="44.97017" lon="6.60946">
        <ele>2377.64</ele>
        <time>2015-09-30T09:24:16Z</time>
      </trkpt>
      <trkpt lat="44.97009" lon="6.6092">
        <ele>2378.09</ele>
        <time>2015-09-30T09:24:24Z</time>
      </trkpt>
      <trkpt lat="44.97007" lon="6.60893">
        <ele>2378.52</ele>
        <time>2015-09-30T09:24:32Z</time>
      </trkpt>
      <trkpt lat="44.97005" lon="6.60869">
        <ele>2378.89</ele>
        <time>2015-09-30T09:24:39Z</time>
      </trkpt>
      <trkpt lat="44.96994" lon="6.60845">
        <ele>2379.88</ele>
        <time>2015-09-30T09:24:48Z</time>
      </trkpt>
      <trkpt lat="44.96981" lon="6.60824">
        <ele>2380.39</ele>
        <time>2015-09-30T09:24:56Z</time>
      </trkpt>
      <trkpt lat="44.96963" lon="6.60802">
        <ele>2380.87</ele>
        <time>2015-09-30T09:25:06Z</time>
      </trkpt>
      <trkpt lat="44.96944" lon="6.60788">
        <ele>2381.61</ele>
        <time>2015-09-30T09:25:16Z</time>
      </trkpt>
      <trkpt lat="44.96918" lon="6.60778">
        <ele>2382.36</ele>
        <time>2015-09-30T09:25:27Z</time>
      </trkpt>
      <trkpt lat="44.96896" lon="6.6077">
        <ele>2382.8</ele>
        <time>2015-09-30T09:25:37Z</time>
      </trkpt>
      <trkpt lat="44.9687" lon="6.60764">
        <ele>2383.31</ele>
        <time>2015-09-30T09:25:48Z</time>
      </trkpt>
      <trkpt lat="44.96846" lon="6.6076">
        <ele>2384.04</ele>
        <time>2015-09-30T09:25:58Z</time>
      </trkpt>
      <trkpt lat="44.96818" lon="6.60756">
        <ele>2384.48</ele>
        <time>2015-09-30T09:26:09Z</time>
      </trkpt>
      <trkpt lat="44.96795" lon="6.60754">
        <ele>2384.97</ele>
        <time>2015-09-30T09:26:18Z</time>
      </trkpt>
      <trkpt lat="44.96771" lon="6.60762">
        <ele>2385.37</ele>
        <time>2015-09-30T09:26:28Z</time>
      </trkpt>
      <trkpt lat="44.96753" lon="6.60777">
        <ele>2385.63</ele>
        <time>2015-09-30T09:26:37Z</time>
      </trkpt>
      <trkpt lat="44.96739" lon="6.60798">
        <ele>2386.39</ele>
        <time>2015-09-30T09:26:46Z</time>
      </trkpt>
      <trkpt lat="44.96725" lon="6.60817">
        <ele>2386.72</ele>
        <time>2015-09-30T09:26:54Z</time>
      </trkpt>
      <trkpt lat="44.96708" lon="6.60829">
        <ele>2387.08</ele>
        <time>2015-09-30T09:27:02Z</time>
      </trkpt>
      <trkpt lat="44.96695" lon="6.60849">
        <ele>2387.23</ele>
        <time>2015-09-30T09:27:10Z</time>
      </trkpt>
      <trkpt lat="44.96684" lon="6.60872">
        <ele>2387.99</ele>
        <time>2015-09-30T09:27:18Z</time>
      </trkpt>
      <trkpt lat="44.9667" lon="6.60894">
        <ele>2388.41</ele>
        <time>2015-09-30T09:27:27Z</time>
      </trkpt>
      <trkpt lat="44.96656" lon="6.60913">
        <ele>2388.67</ele>
        <time>2015-09-30T09:27:35Z</time>
      </trkpt>
      <trkpt lat="44.96638" lon="6.60937">
        <ele>2389.57</ele>
        <time>2015-09-30T09:27:45Z</time>
      </trkpt>
      <trkpt lat="44.96618" lon="6.60964">
        <ele>2390.28</ele>
        <time>2015-09-30T09:27:56Z</time>
      </trkpt>
      <trkpt lat="44.96601" lon="6.60986">
        <ele>2390.8</ele>
        <time>2015-09-30T09:28:05Z</time>
      </trkpt>
      <trkpt lat="44.96578" lon="6.6101">
        <ele>2391.52</ele>
        <time>2015-09-30T09:28:16Z</time>
      </trkpt>
      <trkpt lat="44.96562" lon="6.61016">
        <ele>2391.85</ele>
        <time>2015-09-30T09:28:23Z</time>
      </trkpt>
      <trkpt lat="44.96546" lon="6.6102">
        <ele>2392.24</ele>
        <time>2015-09-30T09:28:30Z</time>
      </trkpt>
      <trkpt lat="44.96524" lon="6.61025">
        <ele>2392.4</ele>
        <time>2015-09-30T09:28:39Z</time>
      </trkpt>
      <trkpt lat="44.96503" lon="6.61029">
        <ele>2393.15</ele>
        <time>2015-09-30T09:28:48Z</time>
      </trkpt>
      <trkpt lat="44.96485" lon="6.61037">
        <ele>2393.36</ele>
        <time>2015-09-30T09:28:56Z</time>
      </trkpt>
      <trkpt lat="44.96468" lon="6.61044">
        <ele>2393.82</ele>
        <time>2015-09-30T09:29:03Z</time>
      </trkpt>
      <trkpt lat="44.96452" lon="6.61055">
        <ele>2394.28</ele>
        <time>2015-09-30T09:29:10Z</time>
      </trkpt>
      <trkpt lat="44.96435" lon="6.61069">
        <ele>2394.63</ele>
        <time>2015-09-30T09:29:18Z</time>
      </trkpt>
      <trkpt lat="44.96416" lon="6.61089">
        <ele>2395.4</ele>
        <time>2015-09-30T09:29:27Z</time>
      </trkpt>
      <trkpt lat="44.96398" lon="6.61107">
        <ele>2395.82</ele>
        <time>2015-09-30T09:29:36Z</time>
      </trkpt>
      <trkpt lat="44.96376" lon="6.61118">
        <ele>2396.24</ele>
        <time>2015-09-30T09:29:45Z</time>
      </trkpt>
      <trkpt lat="44.9636" lon="6.61122">
        <ele>2396.8</ele>
        <time>2015-09-30T09:29:52Z</time>
      </trkpt>
      <trkpt lat="44.9634" lon="6.61128">
        <ele>2397.2</ele>
        <time>2015-09-30T09:30:01Z</time>
      </trkpt>
      <trkpt lat="44.9632" lon="6.61119">
        <ele>2398.07</ele>
        <time>2015-09-30T09:30:11Z</time>
      </trkpt>
      <trkpt lat="44.96303" lon="6.61116">
        <ele>2398.41</ele>
        <time>2015-09-30T09:30:19Z</time>
      </trkpt>
      <trkpt lat="44.9629" lon="6.61105">
        <ele>2398.56</ele>
        <time>2015-09-30T09:30:25Z</time>
      </trkpt>
      <trkpt lat="44.96276" lon="6.61101">
        <ele>2398.4</ele>
        <time>2015-09-30T09:30:32Z</time>
      </trkpt>
      <trkpt lat="44.96268" lon="6.61098">
        <ele>2398.54</ele>
        <time>2015-09-30T09:30:38Z</time>
      </trkpt>
      <trkpt lat="44.96263" lon="6.61098">
        <ele>2398.55</ele>
        <time>2015-09-30T09:30:46Z</time>
      </trkpt>
      <trkpt lat="44.9626" lon="6.61095">
        <ele>2398.64</ele>
        <time>2015-09-30T09:31:04Z</time>
      </trkpt>
      <trkpt lat="44.96261" lon="6.61094">
        <ele>2398.48</ele>
        <time>2015-09-30T09:31:10Z</time>
      </trkpt>
      <trkpt lat="44.96263" lon="6.61099">
        <ele>2398.44</ele>
        <time>2015-09-30T09:31:24Z</time>
      </trkpt>
      <trkpt lat="44.96263" lon="6.61099">
        <ele>2398.64</ele>
        <time>2015-09-30T09:31:28Z</time>
      </trkpt>
      <trkpt lat="44.96262" lon="6.61094">
        <ele>2398.81</ele>
        <time>2015-09-30T09:31:34Z</time>
      </trkpt>
      <trkpt lat="44.96262" lon="6.61091">
        <ele>2398.9</ele>
        <time>2015-09-30T09:31:37Z</time>
      </trkpt>
      <trkpt lat="44.9626" lon="6.61088">
        <ele>2399.01</ele>
        <time>2015-09-30T09:31:43Z</time>
      </trkpt>
      <trkpt lat="44.96263" lon="6.61094">
        <ele>2398.67</ele>
        <time>2015-09-30T09:31:51Z</time>
      </trkpt>
      <trkpt lat="44.96266" lon="6.61096">
        <ele>2398.72</ele>
        <time>2015-09-30T09:32:12Z</time>
      </trkpt>
      <trkpt lat="44.96268" lon="6.6111">
        <ele>2398.88</ele>
        <time>2015-09-30T09:32:21Z</time>
      </trkpt>
      <trkpt lat="44.96268" lon="6.61111">
        <ele>2398.99</ele>
        <time>2015-09-30T09:32:22Z</time>
      </trkpt>
      <trkpt lat="44.96262" lon="6.61113">
        <ele>2400.32</ele>
        <time>2015-09-30T09:32:29Z</time>
      </trkpt>
      <trkpt lat="44.96259" lon="6.61112">
        <ele>2401.07</ele>
        <time>2015-09-30T09:32:32Z</time>
      </trkpt>
      <trkpt lat="44.96258" lon="6.6111">
        <ele>2401.58</ele>
        <time>2015-09-30T09:32:34Z</time>
      </trkpt>
      <trkpt lat="44.96253" lon="6.61111">
        <ele>2402.32</ele>
        <time>2015-09-30T09:32:39Z</time>
      </trkpt>
      <trkpt lat="44.96246" lon="6.6112">
        <ele>2404.08</ele>
        <time>2015-09-30T09:32:50Z</time>
      </trkpt>
      <trkpt lat="44.96239" lon="6.61123">
        <ele>2405.52</ele>
        <time>2015-09-30T09:33:00Z</time>
      </trkpt>
      <trkpt lat="44.96232" lon="6.61129">
        <ele>2406.96</ele>
        <time>2015-09-30T09:33:11Z</time>
      </trkpt>
      <trkpt lat="44.96227" lon="6.6113">
        <ele>2408.1</ele>
        <time>2015-09-30T09:33:19Z</time>
      </trkpt>
      <trkpt lat="44.96226" lon="6.61128">
        <ele>2408.79</ele>
        <time>2015-09-30T09:33:29Z</time>
      </trkpt>
      <trkpt lat="44.96227" lon="6.61126">
        <ele>2409.18</ele>
        <time>2015-09-30T09:33:48Z</time>
      </trkpt>
      <trkpt lat="44.96226" lon="6.61127">
        <ele>2409.16</ele>
        <time>2015-09-30T09:34:08Z</time>
      </trkpt>
      <trkpt lat="44.96227" lon="6.61126">
        <ele>2409.25</ele>
        <time>2015-09-30T09:34:37Z</time>
      </trkpt>
      <trkpt lat="44.96228" lon="6.61126">
        <ele>2409.48</ele>
        <time>2015-09-30T09:35:06Z</time>
      </trkpt>
      <trkpt lat="44.96227" lon="6.61126">
        <ele>2409.71</ele>
        <time>2015-09-30T09:35:39Z</time>
      </trkpt>
      <trkpt lat="44.96226" lon="6.61126">
        <ele>2409.96</ele>
        <time>2015-09-30T09:36:17Z</time>
      </trkpt>
      <trkpt lat="44.96226" lon="6.61126">
        <ele>2410.27</ele>
        <time>2015-09-30T09:36:42Z</time>
      </trkpt>
      <trkpt lat="44.96226" lon="6.61126">
        <ele>2410.39</ele>
        <time>2015-09-30T09:36:52Z</time>
      </trkpt>
      <trkpt lat="44.96226" lon="6.61119">
        <ele>2410.44</ele>
        <time>2015-09-30T09:36:59Z</time>
      </trkpt>
      <trkpt lat="44.96226" lon="6.6112">
        <ele>2410.29</ele>
        <time>2015-09-30T09:37:07Z</time>
      </trkpt>
      <trkpt lat="44.96225" lon="6.61124">
        <ele>2410.66</ele>
        <time>2015-09-30T09:37:33Z</time>
      </trkpt>
      <trkpt lat="44.96225" lon="6.61123">
        <ele>2410.41</ele>
        <time>2015-09-30T09:37:49Z</time>
      </trkpt>
      <trkpt lat="44.96229" lon="6.61127">
        <ele>2410.46</ele>
        <time>2015-09-30T09:37:59Z</time>
      </trkpt>
      <trkpt lat="44.96228" lon="6.61129">
        <ele>2410.58</ele>
        <time>2015-09-30T09:38:06Z</time>
      </trkpt>
      <trkpt lat="44.96227" lon="6.61126">
        <ele>2410.93</ele>
        <time>2015-09-30T09:38:55Z</time>
      </trkpt>
      <trkpt lat="44.96227" lon="6.61127">
        <ele>2411</ele>
        <time>2015-09-30T09:39:53Z</time>
      </trkpt>
      <trkpt lat="44.96227" lon="6.61127">
        <ele>2411.25</ele>
        <time>2015-09-30T09:41:27Z</time>
      </trkpt>
      <trkpt lat="44.96226" lon="6.61125">
        <ele>2411.23</ele>
        <time>2015-09-30T09:42:38Z</time>
      </trkpt>
      <trkpt lat="44.96226" lon="6.61129">
        <ele>2411.37</ele>
        <time>2015-09-30T09:43:35Z</time>
      </trkpt>
      <trkpt lat="44.96225" lon="6.61135">
        <ele>2411.12</ele>
        <time>2015-09-30T09:43:43Z</time>
      </trkpt>
      <trkpt lat="44.96225" lon="6.61138">
        <ele>2410.79</ele>
        <time>2015-09-30T09:43:47Z</time>
      </trkpt>
      <trkpt lat="44.96223" lon="6.61141">
        <ele>2410.45</ele>
        <time>2015-09-30T09:43:50Z</time>
      </trkpt>
      <trkpt lat="44.96213" lon="6.61166">
        <ele>2409.75</ele>
        <time>2015-09-30T09:43:57Z</time>
      </trkpt>
      <trkpt lat="44.96209" lon="6.61177">
        <ele>2409.3</ele>
        <time>2015-09-30T09:43:59Z</time>
      </trkpt>
      <trkpt lat="44.96198" lon="6.61203">
        <ele>2408.13</ele>
        <time>2015-09-30T09:44:05Z</time>
      </trkpt>
      <trkpt lat="44.96194" lon="6.61217">
        <ele>2407.93</ele>
        <time>2015-09-30T09:44:10Z</time>
      </trkpt>
      <trkpt lat="44.96178" lon="6.6124">
        <ele>2407.68</ele>
        <time>2015-09-30T09:44:18Z</time>
      </trkpt>
      <trkpt lat="44.96163" lon="6.61251">
        <ele>2406.99</ele>
        <time>2015-09-30T09:44:23Z</time>
      </trkpt>
      <trkpt lat="44.96156" lon="6.61254">
        <ele>2406.41</ele>
        <time>2015-09-30T09:44:25Z</time>
      </trkpt>
      <trkpt lat="44.96137" lon="6.61251">
        <ele>2404.54</ele>
        <time>2015-09-30T09:44:31Z</time>
      </trkpt>
      <trkpt lat="44.96121" lon="6.61246">
        <ele>2402.92</ele>
        <time>2015-09-30T09:44:37Z</time>
      </trkpt>
      <trkpt lat="44.96114" lon="6.61255">
        <ele>2401</ele>
        <time>2015-09-30T09:44:41Z</time>
      </trkpt>
      <trkpt lat="44.96111" lon="6.61269">
        <ele>2399.1</ele>
        <time>2015-09-30T09:44:46Z</time>
      </trkpt>
      <trkpt lat="44.9611" lon="6.6127">
        <ele>2398.86</ele>
        <time>2015-09-30T09:44:47Z</time>
      </trkpt>
      <trkpt lat="44.96105" lon="6.61282">
        <ele>2398.67</ele>
        <time>2015-09-30T09:44:57Z</time>
      </trkpt>
      <trkpt lat="44.96098" lon="6.61294">
        <ele>2399.83</ele>
        <time>2015-09-30T09:45:07Z</time>
      </trkpt>
      <trkpt lat="44.96092" lon="6.6131">
        <ele>2399.28</ele>
        <time>2015-09-30T09:45:17Z</time>
      </trkpt>
      <trkpt lat="44.96091" lon="6.61317">
        <ele>2399.5</ele>
        <time>2015-09-30T09:45:22Z</time>
      </trkpt>
      <trkpt lat="44.96089" lon="6.61331">
        <ele>2401.02</ele>
        <time>2015-09-30T09:45:32Z</time>
      </trkpt>
      <trkpt lat="44.96081" lon="6.61344">
        <ele>2401.57</ele>
        <time>2015-09-30T09:45:41Z</time>
      </trkpt>
      <trkpt lat="44.96072" lon="6.61355">
        <ele>2401.93</ele>
        <time>2015-09-30T09:45:52Z</time>
      </trkpt>
      <trkpt lat="44.96066" lon="6.61363">
        <ele>2403.43</ele>
        <time>2015-09-30T09:46:01Z</time>
      </trkpt>
      <trkpt lat="44.96062" lon="6.6137">
        <ele>2404.86</ele>
        <time>2015-09-30T09:46:11Z</time>
      </trkpt>
      <trkpt lat="44.96056" lon="6.61379">
        <ele>2406.71</ele>
        <time>2015-09-30T09:46:22Z</time>
      </trkpt>
      <trkpt lat="44.96052" lon="6.61386">
        <ele>2408.12</ele>
        <time>2015-09-30T09:46:32Z</time>
      </trkpt>
      <trkpt lat="44.96045" lon="6.61389">
        <ele>2410.22</ele>
        <time>2015-09-30T09:46:44Z</time>
      </trkpt>
      <trkpt lat="44.96036" lon="6.61392">
        <ele>2412.06</ele>
        <time>2015-09-30T09:46:56Z</time>
      </trkpt>
      <trkpt lat="44.96027" lon="6.61394">
        <ele>2413.53</ele>
        <time>2015-09-30T09:47:07Z</time>
      </trkpt>
      <trkpt lat="44.96018" lon="6.61396">
        <ele>2415.15</ele>
        <time>2015-09-30T09:47:20Z</time>
      </trkpt>
      <trkpt lat="44.9601" lon="6.61398">
        <ele>2416.37</ele>
        <time>2015-09-30T09:47:30Z</time>
      </trkpt>
      <trkpt lat="44.96003" lon="6.61403">
        <ele>2417.91</ele>
        <time>2015-09-30T09:47:39Z</time>
      </trkpt>
      <trkpt lat="44.95998" lon="6.6141">
        <ele>2419.03</ele>
        <time>2015-09-30T09:47:48Z</time>
      </trkpt>
      <trkpt lat="44.9599" lon="6.61417">
        <ele>2420.23</ele>
        <time>2015-09-30T09:47:58Z</time>
      </trkpt>
      <trkpt lat="44.95983" lon="6.61429">
        <ele>2420.94</ele>
        <time>2015-09-30T09:48:07Z</time>
      </trkpt>
      <trkpt lat="44.95977" lon="6.6144">
        <ele>2421.51</ele>
        <time>2015-09-30T09:48:16Z</time>
      </trkpt>
      <trkpt lat="44.95975" lon="6.61446">
        <ele>2421.7</ele>
        <time>2015-09-30T09:48:24Z</time>
      </trkpt>
      <trkpt lat="44.95975" lon="6.61446">
        <ele>2422.47</ele>
        <time>2015-09-30T09:48:51Z</time>
      </trkpt>
      <trkpt lat="44.95976" lon="6.6146">
        <ele>2422.1</ele>
        <time>2015-09-30T09:48:56Z</time>
      </trkpt>
      <trkpt lat="44.9598" lon="6.615">
        <ele>2420.29</ele>
        <time>2015-09-30T09:49:03Z</time>
      </trkpt>
      <trkpt lat="44.95982" lon="6.61515">
        <ele>2418.86</ele>
        <time>2015-09-30T09:49:05Z</time>
      </trkpt>
      <trkpt lat="44.95981" lon="6.6153">
        <ele>2417.77</ele>
        <time>2015-09-30T09:49:07Z</time>
      </trkpt>
      <trkpt lat="44.95982" lon="6.61551">
        <ele>2415.91</ele>
        <time>2015-09-30T09:49:11Z</time>
      </trkpt>
      <trkpt lat="44.95986" lon="6.61573">
        <ele>2414.18</ele>
        <time>2015-09-30T09:49:17Z</time>
      </trkpt>
      <trkpt lat="44.95984" lon="6.61592">
        <ele>2412.25</ele>
        <time>2015-09-30T09:49:22Z</time>
      </trkpt>
      <trkpt lat="44.95978" lon="6.61606">
        <ele>2410.57</ele>
        <time>2015-09-30T09:49:25Z</time>
      </trkpt>
      <trkpt lat="44.95974" lon="6.61615">
        <ele>2409.42</ele>
        <time>2015-09-30T09:49:27Z</time>
      </trkpt>
      <trkpt lat="44.95972" lon="6.61628">
        <ele>2407.89</ele>
        <time>2015-09-30T09:49:32Z</time>
      </trkpt>
      <trkpt lat="44.95972" lon="6.61629">
        <ele>2407.87</ele>
        <time>2015-09-30T09:49:37Z</time>
      </trkpt>
      <trkpt lat="44.95971" lon="6.61627">
        <ele>2407.91</ele>
        <time>2015-09-30T09:49:39Z</time>
      </trkpt>
      <trkpt lat="44.95961" lon="6.61625">
        <ele>2408.02</ele>
        <time>2015-09-30T09:49:45Z</time>
      </trkpt>
      <trkpt lat="44.95961" lon="6.6163">
        <ele>2407.57</ele>
        <time>2015-09-30T09:49:47Z</time>
      </trkpt>
      <trkpt lat="44.95965" lon="6.6165">
        <ele>2403.95</ele>
        <time>2015-09-30T09:49:54Z</time>
      </trkpt>
      <trkpt lat="44.95965" lon="6.61654">
        <ele>2400.91</ele>
        <time>2015-09-30T09:50:02Z</time>
      </trkpt>
      <trkpt lat="44.95966" lon="6.61656">
        <ele>2398.93</ele>
        <time>2015-09-30T09:50:09Z</time>
      </trkpt>
      <trkpt lat="44.95964" lon="6.61673">
        <ele>2397.77</ele>
        <time>2015-09-30T09:50:15Z</time>
      </trkpt>
      <trkpt lat="44.95964" lon="6.61685">
        <ele>2395.27</ele>
        <time>2015-09-30T09:50:18Z</time>
      </trkpt>
      <trkpt lat="44.9596" lon="6.61705">
        <ele>2392.22</ele>
        <time>2015-09-30T09:50:23Z</time>
      </trkpt>
      <trkpt lat="44.95963" lon="6.6172">
        <ele>2389.85</ele>
        <time>2015-09-30T09:50:27Z</time>
      </trkpt>
      <trkpt lat="44.95966" lon="6.61735">
        <ele>2387.69</ele>
        <time>2015-09-30T09:50:31Z</time>
      </trkpt>
      <trkpt lat="44.95968" lon="6.61756">
        <ele>2384.76</ele>
        <time>2015-09-30T09:50:37Z</time>
      </trkpt>
      <trkpt lat="44.95968" lon="6.61765">
        <ele>2382.96</ele>
        <time>2015-09-30T09:50:41Z</time>
      </trkpt>
      <trkpt lat="44.95969" lon="6.61771">
        <ele>2381.3</ele>
        <time>2015-09-30T09:50:46Z</time>
      </trkpt>
      <trkpt lat="44.95969" lon="6.61787">
        <ele>2380.25</ele>
        <time>2015-09-30T09:50:53Z</time>
      </trkpt>
      <trkpt lat="44.95969" lon="6.61792">
        <ele>2379.85</ele>
        <time>2015-09-30T09:50:55Z</time>
      </trkpt>
      <trkpt lat="44.95969" lon="6.61807">
        <ele>2378.82</ele>
        <time>2015-09-30T09:51:01Z</time>
      </trkpt>
      <trkpt lat="44.95967" lon="6.61813">
        <ele>2378.47</ele>
        <time>2015-09-30T09:51:03Z</time>
      </trkpt>
      <trkpt lat="44.95959" lon="6.61834">
        <ele>2376.76</ele>
        <time>2015-09-30T09:51:10Z</time>
      </trkpt>
      <trkpt lat="44.95947" lon="6.61853">
        <ele>2375.3</ele>
        <time>2015-09-30T09:51:17Z</time>
      </trkpt>
      <trkpt lat="44.9594" lon="6.61879">
        <ele>2373.47</ele>
        <time>2015-09-30T09:51:23Z</time>
      </trkpt>
      <trkpt lat="44.95934" lon="6.61918">
        <ele>2370.9</ele>
        <time>2015-09-30T09:51:30Z</time>
      </trkpt>
      <trkpt lat="44.95921" lon="6.61943">
        <ele>2369.67</ele>
        <time>2015-09-30T09:51:36Z</time>
      </trkpt>
      <trkpt lat="44.95918" lon="6.61953">
        <ele>2369.47</ele>
        <time>2015-09-30T09:51:38Z</time>
      </trkpt>
      <trkpt lat="44.95917" lon="6.61976">
        <ele>2368.92</ele>
        <time>2015-09-30T09:51:41Z</time>
      </trkpt>
      <trkpt lat="44.95906" lon="6.62007">
        <ele>2367.31</ele>
        <time>2015-09-30T09:51:45Z</time>
      </trkpt>
      <trkpt lat="44.95902" lon="6.62049">
        <ele>2365.32</ele>
        <time>2015-09-30T09:51:51Z</time>
      </trkpt>
      <trkpt lat="44.95891" lon="6.62095">
        <ele>2363.25</ele>
        <time>2015-09-30T09:51:57Z</time>
      </trkpt>
      <trkpt lat="44.95877" lon="6.62119">
        <ele>2362.32</ele>
        <time>2015-09-30T09:52:04Z</time>
      </trkpt>
      <trkpt lat="44.95869" lon="6.62139">
        <ele>2362.47</ele>
        <time>2015-09-30T09:52:12Z</time>
      </trkpt>
      <trkpt lat="44.95859" lon="6.6216">
        <ele>2362.18</ele>
        <time>2015-09-30T09:52:19Z</time>
      </trkpt>
      <trkpt lat="44.95849" lon="6.62176">
        <ele>2361.28</ele>
        <time>2015-09-30T09:52:25Z</time>
      </trkpt>
      <trkpt lat="44.95842" lon="6.62189">
        <ele>2360.68</ele>
        <time>2015-09-30T09:52:32Z</time>
      </trkpt>
      <trkpt lat="44.95841" lon="6.62194">
        <ele>2360.38</ele>
        <time>2015-09-30T09:52:37Z</time>
      </trkpt>
      <trkpt lat="44.95835" lon="6.62202">
        <ele>2360.5</ele>
        <time>2015-09-30T09:52:44Z</time>
      </trkpt>
      <trkpt lat="44.95828" lon="6.62215">
        <ele>2361.47</ele>
        <time>2015-09-30T09:52:53Z</time>
      </trkpt>
      <trkpt lat="44.95819" lon="6.62228">
        <ele>2362.4</ele>
        <time>2015-09-30T09:53:02Z</time>
      </trkpt>
      <trkpt lat="44.9581" lon="6.62241">
        <ele>2362.98</ele>
        <time>2015-09-30T09:53:10Z</time>
      </trkpt>
      <trkpt lat="44.95804" lon="6.62251">
        <ele>2363.34</ele>
        <time>2015-09-30T09:53:17Z</time>
      </trkpt>
      <trkpt lat="44.95794" lon="6.62264">
        <ele>2363.46</ele>
        <time>2015-09-30T09:53:25Z</time>
      </trkpt>
      <trkpt lat="44.95783" lon="6.62284">
        <ele>2364.04</ele>
        <time>2015-09-30T09:53:35Z</time>
      </trkpt>
      <trkpt lat="44.95771" lon="6.62303">
        <ele>2363.58</ele>
        <time>2015-09-30T09:53:41Z</time>
      </trkpt>
      <trkpt lat="44.95761" lon="6.62321">
        <ele>2363.12</ele>
        <time>2015-09-30T09:53:49Z</time>
      </trkpt>
      <trkpt lat="44.95751" lon="6.62337">
        <ele>2362.98</ele>
        <time>2015-09-30T09:53:57Z</time>
      </trkpt>
      <trkpt lat="44.95749" lon="6.62357">
        <ele>2363.37</ele>
        <time>2015-09-30T09:54:06Z</time>
      </trkpt>
      <trkpt lat="44.95746" lon="6.62378">
        <ele>2364.04</ele>
        <time>2015-09-30T09:54:16Z</time>
      </trkpt>
      <trkpt lat="44.95744" lon="6.624">
        <ele>2364.75</ele>
        <time>2015-09-30T09:54:26Z</time>
      </trkpt>
      <trkpt lat="44.95743" lon="6.62409">
        <ele>2365.71</ele>
        <time>2015-09-30T09:54:34Z</time>
      </trkpt>
      <trkpt lat="44.95744" lon="6.62408">
        <ele>2366.45</ele>
        <time>2015-09-30T09:54:59Z</time>
      </trkpt>
      <trkpt lat="44.95747" lon="6.62409">
        <ele>2366.1</ele>
        <time>2015-09-30T09:55:11Z</time>
      </trkpt>
      <trkpt lat="44.95751" lon="6.62417">
        <ele>2366.35</ele>
        <time>2015-09-30T09:55:16Z</time>
      </trkpt>
      <trkpt lat="44.95762" lon="6.62433">
        <ele>2367.01</ele>
        <time>2015-09-30T09:55:26Z</time>
      </trkpt>
      <trkpt lat="44.95776" lon="6.62442">
        <ele>2367.86</ele>
        <time>2015-09-30T09:55:35Z</time>
      </trkpt>
      <trkpt lat="44.95788" lon="6.62451">
        <ele>2368.79</ele>
        <time>2015-09-30T09:55:43Z</time>
      </trkpt>
      <trkpt lat="44.95797" lon="6.62464">
        <ele>2369.88</ele>
        <time>2015-09-30T09:55:51Z</time>
      </trkpt>
      <trkpt lat="44.958" lon="6.62483">
        <ele>2370.7</ele>
        <time>2015-09-30T09:56:00Z</time>
      </trkpt>
      <trkpt lat="44.95801" lon="6.62505">
        <ele>2371.58</ele>
        <time>2015-09-30T09:56:10Z</time>
      </trkpt>
      <trkpt lat="44.95807" lon="6.62518">
        <ele>2372.65</ele>
        <time>2015-09-30T09:56:18Z</time>
      </trkpt>
      <trkpt lat="44.95821" lon="6.62523">
        <ele>2373.74</ele>
        <time>2015-09-30T09:56:27Z</time>
      </trkpt>
      <trkpt lat="44.95826" lon="6.62526">
        <ele>2373.8</ele>
        <time>2015-09-30T09:56:32Z</time>
      </trkpt>
      <trkpt lat="44.95828" lon="6.62526">
        <ele>2373.83</ele>
        <time>2015-09-30T09:56:34Z</time>
      </trkpt>
      <trkpt lat="44.95836" lon="6.62522">
        <ele>2374.45</ele>
        <time>2015-09-30T09:56:40Z</time>
      </trkpt>
      <trkpt lat="44.95843" lon="6.62522">
        <ele>2375.05</ele>
        <time>2015-09-30T09:56:47Z</time>
      </trkpt>
      <trkpt lat="44.95848" lon="6.62524">
        <ele>2375.76</ele>
        <time>2015-09-30T09:56:54Z</time>
      </trkpt>
      <trkpt lat="44.95853" lon="6.62529">
        <ele>2376.76</ele>
        <time>2015-09-30T09:57:02Z</time>
      </trkpt>
      <trkpt lat="44.95853" lon="6.62531">
        <ele>2377.79</ele>
        <time>2015-09-30T09:57:12Z</time>
      </trkpt>
      <trkpt lat="44.95853" lon="6.62533">
        <ele>2378.28</ele>
        <time>2015-09-30T09:57:32Z</time>
      </trkpt>
      <trkpt lat="44.95853" lon="6.62534">
        <ele>2378.4</ele>
        <time>2015-09-30T09:57:42Z</time>
      </trkpt>
      <trkpt lat="44.95853" lon="6.62547">
        <ele>2378.95</ele>
        <time>2015-09-30T09:57:50Z</time>
      </trkpt>
      <trkpt lat="44.95853" lon="6.62556">
        <ele>2379.43</ele>
        <time>2015-09-30T09:57:56Z</time>
      </trkpt>
      <trkpt lat="44.95857" lon="6.62577">
        <ele>2380.56</ele>
        <time>2015-09-30T09:58:09Z</time>
      </trkpt>
      <trkpt lat="44.95854" lon="6.62592">
        <ele>2380.97</ele>
        <time>2015-09-30T09:58:18Z</time>
      </trkpt>
      <trkpt lat="44.95853" lon="6.62593">
        <ele>2381.08</ele>
        <time>2015-09-30T09:58:19Z</time>
      </trkpt>
      <trkpt lat="44.95844" lon="6.62604">
        <ele>2381.22</ele>
        <time>2015-09-30T09:58:29Z</time>
      </trkpt>
      <trkpt lat="44.95831" lon="6.62614">
        <ele>2381.22</ele>
        <time>2015-09-30T09:58:35Z</time>
      </trkpt>
      <trkpt lat="44.95819" lon="6.62624">
        <ele>2380.3</ele>
        <time>2015-09-30T09:58:39Z</time>
      </trkpt>
      <trkpt lat="44.95811" lon="6.62626">
        <ele>2380.78</ele>
        <time>2015-09-30T09:58:49Z</time>
      </trkpt>
      <trkpt lat="44.95804" lon="6.62627">
        <ele>2382.87</ele>
        <time>2015-09-30T09:59:01Z</time>
      </trkpt>
      <trkpt lat="44.95798" lon="6.62627">
        <ele>2384.82</ele>
        <time>2015-09-30T09:59:12Z</time>
      </trkpt>
      <trkpt lat="44.95791" lon="6.62626">
        <ele>2386.61</ele>
        <time>2015-09-30T09:59:24Z</time>
      </trkpt>
      <trkpt lat="44.95786" lon="6.62632">
        <ele>2388</ele>
        <time>2015-09-30T09:59:33Z</time>
      </trkpt>
      <trkpt lat="44.95786" lon="6.62638">
        <ele>2388.94</ele>
        <time>2015-09-30T09:59:41Z</time>
      </trkpt>
      <trkpt lat="44.95782" lon="6.62653">
        <ele>2389.68</ele>
        <time>2015-09-30T09:59:51Z</time>
      </trkpt>
      <trkpt lat="44.95781" lon="6.62657">
        <ele>2389.43</ele>
        <time>2015-09-30T09:59:59Z</time>
      </trkpt>
      <trkpt lat="44.95777" lon="6.6266">
        <ele>2389.32</ele>
        <time>2015-09-30T10:00:09Z</time>
      </trkpt>
      <trkpt lat="44.9577" lon="6.62664">
        <ele>2390.3</ele>
        <time>2015-09-30T10:00:19Z</time>
      </trkpt>
      <trkpt lat="44.95768" lon="6.62665">
        <ele>2390.47</ele>
        <time>2015-09-30T10:00:21Z</time>
      </trkpt>
      <trkpt lat="44.95759" lon="6.62677">
        <ele>2392.04</ele>
        <time>2015-09-30T10:00:32Z</time>
      </trkpt>
      <trkpt lat="44.95751" lon="6.62686">
        <ele>2393.45</ele>
        <time>2015-09-30T10:00:42Z</time>
      </trkpt>
      <trkpt lat="44.95742" lon="6.62699">
        <ele>2394.91</ele>
        <time>2015-09-30T10:00:52Z</time>
      </trkpt>
      <trkpt lat="44.95736" lon="6.62704">
        <ele>2394.93</ele>
        <time>2015-09-30T10:00:56Z</time>
      </trkpt>
      <trkpt lat="44.95719" lon="6.62715">
        <ele>2394.42</ele>
        <time>2015-09-30T10:01:03Z</time>
      </trkpt>
      <trkpt lat="44.9571" lon="6.62719">
        <ele>2394.54</ele>
        <time>2015-09-30T10:01:09Z</time>
      </trkpt>
      <trkpt lat="44.95705" lon="6.62722">
        <ele>2395.6</ele>
        <time>2015-09-30T10:01:13Z</time>
      </trkpt>
      <trkpt lat="44.95696" lon="6.62729">
        <ele>2397.46</ele>
        <time>2015-09-30T10:01:22Z</time>
      </trkpt>
      <trkpt lat="44.95692" lon="6.62734">
        <ele>2398.09</ele>
        <time>2015-09-30T10:01:27Z</time>
      </trkpt>
      <trkpt lat="44.95687" lon="6.62739">
        <ele>2398.54</ele>
        <time>2015-09-30T10:01:32Z</time>
      </trkpt>
      <trkpt lat="44.95684" lon="6.62755">
        <ele>2399.12</ele>
        <time>2015-09-30T10:01:40Z</time>
      </trkpt>
      <trkpt lat="44.9568" lon="6.62771">
        <ele>2398.55</ele>
        <time>2015-09-30T10:01:46Z</time>
      </trkpt>
      <trkpt lat="44.95678" lon="6.62775">
        <ele>2398.31</ele>
        <time>2015-09-30T10:01:48Z</time>
      </trkpt>
      <trkpt lat="44.95672" lon="6.6279">
        <ele>2397.61</ele>
        <time>2015-09-30T10:01:52Z</time>
      </trkpt>
      <trkpt lat="44.95665" lon="6.62807">
        <ele>2396.33</ele>
        <time>2015-09-30T10:01:58Z</time>
      </trkpt>
      <trkpt lat="44.95655" lon="6.62823">
        <ele>2395.78</ele>
        <time>2015-09-30T10:02:03Z</time>
      </trkpt>
      <trkpt lat="44.95648" lon="6.62827">
        <ele>2395.51</ele>
        <time>2015-09-30T10:02:08Z</time>
      </trkpt>
      <trkpt lat="44.95644" lon="6.62827">
        <ele>2396.19</ele>
        <time>2015-09-30T10:02:15Z</time>
      </trkpt>
      <trkpt lat="44.95638" lon="6.62831">
        <ele>2397.5</ele>
        <time>2015-09-30T10:02:24Z</time>
      </trkpt>
      <trkpt lat="44.95632" lon="6.62839">
        <ele>2399.5</ele>
        <time>2015-09-30T10:02:33Z</time>
      </trkpt>
      <trkpt lat="44.9563" lon="6.62853">
        <ele>2400.7</ele>
        <time>2015-09-30T10:02:43Z</time>
      </trkpt>
      <trkpt lat="44.95629" lon="6.6286">
        <ele>2402.07</ele>
        <time>2015-09-30T10:02:53Z</time>
      </trkpt>
      <trkpt lat="44.9563" lon="6.62869">
        <ele>2403.81</ele>
        <time>2015-09-30T10:03:05Z</time>
      </trkpt>
      <trkpt lat="44.95627" lon="6.62876">
        <ele>2405.52</ele>
        <time>2015-09-30T10:03:15Z</time>
      </trkpt>
      <trkpt lat="44.95622" lon="6.62877">
        <ele>2407.58</ele>
        <time>2015-09-30T10:03:28Z</time>
      </trkpt>
      <trkpt lat="44.95616" lon="6.62876">
        <ele>2408.64</ele>
        <time>2015-09-30T10:03:38Z</time>
      </trkpt>
      <trkpt lat="44.95611" lon="6.62874">
        <ele>2410.43</ele>
        <time>2015-09-30T10:03:49Z</time>
      </trkpt>
      <trkpt lat="44.95605" lon="6.62874">
        <ele>2411.96</ele>
        <time>2015-09-30T10:04:00Z</time>
      </trkpt>
      <trkpt lat="44.95603" lon="6.62876">
        <ele>2413.15</ele>
        <time>2015-09-30T10:04:10Z</time>
      </trkpt>
      <trkpt lat="44.95602" lon="6.62876">
        <ele>2413.8</ele>
        <time>2015-09-30T10:04:34Z</time>
      </trkpt>
      <trkpt lat="44.95603" lon="6.62875">
        <ele>2414.04</ele>
        <time>2015-09-30T10:04:54Z</time>
      </trkpt>
      <trkpt lat="44.956" lon="6.62881">
        <ele>2414.76</ele>
        <time>2015-09-30T10:05:03Z</time>
      </trkpt>
      <trkpt lat="44.95596" lon="6.62885">
        <ele>2416.16</ele>
        <time>2015-09-30T10:05:13Z</time>
      </trkpt>
      <trkpt lat="44.95594" lon="6.62893">
        <ele>2418.22</ele>
        <time>2015-09-30T10:05:23Z</time>
      </trkpt>
      <trkpt lat="44.95592" lon="6.62899">
        <ele>2420.12</ele>
        <time>2015-09-30T10:05:33Z</time>
      </trkpt>
      <trkpt lat="44.95591" lon="6.62907">
        <ele>2422.04</ele>
        <time>2015-09-30T10:05:44Z</time>
      </trkpt>
      <trkpt lat="44.9559" lon="6.62912">
        <ele>2423.66</ele>
        <time>2015-09-30T10:05:54Z</time>
      </trkpt>
      <trkpt lat="44.95588" lon="6.62918">
        <ele>2425.5</ele>
        <time>2015-09-30T10:06:06Z</time>
      </trkpt>
      <trkpt lat="44.95585" lon="6.62921">
        <ele>2426.84</ele>
        <time>2015-09-30T10:06:17Z</time>
      </trkpt>
      <trkpt lat="44.95581" lon="6.62923">
        <ele>2428.65</ele>
        <time>2015-09-30T10:06:28Z</time>
      </trkpt>
      <trkpt lat="44.95577" lon="6.62926">
        <ele>2430.05</ele>
        <time>2015-09-30T10:06:38Z</time>
      </trkpt>
      <trkpt lat="44.95574" lon="6.62929">
        <ele>2431.84</ele>
        <time>2015-09-30T10:06:49Z</time>
      </trkpt>
      <trkpt lat="44.9557" lon="6.62932">
        <ele>2433.08</ele>
        <time>2015-09-30T10:06:59Z</time>
      </trkpt>
      <trkpt lat="44.95566" lon="6.62935">
        <ele>2434.88</ele>
        <time>2015-09-30T10:07:10Z</time>
      </trkpt>
      <trkpt lat="44.95563" lon="6.6294">
        <ele>2436.18</ele>
        <time>2015-09-30T10:07:21Z</time>
      </trkpt>
      <trkpt lat="44.9556" lon="6.62944">
        <ele>2437.73</ele>
        <time>2015-09-30T10:07:32Z</time>
      </trkpt>
      <trkpt lat="44.95557" lon="6.62948">
        <ele>2439.48</ele>
        <time>2015-09-30T10:07:43Z</time>
      </trkpt>
      <trkpt lat="44.95554" lon="6.62953">
        <ele>2440.88</ele>
        <time>2015-09-30T10:07:54Z</time>
      </trkpt>
      <trkpt lat="44.95552" lon="6.62957">
        <ele>2442.17</ele>
        <time>2015-09-30T10:08:04Z</time>
      </trkpt>
      <trkpt lat="44.95549" lon="6.62961">
        <ele>2443.65</ele>
        <time>2015-09-30T10:08:14Z</time>
      </trkpt>
      <trkpt lat="44.95547" lon="6.62967">
        <ele>2445.09</ele>
        <time>2015-09-30T10:08:25Z</time>
      </trkpt>
      <trkpt lat="44.95547" lon="6.62972">
        <ele>2446.79</ele>
        <time>2015-09-30T10:08:35Z</time>
      </trkpt>
      <trkpt lat="44.95546" lon="6.62975">
        <ele>2448.15</ele>
        <time>2015-09-30T10:08:44Z</time>
      </trkpt>
      <trkpt lat="44.95545" lon="6.62978">
        <ele>2449.51</ele>
        <time>2015-09-30T10:08:52Z</time>
      </trkpt>
      <trkpt lat="44.95544" lon="6.62982">
        <ele>2450.85</ele>
        <time>2015-09-30T10:09:01Z</time>
      </trkpt>
      <trkpt lat="44.95541" lon="6.62986">
        <ele>2452.34</ele>
        <time>2015-09-30T10:09:11Z</time>
      </trkpt>
      <trkpt lat="44.95539" lon="6.62988">
        <ele>2453.42</ele>
        <time>2015-09-30T10:09:21Z</time>
      </trkpt>
      <trkpt lat="44.95535" lon="6.62991">
        <ele>2454.51</ele>
        <time>2015-09-30T10:09:32Z</time>
      </trkpt>
      <trkpt lat="44.95532" lon="6.62996">
        <ele>2455.88</ele>
        <time>2015-09-30T10:09:41Z</time>
      </trkpt>
      <trkpt lat="44.95531" lon="6.62999">
        <ele>2457.07</ele>
        <time>2015-09-30T10:09:49Z</time>
      </trkpt>
      <trkpt lat="44.9553" lon="6.63">
        <ele>2457.81</ele>
        <time>2015-09-30T10:09:56Z</time>
      </trkpt>
      <trkpt lat="44.95529" lon="6.63004">
        <ele>2459.26</ele>
        <time>2015-09-30T10:10:04Z</time>
      </trkpt>
      <trkpt lat="44.95526" lon="6.63009">
        <ele>2460.85</ele>
        <time>2015-09-30T10:10:14Z</time>
      </trkpt>
      <trkpt lat="44.95523" lon="6.63013">
        <ele>2462.01</ele>
        <time>2015-09-30T10:10:24Z</time>
      </trkpt>
      <trkpt lat="44.9552" lon="6.63017">
        <ele>2463.79</ele>
        <time>2015-09-30T10:10:34Z</time>
      </trkpt>
      <trkpt lat="44.95518" lon="6.6302">
        <ele>2465.14</ele>
        <time>2015-09-30T10:10:43Z</time>
      </trkpt>
      <trkpt lat="44.95514" lon="6.63022">
        <ele>2466.86</ele>
        <time>2015-09-30T10:10:53Z</time>
      </trkpt>
      <trkpt lat="44.95516" lon="6.63023">
        <ele>2468.07</ele>
        <time>2015-09-30T10:11:05Z</time>
      </trkpt>
      <trkpt lat="44.95517" lon="6.63024">
        <ele>2469.16</ele>
        <time>2015-09-30T10:11:13Z</time>
      </trkpt>
      <trkpt lat="44.95518" lon="6.63029">
        <ele>2471.03</ele>
        <time>2015-09-30T10:11:23Z</time>
      </trkpt>
      <trkpt lat="44.95515" lon="6.63031">
        <ele>2472.29</ele>
        <time>2015-09-30T10:11:31Z</time>
      </trkpt>
      <trkpt lat="44.95514" lon="6.63035">
        <ele>2474.34</ele>
        <time>2015-09-30T10:11:43Z</time>
      </trkpt>
      <trkpt lat="44.95511" lon="6.6304">
        <ele>2475.65</ele>
        <time>2015-09-30T10:11:55Z</time>
      </trkpt>
      <trkpt lat="44.9551" lon="6.63049">
        <ele>2477.38</ele>
        <time>2015-09-30T10:12:08Z</time>
      </trkpt>
      <trkpt lat="44.95507" lon="6.63053">
        <ele>2478.53</ele>
        <time>2015-09-30T10:12:18Z</time>
      </trkpt>
      <trkpt lat="44.95505" lon="6.63058">
        <ele>2479.77</ele>
        <time>2015-09-30T10:12:28Z</time>
      </trkpt>
      <trkpt lat="44.95502" lon="6.63058">
        <ele>2481.24</ele>
        <time>2015-09-30T10:12:38Z</time>
      </trkpt>
      <trkpt lat="44.95499" lon="6.63061">
        <ele>2482.53</ele>
        <time>2015-09-30T10:12:48Z</time>
      </trkpt>
      <trkpt lat="44.95495" lon="6.63067">
        <ele>2483.99</ele>
        <time>2015-09-30T10:12:59Z</time>
      </trkpt>
      <trkpt lat="44.95492" lon="6.63077">
        <ele>2484.96</ele>
        <time>2015-09-30T10:13:09Z</time>
      </trkpt>
      <trkpt lat="44.95488" lon="6.63085">
        <ele>2486.11</ele>
        <time>2015-09-30T10:13:19Z</time>
      </trkpt>
      <trkpt lat="44.95487" lon="6.6309">
        <ele>2486.5</ele>
        <time>2015-09-30T10:13:26Z</time>
      </trkpt>
      <trkpt lat="44.95482" lon="6.631">
        <ele>2487.37</ele>
        <time>2015-09-30T10:13:37Z</time>
      </trkpt>
      <trkpt lat="44.95481" lon="6.63107">
        <ele>2488.58</ele>
        <time>2015-09-30T10:13:47Z</time>
      </trkpt>
      <trkpt lat="44.95481" lon="6.63108">
        <ele>2489.06</ele>
        <time>2015-09-30T10:14:10Z</time>
      </trkpt>
      <trkpt lat="44.9548" lon="6.63108">
        <ele>2488.74</ele>
        <time>2015-09-30T10:14:39Z</time>
      </trkpt>
      <trkpt lat="44.95479" lon="6.63108">
        <ele>2488.71</ele>
        <time>2015-09-30T10:15:04Z</time>
      </trkpt>
      <trkpt lat="44.95479" lon="6.63107">
        <ele>2488.72</ele>
        <time>2015-09-30T10:15:29Z</time>
      </trkpt>
      <trkpt lat="44.95479" lon="6.63107">
        <ele>2488.46</ele>
        <time>2015-09-30T10:15:52Z</time>
      </trkpt>
      <trkpt lat="44.95479" lon="6.63107">
        <ele>2488.29</ele>
        <time>2015-09-30T10:16:13Z</time>
      </trkpt>
      <trkpt lat="44.9548" lon="6.63106">
        <ele>2488.19</ele>
        <time>2015-09-30T10:16:35Z</time>
      </trkpt>
      <trkpt lat="44.9548" lon="6.63107">
        <ele>2488.48</ele>
        <time>2015-09-30T10:16:58Z</time>
      </trkpt>
      <trkpt lat="44.9548" lon="6.63106">
        <ele>2488.61</ele>
        <time>2015-09-30T10:17:19Z</time>
      </trkpt>
      <trkpt lat="44.9548" lon="6.63106">
        <ele>2488.54</ele>
        <time>2015-09-30T10:17:42Z</time>
      </trkpt>
      <trkpt lat="44.9548" lon="6.63106">
        <ele>2488.56</ele>
        <time>2015-09-30T10:18:04Z</time>
      </trkpt>
      <trkpt lat="44.9548" lon="6.63107">
        <ele>2488.28</ele>
        <time>2015-09-30T10:18:27Z</time>
      </trkpt>
      <trkpt lat="44.9548" lon="6.63106">
        <ele>2488.75</ele>
        <time>2015-09-30T10:18:51Z</time>
      </trkpt>
      <trkpt lat="44.9548" lon="6.63107">
        <ele>2488.44</ele>
        <time>2015-09-30T10:19:17Z</time>
      </trkpt>
      <trkpt lat="44.9548" lon="6.63107">
        <ele>2488.37</ele>
        <time>2015-09-30T10:19:41Z</time>
      </trkpt>
      <trkpt lat="44.9548" lon="6.63107">
        <ele>2488.66</ele>
        <time>2015-09-30T10:19:51Z</time>
      </trkpt>
      <trkpt lat="44.95477" lon="6.63112">
        <ele>2488.89</ele>
        <time>2015-09-30T10:19:58Z</time>
      </trkpt>
      <trkpt lat="44.95474" lon="6.6312">
        <ele>2489.89</ele>
        <time>2015-09-30T10:20:09Z</time>
      </trkpt>
      <trkpt lat="44.95472" lon="6.63124">
        <ele>2491.2</ele>
        <time>2015-09-30T10:20:18Z</time>
      </trkpt>
      <trkpt lat="44.9547" lon="6.63127">
        <ele>2492.53</ele>
        <time>2015-09-30T10:20:28Z</time>
      </trkpt>
      <trkpt lat="44.95468" lon="6.6313">
        <ele>2493.66</ele>
        <time>2015-09-30T10:20:37Z</time>
      </trkpt>
      <trkpt lat="44.95467" lon="6.63133">
        <ele>2495.01</ele>
        <time>2015-09-30T10:20:46Z</time>
      </trkpt>
      <trkpt lat="44.95465" lon="6.63136">
        <ele>2495.89</ele>
        <time>2015-09-30T10:20:55Z</time>
      </trkpt>
      <trkpt lat="44.95464" lon="6.63141">
        <ele>2497.12</ele>
        <time>2015-09-30T10:21:05Z</time>
      </trkpt>
      <trkpt lat="44.95462" lon="6.63144">
        <ele>2498.27</ele>
        <time>2015-09-30T10:21:13Z</time>
      </trkpt>
      <trkpt lat="44.95464" lon="6.63145">
        <ele>2499.47</ele>
        <time>2015-09-30T10:21:22Z</time>
      </trkpt>
      <trkpt lat="44.95462" lon="6.63149">
        <ele>2500.25</ele>
        <time>2015-09-30T10:21:30Z</time>
      </trkpt>
      <trkpt lat="44.95459" lon="6.63153">
        <ele>2501.24</ele>
        <time>2015-09-30T10:21:39Z</time>
      </trkpt>
      <trkpt lat="44.95457" lon="6.63154">
        <ele>2502.4</ele>
        <time>2015-09-30T10:21:47Z</time>
      </trkpt>
      <trkpt lat="44.95457" lon="6.63158">
        <ele>2503.18</ele>
        <time>2015-09-30T10:21:58Z</time>
      </trkpt>
      <trkpt lat="44.95456" lon="6.63162">
        <ele>2503.92</ele>
        <time>2015-09-30T10:22:07Z</time>
      </trkpt>
      <trkpt lat="44.95453" lon="6.63166">
        <ele>2505.52</ele>
        <time>2015-09-30T10:22:17Z</time>
      </trkpt>
      <trkpt lat="44.95453" lon="6.63171">
        <ele>2506.92</ele>
        <time>2015-09-30T10:22:27Z</time>
      </trkpt>
      <trkpt lat="44.9545" lon="6.63175">
        <ele>2508.02</ele>
        <time>2015-09-30T10:22:35Z</time>
      </trkpt>
      <trkpt lat="44.95447" lon="6.63176">
        <ele>2508.88</ele>
        <time>2015-09-30T10:22:44Z</time>
      </trkpt>
      <trkpt lat="44.95448" lon="6.63177">
        <ele>2509.54</ele>
        <time>2015-09-30T10:22:50Z</time>
      </trkpt>
      <trkpt lat="44.95446" lon="6.6318">
        <ele>2510.04</ele>
        <time>2015-09-30T10:22:58Z</time>
      </trkpt>
      <trkpt lat="44.95444" lon="6.63182">
        <ele>2511.51</ele>
        <time>2015-09-30T10:23:08Z</time>
      </trkpt>
      <trkpt lat="44.95443" lon="6.63186">
        <ele>2512.67</ele>
        <time>2015-09-30T10:23:16Z</time>
      </trkpt>
      <trkpt lat="44.95443" lon="6.6319">
        <ele>2513.91</ele>
        <time>2015-09-30T10:23:26Z</time>
      </trkpt>
      <trkpt lat="44.9544" lon="6.63192">
        <ele>2515.06</ele>
        <time>2015-09-30T10:23:34Z</time>
      </trkpt>
      <trkpt lat="44.95438" lon="6.6319">
        <ele>2515.85</ele>
        <time>2015-09-30T10:23:48Z</time>
      </trkpt>
      <trkpt lat="44.95439" lon="6.63189">
        <ele>2516.14</ele>
        <time>2015-09-30T10:24:00Z</time>
      </trkpt>
      <trkpt lat="44.95438" lon="6.6319">
        <ele>2516.23</ele>
        <time>2015-09-30T10:24:09Z</time>
      </trkpt>
      <trkpt lat="44.95436" lon="6.63192">
        <ele>2516.56</ele>
        <time>2015-09-30T10:24:21Z</time>
      </trkpt>
      <trkpt lat="44.95438" lon="6.63198">
        <ele>2517.94</ele>
        <time>2015-09-30T10:24:30Z</time>
      </trkpt>
      <trkpt lat="44.95439" lon="6.63204">
        <ele>2519</ele>
        <time>2015-09-30T10:24:39Z</time>
      </trkpt>
      <trkpt lat="44.95435" lon="6.63204">
        <ele>2520.06</ele>
        <time>2015-09-30T10:24:45Z</time>
      </trkpt>
      <trkpt lat="44.95431" lon="6.63205">
        <ele>2521.56</ele>
        <time>2015-09-30T10:24:55Z</time>
      </trkpt>
      <trkpt lat="44.95431" lon="6.63208">
        <ele>2522.82</ele>
        <time>2015-09-30T10:25:04Z</time>
      </trkpt>
      <trkpt lat="44.95433" lon="6.63213">
        <ele>2524.75</ele>
        <time>2015-09-30T10:25:14Z</time>
      </trkpt>
      <trkpt lat="44.95433" lon="6.63221">
        <ele>2525.91</ele>
        <time>2015-09-30T10:25:25Z</time>
      </trkpt>
      <trkpt lat="44.95433" lon="6.63227">
        <ele>2527.23</ele>
        <time>2015-09-30T10:25:36Z</time>
      </trkpt>
      <trkpt lat="44.95431" lon="6.63231">
        <ele>2528.16</ele>
        <time>2015-09-30T10:25:44Z</time>
      </trkpt>
      <trkpt lat="44.95429" lon="6.6323">
        <ele>2529.35</ele>
        <time>2015-09-30T10:25:52Z</time>
      </trkpt>
      <trkpt lat="44.95425" lon="6.63227">
        <ele>2531.74</ele>
        <time>2015-09-30T10:26:03Z</time>
      </trkpt>
      <trkpt lat="44.95421" lon="6.63223">
        <ele>2533.62</ele>
        <time>2015-09-30T10:26:15Z</time>
      </trkpt>
      <trkpt lat="44.95418" lon="6.63224">
        <ele>2534.64</ele>
        <time>2015-09-30T10:26:25Z</time>
      </trkpt>
      <trkpt lat="44.95414" lon="6.63224">
        <ele>2536.32</ele>
        <time>2015-09-30T10:26:36Z</time>
      </trkpt>
      <trkpt lat="44.95414" lon="6.63226">
        <ele>2537.5</ele>
        <time>2015-09-30T10:26:46Z</time>
      </trkpt>
      <trkpt lat="44.95411" lon="6.63227">
        <ele>2538.55</ele>
        <time>2015-09-30T10:26:53Z</time>
      </trkpt>
      <trkpt lat="44.95408" lon="6.63228">
        <ele>2539.66</ele>
        <time>2015-09-30T10:27:03Z</time>
      </trkpt>
      <trkpt lat="44.95404" lon="6.63229">
        <ele>2540.85</ele>
        <time>2015-09-30T10:27:13Z</time>
      </trkpt>
      <trkpt lat="44.95401" lon="6.63227">
        <ele>2542.52</ele>
        <time>2015-09-30T10:27:24Z</time>
      </trkpt>
      <trkpt lat="44.95399" lon="6.63229">
        <ele>2543.71</ele>
        <time>2015-09-30T10:27:31Z</time>
      </trkpt>
      <trkpt lat="44.95397" lon="6.63229">
        <ele>2545.19</ele>
        <time>2015-09-30T10:27:39Z</time>
      </trkpt>
      <trkpt lat="44.95394" lon="6.63231">
        <ele>2546.97</ele>
        <time>2015-09-30T10:27:49Z</time>
      </trkpt>
      <trkpt lat="44.9539" lon="6.63233">
        <ele>2548.15</ele>
        <time>2015-09-30T10:28:00Z</time>
      </trkpt>
      <trkpt lat="44.95386" lon="6.63233">
        <ele>2549.71</ele>
        <time>2015-09-30T10:28:09Z</time>
      </trkpt>
      <trkpt lat="44.95382" lon="6.63235">
        <ele>2551.32</ele>
        <time>2015-09-30T10:28:20Z</time>
      </trkpt>
      <trkpt lat="44.95378" lon="6.63239">
        <ele>2552.99</ele>
        <time>2015-09-30T10:28:31Z</time>
      </trkpt>
      <trkpt lat="44.95375" lon="6.63243">
        <ele>2554.34</ele>
        <time>2015-09-30T10:28:41Z</time>
      </trkpt>
      <trkpt lat="44.95374" lon="6.6325">
        <ele>2555.5</ele>
        <time>2015-09-30T10:28:51Z</time>
      </trkpt>
      <trkpt lat="44.95372" lon="6.63253">
        <ele>2556.45</ele>
        <time>2015-09-30T10:28:58Z</time>
      </trkpt>
      <trkpt lat="44.95368" lon="6.63256">
        <ele>2557.22</ele>
        <time>2015-09-30T10:29:07Z</time>
      </trkpt>
      <trkpt lat="44.95357" lon="6.63266">
        <ele>2558.73</ele>
        <time>2015-09-30T10:29:21Z</time>
      </trkpt>
      <trkpt lat="44.95355" lon="6.63267">
        <ele>2559.07</ele>
        <time>2015-09-30T10:29:23Z</time>
      </trkpt>
      <trkpt lat="44.95346" lon="6.63276">
        <ele>2560.04</ele>
        <time>2015-09-30T10:29:35Z</time>
      </trkpt>
      <trkpt lat="44.95342" lon="6.63282">
        <ele>2560.99</ele>
        <time>2015-09-30T10:29:43Z</time>
      </trkpt>
      <trkpt lat="44.95336" lon="6.63288">
        <ele>2562.76</ele>
        <time>2015-09-30T10:29:53Z</time>
      </trkpt>
      <trkpt lat="44.95332" lon="6.63297">
        <ele>2564.85</ele>
        <time>2015-09-30T10:30:06Z</time>
      </trkpt>
      <trkpt lat="44.9533" lon="6.633">
        <ele>2566.64</ele>
        <time>2015-09-30T10:30:15Z</time>
      </trkpt>
      <trkpt lat="44.95332" lon="6.633">
        <ele>2566.9</ele>
        <time>2015-09-30T10:30:48Z</time>
      </trkpt>
      <trkpt lat="44.95327" lon="6.63303">
        <ele>2566.78</ele>
        <time>2015-09-30T10:30:56Z</time>
      </trkpt>
      <trkpt lat="44.95319" lon="6.63306">
        <ele>2568.04</ele>
        <time>2015-09-30T10:31:06Z</time>
      </trkpt>
      <trkpt lat="44.95316" lon="6.63306">
        <ele>2568.29</ele>
        <time>2015-09-30T10:31:14Z</time>
      </trkpt>
      <trkpt lat="44.95316" lon="6.63307">
        <ele>2568.45</ele>
        <time>2015-09-30T10:31:36Z</time>
      </trkpt>
      <trkpt lat="44.95316" lon="6.63307">
        <ele>2568.46</ele>
        <time>2015-09-30T10:31:57Z</time>
      </trkpt>
      <trkpt lat="44.95312" lon="6.63306">
        <ele>2569.24</ele>
        <time>2015-09-30T10:32:17Z</time>
      </trkpt>
      <trkpt lat="44.95301" lon="6.63304">
        <ele>2569.19</ele>
        <time>2015-09-30T10:32:27Z</time>
      </trkpt>
      <trkpt lat="44.95299" lon="6.63305">
        <ele>2569.19</ele>
        <time>2015-09-30T10:32:29Z</time>
      </trkpt>
      <trkpt lat="44.95289" lon="6.6331">
        <ele>2569.35</ele>
        <time>2015-09-30T10:32:40Z</time>
      </trkpt>
      <trkpt lat="44.95288" lon="6.6331">
        <ele>2569.02</ele>
        <time>2015-09-30T10:32:48Z</time>
      </trkpt>
      <trkpt lat="44.95288" lon="6.63311">
        <ele>2568.98</ele>
        <time>2015-09-30T10:33:20Z</time>
      </trkpt>
      <trkpt lat="44.95286" lon="6.6331">
        <ele>2569.53</ele>
        <time>2015-09-30T10:33:30Z</time>
      </trkpt>
      <trkpt lat="44.95279" lon="6.63312">
        <ele>2569.91</ele>
        <time>2015-09-30T10:33:39Z</time>
      </trkpt>
      <trkpt lat="44.95272" lon="6.63314">
        <ele>2569.72</ele>
        <time>2015-09-30T10:33:44Z</time>
      </trkpt>
      <trkpt lat="44.95272" lon="6.63316">
        <ele>2569.5</ele>
        <time>2015-09-30T10:33:50Z</time>
      </trkpt>
      <trkpt lat="44.95271" lon="6.63316">
        <ele>2569.03</ele>
        <time>2015-09-30T10:34:47Z</time>
      </trkpt>
      <trkpt lat="44.95271" lon="6.63315">
        <ele>2568.71</ele>
        <time>2015-09-30T10:36:16Z</time>
      </trkpt>
      <trkpt lat="44.95271" lon="6.63315">
        <ele>2568.73</ele>
        <time>2015-09-30T10:37:43Z</time>
      </trkpt>
      <trkpt lat="44.95269" lon="6.63315">
        <ele>2568.8</ele>
        <time>2015-09-30T10:38:25Z</time>
      </trkpt>
      <trkpt lat="44.95268" lon="6.63315">
        <ele>2568.99</ele>
        <time>2015-09-30T10:38:27Z</time>
      </trkpt>
      <trkpt lat="44.95265" lon="6.63315">
        <ele>2569.16</ele>
        <time>2015-09-30T10:38:29Z</time>
      </trkpt>
      <trkpt lat="44.95255" lon="6.63321">
        <ele>2569.98</ele>
        <time>2015-09-30T10:38:39Z</time>
      </trkpt>
      <trkpt lat="44.95245" lon="6.63322">
        <ele>2570.85</ele>
        <time>2015-09-30T10:38:48Z</time>
      </trkpt>
      <trkpt lat="44.95236" lon="6.63319">
        <ele>2571.65</ele>
        <time>2015-09-30T10:38:57Z</time>
      </trkpt>
      <trkpt lat="44.9523" lon="6.63316">
        <ele>2572.61</ele>
        <time>2015-09-30T10:39:05Z</time>
      </trkpt>
      <trkpt lat="44.95229" lon="6.63316">
        <ele>2573.11</ele>
        <time>2015-09-30T10:39:14Z</time>
      </trkpt>
      <trkpt lat="44.95224" lon="6.63316">
        <ele>2573.31</ele>
        <time>2015-09-30T10:39:50Z</time>
      </trkpt>
      <trkpt lat="44.95211" lon="6.6332">
        <ele>2573.59</ele>
        <time>2015-09-30T10:40:01Z</time>
      </trkpt>
      <trkpt lat="44.952" lon="6.63319">
        <ele>2574.2</ele>
        <time>2015-09-30T10:40:11Z</time>
      </trkpt>
      <trkpt lat="44.95196" lon="6.63317">
        <ele>2573.62</ele>
        <time>2015-09-30T10:40:18Z</time>
      </trkpt>
      <trkpt lat="44.95189" lon="6.63314">
        <ele>2573.77</ele>
        <time>2015-09-30T10:40:26Z</time>
      </trkpt>
      <trkpt lat="44.95185" lon="6.63316">
        <ele>2574.47</ele>
        <time>2015-09-30T10:40:35Z</time>
      </trkpt>
      <trkpt lat="44.95183" lon="6.63315">
        <ele>2575.66</ele>
        <time>2015-09-30T10:40:43Z</time>
      </trkpt>
      <trkpt lat="44.95182" lon="6.63315">
        <ele>2575.49</ele>
        <time>2015-09-30T10:40:54Z</time>
      </trkpt>
      <trkpt lat="44.95179" lon="6.63314">
        <ele>2574.33</ele>
        <time>2015-09-30T10:41:02Z</time>
      </trkpt>
      <trkpt lat="44.95172" lon="6.6331">
        <ele>2572.37</ele>
        <time>2015-09-30T10:41:12Z</time>
      </trkpt>
      <trkpt lat="44.95166" lon="6.63306">
        <ele>2572.05</ele>
        <time>2015-09-30T10:41:20Z</time>
      </trkpt>
      <trkpt lat="44.95162" lon="6.63305">
        <ele>2572.18</ele>
        <time>2015-09-30T10:41:28Z</time>
      </trkpt>
      <trkpt lat="44.95156" lon="6.63306">
        <ele>2572.82</ele>
        <time>2015-09-30T10:41:38Z</time>
      </trkpt>
      <trkpt lat="44.9515" lon="6.63309">
        <ele>2575</ele>
        <time>2015-09-30T10:41:50Z</time>
      </trkpt>
      <trkpt lat="44.95147" lon="6.63311">
        <ele>2576.43</ele>
        <time>2015-09-30T10:41:58Z</time>
      </trkpt>
      <trkpt lat="44.95146" lon="6.63312">
        <ele>2577.64</ele>
        <time>2015-09-30T10:42:06Z</time>
      </trkpt>
      <trkpt lat="44.95145" lon="6.63313">
        <ele>2578.22</ele>
        <time>2015-09-30T10:42:21Z</time>
      </trkpt>
      <trkpt lat="44.95146" lon="6.63313">
        <ele>2578.67</ele>
        <time>2015-09-30T10:42:34Z</time>
      </trkpt>
      <trkpt lat="44.95145" lon="6.63312">
        <ele>2578.64</ele>
        <time>2015-09-30T10:42:45Z</time>
      </trkpt>
      <trkpt lat="44.95138" lon="6.63308">
        <ele>2578.26</ele>
        <time>2015-09-30T10:42:53Z</time>
      </trkpt>
      <trkpt lat="44.95132" lon="6.6331">
        <ele>2578.19</ele>
        <time>2015-09-30T10:43:01Z</time>
      </trkpt>
      <trkpt lat="44.95126" lon="6.6331">
        <ele>2579.33</ele>
        <time>2015-09-30T10:43:10Z</time>
      </trkpt>
      <trkpt lat="44.95123" lon="6.63309">
        <ele>2580.5</ele>
        <time>2015-09-30T10:43:18Z</time>
      </trkpt>
      <trkpt lat="44.95117" lon="6.63305">
        <ele>2581.59</ele>
        <time>2015-09-30T10:43:28Z</time>
      </trkpt>
      <trkpt lat="44.95113" lon="6.63308">
        <ele>2582.26</ele>
        <time>2015-09-30T10:43:38Z</time>
      </trkpt>
      <trkpt lat="44.95113" lon="6.63308">
        <ele>2582.89</ele>
        <time>2015-09-30T10:43:48Z</time>
      </trkpt>
      <trkpt lat="44.95112" lon="6.63306">
        <ele>2583.62</ele>
        <time>2015-09-30T10:43:57Z</time>
      </trkpt>
      <trkpt lat="44.95111" lon="6.63306">
        <ele>2584.97</ele>
        <time>2015-09-30T10:44:07Z</time>
      </trkpt>
      <trkpt lat="44.9511" lon="6.63307">
        <ele>2585.41</ele>
        <time>2015-09-30T10:44:14Z</time>
      </trkpt>
      <trkpt lat="44.9511" lon="6.63307">
        <ele>2586.08</ele>
        <time>2015-09-30T10:44:23Z</time>
      </trkpt>
      <trkpt lat="44.95108" lon="6.63308">
        <ele>2586.38</ele>
        <time>2015-09-30T10:44:32Z</time>
      </trkpt>
      <trkpt lat="44.95105" lon="6.63307">
        <ele>2585.12</ele>
        <time>2015-09-30T10:44:39Z</time>
      </trkpt>
      <trkpt lat="44.95104" lon="6.63308">
        <ele>2583.87</ele>
        <time>2015-09-30T10:44:46Z</time>
      </trkpt>
      <trkpt lat="44.95101" lon="6.63305">
        <ele>2583</ele>
        <time>2015-09-30T10:44:54Z</time>
      </trkpt>
      <trkpt lat="44.95094" lon="6.63305">
        <ele>2581.37</ele>
        <time>2015-09-30T10:45:04Z</time>
      </trkpt>
      <trkpt lat="44.95092" lon="6.63305">
        <ele>2580.64</ele>
        <time>2015-09-30T10:45:08Z</time>
      </trkpt>
      <trkpt lat="44.95082" lon="6.63308">
        <ele>2579.67</ele>
        <time>2015-09-30T10:45:19Z</time>
      </trkpt>
      <trkpt lat="44.95075" lon="6.63309">
        <ele>2579.85</ele>
        <time>2015-09-30T10:45:28Z</time>
      </trkpt>
      <trkpt lat="44.95068" lon="6.6331">
        <ele>2581.18</ele>
        <time>2015-09-30T10:45:39Z</time>
      </trkpt>
      <trkpt lat="44.9506" lon="6.6331">
        <ele>2582.87</ele>
        <time>2015-09-30T10:45:50Z</time>
      </trkpt>
      <trkpt lat="44.95055" lon="6.63311">
        <ele>2583.93</ele>
        <time>2015-09-30T10:45:58Z</time>
      </trkpt>
      <trkpt lat="44.9505" lon="6.63312">
        <ele>2585.2</ele>
        <time>2015-09-30T10:46:07Z</time>
      </trkpt>
      <trkpt lat="44.95044" lon="6.63309">
        <ele>2586.73</ele>
        <time>2015-09-30T10:46:17Z</time>
      </trkpt>
      <trkpt lat="44.95038" lon="6.63309">
        <ele>2587.71</ele>
        <time>2015-09-30T10:46:26Z</time>
      </trkpt>
      <trkpt lat="44.95031" lon="6.63312">
        <ele>2588.01</ele>
        <time>2015-09-30T10:46:37Z</time>
      </trkpt>
      <trkpt lat="44.95028" lon="6.63314">
        <ele>2588.73</ele>
        <time>2015-09-30T10:46:45Z</time>
      </trkpt>
      <trkpt lat="44.95025" lon="6.63318">
        <ele>2590.18</ele>
        <time>2015-09-30T10:46:55Z</time>
      </trkpt>
      <trkpt lat="44.95021" lon="6.63321">
        <ele>2591.45</ele>
        <time>2015-09-30T10:47:04Z</time>
      </trkpt>
      <trkpt lat="44.95015" lon="6.63317">
        <ele>2592.61</ele>
        <time>2015-09-30T10:47:15Z</time>
      </trkpt>
      <trkpt lat="44.95008" lon="6.63315">
        <ele>2593.38</ele>
        <time>2015-09-30T10:47:24Z</time>
      </trkpt>
      <trkpt lat="44.95003" lon="6.63312">
        <ele>2594.51</ele>
        <time>2015-09-30T10:47:33Z</time>
      </trkpt>
      <trkpt lat="44.94997" lon="6.6331">
        <ele>2595.48</ele>
        <time>2015-09-30T10:47:42Z</time>
      </trkpt>
      <trkpt lat="44.94993" lon="6.6331">
        <ele>2596.64</ele>
        <time>2015-09-30T10:47:49Z</time>
      </trkpt>
      <trkpt lat="44.94985" lon="6.6331">
        <ele>2597.8</ele>
        <time>2015-09-30T10:47:59Z</time>
      </trkpt>
      <trkpt lat="44.9498" lon="6.63312">
        <ele>2598.78</ele>
        <time>2015-09-30T10:48:08Z</time>
      </trkpt>
      <trkpt lat="44.94972" lon="6.63314">
        <ele>2599.87</ele>
        <time>2015-09-30T10:48:19Z</time>
      </trkpt>
      <trkpt lat="44.94958" lon="6.63314">
        <ele>2600.18</ele>
        <time>2015-09-30T10:48:31Z</time>
      </trkpt>
      <trkpt lat="44.94944" lon="6.63318">
        <ele>2599.71</ele>
        <time>2015-09-30T10:48:44Z</time>
      </trkpt>
      <trkpt lat="44.94938" lon="6.6332">
        <ele>2600.14</ele>
        <time>2015-09-30T10:48:54Z</time>
      </trkpt>
      <trkpt lat="44.94932" lon="6.63324">
        <ele>2601.66</ele>
        <time>2015-09-30T10:49:04Z</time>
      </trkpt>
      <trkpt lat="44.94924" lon="6.63327">
        <ele>2603.67</ele>
        <time>2015-09-30T10:49:17Z</time>
      </trkpt>
      <trkpt lat="44.94921" lon="6.63332">
        <ele>2604.6</ele>
        <time>2015-09-30T10:49:26Z</time>
      </trkpt>
      <trkpt lat="44.94918" lon="6.63339">
        <ele>2605.53</ele>
        <time>2015-09-30T10:49:36Z</time>
      </trkpt>
      <trkpt lat="44.9492" lon="6.63339">
        <ele>2605.75</ele>
        <time>2015-09-30T10:49:44Z</time>
      </trkpt>
      <trkpt lat="44.94921" lon="6.63339">
        <ele>2605.69</ele>
        <time>2015-09-30T10:52:13Z</time>
      </trkpt>
      <trkpt lat="44.94921" lon="6.63339">
        <ele>2606.14</ele>
        <time>2015-09-30T10:54:37Z</time>
      </trkpt>
      <trkpt lat="44.9492" lon="6.63339">
        <ele>2605.98</ele>
        <time>2015-09-30T10:54:53Z</time>
      </trkpt>
      <trkpt lat="44.94918" lon="6.6334">
        <ele>2605.96</ele>
        <time>2015-09-30T10:54:56Z</time>
      </trkpt>
      <trkpt lat="44.9491" lon="6.63347">
        <ele>2605.91</ele>
        <time>2015-09-30T10:55:05Z</time>
      </trkpt>
      <trkpt lat="44.94905" lon="6.63352">
        <ele>2604.45</ele>
        <time>2015-09-30T10:55:14Z</time>
      </trkpt>
      <trkpt lat="44.94899" lon="6.63358">
        <ele>2601.91</ele>
        <time>2015-09-30T10:55:24Z</time>
      </trkpt>
      <trkpt lat="44.94896" lon="6.63363">
        <ele>2599.44</ele>
        <time>2015-09-30T10:55:32Z</time>
      </trkpt>
      <trkpt lat="44.94894" lon="6.63367">
        <ele>2597.88</ele>
        <time>2015-09-30T10:55:40Z</time>
      </trkpt>
      <trkpt lat="44.94892" lon="6.63369">
        <ele>2596.44</ele>
        <time>2015-09-30T10:55:49Z</time>
      </trkpt>
      <trkpt lat="44.94889" lon="6.63371">
        <ele>2594.91</ele>
        <time>2015-09-30T10:55:59Z</time>
      </trkpt>
      <trkpt lat="44.94886" lon="6.63375">
        <ele>2593.15</ele>
        <time>2015-09-30T10:56:07Z</time>
      </trkpt>
      <trkpt lat="44.94885" lon="6.63375">
        <ele>2590.93</ele>
        <time>2015-09-30T10:56:16Z</time>
      </trkpt>
      <trkpt lat="44.94884" lon="6.6337">
        <ele>2589.78</ele>
        <time>2015-09-30T10:56:24Z</time>
      </trkpt>
      <trkpt lat="44.94883" lon="6.63372">
        <ele>2588.88</ele>
        <time>2015-09-30T10:56:30Z</time>
      </trkpt>
      <trkpt lat="44.9488" lon="6.63377">
        <ele>2587.85</ele>
        <time>2015-09-30T10:56:37Z</time>
      </trkpt>
      <trkpt lat="44.94878" lon="6.63383">
        <ele>2585.68</ele>
        <time>2015-09-30T10:56:48Z</time>
      </trkpt>
      <trkpt lat="44.94876" lon="6.6338">
        <ele>2583.61</ele>
        <time>2015-09-30T10:56:57Z</time>
      </trkpt>
      <trkpt lat="44.94873" lon="6.63385">
        <ele>2581.97</ele>
        <time>2015-09-30T10:57:07Z</time>
      </trkpt>
      <trkpt lat="44.94867" lon="6.63393">
        <ele>2579.56</ele>
        <time>2015-09-30T10:57:17Z</time>
      </trkpt>
      <trkpt lat="44.94863" lon="6.63392">
        <ele>2577.28</ele>
        <time>2015-09-30T10:57:24Z</time>
      </trkpt>
      <trkpt lat="44.94862" lon="6.63395">
        <ele>2574.92</ele>
        <time>2015-09-30T10:57:33Z</time>
      </trkpt>
      <trkpt lat="44.94862" lon="6.63394">
        <ele>2574.37</ele>
        <time>2015-09-30T10:57:45Z</time>
      </trkpt>
      <trkpt lat="44.94862" lon="6.63394">
        <ele>2574.17</ele>
        <time>2015-09-30T10:57:57Z</time>
      </trkpt>
      <trkpt lat="44.94861" lon="6.63396">
        <ele>2574.47</ele>
        <time>2015-09-30T10:58:10Z</time>
      </trkpt>
      <trkpt lat="44.94855" lon="6.63399">
        <ele>2574.03</ele>
        <time>2015-09-30T10:58:15Z</time>
      </trkpt>
      <trkpt lat="44.94838" lon="6.63418">
        <ele>2571.04</ele>
        <time>2015-09-30T10:58:23Z</time>
      </trkpt>
      <trkpt lat="44.94835" lon="6.63421">
        <ele>2569.38</ele>
        <time>2015-09-30T10:58:28Z</time>
      </trkpt>
      <trkpt lat="44.94829" lon="6.63428">
        <ele>2568.64</ele>
        <time>2015-09-30T10:58:36Z</time>
      </trkpt>
      <trkpt lat="44.94816" lon="6.63436">
        <ele>2568.29</ele>
        <time>2015-09-30T10:58:48Z</time>
      </trkpt>
      <trkpt lat="44.94805" lon="6.63442">
        <ele>2568.58</ele>
        <time>2015-09-30T10:58:59Z</time>
      </trkpt>
      <trkpt lat="44.94793" lon="6.63453">
        <ele>2569.56</ele>
        <time>2015-09-30T10:59:11Z</time>
      </trkpt>
      <trkpt lat="44.94788" lon="6.63464">
        <ele>2569.75</ele>
        <time>2015-09-30T10:59:18Z</time>
      </trkpt>
      <trkpt lat="44.94788" lon="6.63464">
        <ele>2569.37</ele>
        <time>2015-09-30T10:59:35Z</time>
      </trkpt>
      <trkpt lat="44.94788" lon="6.63462">
        <ele>2569.11</ele>
        <time>2015-09-30T10:59:56Z</time>
      </trkpt>
      <trkpt lat="44.94788" lon="6.63463">
        <ele>2569.27</ele>
        <time>2015-09-30T10:59:58Z</time>
      </trkpt>
      <trkpt lat="44.9478" lon="6.6348">
        <ele>2569.29</ele>
        <time>2015-09-30T11:00:04Z</time>
      </trkpt>
      <trkpt lat="44.94774" lon="6.63509">
        <ele>2568.49</ele>
        <time>2015-09-30T11:00:10Z</time>
      </trkpt>
      <trkpt lat="44.94768" lon="6.63543">
        <ele>2567.37</ele>
        <time>2015-09-30T11:00:16Z</time>
      </trkpt>
      <trkpt lat="44.94748" lon="6.63573">
        <ele>2565.01</ele>
        <time>2015-09-30T11:00:22Z</time>
      </trkpt>
      <trkpt lat="44.94741" lon="6.63584">
        <ele>2562.85</ele>
        <time>2015-09-30T11:00:27Z</time>
      </trkpt>
      <trkpt lat="44.94739" lon="6.63588">
        <ele>2561.78</ele>
        <time>2015-09-30T11:00:31Z</time>
      </trkpt>
      <trkpt lat="44.94724" lon="6.636">
        <ele>2560.14</ele>
        <time>2015-09-30T11:00:38Z</time>
      </trkpt>
      <trkpt lat="44.94715" lon="6.63608">
        <ele>2558.94</ele>
        <time>2015-09-30T11:00:43Z</time>
      </trkpt>
      <trkpt lat="44.94707" lon="6.63614">
        <ele>2558.32</ele>
        <time>2015-09-30T11:00:51Z</time>
      </trkpt>
      <trkpt lat="44.94699" lon="6.6362">
        <ele>2558.43</ele>
        <time>2015-09-30T11:00:59Z</time>
      </trkpt>
      <trkpt lat="44.94695" lon="6.63622">
        <ele>2558.23</ele>
        <time>2015-09-30T11:01:03Z</time>
      </trkpt>
      <trkpt lat="44.94689" lon="6.63628">
        <ele>2557.67</ele>
        <time>2015-09-30T11:01:11Z</time>
      </trkpt>
      <trkpt lat="44.94682" lon="6.63634">
        <ele>2557.58</ele>
        <time>2015-09-30T11:01:19Z</time>
      </trkpt>
      <trkpt lat="44.94676" lon="6.63637">
        <ele>2558.12</ele>
        <time>2015-09-30T11:01:29Z</time>
      </trkpt>
      <trkpt lat="44.94666" lon="6.6364">
        <ele>2556.5</ele>
        <time>2015-09-30T11:01:39Z</time>
      </trkpt>
      <trkpt lat="44.9466" lon="6.63644">
        <ele>2555.95</ele>
        <time>2015-09-30T11:01:48Z</time>
      </trkpt>
      <trkpt lat="44.94659" lon="6.63642">
        <ele>2556.11</ele>
        <time>2015-09-30T11:02:33Z</time>
      </trkpt>
      <trkpt lat="44.94659" lon="6.63641">
        <ele>2556.16</ele>
        <time>2015-09-30T11:03:11Z</time>
      </trkpt>
      <trkpt lat="44.9466" lon="6.63643">
        <ele>2555.89</ele>
        <time>2015-09-30T11:04:23Z</time>
      </trkpt>
      <trkpt lat="44.9466" lon="6.63643">
        <ele>2555.84</ele>
        <time>2015-09-30T11:05:04Z</time>
      </trkpt>
      <trkpt lat="44.9466" lon="6.63643">
        <ele>2555.79</ele>
        <time>2015-09-30T11:05:46Z</time>
      </trkpt>
      <trkpt lat="44.94659" lon="6.63641">
        <ele>2555.6</ele>
        <time>2015-09-30T11:06:23Z</time>
      </trkpt>
      <trkpt lat="44.9466" lon="6.63643">
        <ele>2555.81</ele>
        <time>2015-09-30T11:07:07Z</time>
      </trkpt>
      <trkpt lat="44.9466" lon="6.63644">
        <ele>2555.81</ele>
        <time>2015-09-30T11:07:45Z</time>
      </trkpt>
      <trkpt lat="44.9466" lon="6.63643">
        <ele>2556.57</ele>
        <time>2015-09-30T11:08:34Z</time>
      </trkpt>
      <trkpt lat="44.9466" lon="6.63644">
        <ele>2557.13</ele>
        <time>2015-09-30T11:09:11Z</time>
      </trkpt>
      <trkpt lat="44.9466" lon="6.63643">
        <ele>2556.53</ele>
        <time>2015-09-30T11:09:50Z</time>
      </trkpt>
      <trkpt lat="44.9466" lon="6.63643">
        <ele>2556.62</ele>
        <time>2015-09-30T11:10:33Z</time>
      </trkpt>
      <trkpt lat="44.9466" lon="6.63644">
        <ele>2556.64</ele>
        <time>2015-09-30T11:11:18Z</time>
      </trkpt>
      <trkpt lat="44.9466" lon="6.63644">
        <ele>2556.7</ele>
        <time>2015-09-30T11:12:04Z</time>
      </trkpt>
      <trkpt lat="44.9466" lon="6.63643">
        <ele>2556.25</ele>
        <time>2015-09-30T11:12:45Z</time>
      </trkpt>
      <trkpt lat="44.9466" lon="6.63644">
        <ele>2556.04</ele>
        <time>2015-09-30T11:13:35Z</time>
      </trkpt>
      <trkpt lat="44.9466" lon="6.63644">
        <ele>2555.78</ele>
        <time>2015-09-30T11:14:14Z</time>
      </trkpt>
      <trkpt lat="44.9466" lon="6.63644">
        <ele>2555.8</ele>
        <time>2015-09-30T11:15:00Z</time>
      </trkpt>
      <trkpt lat="44.9466" lon="6.63644">
        <ele>2555.46</ele>
        <time>2015-09-30T11:15:44Z</time>
      </trkpt>
      <trkpt lat="44.9466" lon="6.63643">
        <ele>2555.62</ele>
        <time>2015-09-30T11:16:31Z</time>
      </trkpt>
      <trkpt lat="44.9466" lon="6.63644">
        <ele>2555.14</ele>
        <time>2015-09-30T11:17:16Z</time>
      </trkpt>
      <trkpt lat="44.9466" lon="6.63644">
        <ele>2554.99</ele>
        <time>2015-09-30T11:17:50Z</time>
      </trkpt>
      <trkpt lat="44.9466" lon="6.63644">
        <ele>2555.26</ele>
        <time>2015-09-30T11:18:28Z</time>
      </trkpt>
      <trkpt lat="44.9466" lon="6.63643">
        <ele>2555.5</ele>
        <time>2015-09-30T11:19:07Z</time>
      </trkpt>
      <trkpt lat="44.9466" lon="6.63644">
        <ele>2555.85</ele>
        <time>2015-09-30T11:19:44Z</time>
      </trkpt>
      <trkpt lat="44.9466" lon="6.63644">
        <ele>2555.6</ele>
        <time>2015-09-30T11:20:29Z</time>
      </trkpt>
      <trkpt lat="44.9466" lon="6.63644">
        <ele>2555.56</ele>
        <time>2015-09-30T11:20:54Z</time>
      </trkpt>
      <trkpt lat="44.9466" lon="6.63644">
        <ele>2555.9</ele>
        <time>2015-09-30T11:21:22Z</time>
      </trkpt>
      <trkpt lat="44.9466" lon="6.63643">
        <ele>2556.37</ele>
        <time>2015-09-30T11:21:54Z</time>
      </trkpt>
      <trkpt lat="44.94659" lon="6.63644">
        <ele>2555.74</ele>
        <time>2015-09-30T11:22:39Z</time>
      </trkpt>
      <trkpt lat="44.94658" lon="6.63644">
        <ele>2555.81</ele>
        <time>2015-09-30T11:22:48Z</time>
      </trkpt>
      <trkpt lat="44.94658" lon="6.63645">
        <ele>2556.2</ele>
        <time>2015-09-30T11:22:51Z</time>
      </trkpt>
      <trkpt lat="44.9465" lon="6.63658">
        <ele>2557.21</ele>
        <time>2015-09-30T11:23:02Z</time>
      </trkpt>
      <trkpt lat="44.94645" lon="6.63663">
        <ele>2559.45</ele>
        <time>2015-09-30T11:23:09Z</time>
      </trkpt>
      <trkpt lat="44.94633" lon="6.6367">
        <ele>2561.08</ele>
        <time>2015-09-30T11:23:20Z</time>
      </trkpt>
      <trkpt lat="44.94626" lon="6.63675">
        <ele>2561.96</ele>
        <time>2015-09-30T11:23:30Z</time>
      </trkpt>
      <trkpt lat="44.94621" lon="6.63678">
        <ele>2563.17</ele>
        <time>2015-09-30T11:23:40Z</time>
      </trkpt>
      <trkpt lat="44.94616" lon="6.63682">
        <ele>2564.33</ele>
        <time>2015-09-30T11:23:49Z</time>
      </trkpt>
      <trkpt lat="44.94615" lon="6.63683">
        <ele>2564.46</ele>
        <time>2015-09-30T11:23:50Z</time>
      </trkpt>
      <trkpt lat="44.94608" lon="6.63688">
        <ele>2565.1</ele>
        <time>2015-09-30T11:24:00Z</time>
      </trkpt>
      <trkpt lat="44.94601" lon="6.63693">
        <ele>2565.54</ele>
        <time>2015-09-30T11:24:10Z</time>
      </trkpt>
      <trkpt lat="44.94596" lon="6.63698">
        <ele>2565.86</ele>
        <time>2015-09-30T11:24:19Z</time>
      </trkpt>
      <trkpt lat="44.94589" lon="6.63703">
        <ele>2566.92</ele>
        <time>2015-09-30T11:24:28Z</time>
      </trkpt>
      <trkpt lat="44.94585" lon="6.63708">
        <ele>2567.96</ele>
        <time>2015-09-30T11:24:38Z</time>
      </trkpt>
      <trkpt lat="44.94579" lon="6.63714">
        <ele>2569.93</ele>
        <time>2015-09-30T11:24:48Z</time>
      </trkpt>
      <trkpt lat="44.94576" lon="6.63715">
        <ele>2570.84</ele>
        <time>2015-09-30T11:24:59Z</time>
      </trkpt>
      <trkpt lat="44.94572" lon="6.6372">
        <ele>2570.47</ele>
        <time>2015-09-30T11:25:07Z</time>
      </trkpt>
      <trkpt lat="44.94571" lon="6.63721">
        <ele>2570.37</ele>
        <time>2015-09-30T11:25:09Z</time>
      </trkpt>
      <trkpt lat="44.94566" lon="6.63724">
        <ele>2569.92</ele>
        <time>2015-09-30T11:25:18Z</time>
      </trkpt>
      <trkpt lat="44.94565" lon="6.63732">
        <ele>2570.54</ele>
        <time>2015-09-30T11:25:29Z</time>
      </trkpt>
      <trkpt lat="44.94564" lon="6.63738">
        <ele>2572.19</ele>
        <time>2015-09-30T11:25:37Z</time>
      </trkpt>
      <trkpt lat="44.94562" lon="6.63744">
        <ele>2574.41</ele>
        <time>2015-09-30T11:25:46Z</time>
      </trkpt>
      <trkpt lat="44.94559" lon="6.63751">
        <ele>2576.55</ele>
        <time>2015-09-30T11:25:56Z</time>
      </trkpt>
      <trkpt lat="44.94554" lon="6.63756">
        <ele>2577.54</ele>
        <time>2015-09-30T11:26:04Z</time>
      </trkpt>
      <trkpt lat="44.94551" lon="6.63762">
        <ele>2578.18</ele>
        <time>2015-09-30T11:26:13Z</time>
      </trkpt>
      <trkpt lat="44.94548" lon="6.63768">
        <ele>2579.25</ele>
        <time>2015-09-30T11:26:22Z</time>
      </trkpt>
      <trkpt lat="44.9454" lon="6.63778">
        <ele>2580.18</ele>
        <time>2015-09-30T11:26:34Z</time>
      </trkpt>
      <trkpt lat="44.94538" lon="6.63784">
        <ele>2581.19</ele>
        <time>2015-09-30T11:26:44Z</time>
      </trkpt>
      <trkpt lat="44.94536" lon="6.63791">
        <ele>2582.37</ele>
        <time>2015-09-30T11:26:52Z</time>
      </trkpt>
      <trkpt lat="44.94535" lon="6.63798">
        <ele>2584.11</ele>
        <time>2015-09-30T11:27:03Z</time>
      </trkpt>
      <trkpt lat="44.94534" lon="6.63805">
        <ele>2585.28</ele>
        <time>2015-09-30T11:27:13Z</time>
      </trkpt>
      <trkpt lat="44.94531" lon="6.63812">
        <ele>2586.47</ele>
        <time>2015-09-30T11:27:23Z</time>
      </trkpt>
      <trkpt lat="44.94528" lon="6.6382">
        <ele>2587.72</ele>
        <time>2015-09-30T11:27:33Z</time>
      </trkpt>
      <trkpt lat="44.9452" lon="6.63832">
        <ele>2589.08</ele>
        <time>2015-09-30T11:27:46Z</time>
      </trkpt>
      <trkpt lat="44.94512" lon="6.63842">
        <ele>2589.58</ele>
        <time>2015-09-30T11:27:56Z</time>
      </trkpt>
      <trkpt lat="44.94505" lon="6.6385">
        <ele>2589.61</ele>
        <time>2015-09-30T11:28:05Z</time>
      </trkpt>
      <trkpt lat="44.94497" lon="6.63862">
        <ele>2589.37</ele>
        <time>2015-09-30T11:28:16Z</time>
      </trkpt>
      <trkpt lat="44.94494" lon="6.63868">
        <ele>2589.29</ele>
        <time>2015-09-30T11:28:22Z</time>
      </trkpt>
      <trkpt lat="44.94493" lon="6.63871">
        <ele>2589.27</ele>
        <time>2015-09-30T11:28:24Z</time>
      </trkpt>
      <trkpt lat="44.94482" lon="6.63884">
        <ele>2589.81</ele>
        <time>2015-09-30T11:28:38Z</time>
      </trkpt>
      <trkpt lat="44.94478" lon="6.63894">
        <ele>2591.7</ele>
        <time>2015-09-30T11:28:49Z</time>
      </trkpt>
      <trkpt lat="44.94478" lon="6.63901">
        <ele>2593.81</ele>
        <time>2015-09-30T11:28:59Z</time>
      </trkpt>
      <trkpt lat="44.94473" lon="6.63908">
        <ele>2596.91</ele>
        <time>2015-09-30T11:29:10Z</time>
      </trkpt>
      <trkpt lat="44.94469" lon="6.63915">
        <ele>2598.49</ele>
        <time>2015-09-30T11:29:21Z</time>
      </trkpt>
      <trkpt lat="44.94466" lon="6.6392">
        <ele>2599.96</ele>
        <time>2015-09-30T11:29:30Z</time>
      </trkpt>
      <trkpt lat="44.94461" lon="6.63924">
        <ele>2601.41</ele>
        <time>2015-09-30T11:29:41Z</time>
      </trkpt>
      <trkpt lat="44.94457" lon="6.63929">
        <ele>2603.12</ele>
        <time>2015-09-30T11:29:51Z</time>
      </trkpt>
      <trkpt lat="44.94453" lon="6.63932">
        <ele>2604.42</ele>
        <time>2015-09-30T11:30:01Z</time>
      </trkpt>
      <trkpt lat="44.94445" lon="6.63936">
        <ele>2605.32</ele>
        <time>2015-09-30T11:30:13Z</time>
      </trkpt>
      <trkpt lat="44.9444" lon="6.63938">
        <ele>2606.66</ele>
        <time>2015-09-30T11:30:24Z</time>
      </trkpt>
      <trkpt lat="44.94436" lon="6.63942">
        <ele>2608.14</ele>
        <time>2015-09-30T11:30:34Z</time>
      </trkpt>
      <trkpt lat="44.94433" lon="6.63945">
        <ele>2609.75</ele>
        <time>2015-09-30T11:30:45Z</time>
      </trkpt>
      <trkpt lat="44.94432" lon="6.63948">
        <ele>2611.53</ele>
        <time>2015-09-30T11:30:54Z</time>
      </trkpt>
      <trkpt lat="44.94431" lon="6.63954">
        <ele>2613.64</ele>
        <time>2015-09-30T11:31:04Z</time>
      </trkpt>
      <trkpt lat="44.94428" lon="6.63958">
        <ele>2615.11</ele>
        <time>2015-09-30T11:31:12Z</time>
      </trkpt>
      <trkpt lat="44.94425" lon="6.63961">
        <ele>2616.39</ele>
        <time>2015-09-30T11:31:21Z</time>
      </trkpt>
      <trkpt lat="44.94419" lon="6.63965">
        <ele>2617.49</ele>
        <time>2015-09-30T11:31:31Z</time>
      </trkpt>
      <trkpt lat="44.94414" lon="6.6397">
        <ele>2619.08</ele>
        <time>2015-09-30T11:31:42Z</time>
      </trkpt>
      <trkpt lat="44.9441" lon="6.63974">
        <ele>2620.64</ele>
        <time>2015-09-30T11:31:51Z</time>
      </trkpt>
      <trkpt lat="44.94402" lon="6.63979">
        <ele>2622.66</ele>
        <time>2015-09-30T11:32:02Z</time>
      </trkpt>
      <trkpt lat="44.94399" lon="6.63981">
        <ele>2623.12</ele>
        <time>2015-09-30T11:32:06Z</time>
      </trkpt>
      <trkpt lat="44.94397" lon="6.63989">
        <ele>2622.96</ele>
        <time>2015-09-30T11:32:15Z</time>
      </trkpt>
      <trkpt lat="44.94399" lon="6.63986">
        <ele>2622.98</ele>
        <time>2015-09-30T11:32:24Z</time>
      </trkpt>
      <trkpt lat="44.94399" lon="6.63986">
        <ele>2623.59</ele>
        <time>2015-09-30T11:33:12Z</time>
      </trkpt>
      <trkpt lat="44.94399" lon="6.63986">
        <ele>2623.01</ele>
        <time>2015-09-30T11:33:26Z</time>
      </trkpt>
      <trkpt lat="44.94399" lon="6.63987">
        <ele>2623.11</ele>
        <time>2015-09-30T11:34:32Z</time>
      </trkpt>
      <trkpt lat="44.94399" lon="6.63988">
        <ele>2622.97</ele>
        <time>2015-09-30T11:35:28Z</time>
      </trkpt>
      <trkpt lat="44.94399" lon="6.63988">
        <ele>2622.93</ele>
        <time>2015-09-30T11:36:24Z</time>
      </trkpt>
      <trkpt lat="44.94398" lon="6.6399">
        <ele>2623.01</ele>
        <time>2015-09-30T11:36:38Z</time>
      </trkpt>
      <trkpt lat="44.94397" lon="6.63991">
        <ele>2623.24</ele>
        <time>2015-09-30T11:36:43Z</time>
      </trkpt>
      <trkpt lat="44.94396" lon="6.63992">
        <ele>2623.29</ele>
        <time>2015-09-30T11:36:44Z</time>
      </trkpt>
      <trkpt lat="44.94393" lon="6.63996">
        <ele>2622.97</ele>
        <time>2015-09-30T11:36:52Z</time>
      </trkpt>
      <trkpt lat="44.94389" lon="6.64">
        <ele>2621.32</ele>
        <time>2015-09-30T11:37:02Z</time>
      </trkpt>
      <trkpt lat="44.94388" lon="6.64004">
        <ele>2620.65</ele>
        <time>2015-09-30T11:37:08Z</time>
      </trkpt>
      <trkpt lat="44.94385" lon="6.64008">
        <ele>2620.07</ele>
        <time>2015-09-30T11:37:12Z</time>
      </trkpt>
      <trkpt lat="44.94383" lon="6.64014">
        <ele>2618.63</ele>
        <time>2015-09-30T11:37:20Z</time>
      </trkpt>
      <trkpt lat="44.94381" lon="6.64019">
        <ele>2617.45</ele>
        <time>2015-09-30T11:37:30Z</time>
      </trkpt>
      <trkpt lat="44.94379" lon="6.64022">
        <ele>2617.19</ele>
        <time>2015-09-30T11:37:32Z</time>
      </trkpt>
      <trkpt lat="44.94377" lon="6.64028">
        <ele>2616.64</ele>
        <time>2015-09-30T11:37:37Z</time>
      </trkpt>
      <trkpt lat="44.94372" lon="6.64039">
        <ele>2615.99</ele>
        <time>2015-09-30T11:37:45Z</time>
      </trkpt>
      <trkpt lat="44.94363" lon="6.64058">
        <ele>2615.41</ele>
        <time>2015-09-30T11:37:53Z</time>
      </trkpt>
      <trkpt lat="44.94355" lon="6.64071">
        <ele>2615.17</ele>
        <time>2015-09-30T11:37:58Z</time>
      </trkpt>
      <trkpt lat="44.94353" lon="6.64075">
        <ele>2614.69</ele>
        <time>2015-09-30T11:38:06Z</time>
      </trkpt>
      <trkpt lat="44.94348" lon="6.64082">
        <ele>2615.01</ele>
        <time>2015-09-30T11:38:15Z</time>
      </trkpt>
      <trkpt lat="44.94344" lon="6.64085">
        <ele>2614.64</ele>
        <time>2015-09-30T11:38:23Z</time>
      </trkpt>
      <trkpt lat="44.94341" lon="6.64086">
        <ele>2614.15</ele>
        <time>2015-09-30T11:38:41Z</time>
      </trkpt>
      <trkpt lat="44.94337" lon="6.64089">
        <ele>2613.98</ele>
        <time>2015-09-30T11:38:47Z</time>
      </trkpt>
      <trkpt lat="44.94329" lon="6.64096">
        <ele>2613.23</ele>
        <time>2015-09-30T11:38:53Z</time>
      </trkpt>
      <trkpt lat="44.94327" lon="6.64098">
        <ele>2613.1</ele>
        <time>2015-09-30T11:38:57Z</time>
      </trkpt>
      <trkpt lat="44.94318" lon="6.64109">
        <ele>2613.38</ele>
        <time>2015-09-30T11:39:07Z</time>
      </trkpt>
      <trkpt lat="44.94308" lon="6.6412">
        <ele>2613.62</ele>
        <time>2015-09-30T11:39:14Z</time>
      </trkpt>
      <trkpt lat="44.94298" lon="6.64128">
        <ele>2613.89</ele>
        <time>2015-09-30T11:39:21Z</time>
      </trkpt>
      <trkpt lat="44.94285" lon="6.64139">
        <ele>2613.74</ele>
        <time>2015-09-30T11:39:27Z</time>
      </trkpt>
      <trkpt lat="44.94278" lon="6.64144">
        <ele>2613.32</ele>
        <time>2015-09-30T11:39:32Z</time>
      </trkpt>
      <trkpt lat="44.94277" lon="6.64144">
        <ele>2612.78</ele>
        <time>2015-09-30T11:39:39Z</time>
      </trkpt>
      <trkpt lat="44.94277" lon="6.64145">
        <ele>2611.7</ele>
        <time>2015-09-30T11:40:23Z</time>
      </trkpt>
      <trkpt lat="44.94278" lon="6.64148">
        <ele>2611.83</ele>
        <time>2015-09-30T11:40:27Z</time>
      </trkpt>
      <trkpt lat="44.94276" lon="6.64154">
        <ele>2611.6</ele>
        <time>2015-09-30T11:40:33Z</time>
      </trkpt>
      <trkpt lat="44.94274" lon="6.64154">
        <ele>2611.54</ele>
        <time>2015-09-30T11:40:56Z</time>
      </trkpt>
      <trkpt lat="44.94273" lon="6.64164">
        <ele>2611.82</ele>
        <time>2015-09-30T11:41:05Z</time>
      </trkpt>
      <trkpt lat="44.94274" lon="6.64187">
        <ele>2611.19</ele>
        <time>2015-09-30T11:41:10Z</time>
      </trkpt>
      <trkpt lat="44.94274" lon="6.64201">
        <ele>2610.56</ele>
        <time>2015-09-30T11:41:13Z</time>
      </trkpt>
      <trkpt lat="44.94271" lon="6.64226">
        <ele>2609.59</ele>
        <time>2015-09-30T11:41:17Z</time>
      </trkpt>
      <trkpt lat="44.94256" lon="6.64261">
        <ele>2608.58</ele>
        <time>2015-09-30T11:41:23Z</time>
      </trkpt>
      <trkpt lat="44.94249" lon="6.64267">
        <ele>2607.25</ele>
        <time>2015-09-30T11:41:27Z</time>
      </trkpt>
      <trkpt lat="44.94249" lon="6.64266">
        <ele>2606.06</ele>
        <time>2015-09-30T11:41:37Z</time>
      </trkpt>
      <trkpt lat="44.94243" lon="6.64271">
        <ele>2605.53</ele>
        <time>2015-09-30T11:41:44Z</time>
      </trkpt>
      <trkpt lat="44.94231" lon="6.64279">
        <ele>2605.11</ele>
        <time>2015-09-30T11:41:50Z</time>
      </trkpt>
      <trkpt lat="44.94216" lon="6.64291">
        <ele>2604.55</ele>
        <time>2015-09-30T11:41:58Z</time>
      </trkpt>
      <trkpt lat="44.94202" lon="6.64299">
        <ele>2604.3</ele>
        <time>2015-09-30T11:42:05Z</time>
      </trkpt>
      <trkpt lat="44.94184" lon="6.64305">
        <ele>2604.03</ele>
        <time>2015-09-30T11:42:11Z</time>
      </trkpt>
      <trkpt lat="44.94166" lon="6.64311">
        <ele>2602.64</ele>
        <time>2015-09-30T11:42:18Z</time>
      </trkpt>
      <trkpt lat="44.94147" lon="6.64314">
        <ele>2600.17</ele>
        <time>2015-09-30T11:42:27Z</time>
      </trkpt>
      <trkpt lat="44.94144" lon="6.64315">
        <ele>2599.5</ele>
        <time>2015-09-30T11:42:29Z</time>
      </trkpt>
      <trkpt lat="44.9414" lon="6.64319">
        <ele>2597.63</ele>
        <time>2015-09-30T11:42:35Z</time>
      </trkpt>
      <trkpt lat="44.94136" lon="6.64321">
        <ele>2596.19</ele>
        <time>2015-09-30T11:42:43Z</time>
      </trkpt>
      <trkpt lat="44.94132" lon="6.64332">
        <ele>2595.77</ele>
        <time>2015-09-30T11:42:52Z</time>
      </trkpt>
      <trkpt lat="44.9413" lon="6.64334">
        <ele>2596.15</ele>
        <time>2015-09-30T11:42:55Z</time>
      </trkpt>
      <trkpt lat="44.94126" lon="6.64342">
        <ele>2597.03</ele>
        <time>2015-09-30T11:43:03Z</time>
      </trkpt>
      <trkpt lat="44.94122" lon="6.64352">
        <ele>2597.98</ele>
        <time>2015-09-30T11:43:14Z</time>
      </trkpt>
      <trkpt lat="44.94122" lon="6.64352">
        <ele>2597.68</ele>
        <time>2015-09-30T11:43:35Z</time>
      </trkpt>
      <trkpt lat="44.94122" lon="6.64352">
        <ele>2598.08</ele>
        <time>2015-09-30T11:44:01Z</time>
      </trkpt>
      <trkpt lat="44.94122" lon="6.64353">
        <ele>2597.88</ele>
        <time>2015-09-30T11:44:15Z</time>
      </trkpt>
      <trkpt lat="44.94125" lon="6.6436">
        <ele>2598.14</ele>
        <time>2015-09-30T11:44:20Z</time>
      </trkpt>
      <trkpt lat="44.94132" lon="6.64379">
        <ele>2598.18</ele>
        <time>2015-09-30T11:44:27Z</time>
      </trkpt>
      <trkpt lat="44.94143" lon="6.64416">
        <ele>2595.33</ele>
        <time>2015-09-30T11:44:35Z</time>
      </trkpt>
      <trkpt lat="44.94146" lon="6.64427">
        <ele>2593.46</ele>
        <time>2015-09-30T11:44:39Z</time>
      </trkpt>
      <trkpt lat="44.94146" lon="6.64427">
        <ele>2591.06</ele>
        <time>2015-09-30T11:45:08Z</time>
      </trkpt>
      <trkpt lat="44.94146" lon="6.64427">
        <ele>2591.12</ele>
        <time>2015-09-30T11:45:14Z</time>
      </trkpt>
      <trkpt lat="44.94152" lon="6.64452">
        <ele>2590.9</ele>
        <time>2015-09-30T11:45:20Z</time>
      </trkpt>
      <trkpt lat="44.94154" lon="6.64486">
        <ele>2589.04</ele>
        <time>2015-09-30T11:45:26Z</time>
      </trkpt>
      <trkpt lat="44.94153" lon="6.64503">
        <ele>2587.6</ele>
        <time>2015-09-30T11:45:29Z</time>
      </trkpt>
      <trkpt lat="44.94153" lon="6.64515">
        <ele>2586.76</ele>
        <time>2015-09-30T11:45:31Z</time>
      </trkpt>
      <trkpt lat="44.94147" lon="6.6455">
        <ele>2583.58</ele>
        <time>2015-09-30T11:45:36Z</time>
      </trkpt>
      <trkpt lat="44.9413" lon="6.64596">
        <ele>2578.78</ele>
        <time>2015-09-30T11:45:43Z</time>
      </trkpt>
      <trkpt lat="44.94123" lon="6.64608">
        <ele>2576.62</ele>
        <time>2015-09-30T11:45:47Z</time>
      </trkpt>
      <trkpt lat="44.94109" lon="6.6462">
        <ele>2573.7</ele>
        <time>2015-09-30T11:45:52Z</time>
      </trkpt>
      <trkpt lat="44.94097" lon="6.64633">
        <ele>2570.39</ele>
        <time>2015-09-30T11:45:56Z</time>
      </trkpt>
      <trkpt lat="44.94083" lon="6.64641">
        <ele>2566.85</ele>
        <time>2015-09-30T11:46:01Z</time>
      </trkpt>
      <trkpt lat="44.9407" lon="6.64649">
        <ele>2563.62</ele>
        <time>2015-09-30T11:46:05Z</time>
      </trkpt>
      <trkpt lat="44.94054" lon="6.64657">
        <ele>2560.35</ele>
        <time>2015-09-30T11:46:09Z</time>
      </trkpt>
      <trkpt lat="44.94041" lon="6.64661">
        <ele>2557.01</ele>
        <time>2015-09-30T11:46:13Z</time>
      </trkpt>
      <trkpt lat="44.94035" lon="6.6466">
        <ele>2553.38</ele>
        <time>2015-09-30T11:46:18Z</time>
      </trkpt>
      <trkpt lat="44.94035" lon="6.64659">
        <ele>2550.41</ele>
        <time>2015-09-30T11:46:29Z</time>
      </trkpt>
      <trkpt lat="44.94016" lon="6.64657">
        <ele>2549.75</ele>
        <time>2015-09-30T11:46:35Z</time>
      </trkpt>
      <trkpt lat="44.94011" lon="6.64659">
        <ele>2549.39</ele>
        <time>2015-09-30T11:46:36Z</time>
      </trkpt>
      <trkpt lat="44.93997" lon="6.64664">
        <ele>2546.63</ele>
        <time>2015-09-30T11:46:41Z</time>
      </trkpt>
      <trkpt lat="44.93999" lon="6.64663">
        <ele>2544.62</ele>
        <time>2015-09-30T11:46:53Z</time>
      </trkpt>
      <trkpt lat="44.93999" lon="6.64662">
        <ele>2544.77</ele>
        <time>2015-09-30T11:47:02Z</time>
      </trkpt>
      <trkpt lat="44.93996" lon="6.64665">
        <ele>2545.04</ele>
        <time>2015-09-30T11:47:12Z</time>
      </trkpt>
      <trkpt lat="44.93987" lon="6.64671">
        <ele>2545.17</ele>
        <time>2015-09-30T11:47:20Z</time>
      </trkpt>
      <trkpt lat="44.93982" lon="6.64675">
        <ele>2546.17</ele>
        <time>2015-09-30T11:47:27Z</time>
      </trkpt>
      <trkpt lat="44.93976" lon="6.64677">
        <ele>2546.96</ele>
        <time>2015-09-30T11:47:33Z</time>
      </trkpt>
      <trkpt lat="44.93966" lon="6.64681">
        <ele>2547.54</ele>
        <time>2015-09-30T11:47:42Z</time>
      </trkpt>
      <trkpt lat="44.93957" lon="6.64686">
        <ele>2547.98</ele>
        <time>2015-09-30T11:47:52Z</time>
      </trkpt>
      <trkpt lat="44.93959" lon="6.64686">
        <ele>2548.33</ele>
        <time>2015-09-30T11:48:17Z</time>
      </trkpt>
      <trkpt lat="44.93956" lon="6.64687">
        <ele>2548.82</ele>
        <time>2015-09-30T11:48:23Z</time>
      </trkpt>
      <trkpt lat="44.9395" lon="6.6469">
        <ele>2549.52</ele>
        <time>2015-09-30T11:48:30Z</time>
      </trkpt>
      <trkpt lat="44.9394" lon="6.64692">
        <ele>2550.48</ele>
        <time>2015-09-30T11:48:39Z</time>
      </trkpt>
      <trkpt lat="44.93934" lon="6.64696">
        <ele>2551.07</ele>
        <time>2015-09-30T11:48:47Z</time>
      </trkpt>
      <trkpt lat="44.93931" lon="6.64696">
        <ele>2551.4</ele>
        <time>2015-09-30T11:48:50Z</time>
      </trkpt>
      <trkpt lat="44.93921" lon="6.64701">
        <ele>2552.48</ele>
        <time>2015-09-30T11:49:00Z</time>
      </trkpt>
      <trkpt lat="44.9391" lon="6.64704">
        <ele>2553.96</ele>
        <time>2015-09-30T11:49:11Z</time>
      </trkpt>
      <trkpt lat="44.939" lon="6.64708">
        <ele>2554.95</ele>
        <time>2015-09-30T11:49:22Z</time>
      </trkpt>
      <trkpt lat="44.93893" lon="6.64711">
        <ele>2556.21</ele>
        <time>2015-09-30T11:49:32Z</time>
      </trkpt>
      <trkpt lat="44.93893" lon="6.64712">
        <ele>2556.36</ele>
        <time>2015-09-30T11:49:33Z</time>
      </trkpt>
      <trkpt lat="44.93887" lon="6.64712">
        <ele>2557.19</ele>
        <time>2015-09-30T11:49:39Z</time>
      </trkpt>
      <trkpt lat="44.93882" lon="6.64717">
        <ele>2558.27</ele>
        <time>2015-09-30T11:49:47Z</time>
      </trkpt>
      <trkpt lat="44.9388" lon="6.64719">
        <ele>2559.59</ele>
        <time>2015-09-30T11:49:54Z</time>
      </trkpt>
      <trkpt lat="44.93879" lon="6.64718">
        <ele>2560.15</ele>
        <time>2015-09-30T11:50:10Z</time>
      </trkpt>
      <trkpt lat="44.93874" lon="6.64718">
        <ele>2560.22</ele>
        <time>2015-09-30T11:50:16Z</time>
      </trkpt>
      <trkpt lat="44.93865" lon="6.64718">
        <ele>2560.67</ele>
        <time>2015-09-30T11:50:25Z</time>
      </trkpt>
      <trkpt lat="44.93852" lon="6.64718">
        <ele>2561.56</ele>
        <time>2015-09-30T11:50:35Z</time>
      </trkpt>
      <trkpt lat="44.93837" lon="6.64721">
        <ele>2563.31</ele>
        <time>2015-09-30T11:50:48Z</time>
      </trkpt>
      <trkpt lat="44.93824" lon="6.64721">
        <ele>2564.46</ele>
        <time>2015-09-30T11:51:00Z</time>
      </trkpt>
      <trkpt lat="44.93814" lon="6.64722">
        <ele>2565.41</ele>
        <time>2015-09-30T11:51:10Z</time>
      </trkpt>
      <trkpt lat="44.93814" lon="6.64723">
        <ele>2566.46</ele>
        <time>2015-09-30T11:51:23Z</time>
      </trkpt>
      <trkpt lat="44.93815" lon="6.64723">
        <ele>2566.48</ele>
        <time>2015-09-30T11:51:31Z</time>
      </trkpt>
      <trkpt lat="44.9381" lon="6.64722">
        <ele>2566.9</ele>
        <time>2015-09-30T11:51:37Z</time>
      </trkpt>
      <trkpt lat="44.93796" lon="6.64719">
        <ele>2567.53</ele>
        <time>2015-09-30T11:51:49Z</time>
      </trkpt>
      <trkpt lat="44.93793" lon="6.64718">
        <ele>2567.99</ele>
        <time>2015-09-30T11:51:56Z</time>
      </trkpt>
      <trkpt lat="44.93793" lon="6.64719">
        <ele>2568.25</ele>
        <time>2015-09-30T11:52:18Z</time>
      </trkpt>
      <trkpt lat="44.93793" lon="6.64719">
        <ele>2568.25</ele>
        <time>2015-09-30T11:52:19Z</time>
      </trkpt>
      <trkpt lat="44.93789" lon="6.64716">
        <ele>2568.31</ele>
        <time>2015-09-30T11:52:23Z</time>
      </trkpt>
      <trkpt lat="44.93779" lon="6.64714">
        <ele>2569.06</ele>
        <time>2015-09-30T11:52:34Z</time>
      </trkpt>
      <trkpt lat="44.93779" lon="6.64714">
        <ele>2569.2</ele>
        <time>2015-09-30T11:52:35Z</time>
      </trkpt>
      <trkpt lat="44.93767" lon="6.64709">
        <ele>2570.69</ele>
        <time>2015-09-30T11:52:46Z</time>
      </trkpt>
      <trkpt lat="44.93757" lon="6.64705">
        <ele>2571.55</ele>
        <time>2015-09-30T11:52:56Z</time>
      </trkpt>
      <trkpt lat="44.93745" lon="6.64699">
        <ele>2573.7</ele>
        <time>2015-09-30T11:53:09Z</time>
      </trkpt>
      <trkpt lat="44.93737" lon="6.64693">
        <ele>2575.1</ele>
        <time>2015-09-30T11:53:19Z</time>
      </trkpt>
      <trkpt lat="44.93727" lon="6.64685">
        <ele>2575.35</ele>
        <time>2015-09-30T11:53:28Z</time>
      </trkpt>
      <trkpt lat="44.93717" lon="6.6468">
        <ele>2575.17</ele>
        <time>2015-09-30T11:53:39Z</time>
      </trkpt>
      <trkpt lat="44.93708" lon="6.64675">
        <ele>2574.81</ele>
        <time>2015-09-30T11:53:48Z</time>
      </trkpt>
      <trkpt lat="44.93706" lon="6.64675">
        <ele>2574.6</ele>
        <time>2015-09-30T11:53:56Z</time>
      </trkpt>
      <trkpt lat="44.93702" lon="6.64675">
        <ele>2574.82</ele>
        <time>2015-09-30T11:54:02Z</time>
      </trkpt>
      <trkpt lat="44.9369" lon="6.64672">
        <ele>2574.82</ele>
        <time>2015-09-30T11:54:09Z</time>
      </trkpt>
      <trkpt lat="44.93676" lon="6.64667">
        <ele>2573.91</ele>
        <time>2015-09-30T11:54:16Z</time>
      </trkpt>
      <trkpt lat="44.93666" lon="6.64664">
        <ele>2573.65</ele>
        <time>2015-09-30T11:54:20Z</time>
      </trkpt>
      <trkpt lat="44.93653" lon="6.64658">
        <ele>2572.84</ele>
        <time>2015-09-30T11:54:25Z</time>
      </trkpt>
      <trkpt lat="44.93647" lon="6.64656">
        <ele>2572.57</ele>
        <time>2015-09-30T11:54:29Z</time>
      </trkpt>
      <trkpt lat="44.93627" lon="6.64643">
        <ele>2571.8</ele>
        <time>2015-09-30T11:54:38Z</time>
      </trkpt>
      <trkpt lat="44.9361" lon="6.6463">
        <ele>2570.76</ele>
        <time>2015-09-30T11:54:46Z</time>
      </trkpt>
      <trkpt lat="44.93591" lon="6.64617">
        <ele>2570.05</ele>
        <time>2015-09-30T11:54:55Z</time>
      </trkpt>
      <trkpt lat="44.93586" lon="6.64615">
        <ele>2569.3</ele>
        <time>2015-09-30T11:55:01Z</time>
      </trkpt>
      <trkpt lat="44.93586" lon="6.64613">
        <ele>2567.69</ele>
        <time>2015-09-30T11:55:25Z</time>
      </trkpt>
      <trkpt lat="44.93585" lon="6.64614">
        <ele>2567.63</ele>
        <time>2015-09-30T11:55:28Z</time>
      </trkpt>
      <trkpt lat="44.93575" lon="6.64608">
        <ele>2567.3</ele>
        <time>2015-09-30T11:55:34Z</time>
      </trkpt>
      <trkpt lat="44.93564" lon="6.64604">
        <ele>2565.96</ele>
        <time>2015-09-30T11:55:38Z</time>
      </trkpt>
      <trkpt lat="44.93557" lon="6.646">
        <ele>2564.59</ele>
        <time>2015-09-30T11:55:42Z</time>
      </trkpt>
      <trkpt lat="44.93541" lon="6.64601">
        <ele>2561.51</ele>
        <time>2015-09-30T11:55:50Z</time>
      </trkpt>
      <trkpt lat="44.93531" lon="6.64604">
        <ele>2559.81</ele>
        <time>2015-09-30T11:55:56Z</time>
      </trkpt>
      <trkpt lat="44.93525" lon="6.64603">
        <ele>2557.97</ele>
        <time>2015-09-30T11:56:03Z</time>
      </trkpt>
      <trkpt lat="44.93515" lon="6.64603">
        <ele>2557.05</ele>
        <time>2015-09-30T11:56:08Z</time>
      </trkpt>
      <trkpt lat="44.93492" lon="6.64607">
        <ele>2554</ele>
        <time>2015-09-30T11:56:16Z</time>
      </trkpt>
      <trkpt lat="44.93471" lon="6.6461">
        <ele>2550.57</ele>
        <time>2015-09-30T11:56:22Z</time>
      </trkpt>
      <trkpt lat="44.93451" lon="6.64614">
        <ele>2547.75</ele>
        <time>2015-09-30T11:56:28Z</time>
      </trkpt>
      <trkpt lat="44.93448" lon="6.64615">
        <ele>2547.5</ele>
        <time>2015-09-30T11:56:29Z</time>
      </trkpt>
      <trkpt lat="44.93416" lon="6.6463">
        <ele>2545.45</ele>
        <time>2015-09-30T11:56:37Z</time>
      </trkpt>
      <trkpt lat="44.93407" lon="6.64632">
        <ele>2544.92</ele>
        <time>2015-09-30T11:56:39Z</time>
      </trkpt>
      <trkpt lat="44.93382" lon="6.64644">
        <ele>2543.23</ele>
        <time>2015-09-30T11:56:45Z</time>
      </trkpt>
      <trkpt lat="44.93379" lon="6.64647">
        <ele>2543.61</ele>
        <time>2015-09-30T11:56:54Z</time>
      </trkpt>
      <trkpt lat="44.93379" lon="6.64647">
        <ele>2544.89</ele>
        <time>2015-09-30T11:57:18Z</time>
      </trkpt>
      <trkpt lat="44.93376" lon="6.64646">
        <ele>2545.19</ele>
        <time>2015-09-30T11:57:22Z</time>
      </trkpt>
      <trkpt lat="44.93366" lon="6.64643">
        <ele>2545.92</ele>
        <time>2015-09-30T11:57:32Z</time>
      </trkpt>
      <trkpt lat="44.93354" lon="6.64644">
        <ele>2546.4</ele>
        <time>2015-09-30T11:57:42Z</time>
      </trkpt>
      <trkpt lat="44.93345" lon="6.64641">
        <ele>2545.03</ele>
        <time>2015-09-30T11:57:53Z</time>
      </trkpt>
      <trkpt lat="44.93337" lon="6.64637">
        <ele>2547.28</ele>
        <time>2015-09-30T11:58:05Z</time>
      </trkpt>
      <trkpt lat="44.93331" lon="6.64636">
        <ele>2549.22</ele>
        <time>2015-09-30T11:58:15Z</time>
      </trkpt>
      <trkpt lat="44.93329" lon="6.64636">
        <ele>2550.28</ele>
        <time>2015-09-30T11:58:22Z</time>
      </trkpt>
      <trkpt lat="44.93329" lon="6.64637">
        <ele>2551.05</ele>
        <time>2015-09-30T11:58:45Z</time>
      </trkpt>
      <trkpt lat="44.93328" lon="6.64637">
        <ele>2550.93</ele>
        <time>2015-09-30T11:58:56Z</time>
      </trkpt>
      <trkpt lat="44.93321" lon="6.64638">
        <ele>2551.51</ele>
        <time>2015-09-30T11:59:06Z</time>
      </trkpt>
      <trkpt lat="44.93318" lon="6.64638">
        <ele>2552.39</ele>
        <time>2015-09-30T11:59:26Z</time>
      </trkpt>
      <trkpt lat="44.93312" lon="6.64637">
        <ele>2552.39</ele>
        <time>2015-09-30T11:59:33Z</time>
      </trkpt>
      <trkpt lat="44.93312" lon="6.64638">
        <ele>2552.68</ele>
        <time>2015-09-30T11:59:58Z</time>
      </trkpt>
      <trkpt lat="44.93304" lon="6.64637">
        <ele>2552.74</ele>
        <time>2015-09-30T12:00:05Z</time>
      </trkpt>
      <trkpt lat="44.93296" lon="6.6464">
        <ele>2554.13</ele>
        <time>2015-09-30T12:00:15Z</time>
      </trkpt>
      <trkpt lat="44.9329" lon="6.64639">
        <ele>2555.24</ele>
        <time>2015-09-30T12:00:23Z</time>
      </trkpt>
      <trkpt lat="44.93289" lon="6.64639">
        <ele>2555.38</ele>
        <time>2015-09-30T12:00:24Z</time>
      </trkpt>
      <trkpt lat="44.93284" lon="6.6464">
        <ele>2556.18</ele>
        <time>2015-09-30T12:00:31Z</time>
      </trkpt>
      <trkpt lat="44.93279" lon="6.64643">
        <ele>2557.87</ele>
        <time>2015-09-30T12:00:38Z</time>
      </trkpt>
      <trkpt lat="44.93277" lon="6.64644">
        <ele>2559.35</ele>
        <time>2015-09-30T12:00:47Z</time>
      </trkpt>
      <trkpt lat="44.93277" lon="6.64643">
        <ele>2559.52</ele>
        <time>2015-09-30T12:01:14Z</time>
      </trkpt>
      <trkpt lat="44.93276" lon="6.64643">
        <ele>2559.42</ele>
        <time>2015-09-30T12:01:36Z</time>
      </trkpt>
      <trkpt lat="44.93274" lon="6.64642">
        <ele>2559.47</ele>
        <time>2015-09-30T12:01:46Z</time>
      </trkpt>
      <trkpt lat="44.93271" lon="6.64643">
        <ele>2560.04</ele>
        <time>2015-09-30T12:01:50Z</time>
      </trkpt>
      <trkpt lat="44.93263" lon="6.64641">
        <ele>2561.73</ele>
        <time>2015-09-30T12:02:00Z</time>
      </trkpt>
      <trkpt lat="44.93254" lon="6.64642">
        <ele>2563.01</ele>
        <time>2015-09-30T12:02:09Z</time>
      </trkpt>
      <trkpt lat="44.93253" lon="6.64643">
        <ele>2563.14</ele>
        <time>2015-09-30T12:02:11Z</time>
      </trkpt>
      <trkpt lat="44.93247" lon="6.6465">
        <ele>2563.51</ele>
        <time>2015-09-30T12:02:19Z</time>
      </trkpt>
      <trkpt lat="44.93242" lon="6.64654">
        <ele>2563.75</ele>
        <time>2015-09-30T12:02:27Z</time>
      </trkpt>
      <trkpt lat="44.93238" lon="6.64658">
        <ele>2564.26</ele>
        <time>2015-09-30T12:02:37Z</time>
      </trkpt>
      <trkpt lat="44.93238" lon="6.64658">
        <ele>2564.73</ele>
        <time>2015-09-30T12:02:50Z</time>
      </trkpt>
      <trkpt lat="44.93235" lon="6.64659">
        <ele>2564.44</ele>
        <time>2015-09-30T12:03:06Z</time>
      </trkpt>
      <trkpt lat="44.93229" lon="6.6466">
        <ele>2563.87</ele>
        <time>2015-09-30T12:03:16Z</time>
      </trkpt>
      <trkpt lat="44.93226" lon="6.6466">
        <ele>2563.21</ele>
        <time>2015-09-30T12:03:24Z</time>
      </trkpt>
      <trkpt lat="44.93226" lon="6.64667">
        <ele>2563.34</ele>
        <time>2015-09-30T12:03:32Z</time>
      </trkpt>
      <trkpt lat="44.93223" lon="6.6467">
        <ele>2564.36</ele>
        <time>2015-09-30T12:03:39Z</time>
      </trkpt>
      <trkpt lat="44.93223" lon="6.64671">
        <ele>2564.6</ele>
        <time>2015-09-30T12:03:49Z</time>
      </trkpt>
      <trkpt lat="44.93223" lon="6.64673">
        <ele>2564.37</ele>
        <time>2015-09-30T12:03:57Z</time>
      </trkpt>
      <trkpt lat="44.93219" lon="6.64673">
        <ele>2563.43</ele>
        <time>2015-09-30T12:04:06Z</time>
      </trkpt>
      <trkpt lat="44.93218" lon="6.64676">
        <ele>2562.3</ele>
        <time>2015-09-30T12:04:14Z</time>
      </trkpt>
      <trkpt lat="44.93218" lon="6.64678">
        <ele>2561.33</ele>
        <time>2015-09-30T12:04:22Z</time>
      </trkpt>
      <trkpt lat="44.93217" lon="6.64679">
        <ele>2560.39</ele>
        <time>2015-09-30T12:04:27Z</time>
      </trkpt>
      <trkpt lat="44.93212" lon="6.6468">
        <ele>2559.15</ele>
        <time>2015-09-30T12:04:33Z</time>
      </trkpt>
      <trkpt lat="44.9321" lon="6.64677">
        <ele>2557.73</ele>
        <time>2015-09-30T12:04:40Z</time>
      </trkpt>
      <trkpt lat="44.9321" lon="6.64677">
        <ele>2556.4</ele>
        <time>2015-09-30T12:04:58Z</time>
      </trkpt>
      <trkpt lat="44.9321" lon="6.64678">
        <ele>2556.56</ele>
        <time>2015-09-30T12:05:53Z</time>
      </trkpt>
      <trkpt lat="44.93211" lon="6.64678">
        <ele>2558.04</ele>
        <time>2015-09-30T12:06:29Z</time>
      </trkpt>
      <trkpt lat="44.93207" lon="6.64679">
        <ele>2557.85</ele>
        <time>2015-09-30T12:06:37Z</time>
      </trkpt>
      <trkpt lat="44.93201" lon="6.64683">
        <ele>2557.16</ele>
        <time>2015-09-30T12:06:45Z</time>
      </trkpt>
      <trkpt lat="44.93191" lon="6.64682">
        <ele>2556.45</ele>
        <time>2015-09-30T12:06:51Z</time>
      </trkpt>
      <trkpt lat="44.93187" lon="6.64684">
        <ele>2555.95</ele>
        <time>2015-09-30T12:06:54Z</time>
      </trkpt>
      <trkpt lat="44.9318" lon="6.64683">
        <ele>2555.18</ele>
        <time>2015-09-30T12:06:59Z</time>
      </trkpt>
      <trkpt lat="44.93176" lon="6.64685">
        <ele>2553.91</ele>
        <time>2015-09-30T12:07:08Z</time>
      </trkpt>
      <trkpt lat="44.93172" lon="6.64685">
        <ele>2554.15</ele>
        <time>2015-09-30T12:07:13Z</time>
      </trkpt>
      <trkpt lat="44.93164" lon="6.64687">
        <ele>2553.63</ele>
        <time>2015-09-30T12:07:21Z</time>
      </trkpt>
      <trkpt lat="44.93161" lon="6.64686">
        <ele>2553.41</ele>
        <time>2015-09-30T12:07:25Z</time>
      </trkpt>
      <trkpt lat="44.93156" lon="6.64687">
        <ele>2552.86</ele>
        <time>2015-09-30T12:07:30Z</time>
      </trkpt>
      <trkpt lat="44.93146" lon="6.64687">
        <ele>2551.4</ele>
        <time>2015-09-30T12:07:40Z</time>
      </trkpt>
      <trkpt lat="44.93142" lon="6.64686">
        <ele>2551.06</ele>
        <time>2015-09-30T12:07:45Z</time>
      </trkpt>
      <trkpt lat="44.93139" lon="6.64686">
        <ele>2550.84</ele>
        <time>2015-09-30T12:07:47Z</time>
      </trkpt>
      <trkpt lat="44.93131" lon="6.64691">
        <ele>2549.94</ele>
        <time>2015-09-30T12:07:56Z</time>
      </trkpt>
      <trkpt lat="44.93126" lon="6.64697">
        <ele>2551</ele>
        <time>2015-09-30T12:08:05Z</time>
      </trkpt>
      <trkpt lat="44.93117" lon="6.64702">
        <ele>2552.33</ele>
        <time>2015-09-30T12:08:16Z</time>
      </trkpt>
      <trkpt lat="44.9311" lon="6.64707">
        <ele>2552.88</ele>
        <time>2015-09-30T12:08:26Z</time>
      </trkpt>
      <trkpt lat="44.93103" lon="6.64708">
        <ele>2554.4</ele>
        <time>2015-09-30T12:08:34Z</time>
      </trkpt>
      <trkpt lat="44.93097" lon="6.64709">
        <ele>2554.93</ele>
        <time>2015-09-30T12:08:42Z</time>
      </trkpt>
      <trkpt lat="44.9309" lon="6.64711">
        <ele>2554.93</ele>
        <time>2015-09-30T12:08:50Z</time>
      </trkpt>
      <trkpt lat="44.93086" lon="6.64716">
        <ele>2555.39</ele>
        <time>2015-09-30T12:08:58Z</time>
      </trkpt>
      <trkpt lat="44.93085" lon="6.64716">
        <ele>2554.77</ele>
        <time>2015-09-30T12:09:06Z</time>
      </trkpt>
      <trkpt lat="44.93085" lon="6.64716">
        <ele>2554.82</ele>
        <time>2015-09-30T12:09:21Z</time>
      </trkpt>
      <trkpt lat="44.93085" lon="6.64717">
        <ele>2554.68</ele>
        <time>2015-09-30T12:09:29Z</time>
      </trkpt>
      <trkpt lat="44.93084" lon="6.64717">
        <ele>2554.67</ele>
        <time>2015-09-30T12:09:30Z</time>
      </trkpt>
      <trkpt lat="44.93074" lon="6.64719">
        <ele>2555.39</ele>
        <time>2015-09-30T12:09:41Z</time>
      </trkpt>
      <trkpt lat="44.9307" lon="6.64717">
        <ele>2557.15</ele>
        <time>2015-09-30T12:09:49Z</time>
      </trkpt>
      <trkpt lat="44.93065" lon="6.64716">
        <ele>2559.76</ele>
        <time>2015-09-30T12:09:57Z</time>
      </trkpt>
      <trkpt lat="44.93062" lon="6.64717">
        <ele>2561.29</ele>
        <time>2015-09-30T12:10:05Z</time>
      </trkpt>
      <trkpt lat="44.93057" lon="6.64717">
        <ele>2563</ele>
        <time>2015-09-30T12:10:13Z</time>
      </trkpt>
      <trkpt lat="44.93052" lon="6.64718">
        <ele>2564.4</ele>
        <time>2015-09-30T12:10:21Z</time>
      </trkpt>
      <trkpt lat="44.9305" lon="6.6472">
        <ele>2565.99</ele>
        <time>2015-09-30T12:10:33Z</time>
      </trkpt>
      <trkpt lat="44.93049" lon="6.6472">
        <ele>2566.47</ele>
        <time>2015-09-30T12:10:46Z</time>
      </trkpt>
      <trkpt lat="44.93047" lon="6.64719">
        <ele>2566.78</ele>
        <time>2015-09-30T12:10:48Z</time>
      </trkpt>
      <trkpt lat="44.93044" lon="6.64717">
        <ele>2567.5</ele>
        <time>2015-09-30T12:10:52Z</time>
      </trkpt>
      <trkpt lat="44.93038" lon="6.64716">
        <ele>2567.91</ele>
        <time>2015-09-30T12:11:02Z</time>
      </trkpt>
      <trkpt lat="44.93038" lon="6.64715">
        <ele>2568.16</ele>
        <time>2015-09-30T12:11:12Z</time>
      </trkpt>
      <trkpt lat="44.93039" lon="6.64714">
        <ele>2568.29</ele>
        <time>2015-09-30T12:11:34Z</time>
      </trkpt>
      <trkpt lat="44.93038" lon="6.64719">
        <ele>2568.67</ele>
        <time>2015-09-30T12:11:41Z</time>
      </trkpt>
      <trkpt lat="44.93034" lon="6.64721">
        <ele>2569.43</ele>
        <time>2015-09-30T12:11:49Z</time>
      </trkpt>
      <trkpt lat="44.93031" lon="6.64722">
        <ele>2569.27</ele>
        <time>2015-09-30T12:11:53Z</time>
      </trkpt>
      <trkpt lat="44.93025" lon="6.64723">
        <ele>2568.77</ele>
        <time>2015-09-30T12:11:59Z</time>
      </trkpt>
      <trkpt lat="44.93015" lon="6.64727">
        <ele>2567.72</ele>
        <time>2015-09-30T12:12:09Z</time>
      </trkpt>
      <trkpt lat="44.93015" lon="6.64727">
        <ele>2567.68</ele>
        <time>2015-09-30T12:12:16Z</time>
      </trkpt>
      <trkpt lat="44.93009" lon="6.64731">
        <ele>2567.89</ele>
        <time>2015-09-30T12:12:24Z</time>
      </trkpt>
      <trkpt lat="44.92999" lon="6.64733">
        <ele>2569.37</ele>
        <time>2015-09-30T12:12:34Z</time>
      </trkpt>
      <trkpt lat="44.92991" lon="6.64735">
        <ele>2570.73</ele>
        <time>2015-09-30T12:12:44Z</time>
      </trkpt>
      <trkpt lat="44.92989" lon="6.64734">
        <ele>2571.11</ele>
        <time>2015-09-30T12:12:46Z</time>
      </trkpt>
      <trkpt lat="44.92985" lon="6.64734">
        <ele>2571.33</ele>
        <time>2015-09-30T12:12:54Z</time>
      </trkpt>
      <trkpt lat="44.9298" lon="6.64734">
        <ele>2571.22</ele>
        <time>2015-09-30T12:13:01Z</time>
      </trkpt>
      <trkpt lat="44.92979" lon="6.64735">
        <ele>2571.24</ele>
        <time>2015-09-30T12:13:03Z</time>
      </trkpt>
      <trkpt lat="44.92975" lon="6.64737">
        <ele>2571.25</ele>
        <time>2015-09-30T12:13:08Z</time>
      </trkpt>
      <trkpt lat="44.92965" lon="6.64742">
        <ele>2570.15</ele>
        <time>2015-09-30T12:13:18Z</time>
      </trkpt>
      <trkpt lat="44.92957" lon="6.64746">
        <ele>2570.04</ele>
        <time>2015-09-30T12:13:26Z</time>
      </trkpt>
      <trkpt lat="44.92954" lon="6.64746">
        <ele>2570.55</ele>
        <time>2015-09-30T12:13:29Z</time>
      </trkpt>
      <trkpt lat="44.92948" lon="6.64749">
        <ele>2571.68</ele>
        <time>2015-09-30T12:13:36Z</time>
      </trkpt>
      <trkpt lat="44.92945" lon="6.64749">
        <ele>2570.72</ele>
        <time>2015-09-30T12:13:41Z</time>
      </trkpt>
      <trkpt lat="44.92936" lon="6.64751">
        <ele>2570.28</ele>
        <time>2015-09-30T12:13:50Z</time>
      </trkpt>
      <trkpt lat="44.92928" lon="6.64753">
        <ele>2569.47</ele>
        <time>2015-09-30T12:13:57Z</time>
      </trkpt>
      <trkpt lat="44.92921" lon="6.64753">
        <ele>2568.86</ele>
        <time>2015-09-30T12:14:04Z</time>
      </trkpt>
      <trkpt lat="44.9291" lon="6.64754">
        <ele>2569.4</ele>
        <time>2015-09-30T12:14:14Z</time>
      </trkpt>
      <trkpt lat="44.9291" lon="6.64754">
        <ele>2568.88</ele>
        <time>2015-09-30T12:14:21Z</time>
      </trkpt>
      <trkpt lat="44.92911" lon="6.64755">
        <ele>2568.64</ele>
        <time>2015-09-30T12:14:32Z</time>
      </trkpt>
      <trkpt lat="44.92911" lon="6.64758">
        <ele>2569.26</ele>
        <time>2015-09-30T12:14:39Z</time>
      </trkpt>
      <trkpt lat="44.92908" lon="6.64761">
        <ele>2569.13</ele>
        <time>2015-09-30T12:14:48Z</time>
      </trkpt>
      <trkpt lat="44.92904" lon="6.64762">
        <ele>2568.07</ele>
        <time>2015-09-30T12:14:56Z</time>
      </trkpt>
      <trkpt lat="44.92897" lon="6.6476">
        <ele>2568.16</ele>
        <time>2015-09-30T12:15:06Z</time>
      </trkpt>
      <trkpt lat="44.92897" lon="6.64762">
        <ele>2568.3</ele>
        <time>2015-09-30T12:15:13Z</time>
      </trkpt>
      <trkpt lat="44.92897" lon="6.64763">
        <ele>2568.63</ele>
        <time>2015-09-30T12:15:31Z</time>
      </trkpt>
      <trkpt lat="44.92898" lon="6.64764">
        <ele>2569.03</ele>
        <time>2015-09-30T12:15:53Z</time>
      </trkpt>
      <trkpt lat="44.92899" lon="6.64763">
        <ele>2568.59</ele>
        <time>2015-09-30T12:16:01Z</time>
      </trkpt>
      <trkpt lat="44.92899" lon="6.64763">
        <ele>2568.07</ele>
        <time>2015-09-30T12:16:19Z</time>
      </trkpt>
      <trkpt lat="44.92899" lon="6.64763">
        <ele>2568.17</ele>
        <time>2015-09-30T12:16:51Z</time>
      </trkpt>
      <trkpt lat="44.92897" lon="6.6476">
        <ele>2568</ele>
        <time>2015-09-30T12:17:05Z</time>
      </trkpt>
      <trkpt lat="44.92894" lon="6.64762">
        <ele>2567.89</ele>
        <time>2015-09-30T12:17:08Z</time>
      </trkpt>
      <trkpt lat="44.92883" lon="6.64764">
        <ele>2566.9</ele>
        <time>2015-09-30T12:17:18Z</time>
      </trkpt>
      <trkpt lat="44.9288" lon="6.64764">
        <ele>2566.55</ele>
        <time>2015-09-30T12:17:21Z</time>
      </trkpt>
      <trkpt lat="44.92871" lon="6.64765">
        <ele>2566.17</ele>
        <time>2015-09-30T12:17:31Z</time>
      </trkpt>
      <trkpt lat="44.92868" lon="6.64766">
        <ele>2565.64</ele>
        <time>2015-09-30T12:17:38Z</time>
      </trkpt>
      <trkpt lat="44.92868" lon="6.64766">
        <ele>2565.41</ele>
        <time>2015-09-30T12:18:20Z</time>
      </trkpt>
      <trkpt lat="44.92868" lon="6.64765">
        <ele>2565.6</ele>
        <time>2015-09-30T12:19:04Z</time>
      </trkpt>
      <trkpt lat="44.92868" lon="6.64765">
        <ele>2565.85</ele>
        <time>2015-09-30T12:19:50Z</time>
      </trkpt>
      <trkpt lat="44.92868" lon="6.64766">
        <ele>2565.59</ele>
        <time>2015-09-30T12:20:28Z</time>
      </trkpt>
      <trkpt lat="44.92868" lon="6.64765">
        <ele>2566.21</ele>
        <time>2015-09-30T12:21:16Z</time>
      </trkpt>
      <trkpt lat="44.92868" lon="6.64765">
        <ele>2566.19</ele>
        <time>2015-09-30T12:22:05Z</time>
      </trkpt>
      <trkpt lat="44.92864" lon="6.64768">
        <ele>2566.39</ele>
        <time>2015-09-30T12:22:44Z</time>
      </trkpt>
      <trkpt lat="44.92856" lon="6.64766">
        <ele>2565.03</ele>
        <time>2015-09-30T12:22:52Z</time>
      </trkpt>
      <trkpt lat="44.92854" lon="6.64768">
        <ele>2563.35</ele>
        <time>2015-09-30T12:22:58Z</time>
      </trkpt>
      <trkpt lat="44.92852" lon="6.6477">
        <ele>2562.87</ele>
        <time>2015-09-30T12:23:05Z</time>
      </trkpt>
      <trkpt lat="44.92851" lon="6.64773">
        <ele>2562.41</ele>
        <time>2015-09-30T12:23:10Z</time>
      </trkpt>
      <trkpt lat="44.92847" lon="6.64777">
        <ele>2561.07</ele>
        <time>2015-09-30T12:23:18Z</time>
      </trkpt>
      <trkpt lat="44.92844" lon="6.64779">
        <ele>2559.55</ele>
        <time>2015-09-30T12:23:26Z</time>
      </trkpt>
      <trkpt lat="44.92842" lon="6.64779">
        <ele>2558.06</ele>
        <time>2015-09-30T12:23:33Z</time>
      </trkpt>
      <trkpt lat="44.92841" lon="6.64776">
        <ele>2557.36</ele>
        <time>2015-09-30T12:23:39Z</time>
      </trkpt>
      <trkpt lat="44.92841" lon="6.64774">
        <ele>2555.42</ele>
        <time>2015-09-30T12:23:49Z</time>
      </trkpt>
      <trkpt lat="44.92841" lon="6.64774">
        <ele>2554.14</ele>
        <time>2015-09-30T12:23:59Z</time>
      </trkpt>
      <trkpt lat="44.92839" lon="6.64774">
        <ele>2553.42</ele>
        <time>2015-09-30T12:24:06Z</time>
      </trkpt>
      <trkpt lat="44.92836" lon="6.64773">
        <ele>2553.12</ele>
        <time>2015-09-30T12:24:15Z</time>
      </trkpt>
      <trkpt lat="44.92836" lon="6.6477">
        <ele>2551.54</ele>
        <time>2015-09-30T12:24:22Z</time>
      </trkpt>
      <trkpt lat="44.92834" lon="6.64767">
        <ele>2549.36</ele>
        <time>2015-09-30T12:24:30Z</time>
      </trkpt>
      <trkpt lat="44.9283" lon="6.64767">
        <ele>2547.96</ele>
        <time>2015-09-30T12:24:43Z</time>
      </trkpt>
      <trkpt lat="44.92827" lon="6.64765">
        <ele>2546.51</ele>
        <time>2015-09-30T12:24:50Z</time>
      </trkpt>
      <trkpt lat="44.92822" lon="6.64762">
        <ele>2543.9</ele>
        <time>2015-09-30T12:25:00Z</time>
      </trkpt>
      <trkpt lat="44.92823" lon="6.6476">
        <ele>2541.96</ele>
        <time>2015-09-30T12:25:08Z</time>
      </trkpt>
      <trkpt lat="44.92821" lon="6.64758">
        <ele>2540.77</ele>
        <time>2015-09-30T12:25:15Z</time>
      </trkpt>
      <trkpt lat="44.92822" lon="6.64759">
        <ele>2540.21</ele>
        <time>2015-09-30T12:25:36Z</time>
      </trkpt>
      <trkpt lat="44.92823" lon="6.64758">
        <ele>2539.95</ele>
        <time>2015-09-30T12:25:50Z</time>
      </trkpt>
      <trkpt lat="44.92823" lon="6.64753">
        <ele>2539.42</ele>
        <time>2015-09-30T12:25:57Z</time>
      </trkpt>
      <trkpt lat="44.92821" lon="6.6475">
        <ele>2537.91</ele>
        <time>2015-09-30T12:26:06Z</time>
      </trkpt>
      <trkpt lat="44.9282" lon="6.64747">
        <ele>2536.11</ele>
        <time>2015-09-30T12:26:14Z</time>
      </trkpt>
      <trkpt lat="44.9282" lon="6.64748">
        <ele>2535.4</ele>
        <time>2015-09-30T12:26:22Z</time>
      </trkpt>
      <trkpt lat="44.92821" lon="6.64752">
        <ele>2535.83</ele>
        <time>2015-09-30T12:26:31Z</time>
      </trkpt>
      <trkpt lat="44.92822" lon="6.64754">
        <ele>2537.3</ele>
        <time>2015-09-30T12:26:40Z</time>
      </trkpt>
      <trkpt lat="44.92825" lon="6.6476">
        <ele>2537.73</ele>
        <time>2015-09-30T12:26:48Z</time>
      </trkpt>
      <trkpt lat="44.92824" lon="6.64763">
        <ele>2539.55</ele>
        <time>2015-09-30T12:26:57Z</time>
      </trkpt>
      <trkpt lat="44.92824" lon="6.64765">
        <ele>2540.74</ele>
        <time>2015-09-30T12:27:03Z</time>
      </trkpt>
      <trkpt lat="44.92823" lon="6.64768">
        <ele>2542.04</ele>
        <time>2015-09-30T12:27:11Z</time>
      </trkpt>
      <trkpt lat="44.92823" lon="6.64768">
        <ele>2543.34</ele>
        <time>2015-09-30T12:27:28Z</time>
      </trkpt>
      <trkpt lat="44.92823" lon="6.64768">
        <ele>2543.18</ele>
        <time>2015-09-30T12:27:40Z</time>
      </trkpt>
      <trkpt lat="44.92824" lon="6.64772">
        <ele>2543.39</ele>
        <time>2015-09-30T12:27:47Z</time>
      </trkpt>
      <trkpt lat="44.92826" lon="6.64774">
        <ele>2543.01</ele>
        <time>2015-09-30T12:27:50Z</time>
      </trkpt>
      <trkpt lat="44.92826" lon="6.64783">
        <ele>2541.71</ele>
        <time>2015-09-30T12:27:59Z</time>
      </trkpt>
      <trkpt lat="44.92824" lon="6.64788">
        <ele>2539.95</ele>
        <time>2015-09-30T12:28:08Z</time>
      </trkpt>
      <trkpt lat="44.92822" lon="6.64787">
        <ele>2538.05</ele>
        <time>2015-09-30T12:28:15Z</time>
      </trkpt>
      <trkpt lat="44.9282" lon="6.64785">
        <ele>2536.9</ele>
        <time>2015-09-30T12:28:24Z</time>
      </trkpt>
      <trkpt lat="44.92817" lon="6.64785">
        <ele>2536.15</ele>
        <time>2015-09-30T12:28:32Z</time>
      </trkpt>
      <trkpt lat="44.92815" lon="6.64788">
        <ele>2533.77</ele>
        <time>2015-09-30T12:28:39Z</time>
      </trkpt>
      <trkpt lat="44.92812" lon="6.64787">
        <ele>2531.52</ele>
        <time>2015-09-30T12:28:47Z</time>
      </trkpt>
      <trkpt lat="44.92811" lon="6.64789">
        <ele>2529.8</ele>
        <time>2015-09-30T12:28:54Z</time>
      </trkpt>
      <trkpt lat="44.92811" lon="6.64789">
        <ele>2528.02</ele>
        <time>2015-09-30T12:29:06Z</time>
      </trkpt>
      <trkpt lat="44.92811" lon="6.64788">
        <ele>2527.74</ele>
        <time>2015-09-30T12:29:20Z</time>
      </trkpt>
      <trkpt lat="44.92806" lon="6.64791">
        <ele>2527.56</ele>
        <time>2015-09-30T12:29:28Z</time>
      </trkpt>
      <trkpt lat="44.92798" lon="6.64798">
        <ele>2525.73</ele>
        <time>2015-09-30T12:29:39Z</time>
      </trkpt>
      <trkpt lat="44.92794" lon="6.64798">
        <ele>2524.15</ele>
        <time>2015-09-30T12:29:46Z</time>
      </trkpt>
      <trkpt lat="44.92795" lon="6.64796">
        <ele>2521.63</ele>
        <time>2015-09-30T12:29:54Z</time>
      </trkpt>
      <trkpt lat="44.92795" lon="6.64795">
        <ele>2521.39</ele>
        <time>2015-09-30T12:29:55Z</time>
      </trkpt>
      <trkpt lat="44.92799" lon="6.64781">
        <ele>2519.71</ele>
        <time>2015-09-30T12:30:02Z</time>
      </trkpt>
      <trkpt lat="44.92799" lon="6.64773">
        <ele>2516.18</ele>
        <time>2015-09-30T12:30:11Z</time>
      </trkpt>
      <trkpt lat="44.92798" lon="6.64767">
        <ele>2514.55</ele>
        <time>2015-09-30T12:30:18Z</time>
      </trkpt>
      <trkpt lat="44.92795" lon="6.6477">
        <ele>2512.77</ele>
        <time>2015-09-30T12:30:26Z</time>
      </trkpt>
      <trkpt lat="44.92794" lon="6.64771">
        <ele>2512.19</ele>
        <time>2015-09-30T12:30:29Z</time>
      </trkpt>
      <trkpt lat="44.92789" lon="6.64776">
        <ele>2510.52</ele>
        <time>2015-09-30T12:30:36Z</time>
      </trkpt>
      <trkpt lat="44.92789" lon="6.64776">
        <ele>2508.1</ele>
        <time>2015-09-30T12:30:48Z</time>
      </trkpt>
      <trkpt lat="44.9279" lon="6.64777">
        <ele>2508.21</ele>
        <time>2015-09-30T12:31:18Z</time>
      </trkpt>
      <trkpt lat="44.92789" lon="6.64779">
        <ele>2507.86</ele>
        <time>2015-09-30T12:31:49Z</time>
      </trkpt>
      <trkpt lat="44.92785" lon="6.6478">
        <ele>2507.81</ele>
        <time>2015-09-30T12:31:53Z</time>
      </trkpt>
      <trkpt lat="44.9278" lon="6.64779">
        <ele>2505.77</ele>
        <time>2015-09-30T12:32:01Z</time>
      </trkpt>
      <trkpt lat="44.92778" lon="6.64778">
        <ele>2503.88</ele>
        <time>2015-09-30T12:32:20Z</time>
      </trkpt>
      <trkpt lat="44.92767" lon="6.64771">
        <ele>2502.24</ele>
        <time>2015-09-30T12:32:27Z</time>
      </trkpt>
      <trkpt lat="44.92764" lon="6.64771">
        <ele>2499.8</ele>
        <time>2015-09-30T12:32:33Z</time>
      </trkpt>
      <trkpt lat="44.92762" lon="6.64772">
        <ele>2498.21</ele>
        <time>2015-09-30T12:32:39Z</time>
      </trkpt>
      <trkpt lat="44.9276" lon="6.64774">
        <ele>2498.06</ele>
        <time>2015-09-30T12:32:41Z</time>
      </trkpt>
      <trkpt lat="44.92754" lon="6.64775">
        <ele>2497.49</ele>
        <time>2015-09-30T12:32:45Z</time>
      </trkpt>
      <trkpt lat="44.9275" lon="6.64779">
        <ele>2496.05</ele>
        <time>2015-09-30T12:32:52Z</time>
      </trkpt>
      <trkpt lat="44.9275" lon="6.64781">
        <ele>2494.56</ele>
        <time>2015-09-30T12:33:13Z</time>
      </trkpt>
      <trkpt lat="44.92746" lon="6.64783">
        <ele>2494.56</ele>
        <time>2015-09-30T12:33:19Z</time>
      </trkpt>
      <trkpt lat="44.92742" lon="6.6479">
        <ele>2493.67</ele>
        <time>2015-09-30T12:33:26Z</time>
      </trkpt>
      <trkpt lat="44.92737" lon="6.64792">
        <ele>2492.11</ele>
        <time>2015-09-30T12:33:34Z</time>
      </trkpt>
      <trkpt lat="44.92735" lon="6.64793">
        <ele>2491.7</ele>
        <time>2015-09-30T12:33:37Z</time>
      </trkpt>
      <trkpt lat="44.92728" lon="6.64794">
        <ele>2488.98</ele>
        <time>2015-09-30T12:33:47Z</time>
      </trkpt>
      <trkpt lat="44.92728" lon="6.64795">
        <ele>2486.76</ele>
        <time>2015-09-30T12:33:55Z</time>
      </trkpt>
      <trkpt lat="44.92728" lon="6.64794">
        <ele>2486.41</ele>
        <time>2015-09-30T12:33:58Z</time>
      </trkpt>
      <trkpt lat="44.92727" lon="6.64792">
        <ele>2486.55</ele>
        <time>2015-09-30T12:34:04Z</time>
      </trkpt>
      <trkpt lat="44.92726" lon="6.64794">
        <ele>2486.38</ele>
        <time>2015-09-30T12:34:12Z</time>
      </trkpt>
      <trkpt lat="44.92724" lon="6.64796">
        <ele>2485.7</ele>
        <time>2015-09-30T12:34:18Z</time>
      </trkpt>
      <trkpt lat="44.92722" lon="6.64798">
        <ele>2484.8</ele>
        <time>2015-09-30T12:34:26Z</time>
      </trkpt>
      <trkpt lat="44.92721" lon="6.648">
        <ele>2483.14</ele>
        <time>2015-09-30T12:34:32Z</time>
      </trkpt>
      <trkpt lat="44.92722" lon="6.648">
        <ele>2481.8</ele>
        <time>2015-09-30T12:34:35Z</time>
      </trkpt>
      <trkpt lat="44.92723" lon="6.648">
        <ele>2480.32</ele>
        <time>2015-09-30T12:34:52Z</time>
      </trkpt>
      <trkpt lat="44.92722" lon="6.64801">
        <ele>2480.47</ele>
        <time>2015-09-30T12:34:59Z</time>
      </trkpt>
      <trkpt lat="44.9272" lon="6.64799">
        <ele>2479.63</ele>
        <time>2015-09-30T12:35:08Z</time>
      </trkpt>
      <trkpt lat="44.92718" lon="6.64798">
        <ele>2478.68</ele>
        <time>2015-09-30T12:35:16Z</time>
      </trkpt>
      <trkpt lat="44.92716" lon="6.64796">
        <ele>2477.42</ele>
        <time>2015-09-30T12:35:24Z</time>
      </trkpt>
      <trkpt lat="44.92716" lon="6.64797">
        <ele>2475.75</ele>
        <time>2015-09-30T12:35:31Z</time>
      </trkpt>
      <trkpt lat="44.92716" lon="6.64796">
        <ele>2475.1</ele>
        <time>2015-09-30T12:35:44Z</time>
      </trkpt>
      <trkpt lat="44.92713" lon="6.64799">
        <ele>2474.93</ele>
        <time>2015-09-30T12:35:52Z</time>
      </trkpt>
      <trkpt lat="44.92711" lon="6.64803">
        <ele>2472.97</ele>
        <time>2015-09-30T12:36:00Z</time>
      </trkpt>
      <trkpt lat="44.92705" lon="6.64805">
        <ele>2470.87</ele>
        <time>2015-09-30T12:36:08Z</time>
      </trkpt>
      <trkpt lat="44.92701" lon="6.64808">
        <ele>2468.18</ele>
        <time>2015-09-30T12:36:16Z</time>
      </trkpt>
      <trkpt lat="44.92698" lon="6.64812">
        <ele>2466.4</ele>
        <time>2015-09-30T12:36:22Z</time>
      </trkpt>
      <trkpt lat="44.92697" lon="6.64812">
        <ele>2464.24</ele>
        <time>2015-09-30T12:36:30Z</time>
      </trkpt>
      <trkpt lat="44.92697" lon="6.64809">
        <ele>2463.47</ele>
        <time>2015-09-30T12:36:42Z</time>
      </trkpt>
      <trkpt lat="44.92698" lon="6.6481">
        <ele>2462</ele>
        <time>2015-09-30T12:36:52Z</time>
      </trkpt>
      <trkpt lat="44.927" lon="6.64813">
        <ele>2462.36</ele>
        <time>2015-09-30T12:37:30Z</time>
      </trkpt>
      <trkpt lat="44.927" lon="6.64809">
        <ele>2462.63</ele>
        <time>2015-09-30T12:37:49Z</time>
      </trkpt>
      <trkpt lat="44.92701" lon="6.648">
        <ele>2461.21</ele>
        <time>2015-09-30T12:37:58Z</time>
      </trkpt>
      <trkpt lat="44.927" lon="6.64795">
        <ele>2459.56</ele>
        <time>2015-09-30T12:38:06Z</time>
      </trkpt>
      <trkpt lat="44.92698" lon="6.64794">
        <ele>2457.58</ele>
        <time>2015-09-30T12:38:27Z</time>
      </trkpt>
      <trkpt lat="44.92698" lon="6.64793">
        <ele>2457.79</ele>
        <time>2015-09-30T12:38:51Z</time>
      </trkpt>
      <trkpt lat="44.92695" lon="6.64797">
        <ele>2457.55</ele>
        <time>2015-09-30T12:38:55Z</time>
      </trkpt>
      <trkpt lat="44.92691" lon="6.648">
        <ele>2456.16</ele>
        <time>2015-09-30T12:39:03Z</time>
      </trkpt>
      <trkpt lat="44.92684" lon="6.64799">
        <ele>2454.66</ele>
        <time>2015-09-30T12:39:10Z</time>
      </trkpt>
      <trkpt lat="44.92678" lon="6.64799">
        <ele>2453.14</ele>
        <time>2015-09-30T12:39:14Z</time>
      </trkpt>
      <trkpt lat="44.92674" lon="6.648">
        <ele>2451.4</ele>
        <time>2015-09-30T12:39:17Z</time>
      </trkpt>
      <trkpt lat="44.92665" lon="6.648">
        <ele>2447.44</ele>
        <time>2015-09-30T12:39:25Z</time>
      </trkpt>
      <trkpt lat="44.92665" lon="6.648">
        <ele>2446.99</ele>
        <time>2015-09-30T12:39:26Z</time>
      </trkpt>
      <trkpt lat="44.92661" lon="6.64802">
        <ele>2445.46</ele>
        <time>2015-09-30T12:39:29Z</time>
      </trkpt>
      <trkpt lat="44.92656" lon="6.64803">
        <ele>2443.25</ele>
        <time>2015-09-30T12:39:33Z</time>
      </trkpt>
      <trkpt lat="44.92642" lon="6.648">
        <ele>2439.38</ele>
        <time>2015-09-30T12:39:41Z</time>
      </trkpt>
      <trkpt lat="44.92635" lon="6.64799">
        <ele>2436.35</ele>
        <time>2015-09-30T12:39:46Z</time>
      </trkpt>
      <trkpt lat="44.92625" lon="6.64796">
        <ele>2432.46</ele>
        <time>2015-09-30T12:39:52Z</time>
      </trkpt>
      <trkpt lat="44.92617" lon="6.64793">
        <ele>2428.88</ele>
        <time>2015-09-30T12:39:57Z</time>
      </trkpt>
      <trkpt lat="44.92613" lon="6.64791">
        <ele>2425.83</ele>
        <time>2015-09-30T12:40:01Z</time>
      </trkpt>
      <trkpt lat="44.92614" lon="6.64789">
        <ele>2422.55</ele>
        <time>2015-09-30T12:40:06Z</time>
      </trkpt>
      <trkpt lat="44.92614" lon="6.6479">
        <ele>2421.14</ele>
        <time>2015-09-30T12:40:15Z</time>
      </trkpt>
      <trkpt lat="44.92616" lon="6.64787">
        <ele>2420.29</ele>
        <time>2015-09-30T12:40:40Z</time>
      </trkpt>
      <trkpt lat="44.92619" lon="6.64782">
        <ele>2418.92</ele>
        <time>2015-09-30T12:40:47Z</time>
      </trkpt>
      <trkpt lat="44.9262" lon="6.64782">
        <ele>2418.7</ele>
        <time>2015-09-30T12:40:48Z</time>
      </trkpt>
      <trkpt lat="44.92629" lon="6.64774">
        <ele>2417.55</ele>
        <time>2015-09-30T12:40:55Z</time>
      </trkpt>
      <trkpt lat="44.92632" lon="6.64771">
        <ele>2416.78</ele>
        <time>2015-09-30T12:40:59Z</time>
      </trkpt>
      <trkpt lat="44.92638" lon="6.64767">
        <ele>2415.11</ele>
        <time>2015-09-30T12:41:07Z</time>
      </trkpt>
      <trkpt lat="44.92638" lon="6.64767">
        <ele>2414.17</ele>
        <time>2015-09-30T12:41:24Z</time>
      </trkpt>
      <trkpt lat="44.9264" lon="6.64768">
        <ele>2413.87</ele>
        <time>2015-09-30T12:41:49Z</time>
      </trkpt>
      <trkpt lat="44.92642" lon="6.64762">
        <ele>2413.31</ele>
        <time>2015-09-30T12:41:55Z</time>
      </trkpt>
      <trkpt lat="44.92627" lon="6.64765">
        <ele>2411.85</ele>
        <time>2015-09-30T12:42:01Z</time>
      </trkpt>
      <trkpt lat="44.92626" lon="6.64764">
        <ele>2409.44</ele>
        <time>2015-09-30T12:42:07Z</time>
      </trkpt>
      <trkpt lat="44.92627" lon="6.64764">
        <ele>2407.82</ele>
        <time>2015-09-30T12:42:55Z</time>
      </trkpt>
      <trkpt lat="44.92627" lon="6.64764">
        <ele>2407.64</ele>
        <time>2015-09-30T12:43:23Z</time>
      </trkpt>
      <trkpt lat="44.92626" lon="6.64763">
        <ele>2407.65</ele>
        <time>2015-09-30T12:43:24Z</time>
      </trkpt>
      <trkpt lat="44.92618" lon="6.64763">
        <ele>2407.55</ele>
        <time>2015-09-30T12:43:28Z</time>
      </trkpt>
      <trkpt lat="44.92597" lon="6.64762">
        <ele>2403.81</ele>
        <time>2015-09-30T12:43:38Z</time>
      </trkpt>
      <trkpt lat="44.92592" lon="6.64761">
        <ele>2400.74</ele>
        <time>2015-09-30T12:43:44Z</time>
      </trkpt>
      <trkpt lat="44.92591" lon="6.64761">
        <ele>2398.42</ele>
        <time>2015-09-30T12:43:51Z</time>
      </trkpt>
      <trkpt lat="44.92585" lon="6.6476">
        <ele>2397.84</ele>
        <time>2015-09-30T12:43:55Z</time>
      </trkpt>
      <trkpt lat="44.92576" lon="6.64764">
        <ele>2395.32</ele>
        <time>2015-09-30T12:44:02Z</time>
      </trkpt>
      <trkpt lat="44.92573" lon="6.64767">
        <ele>2392.65</ele>
        <time>2015-09-30T12:44:08Z</time>
      </trkpt>
      <trkpt lat="44.9257" lon="6.64769">
        <ele>2390.82</ele>
        <time>2015-09-30T12:44:15Z</time>
      </trkpt>
      <trkpt lat="44.92568" lon="6.6477">
        <ele>2389.25</ele>
        <time>2015-09-30T12:44:21Z</time>
      </trkpt>
      <trkpt lat="44.92563" lon="6.64774">
        <ele>2387.76</ele>
        <time>2015-09-30T12:44:28Z</time>
      </trkpt>
      <trkpt lat="44.92562" lon="6.64776">
        <ele>2387.26</ele>
        <time>2015-09-30T12:44:30Z</time>
      </trkpt>
      <trkpt lat="44.92558" lon="6.6478">
        <ele>2385.97</ele>
        <time>2015-09-30T12:44:34Z</time>
      </trkpt>
      <trkpt lat="44.92551" lon="6.64788">
        <ele>2383.43</ele>
        <time>2015-09-30T12:44:44Z</time>
      </trkpt>
      <trkpt lat="44.92548" lon="6.64791">
        <ele>2382.21</ele>
        <time>2015-09-30T12:44:51Z</time>
      </trkpt>
      <trkpt lat="44.92546" lon="6.64792">
        <ele>2382.03</ele>
        <time>2015-09-30T12:44:52Z</time>
      </trkpt>
      <trkpt lat="44.92539" lon="6.648">
        <ele>2380.76</ele>
        <time>2015-09-30T12:44:57Z</time>
      </trkpt>
      <trkpt lat="44.92524" lon="6.64809">
        <ele>2378.85</ele>
        <time>2015-09-30T12:45:03Z</time>
      </trkpt>
      <trkpt lat="44.92514" lon="6.64815">
        <ele>2376.28</ele>
        <time>2015-09-30T12:45:08Z</time>
      </trkpt>
      <trkpt lat="44.92504" lon="6.64817">
        <ele>2374.16</ele>
        <time>2015-09-30T12:45:14Z</time>
      </trkpt>
      <trkpt lat="44.925" lon="6.64818">
        <ele>2373.14</ele>
        <time>2015-09-30T12:45:16Z</time>
      </trkpt>
      <trkpt lat="44.92493" lon="6.64821">
        <ele>2369.53</ele>
        <time>2015-09-30T12:45:22Z</time>
      </trkpt>
      <trkpt lat="44.92491" lon="6.64822">
        <ele>2366.49</ele>
        <time>2015-09-30T12:45:29Z</time>
      </trkpt>
      <trkpt lat="44.92486" lon="6.64823">
        <ele>2364.97</ele>
        <time>2015-09-30T12:45:38Z</time>
      </trkpt>
      <trkpt lat="44.9248" lon="6.64821">
        <ele>2363.04</ele>
        <time>2015-09-30T12:45:47Z</time>
      </trkpt>
      <trkpt lat="44.92479" lon="6.64821">
        <ele>2362.77</ele>
        <time>2015-09-30T12:45:48Z</time>
      </trkpt>
      <trkpt lat="44.92473" lon="6.64818">
        <ele>2360.01</ele>
        <time>2015-09-30T12:45:56Z</time>
      </trkpt>
      <trkpt lat="44.92474" lon="6.64813">
        <ele>2358</ele>
        <time>2015-09-30T12:46:04Z</time>
      </trkpt>
      <trkpt lat="44.92475" lon="6.6481">
        <ele>2357.1</ele>
        <time>2015-09-30T12:46:07Z</time>
      </trkpt>
      <trkpt lat="44.92473" lon="6.64806">
        <ele>2354.62</ele>
        <time>2015-09-30T12:46:14Z</time>
      </trkpt>
      <trkpt lat="44.9247" lon="6.64804">
        <ele>2353.43</ele>
        <time>2015-09-30T12:46:18Z</time>
      </trkpt>
      <trkpt lat="44.92456" lon="6.64795">
        <ele>2350.12</ele>
        <time>2015-09-30T12:46:26Z</time>
      </trkpt>
      <trkpt lat="44.9245" lon="6.64794">
        <ele>2346.87</ele>
        <time>2015-09-30T12:46:33Z</time>
      </trkpt>
      <trkpt lat="44.92446" lon="6.6479">
        <ele>2344.54</ele>
        <time>2015-09-30T12:46:40Z</time>
      </trkpt>
      <trkpt lat="44.92435" lon="6.64786">
        <ele>2342.87</ele>
        <time>2015-09-30T12:46:45Z</time>
      </trkpt>
      <trkpt lat="44.92421" lon="6.64784">
        <ele>2340.12</ele>
        <time>2015-09-30T12:46:50Z</time>
      </trkpt>
      <trkpt lat="44.92418" lon="6.64783">
        <ele>2338.44</ele>
        <time>2015-09-30T12:46:55Z</time>
      </trkpt>
      <trkpt lat="44.92418" lon="6.64782">
        <ele>2337.26</ele>
        <time>2015-09-30T12:47:20Z</time>
      </trkpt>
      <trkpt lat="44.92414" lon="6.64779">
        <ele>2337.45</ele>
        <time>2015-09-30T12:47:42Z</time>
      </trkpt>
      <trkpt lat="44.92409" lon="6.64778">
        <ele>2337.57</ele>
        <time>2015-09-30T12:47:55Z</time>
      </trkpt>
      <trkpt lat="44.92399" lon="6.64778">
        <ele>2336.7</ele>
        <time>2015-09-30T12:48:02Z</time>
      </trkpt>
      <trkpt lat="44.92397" lon="6.64779">
        <ele>2336.43</ele>
        <time>2015-09-30T12:48:04Z</time>
      </trkpt>
      <trkpt lat="44.92382" lon="6.64782">
        <ele>2333.94</ele>
        <time>2015-09-30T12:48:14Z</time>
      </trkpt>
      <trkpt lat="44.92372" lon="6.64787">
        <ele>2330.24</ele>
        <time>2015-09-30T12:48:20Z</time>
      </trkpt>
      <trkpt lat="44.9237" lon="6.64787">
        <ele>2330.24</ele>
        <time>2015-09-30T12:48:21Z</time>
      </trkpt>
      <trkpt lat="44.92368" lon="6.64786">
        <ele>2328.54</ele>
        <time>2015-09-30T12:48:23Z</time>
      </trkpt>
      <trkpt lat="44.92356" lon="6.64779">
        <ele>2323.88</ele>
        <time>2015-09-30T12:48:31Z</time>
      </trkpt>
      <trkpt lat="44.92354" lon="6.64778">
        <ele>2323.22</ele>
        <time>2015-09-30T12:48:32Z</time>
      </trkpt>
      <trkpt lat="44.92343" lon="6.64776">
        <ele>2319.01</ele>
        <time>2015-09-30T12:48:38Z</time>
      </trkpt>
      <trkpt lat="44.92335" lon="6.64775">
        <ele>2315.47</ele>
        <time>2015-09-30T12:48:43Z</time>
      </trkpt>
      <trkpt lat="44.92332" lon="6.64775">
        <ele>2314.14</ele>
        <time>2015-09-30T12:48:45Z</time>
      </trkpt>
      <trkpt lat="44.92331" lon="6.64774">
        <ele>2310.69</ele>
        <time>2015-09-30T12:48:49Z</time>
      </trkpt>
      <trkpt lat="44.92327" lon="6.64772">
        <ele>2308.13</ele>
        <time>2015-09-30T12:48:58Z</time>
      </trkpt>
      <trkpt lat="44.92323" lon="6.64772">
        <ele>2306.06</ele>
        <time>2015-09-30T12:49:06Z</time>
      </trkpt>
      <trkpt lat="44.92318" lon="6.6477">
        <ele>2304.13</ele>
        <time>2015-09-30T12:49:14Z</time>
      </trkpt>
      <trkpt lat="44.92314" lon="6.64768">
        <ele>2302.58</ele>
        <time>2015-09-30T12:49:34Z</time>
      </trkpt>
      <trkpt lat="44.92305" lon="6.6477">
        <ele>2300.95</ele>
        <time>2015-09-30T12:49:41Z</time>
      </trkpt>
      <trkpt lat="44.92306" lon="6.6477">
        <ele>2298.19</ele>
        <time>2015-09-30T12:49:56Z</time>
      </trkpt>
      <trkpt lat="44.92304" lon="6.64771">
        <ele>2298.22</ele>
        <time>2015-09-30T12:50:04Z</time>
      </trkpt>
      <trkpt lat="44.92303" lon="6.64772">
        <ele>2298.56</ele>
        <time>2015-09-30T12:50:24Z</time>
      </trkpt>
      <trkpt lat="44.92288" lon="6.64773">
        <ele>2297.32</ele>
        <time>2015-09-30T12:50:29Z</time>
      </trkpt>
      <trkpt lat="44.92278" lon="6.64774">
        <ele>2296.26</ele>
        <time>2015-09-30T12:50:31Z</time>
      </trkpt>
      <trkpt lat="44.92264" lon="6.64775">
        <ele>2293.46</ele>
        <time>2015-09-30T12:50:36Z</time>
      </trkpt>
      <trkpt lat="44.92265" lon="6.64777">
        <ele>2292.11</ele>
        <time>2015-09-30T12:50:45Z</time>
      </trkpt>
      <trkpt lat="44.92264" lon="6.64774">
        <ele>2292.12</ele>
        <time>2015-09-30T12:50:50Z</time>
      </trkpt>
      <trkpt lat="44.92257" lon="6.64769">
        <ele>2291.68</ele>
        <time>2015-09-30T12:50:54Z</time>
      </trkpt>
      <trkpt lat="44.92242" lon="6.64753">
        <ele>2290.07</ele>
        <time>2015-09-30T12:51:00Z</time>
      </trkpt>
      <trkpt lat="44.92241" lon="6.64749">
        <ele>2288.92</ele>
        <time>2015-09-30T12:51:05Z</time>
      </trkpt>
      <trkpt lat="44.9224" lon="6.64745">
        <ele>2288.02</ele>
        <time>2015-09-30T12:51:14Z</time>
      </trkpt>
      <trkpt lat="44.92241" lon="6.64749">
        <ele>2288.08</ele>
        <time>2015-09-30T12:51:21Z</time>
      </trkpt>
      <trkpt lat="44.92238" lon="6.64749">
        <ele>2288.34</ele>
        <time>2015-09-30T12:51:30Z</time>
      </trkpt>
      <trkpt lat="44.92235" lon="6.64749">
        <ele>2289.49</ele>
        <time>2015-09-30T12:51:45Z</time>
      </trkpt>
      <trkpt lat="44.92231" lon="6.64754">
        <ele>2289.85</ele>
        <time>2015-09-30T12:51:53Z</time>
      </trkpt>
      <trkpt lat="44.9223" lon="6.64756">
        <ele>2288.08</ele>
        <time>2015-09-30T12:52:07Z</time>
      </trkpt>
      <trkpt lat="44.92229" lon="6.64761">
        <ele>2287.95</ele>
        <time>2015-09-30T12:52:26Z</time>
      </trkpt>
      <trkpt lat="44.92234" lon="6.64771">
        <ele>2288.48</ele>
        <time>2015-09-30T12:52:35Z</time>
      </trkpt>
      <trkpt lat="44.92233" lon="6.64774">
        <ele>2288.48</ele>
        <time>2015-09-30T12:52:38Z</time>
      </trkpt>
      <trkpt lat="44.92229" lon="6.64785">
        <ele>2288.03</ele>
        <time>2015-09-30T12:52:42Z</time>
      </trkpt>
      <trkpt lat="44.92215" lon="6.64799">
        <ele>2286.63</ele>
        <time>2015-09-30T12:52:48Z</time>
      </trkpt>
      <trkpt lat="44.92204" lon="6.64807">
        <ele>2285.37</ele>
        <time>2015-09-30T12:52:52Z</time>
      </trkpt>
      <trkpt lat="44.92195" lon="6.64811">
        <ele>2282.87</ele>
        <time>2015-09-30T12:52:58Z</time>
      </trkpt>
      <trkpt lat="44.92195" lon="6.64812">
        <ele>2280.67</ele>
        <time>2015-09-30T12:53:16Z</time>
      </trkpt>
      <trkpt lat="44.9219" lon="6.64812">
        <ele>2280.4</ele>
        <time>2015-09-30T12:53:34Z</time>
      </trkpt>
      <trkpt lat="44.92172" lon="6.64811">
        <ele>2279.47</ele>
        <time>2015-09-30T12:53:40Z</time>
      </trkpt>
      <trkpt lat="44.92152" lon="6.64816">
        <ele>2277.14</ele>
        <time>2015-09-30T12:53:46Z</time>
      </trkpt>
      <trkpt lat="44.92138" lon="6.64821">
        <ele>2275.63</ele>
        <time>2015-09-30T12:53:49Z</time>
      </trkpt>
      <trkpt lat="44.92121" lon="6.64822">
        <ele>2272.82</ele>
        <time>2015-09-30T12:53:53Z</time>
      </trkpt>
      <trkpt lat="44.92095" lon="6.64813">
        <ele>2269.8</ele>
        <time>2015-09-30T12:54:00Z</time>
      </trkpt>
      <trkpt lat="44.92076" lon="6.64807">
        <ele>2267.54</ele>
        <time>2015-09-30T12:54:06Z</time>
      </trkpt>
      <trkpt lat="44.9205" lon="6.64803">
        <ele>2264.07</ele>
        <time>2015-09-30T12:54:13Z</time>
      </trkpt>
      <trkpt lat="44.9203" lon="6.6481">
        <ele>2260.85</ele>
        <time>2015-09-30T12:54:18Z</time>
      </trkpt>
      <trkpt lat="44.92015" lon="6.64821">
        <ele>2258.16</ele>
        <time>2015-09-30T12:54:23Z</time>
      </trkpt>
      <trkpt lat="44.92002" lon="6.64837">
        <ele>2256.33</ele>
        <time>2015-09-30T12:54:27Z</time>
      </trkpt>
      <trkpt lat="44.91994" lon="6.64841">
        <ele>2255.2</ele>
        <time>2015-09-30T12:54:29Z</time>
      </trkpt>
      <trkpt lat="44.9197" lon="6.64844">
        <ele>2252.33</ele>
        <time>2015-09-30T12:54:35Z</time>
      </trkpt>
      <trkpt lat="44.91959" lon="6.64845">
        <ele>2250.62</ele>
        <time>2015-09-30T12:54:39Z</time>
      </trkpt>
      <trkpt lat="44.91946" lon="6.64848">
        <ele>2248.41</ele>
        <time>2015-09-30T12:54:44Z</time>
      </trkpt>
      <trkpt lat="44.91932" lon="6.64843">
        <ele>2245.16</ele>
        <time>2015-09-30T12:54:51Z</time>
      </trkpt>
      <trkpt lat="44.91918" lon="6.64849">
        <ele>2242.71</ele>
        <time>2015-09-30T12:54:56Z</time>
      </trkpt>
      <trkpt lat="44.91892" lon="6.64853">
        <ele>2238.83</ele>
        <time>2015-09-30T12:55:03Z</time>
      </trkpt>
      <trkpt lat="44.91877" lon="6.64852">
        <ele>2237.12</ele>
        <time>2015-09-30T12:55:07Z</time>
      </trkpt>
      <trkpt lat="44.91859" lon="6.64846">
        <ele>2234.89</ele>
        <time>2015-09-30T12:55:12Z</time>
      </trkpt>
      <trkpt lat="44.91839" lon="6.6484">
        <ele>2231.73</ele>
        <time>2015-09-30T12:55:18Z</time>
      </trkpt>
      <trkpt lat="44.91823" lon="6.64833">
        <ele>2228.7</ele>
        <time>2015-09-30T12:55:24Z</time>
      </trkpt>
      <trkpt lat="44.91806" lon="6.64827">
        <ele>2225.59</ele>
        <time>2015-09-30T12:55:30Z</time>
      </trkpt>
      <trkpt lat="44.91789" lon="6.64834">
        <ele>2222.64</ele>
        <time>2015-09-30T12:55:36Z</time>
      </trkpt>
      <trkpt lat="44.91773" lon="6.64839">
        <ele>2219.85</ele>
        <time>2015-09-30T12:55:41Z</time>
      </trkpt>
      <trkpt lat="44.91762" lon="6.64835">
        <ele>2217.46</ele>
        <time>2015-09-30T12:55:45Z</time>
      </trkpt>
      <trkpt lat="44.91746" lon="6.64835">
        <ele>2214.35</ele>
        <time>2015-09-30T12:55:50Z</time>
      </trkpt>
      <trkpt lat="44.91739" lon="6.64836">
        <ele>2212.49</ele>
        <time>2015-09-30T12:55:52Z</time>
      </trkpt>
      <trkpt lat="44.91719" lon="6.64838">
        <ele>2209.07</ele>
        <time>2015-09-30T12:55:57Z</time>
      </trkpt>
      <trkpt lat="44.91697" lon="6.64841">
        <ele>2206.16</ele>
        <time>2015-09-30T12:56:03Z</time>
      </trkpt>
      <trkpt lat="44.91682" lon="6.64841">
        <ele>2203.46</ele>
        <time>2015-09-30T12:56:08Z</time>
      </trkpt>
      <trkpt lat="44.91682" lon="6.64839">
        <ele>2201.39</ele>
        <time>2015-09-30T12:56:12Z</time>
      </trkpt>
      <trkpt lat="44.91684" lon="6.64838">
        <ele>2198.98</ele>
        <time>2015-09-30T12:56:20Z</time>
      </trkpt>
      <trkpt lat="44.91682" lon="6.64836">
        <ele>2198.1</ele>
        <time>2015-09-30T12:56:50Z</time>
      </trkpt>
      <trkpt lat="44.91683" lon="6.64834">
        <ele>2198.08</ele>
        <time>2015-09-30T12:56:52Z</time>
      </trkpt>
      <trkpt lat="44.91696" lon="6.64822">
        <ele>2196.9</ele>
        <time>2015-09-30T12:57:00Z</time>
      </trkpt>
      <trkpt lat="44.91711" lon="6.64813">
        <ele>2194.75</ele>
        <time>2015-09-30T12:57:06Z</time>
      </trkpt>
      <trkpt lat="44.91715" lon="6.64812">
        <ele>2194.15</ele>
        <time>2015-09-30T12:57:08Z</time>
      </trkpt>
      <trkpt lat="44.91729" lon="6.64795">
        <ele>2192.27</ele>
        <time>2015-09-30T12:57:15Z</time>
      </trkpt>
      <trkpt lat="44.91731" lon="6.64786">
        <ele>2191.63</ele>
        <time>2015-09-30T12:57:17Z</time>
      </trkpt>
      <trkpt lat="44.91747" lon="6.64771">
        <ele>2189.19</ele>
        <time>2015-09-30T12:57:24Z</time>
      </trkpt>
      <trkpt lat="44.91753" lon="6.64766">
        <ele>2187.61</ele>
        <time>2015-09-30T12:57:29Z</time>
      </trkpt>
      <trkpt lat="44.91761" lon="6.64759">
        <ele>2185.92</ele>
        <time>2015-09-30T12:57:35Z</time>
      </trkpt>
      <trkpt lat="44.9177" lon="6.64755">
        <ele>2184.43</ele>
        <time>2015-09-30T12:57:42Z</time>
      </trkpt>
      <trkpt lat="44.91782" lon="6.64748">
        <ele>2182.92</ele>
        <time>2015-09-30T12:57:49Z</time>
      </trkpt>
      <trkpt lat="44.91792" lon="6.64739">
        <ele>2181.24</ele>
        <time>2015-09-30T12:57:55Z</time>
      </trkpt>
      <trkpt lat="44.91796" lon="6.64735">
        <ele>2180.13</ele>
        <time>2015-09-30T12:57:58Z</time>
      </trkpt>
      <trkpt lat="44.918" lon="6.64732">
        <ele>2179.59</ele>
        <time>2015-09-30T12:58:00Z</time>
      </trkpt>
      <trkpt lat="44.91814" lon="6.64733">
        <ele>2177.46</ele>
        <time>2015-09-30T12:58:06Z</time>
      </trkpt>
      <trkpt lat="44.91832" lon="6.64734">
        <ele>2175.32</ele>
        <time>2015-09-30T12:58:12Z</time>
      </trkpt>
      <trkpt lat="44.91849" lon="6.64731">
        <ele>2172.53</ele>
        <time>2015-09-30T12:58:18Z</time>
      </trkpt>
      <trkpt lat="44.9185" lon="6.6473">
        <ele>2171.69</ele>
        <time>2015-09-30T12:58:19Z</time>
      </trkpt>
      <trkpt lat="44.91846" lon="6.64728">
        <ele>2170.51</ele>
        <time>2015-09-30T12:58:22Z</time>
      </trkpt>
      <trkpt lat="44.91833" lon="6.64723">
        <ele>2168.23</ele>
        <time>2015-09-30T12:58:29Z</time>
      </trkpt>
      <trkpt lat="44.91812" lon="6.64712">
        <ele>2164.78</ele>
        <time>2015-09-30T12:58:38Z</time>
      </trkpt>
      <trkpt lat="44.918" lon="6.64709">
        <ele>2161.77</ele>
        <time>2015-09-30T12:58:44Z</time>
      </trkpt>
      <trkpt lat="44.91786" lon="6.6471">
        <ele>2158.97</ele>
        <time>2015-09-30T12:58:50Z</time>
      </trkpt>
      <trkpt lat="44.91768" lon="6.64711">
        <ele>2155.8</ele>
        <time>2015-09-30T12:58:57Z</time>
      </trkpt>
      <trkpt lat="44.91755" lon="6.64713">
        <ele>2152.65</ele>
        <time>2015-09-30T12:59:03Z</time>
      </trkpt>
      <trkpt lat="44.91747" lon="6.64714">
        <ele>2151.15</ele>
        <time>2015-09-30T12:59:07Z</time>
      </trkpt>
      <trkpt lat="44.91738" lon="6.64717">
        <ele>2149.11</ele>
        <time>2015-09-30T12:59:11Z</time>
      </trkpt>
      <trkpt lat="44.91721" lon="6.64724">
        <ele>2146.65</ele>
        <time>2015-09-30T12:59:18Z</time>
      </trkpt>
      <trkpt lat="44.91702" lon="6.64729">
        <ele>2143.99</ele>
        <time>2015-09-30T12:59:25Z</time>
      </trkpt>
      <trkpt lat="44.91684" lon="6.64732">
        <ele>2140.75</ele>
        <time>2015-09-30T12:59:32Z</time>
      </trkpt>
      <trkpt lat="44.91668" lon="6.6473">
        <ele>2138.78</ele>
        <time>2015-09-30T12:59:38Z</time>
      </trkpt>
      <trkpt lat="44.9165" lon="6.6473">
        <ele>2135.27</ele>
        <time>2015-09-30T12:59:45Z</time>
      </trkpt>
      <trkpt lat="44.91636" lon="6.64737">
        <ele>2132.37</ele>
        <time>2015-09-30T12:59:51Z</time>
      </trkpt>
      <trkpt lat="44.9163" lon="6.64738">
        <ele>2131.44</ele>
        <time>2015-09-30T12:59:53Z</time>
      </trkpt>
      <trkpt lat="44.91621" lon="6.64731">
        <ele>2128.9</ele>
        <time>2015-09-30T12:59:58Z</time>
      </trkpt>
      <trkpt lat="44.91604" lon="6.64732">
        <ele>2126.51</ele>
        <time>2015-09-30T13:00:05Z</time>
      </trkpt>
      <trkpt lat="44.91586" lon="6.64732">
        <ele>2123.52</ele>
        <time>2015-09-30T13:00:12Z</time>
      </trkpt>
      <trkpt lat="44.91571" lon="6.64733">
        <ele>2120.8</ele>
        <time>2015-09-30T13:00:18Z</time>
      </trkpt>
      <trkpt lat="44.91563" lon="6.64733">
        <ele>2119.56</ele>
        <time>2015-09-30T13:00:21Z</time>
      </trkpt>
      <trkpt lat="44.91551" lon="6.64735">
        <ele>2117.06</ele>
        <time>2015-09-30T13:00:27Z</time>
      </trkpt>
      <trkpt lat="44.91548" lon="6.64735">
        <ele>2116.05</ele>
        <time>2015-09-30T13:00:31Z</time>
      </trkpt>
      <trkpt lat="44.91535" lon="6.64734">
        <ele>2114.5</ele>
        <time>2015-09-30T13:00:39Z</time>
      </trkpt>
      <trkpt lat="44.91522" lon="6.64736">
        <ele>2111.88</ele>
        <time>2015-09-30T13:00:46Z</time>
      </trkpt>
      <trkpt lat="44.91505" lon="6.64743">
        <ele>2108.5</ele>
        <time>2015-09-30T13:00:55Z</time>
      </trkpt>
      <trkpt lat="44.91493" lon="6.64746">
        <ele>2106.01</ele>
        <time>2015-09-30T13:01:02Z</time>
      </trkpt>
      <trkpt lat="44.91486" lon="6.64751">
        <ele>2103.26</ele>
        <time>2015-09-30T13:01:09Z</time>
      </trkpt>
      <trkpt lat="44.91485" lon="6.6475">
        <ele>2102.78</ele>
        <time>2015-09-30T13:01:10Z</time>
      </trkpt>
      <trkpt lat="44.91478" lon="6.64751">
        <ele>2101.93</ele>
        <time>2015-09-30T13:01:14Z</time>
      </trkpt>
      <trkpt lat="44.9146" lon="6.64756">
        <ele>2098.4</ele>
        <time>2015-09-30T13:01:22Z</time>
      </trkpt>
      <trkpt lat="44.91457" lon="6.64758">
        <ele>2097.47</ele>
        <time>2015-09-30T13:01:24Z</time>
      </trkpt>
      <trkpt lat="44.9145" lon="6.64758">
        <ele>2094.49</ele>
        <time>2015-09-30T13:01:31Z</time>
      </trkpt>
      <trkpt lat="44.91449" lon="6.64757">
        <ele>2092.37</ele>
        <time>2015-09-30T13:01:42Z</time>
      </trkpt>
      <trkpt lat="44.91447" lon="6.64753">
        <ele>2091.91</ele>
        <time>2015-09-30T13:02:14Z</time>
      </trkpt>
      <trkpt lat="44.91447" lon="6.64753">
        <ele>2091.82</ele>
        <time>2015-09-30T13:02:39Z</time>
      </trkpt>
      <trkpt lat="44.91446" lon="6.64755">
        <ele>2091.86</ele>
        <time>2015-09-30T13:03:05Z</time>
      </trkpt>
      <trkpt lat="44.91445" lon="6.64756">
        <ele>2091.88</ele>
        <time>2015-09-30T13:03:09Z</time>
      </trkpt>
      <trkpt lat="44.91431" lon="6.64759">
        <ele>2090.64</ele>
        <time>2015-09-30T13:03:17Z</time>
      </trkpt>
      <trkpt lat="44.91429" lon="6.6476">
        <ele>2090.3</ele>
        <time>2015-09-30T13:03:18Z</time>
      </trkpt>
      <trkpt lat="44.91405" lon="6.64768">
        <ele>2087.12</ele>
        <time>2015-09-30T13:03:26Z</time>
      </trkpt>
      <trkpt lat="44.91386" lon="6.64775">
        <ele>2083.84</ele>
        <time>2015-09-30T13:03:32Z</time>
      </trkpt>
      <trkpt lat="44.91375" lon="6.64782">
        <ele>2080.73</ele>
        <time>2015-09-30T13:03:37Z</time>
      </trkpt>
      <trkpt lat="44.91372" lon="6.64784">
        <ele>2077.77</ele>
        <time>2015-09-30T13:03:45Z</time>
      </trkpt>
      <trkpt lat="44.91372" lon="6.6478">
        <ele>2077.02</ele>
        <time>2015-09-30T13:03:51Z</time>
      </trkpt>
      <trkpt lat="44.91378" lon="6.64768">
        <ele>2076.12</ele>
        <time>2015-09-30T13:03:58Z</time>
      </trkpt>
      <trkpt lat="44.91389" lon="6.64755">
        <ele>2073.52</ele>
        <time>2015-09-30T13:04:05Z</time>
      </trkpt>
      <trkpt lat="44.91403" lon="6.64742">
        <ele>2071.04</ele>
        <time>2015-09-30T13:04:12Z</time>
      </trkpt>
      <trkpt lat="44.91426" lon="6.64724">
        <ele>2069.41</ele>
        <time>2015-09-30T13:04:19Z</time>
      </trkpt>
      <trkpt lat="44.91445" lon="6.64706">
        <ele>2067.64</ele>
        <time>2015-09-30T13:04:25Z</time>
      </trkpt>
      <trkpt lat="44.9146" lon="6.64695">
        <ele>2065.36</ele>
        <time>2015-09-30T13:04:31Z</time>
      </trkpt>
      <trkpt lat="44.91474" lon="6.64675">
        <ele>2062.5</ele>
        <time>2015-09-30T13:04:38Z</time>
      </trkpt>
      <trkpt lat="44.91478" lon="6.64669">
        <ele>2061.8</ele>
        <time>2015-09-30T13:04:40Z</time>
      </trkpt>
      <trkpt lat="44.91489" lon="6.64654">
        <ele>2059.06</ele>
        <time>2015-09-30T13:04:46Z</time>
      </trkpt>
      <trkpt lat="44.91498" lon="6.64639">
        <ele>2056.92</ele>
        <time>2015-09-30T13:04:51Z</time>
      </trkpt>
      <trkpt lat="44.91497" lon="6.64633">
        <ele>2054.39</ele>
        <time>2015-09-30T13:04:58Z</time>
      </trkpt>
      <trkpt lat="44.91481" lon="6.64642">
        <ele>2051.86</ele>
        <time>2015-09-30T13:05:07Z</time>
      </trkpt>
      <trkpt lat="44.91478" lon="6.64644">
        <ele>2051.16</ele>
        <time>2015-09-30T13:05:09Z</time>
      </trkpt>
      <trkpt lat="44.91469" lon="6.64644">
        <ele>2049.62</ele>
        <time>2015-09-30T13:05:13Z</time>
      </trkpt>
      <trkpt lat="44.91446" lon="6.64649">
        <ele>2045.86</ele>
        <time>2015-09-30T13:05:20Z</time>
      </trkpt>
      <trkpt lat="44.91442" lon="6.64651">
        <ele>2045.13</ele>
        <time>2015-09-30T13:05:21Z</time>
      </trkpt>
      <trkpt lat="44.91431" lon="6.64653">
        <ele>2043.55</ele>
        <time>2015-09-30T13:05:23Z</time>
      </trkpt>
      <trkpt lat="44.91412" lon="6.64658">
        <ele>2040.19</ele>
        <time>2015-09-30T13:05:27Z</time>
      </trkpt>
      <trkpt lat="44.91388" lon="6.64662">
        <ele>2036.74</ele>
        <time>2015-09-30T13:05:33Z</time>
      </trkpt>
      <trkpt lat="44.91384" lon="6.64663">
        <ele>2036.16</ele>
        <time>2015-09-30T13:05:34Z</time>
      </trkpt>
      <trkpt lat="44.91355" lon="6.64669">
        <ele>2032.39</ele>
        <time>2015-09-30T13:05:40Z</time>
      </trkpt>
      <trkpt lat="44.91345" lon="6.64672">
        <ele>2031.19</ele>
        <time>2015-09-30T13:05:42Z</time>
      </trkpt>
      <trkpt lat="44.91335" lon="6.64674">
        <ele>2029.91</ele>
        <time>2015-09-30T13:05:44Z</time>
      </trkpt>
      <trkpt lat="44.91326" lon="6.64677">
        <ele>2028.65</ele>
        <time>2015-09-30T13:05:46Z</time>
      </trkpt>
      <trkpt lat="44.91307" lon="6.6468">
        <ele>2025.12</ele>
        <time>2015-09-30T13:05:50Z</time>
      </trkpt>
      <trkpt lat="44.91282" lon="6.64687">
        <ele>2021.67</ele>
        <time>2015-09-30T13:05:55Z</time>
      </trkpt>
      <trkpt lat="44.91257" lon="6.64692">
        <ele>2017.93</ele>
        <time>2015-09-30T13:06:01Z</time>
      </trkpt>
      <trkpt lat="44.91248" lon="6.64694">
        <ele>2016.83</ele>
        <time>2015-09-30T13:06:03Z</time>
      </trkpt>
      <trkpt lat="44.91238" lon="6.64698">
        <ele>2015.76</ele>
        <time>2015-09-30T13:06:05Z</time>
      </trkpt>
      <trkpt lat="44.912" lon="6.64708">
        <ele>2012.73</ele>
        <time>2015-09-30T13:06:11Z</time>
      </trkpt>
      <trkpt lat="44.91178" lon="6.64715">
        <ele>2010.22</ele>
        <time>2015-09-30T13:06:17Z</time>
      </trkpt>
      <trkpt lat="44.91167" lon="6.64731">
        <ele>2008.73</ele>
        <time>2015-09-30T13:06:22Z</time>
      </trkpt>
      <trkpt lat="44.91167" lon="6.64731">
        <ele>2007.71</ele>
        <time>2015-09-30T13:06:31Z</time>
      </trkpt>
      <trkpt lat="44.91164" lon="6.64724">
        <ele>2007.55</ele>
        <time>2015-09-30T13:06:40Z</time>
      </trkpt>
      <trkpt lat="44.91165" lon="6.64723">
        <ele>2007.8</ele>
        <time>2015-09-30T13:06:50Z</time>
      </trkpt>
      <trkpt lat="44.91165" lon="6.64722">
        <ele>2007.58</ele>
        <time>2015-09-30T13:07:17Z</time>
      </trkpt>
      <trkpt lat="44.91165" lon="6.64721">
        <ele>2007.61</ele>
        <time>2015-09-30T13:07:32Z</time>
      </trkpt>
      <trkpt lat="44.91165" lon="6.64721">
        <ele>2007.01</ele>
        <time>2015-09-30T13:07:58Z</time>
      </trkpt>
      <trkpt lat="44.91165" lon="6.64721">
        <ele>2007.34</ele>
        <time>2015-09-30T13:08:22Z</time>
      </trkpt>
      <trkpt lat="44.91165" lon="6.6472">
        <ele>2007.07</ele>
        <time>2015-09-30T13:08:41Z</time>
      </trkpt>
      <trkpt lat="44.91164" lon="6.64719">
        <ele>2006.92</ele>
        <time>2015-09-30T13:09:00Z</time>
      </trkpt>
      <trkpt lat="44.91163" lon="6.64718">
        <ele>2006.88</ele>
        <time>2015-09-30T13:09:16Z</time>
      </trkpt>
      <trkpt lat="44.91162" lon="6.64717">
        <ele>2006.98</ele>
        <time>2015-09-30T13:09:25Z</time>
      </trkpt>
      <trkpt lat="44.91151" lon="6.64714">
        <ele>2006.91</ele>
        <time>2015-09-30T13:09:32Z</time>
      </trkpt>
      <trkpt lat="44.91141" lon="6.64717">
        <ele>2006.49</ele>
        <time>2015-09-30T13:09:35Z</time>
      </trkpt>
      <trkpt lat="44.91136" lon="6.64729">
        <ele>2004.26</ele>
        <time>2015-09-30T13:09:39Z</time>
      </trkpt>
      <trkpt lat="44.9113" lon="6.6474">
        <ele>2001.37</ele>
        <time>2015-09-30T13:09:47Z</time>
      </trkpt>
      <trkpt lat="44.91123" lon="6.64735">
        <ele>1999.3</ele>
        <time>2015-09-30T13:09:52Z</time>
      </trkpt>
      <trkpt lat="44.91118" lon="6.64732">
        <ele>1997</ele>
        <time>2015-09-30T13:09:58Z</time>
      </trkpt>
      <trkpt lat="44.91116" lon="6.6473">
        <ele>1995.47</ele>
        <time>2015-09-30T13:10:07Z</time>
      </trkpt>
      <trkpt lat="44.91112" lon="6.64728">
        <ele>1994.67</ele>
        <time>2015-09-30T13:10:14Z</time>
      </trkpt>
      <trkpt lat="44.91106" lon="6.64724">
        <ele>1992.2</ele>
        <time>2015-09-30T13:10:23Z</time>
      </trkpt>
      <trkpt lat="44.91102" lon="6.64726">
        <ele>1989.19</ele>
        <time>2015-09-30T13:10:32Z</time>
      </trkpt>
      <trkpt lat="44.91099" lon="6.64723">
        <ele>1988.03</ele>
        <time>2015-09-30T13:10:38Z</time>
      </trkpt>
      <trkpt lat="44.91094" lon="6.64721">
        <ele>1985.81</ele>
        <time>2015-09-30T13:10:45Z</time>
      </trkpt>
      <trkpt lat="44.91086" lon="6.64709">
        <ele>1984.79</ele>
        <time>2015-09-30T13:10:49Z</time>
      </trkpt>
      <trkpt lat="44.91078" lon="6.64677">
        <ele>1982.61</ele>
        <time>2015-09-30T13:10:57Z</time>
      </trkpt>
      <trkpt lat="44.91075" lon="6.64667">
        <ele>1982.16</ele>
        <time>2015-09-30T13:11:01Z</time>
      </trkpt>
      <trkpt lat="44.91072" lon="6.64666">
        <ele>1981.49</ele>
        <time>2015-09-30T13:11:08Z</time>
      </trkpt>
      <trkpt lat="44.91071" lon="6.64667">
        <ele>1980.98</ele>
        <time>2015-09-30T13:11:17Z</time>
      </trkpt>
      <trkpt lat="44.91062" lon="6.64658">
        <ele>1980.85</ele>
        <time>2015-09-30T13:11:22Z</time>
      </trkpt>
      <trkpt lat="44.91057" lon="6.64655">
        <ele>1980.15</ele>
        <time>2015-09-30T13:11:28Z</time>
      </trkpt>
      <trkpt lat="44.91058" lon="6.64655">
        <ele>1979.56</ele>
        <time>2015-09-30T13:11:37Z</time>
      </trkpt>
      <trkpt lat="44.91061" lon="6.64656">
        <ele>1979.68</ele>
        <time>2015-09-30T13:11:46Z</time>
      </trkpt>
      <trkpt lat="44.91066" lon="6.64652">
        <ele>1980.05</ele>
        <time>2015-09-30T13:11:56Z</time>
      </trkpt>
      <trkpt lat="44.91067" lon="6.64652">
        <ele>1979.75</ele>
        <time>2015-09-30T13:12:13Z</time>
      </trkpt>
      <trkpt lat="44.91069" lon="6.64654">
        <ele>1979.37</ele>
        <time>2015-09-30T13:12:48Z</time>
      </trkpt>
      <trkpt lat="44.91069" lon="6.64654">
        <ele>1979.14</ele>
        <time>2015-09-30T13:13:25Z</time>
      </trkpt>
      <trkpt lat="44.91069" lon="6.64656">
        <ele>1978.73</ele>
        <time>2015-09-30T13:14:12Z</time>
      </trkpt>
      <trkpt lat="44.91069" lon="6.64656">
        <ele>1978.72</ele>
        <time>2015-09-30T13:15:15Z</time>
      </trkpt>
      <trkpt lat="44.91068" lon="6.64657">
        <ele>1978.74</ele>
        <time>2015-09-30T13:15:54Z</time>
      </trkpt>
      <trkpt lat="44.91069" lon="6.64656">
        <ele>1978.41</ele>
        <time>2015-09-30T13:16:32Z</time>
      </trkpt>
      <trkpt lat="44.91071" lon="6.64658">
        <ele>1978.76</ele>
        <time>2015-09-30T13:16:40Z</time>
      </trkpt>
      <trkpt lat="44.91071" lon="6.6466">
        <ele>1978.77</ele>
        <time>2015-09-30T13:16:43Z</time>
      </trkpt>
      <trkpt lat="44.91074" lon="6.64666">
        <ele>1979.17</ele>
        <time>2015-09-30T13:16:51Z</time>
      </trkpt>
      <trkpt lat="44.91073" lon="6.64667">
        <ele>1979.41</ele>
        <time>2015-09-30T13:17:06Z</time>
      </trkpt>
      <trkpt lat="44.91072" lon="6.6467">
        <ele>1979.41</ele>
        <time>2015-09-30T13:17:11Z</time>
      </trkpt>
      <trkpt lat="44.91073" lon="6.64683">
        <ele>1979.18</ele>
        <time>2015-09-30T13:17:17Z</time>
      </trkpt>
      <trkpt lat="44.91073" lon="6.64706">
        <ele>1977.94</ele>
        <time>2015-09-30T13:17:24Z</time>
      </trkpt>
      <trkpt lat="44.91079" lon="6.64728">
        <ele>1974.3</ele>
        <time>2015-09-30T13:17:31Z</time>
      </trkpt>
      <trkpt lat="44.91087" lon="6.64755">
        <ele>1971.23</ele>
        <time>2015-09-30T13:17:37Z</time>
      </trkpt>
      <trkpt lat="44.91096" lon="6.64777">
        <ele>1967.91</ele>
        <time>2015-09-30T13:17:42Z</time>
      </trkpt>
      <trkpt lat="44.91103" lon="6.64792">
        <ele>1964.44</ele>
        <time>2015-09-30T13:17:48Z</time>
      </trkpt>
      <trkpt lat="44.91104" lon="6.64792">
        <ele>1962.19</ele>
        <time>2015-09-30T13:17:52Z</time>
      </trkpt>
      <trkpt lat="44.91109" lon="6.64798">
        <ele>1960.91</ele>
        <time>2015-09-30T13:18:07Z</time>
      </trkpt>
      <trkpt lat="44.91118" lon="6.64814">
        <ele>1959.54</ele>
        <time>2015-09-30T13:18:14Z</time>
      </trkpt>
      <trkpt lat="44.9112" lon="6.64818">
        <ele>1958.17</ele>
        <time>2015-09-30T13:18:19Z</time>
      </trkpt>
      <trkpt lat="44.91126" lon="6.64832">
        <ele>1957.05</ele>
        <time>2015-09-30T13:18:24Z</time>
      </trkpt>
      <trkpt lat="44.9113" lon="6.64852">
        <ele>1955.45</ele>
        <time>2015-09-30T13:18:30Z</time>
      </trkpt>
      <trkpt lat="44.91131" lon="6.64858">
        <ele>1954.7</ele>
        <time>2015-09-30T13:18:32Z</time>
      </trkpt>
      <trkpt lat="44.9113" lon="6.6488">
        <ele>1951.39</ele>
        <time>2015-09-30T13:18:40Z</time>
      </trkpt>
      <trkpt lat="44.9113" lon="6.64886">
        <ele>1949.67</ele>
        <time>2015-09-30T13:18:57Z</time>
      </trkpt>
      <trkpt lat="44.9113" lon="6.64887">
        <ele>1949.29</ele>
        <time>2015-09-30T13:19:09Z</time>
      </trkpt>
      <trkpt lat="44.91135" lon="6.64903">
        <ele>1949.12</ele>
        <time>2015-09-30T13:19:15Z</time>
      </trkpt>
      <trkpt lat="44.91134" lon="6.64918">
        <ele>1948.84</ele>
        <time>2015-09-30T13:19:19Z</time>
      </trkpt>
      <trkpt lat="44.91142" lon="6.6494">
        <ele>1946.86</ele>
        <time>2015-09-30T13:19:24Z</time>
      </trkpt>
      <trkpt lat="44.91146" lon="6.64955">
        <ele>1943.86</ele>
        <time>2015-09-30T13:19:28Z</time>
      </trkpt>
      <trkpt lat="44.91147" lon="6.64958">
        <ele>1943.86</ele>
        <time>2015-09-30T13:19:29Z</time>
      </trkpt>
      <trkpt lat="44.9115" lon="6.64971">
        <ele>1940.52</ele>
        <time>2015-09-30T13:19:33Z</time>
      </trkpt>
      <trkpt lat="44.9116" lon="6.64991">
        <ele>1937.63</ele>
        <time>2015-09-30T13:19:38Z</time>
      </trkpt>
      <trkpt lat="44.91169" lon="6.65011">
        <ele>1934</ele>
        <time>2015-09-30T13:19:43Z</time>
      </trkpt>
      <trkpt lat="44.91178" lon="6.6501">
        <ele>1930.5</ele>
        <time>2015-09-30T13:19:49Z</time>
      </trkpt>
      <trkpt lat="44.91183" lon="6.65009">
        <ele>1929.37</ele>
        <time>2015-09-30T13:19:51Z</time>
      </trkpt>
      <trkpt lat="44.91194" lon="6.65018">
        <ele>1926.02</ele>
        <time>2015-09-30T13:19:57Z</time>
      </trkpt>
      <trkpt lat="44.91208" lon="6.65032">
        <ele>1922.88</ele>
        <time>2015-09-30T13:20:02Z</time>
      </trkpt>
      <trkpt lat="44.91215" lon="6.65037">
        <ele>1921.65</ele>
        <time>2015-09-30T13:20:04Z</time>
      </trkpt>
      <trkpt lat="44.91228" lon="6.65045">
        <ele>1919.64</ele>
        <time>2015-09-30T13:20:07Z</time>
      </trkpt>
      <trkpt lat="44.91243" lon="6.65061">
        <ele>1914.95</ele>
        <time>2015-09-30T13:20:12Z</time>
      </trkpt>
      <trkpt lat="44.91254" lon="6.65073">
        <ele>1911.78</ele>
        <time>2015-09-30T13:20:16Z</time>
      </trkpt>
      <trkpt lat="44.91263" lon="6.65088">
        <ele>1908.37</ele>
        <time>2015-09-30T13:20:21Z</time>
      </trkpt>
      <trkpt lat="44.91275" lon="6.65108">
        <ele>1903.98</ele>
        <time>2015-09-30T13:20:26Z</time>
      </trkpt>
      <trkpt lat="44.91282" lon="6.65123">
        <ele>1900.78</ele>
        <time>2015-09-30T13:20:30Z</time>
      </trkpt>
      <trkpt lat="44.91294" lon="6.65139">
        <ele>1897.14</ele>
        <time>2015-09-30T13:20:35Z</time>
      </trkpt>
      <trkpt lat="44.91305" lon="6.65157">
        <ele>1893.67</ele>
        <time>2015-09-30T13:20:40Z</time>
      </trkpt>
      <trkpt lat="44.91316" lon="6.65175">
        <ele>1890.16</ele>
        <time>2015-09-30T13:20:45Z</time>
      </trkpt>
      <trkpt lat="44.91324" lon="6.65194">
        <ele>1885.86</ele>
        <time>2015-09-30T13:20:50Z</time>
      </trkpt>
      <trkpt lat="44.91333" lon="6.65216">
        <ele>1882.55</ele>
        <time>2015-09-30T13:20:55Z</time>
      </trkpt>
      <trkpt lat="44.91339" lon="6.65237">
        <ele>1879.14</ele>
        <time>2015-09-30T13:21:00Z</time>
      </trkpt>
      <trkpt lat="44.91346" lon="6.65255">
        <ele>1875.64</ele>
        <time>2015-09-30T13:21:05Z</time>
      </trkpt>
      <trkpt lat="44.91349" lon="6.65276">
        <ele>1872.54</ele>
        <time>2015-09-30T13:21:10Z</time>
      </trkpt>
      <trkpt lat="44.91353" lon="6.65295">
        <ele>1868.63</ele>
        <time>2015-09-30T13:21:14Z</time>
      </trkpt>
      <trkpt lat="44.91354" lon="6.653">
        <ele>1868.63</ele>
        <time>2015-09-30T13:21:15Z</time>
      </trkpt>
      <trkpt lat="44.91357" lon="6.65314">
        <ele>1865.93</ele>
        <time>2015-09-30T13:21:18Z</time>
      </trkpt>
      <trkpt lat="44.91352" lon="6.65316">
        <ele>1862.69</ele>
        <time>2015-09-30T13:21:23Z</time>
      </trkpt>
      <trkpt lat="44.9134" lon="6.65313">
        <ele>1859.52</ele>
        <time>2015-09-30T13:21:30Z</time>
      </trkpt>
      <trkpt lat="44.91327" lon="6.65311">
        <ele>1857.36</ele>
        <time>2015-09-30T13:21:35Z</time>
      </trkpt>
      <trkpt lat="44.9132" lon="6.65305">
        <ele>1855.65</ele>
        <time>2015-09-30T13:21:39Z</time>
      </trkpt>
      <trkpt lat="44.91308" lon="6.65295">
        <ele>1852.15</ele>
        <time>2015-09-30T13:21:45Z</time>
      </trkpt>
      <trkpt lat="44.91296" lon="6.65295">
        <ele>1849.16</ele>
        <time>2015-09-30T13:21:51Z</time>
      </trkpt>
      <trkpt lat="44.9128" lon="6.65288">
        <ele>1845.61</ele>
        <time>2015-09-30T13:21:59Z</time>
      </trkpt>
      <trkpt lat="44.91272" lon="6.65283">
        <ele>1843.8</ele>
        <time>2015-09-30T13:22:03Z</time>
      </trkpt>
      <trkpt lat="44.91257" lon="6.65275">
        <ele>1840.79</ele>
        <time>2015-09-30T13:22:09Z</time>
      </trkpt>
      <trkpt lat="44.91245" lon="6.6527">
        <ele>1837.52</ele>
        <time>2015-09-30T13:22:14Z</time>
      </trkpt>
      <trkpt lat="44.91233" lon="6.6527">
        <ele>1834.04</ele>
        <time>2015-09-30T13:22:20Z</time>
      </trkpt>
      <trkpt lat="44.91226" lon="6.6527">
        <ele>1832.24</ele>
        <time>2015-09-30T13:22:24Z</time>
      </trkpt>
      <trkpt lat="44.91217" lon="6.65267">
        <ele>1830.25</ele>
        <time>2015-09-30T13:22:29Z</time>
      </trkpt>
      <trkpt lat="44.91198" lon="6.65267">
        <ele>1826.68</ele>
        <time>2015-09-30T13:22:36Z</time>
      </trkpt>
      <trkpt lat="44.91184" lon="6.6527">
        <ele>1823.28</ele>
        <time>2015-09-30T13:22:42Z</time>
      </trkpt>
      <trkpt lat="44.91166" lon="6.65272">
        <ele>1819.88</ele>
        <time>2015-09-30T13:22:49Z</time>
      </trkpt>
      <trkpt lat="44.91153" lon="6.65273">
        <ele>1817.54</ele>
        <time>2015-09-30T13:22:54Z</time>
      </trkpt>
      <trkpt lat="44.91142" lon="6.6528">
        <ele>1814.12</ele>
        <time>2015-09-30T13:23:00Z</time>
      </trkpt>
      <trkpt lat="44.9114" lon="6.65281">
        <ele>1813.59</ele>
        <time>2015-09-30T13:23:01Z</time>
      </trkpt>
      <trkpt lat="44.91121" lon="6.65278">
        <ele>1809.94</ele>
        <time>2015-09-30T13:23:08Z</time>
      </trkpt>
      <trkpt lat="44.91101" lon="6.65268">
        <ele>1806.72</ele>
        <time>2015-09-30T13:23:14Z</time>
      </trkpt>
      <trkpt lat="44.91085" lon="6.65261">
        <ele>1803.5</ele>
        <time>2015-09-30T13:23:19Z</time>
      </trkpt>
      <trkpt lat="44.91074" lon="6.65252">
        <ele>1800.14</ele>
        <time>2015-09-30T13:23:23Z</time>
      </trkpt>
      <trkpt lat="44.91061" lon="6.65236">
        <ele>1797.11</ele>
        <time>2015-09-30T13:23:28Z</time>
      </trkpt>
      <trkpt lat="44.91047" lon="6.65221">
        <ele>1793.62</ele>
        <time>2015-09-30T13:23:33Z</time>
      </trkpt>
      <trkpt lat="44.91037" lon="6.65207">
        <ele>1790.15</ele>
        <time>2015-09-30T13:23:38Z</time>
      </trkpt>
      <trkpt lat="44.91031" lon="6.65192">
        <ele>1787.61</ele>
        <time>2015-09-30T13:23:42Z</time>
      </trkpt>
      <trkpt lat="44.91028" lon="6.65191">
        <ele>1785.75</ele>
        <time>2015-09-30T13:23:45Z</time>
      </trkpt>
      <trkpt lat="44.91027" lon="6.65197">
        <ele>1783.03</ele>
        <time>2015-09-30T13:23:50Z</time>
      </trkpt>
      <trkpt lat="44.91026" lon="6.65197">
        <ele>1780.71</ele>
        <time>2015-09-30T13:24:13Z</time>
      </trkpt>
      <trkpt lat="44.91026" lon="6.65198">
        <ele>1780.84</ele>
        <time>2015-09-30T13:24:28Z</time>
      </trkpt>
      <trkpt lat="44.91027" lon="6.65208">
        <ele>1780.69</ele>
        <time>2015-09-30T13:24:32Z</time>
      </trkpt>
      <trkpt lat="44.91023" lon="6.65228">
        <ele>1779.05</ele>
        <time>2015-09-30T13:24:38Z</time>
      </trkpt>
      <trkpt lat="44.91025" lon="6.65243">
        <ele>1776.36</ele>
        <time>2015-09-30T13:24:43Z</time>
      </trkpt>
      <trkpt lat="44.91031" lon="6.65275">
        <ele>1772.4</ele>
        <time>2015-09-30T13:24:50Z</time>
      </trkpt>
      <trkpt lat="44.91034" lon="6.65291">
        <ele>1770.56</ele>
        <time>2015-09-30T13:24:53Z</time>
      </trkpt>
      <trkpt lat="44.91044" lon="6.65318">
        <ele>1766.49</ele>
        <time>2015-09-30T13:24:58Z</time>
      </trkpt>
      <trkpt lat="44.91047" lon="6.65339">
        <ele>1762.08</ele>
        <time>2015-09-30T13:25:02Z</time>
      </trkpt>
      <trkpt lat="44.91048" lon="6.65345">
        <ele>1761.11</ele>
        <time>2015-09-30T13:25:03Z</time>
      </trkpt>
      <trkpt lat="44.91054" lon="6.65375">
        <ele>1756.56</ele>
        <time>2015-09-30T13:25:08Z</time>
      </trkpt>
      <trkpt lat="44.91061" lon="6.65405">
        <ele>1751.87</ele>
        <time>2015-09-30T13:25:13Z</time>
      </trkpt>
      <trkpt lat="44.91063" lon="6.6541">
        <ele>1750.89</ele>
        <time>2015-09-30T13:25:14Z</time>
      </trkpt>
      <trkpt lat="44.91068" lon="6.65437">
        <ele>1746.49</ele>
        <time>2015-09-30T13:25:19Z</time>
      </trkpt>
      <trkpt lat="44.91067" lon="6.65458">
        <ele>1743.04</ele>
        <time>2015-09-30T13:25:23Z</time>
      </trkpt>
      <trkpt lat="44.91064" lon="6.65471">
        <ele>1739.75</ele>
        <time>2015-09-30T13:25:26Z</time>
      </trkpt>
      <trkpt lat="44.91064" lon="6.65475">
        <ele>1739.75</ele>
        <time>2015-09-30T13:25:27Z</time>
      </trkpt>
      <trkpt lat="44.91068" lon="6.6549">
        <ele>1736.11</ele>
        <time>2015-09-30T13:25:31Z</time>
      </trkpt>
      <trkpt lat="44.91063" lon="6.6549">
        <ele>1734.29</ele>
        <time>2015-09-30T13:25:34Z</time>
      </trkpt>
      <trkpt lat="44.91052" lon="6.65481">
        <ele>1731.74</ele>
        <time>2015-09-30T13:25:39Z</time>
      </trkpt>
      <trkpt lat="44.9104" lon="6.65457">
        <ele>1727.91</ele>
        <time>2015-09-30T13:25:46Z</time>
      </trkpt>
      <trkpt lat="44.91026" lon="6.65445">
        <ele>1724.26</ele>
        <time>2015-09-30T13:25:51Z</time>
      </trkpt>
      <trkpt lat="44.91014" lon="6.65433">
        <ele>1720.8</ele>
        <time>2015-09-30T13:25:55Z</time>
      </trkpt>
      <trkpt lat="44.91011" lon="6.6543">
        <ele>1720.13</ele>
        <time>2015-09-30T13:25:56Z</time>
      </trkpt>
      <trkpt lat="44.90997" lon="6.65419">
        <ele>1716.62</ele>
        <time>2015-09-30T13:26:01Z</time>
      </trkpt>
      <trkpt lat="44.90995" lon="6.65416">
        <ele>1715.85</ele>
        <time>2015-09-30T13:26:02Z</time>
      </trkpt>
      <trkpt lat="44.9098" lon="6.65393">
        <ele>1711.49</ele>
        <time>2015-09-30T13:26:08Z</time>
      </trkpt>
      <trkpt lat="44.90966" lon="6.65373">
        <ele>1707.99</ele>
        <time>2015-09-30T13:26:13Z</time>
      </trkpt>
      <trkpt lat="44.90954" lon="6.65361">
        <ele>1704.67</ele>
        <time>2015-09-30T13:26:17Z</time>
      </trkpt>
      <trkpt lat="44.90945" lon="6.6535">
        <ele>1701.37</ele>
        <time>2015-09-30T13:26:20Z</time>
      </trkpt>
      <trkpt lat="44.90934" lon="6.65335">
        <ele>1698.27</ele>
        <time>2015-09-30T13:26:24Z</time>
      </trkpt>
      <trkpt lat="44.90932" lon="6.65331">
        <ele>1697.53</ele>
        <time>2015-09-30T13:26:25Z</time>
      </trkpt>
      <trkpt lat="44.90929" lon="6.65327">
        <ele>1693.5</ele>
        <time>2015-09-30T13:26:31Z</time>
      </trkpt>
      <trkpt lat="44.90928" lon="6.65329">
        <ele>1691.08</ele>
        <time>2015-09-30T13:26:39Z</time>
      </trkpt>
      <trkpt lat="44.90929" lon="6.65334">
        <ele>1690.23</ele>
        <time>2015-09-30T13:26:43Z</time>
      </trkpt>
      <trkpt lat="44.90932" lon="6.65355">
        <ele>1688.4</ele>
        <time>2015-09-30T13:26:50Z</time>
      </trkpt>
      <trkpt lat="44.90934" lon="6.65376">
        <ele>1685.82</ele>
        <time>2015-09-30T13:26:56Z</time>
      </trkpt>
      <trkpt lat="44.90928" lon="6.65369">
        <ele>1682.93</ele>
        <time>2015-09-30T13:27:01Z</time>
      </trkpt>
      <trkpt lat="44.90915" lon="6.65351">
        <ele>1678.39</ele>
        <time>2015-09-30T13:27:08Z</time>
      </trkpt>
      <trkpt lat="44.90905" lon="6.65338">
        <ele>1675.22</ele>
        <time>2015-09-30T13:27:13Z</time>
      </trkpt>
      <trkpt lat="44.90897" lon="6.65322">
        <ele>1671.75</ele>
        <time>2015-09-30T13:27:18Z</time>
      </trkpt>
      <trkpt lat="44.90889" lon="6.65308">
        <ele>1668.49</ele>
        <time>2015-09-30T13:27:23Z</time>
      </trkpt>
      <trkpt lat="44.90879" lon="6.65291">
        <ele>1665.26</ele>
        <time>2015-09-30T13:27:28Z</time>
      </trkpt>
      <trkpt lat="44.90876" lon="6.65287">
        <ele>1664.13</ele>
        <time>2015-09-30T13:27:30Z</time>
      </trkpt>
      <trkpt lat="44.90878" lon="6.65304">
        <ele>1660.31</ele>
        <time>2015-09-30T13:27:35Z</time>
      </trkpt>
      <trkpt lat="44.90882" lon="6.65329">
        <ele>1656.12</ele>
        <time>2015-09-30T13:27:42Z</time>
      </trkpt>
      <trkpt lat="44.90883" lon="6.65349">
        <ele>1652.66</ele>
        <time>2015-09-30T13:27:48Z</time>
      </trkpt>
      <trkpt lat="44.90881" lon="6.65351">
        <ele>1650</ele>
        <time>2015-09-30T13:27:53Z</time>
      </trkpt>
      <trkpt lat="44.90871" lon="6.65333">
        <ele>1647.34</ele>
        <time>2015-09-30T13:28:01Z</time>
      </trkpt>
      <trkpt lat="44.90863" lon="6.6532">
        <ele>1645.14</ele>
        <time>2015-09-30T13:28:06Z</time>
      </trkpt>
      <trkpt lat="44.90853" lon="6.65305">
        <ele>1642.4</ele>
        <time>2015-09-30T13:28:12Z</time>
      </trkpt>
      <trkpt lat="44.90844" lon="6.65295">
        <ele>1638.88</ele>
        <time>2015-09-30T13:28:18Z</time>
      </trkpt>
      <trkpt lat="44.90843" lon="6.65294">
        <ele>1638.26</ele>
        <time>2015-09-30T13:28:19Z</time>
      </trkpt>
      <trkpt lat="44.90841" lon="6.65304">
        <ele>1635.19</ele>
        <time>2015-09-30T13:28:24Z</time>
      </trkpt>
      <trkpt lat="44.90843" lon="6.6531">
        <ele>1634.16</ele>
        <time>2015-09-30T13:28:26Z</time>
      </trkpt>
      <trkpt lat="44.90845" lon="6.65332">
        <ele>1631.04</ele>
        <time>2015-09-30T13:28:33Z</time>
      </trkpt>
      <trkpt lat="44.90845" lon="6.65353">
        <ele>1627.74</ele>
        <time>2015-09-30T13:28:38Z</time>
      </trkpt>
      <trkpt lat="44.90853" lon="6.65368">
        <ele>1624.44</ele>
        <time>2015-09-30T13:28:42Z</time>
      </trkpt>
      <trkpt lat="44.90855" lon="6.65371">
        <ele>1622.65</ele>
        <time>2015-09-30T13:28:44Z</time>
      </trkpt>
      <trkpt lat="44.90856" lon="6.65389">
        <ele>1618.38</ele>
        <time>2015-09-30T13:28:50Z</time>
      </trkpt>
      <trkpt lat="44.90856" lon="6.654">
        <ele>1616.82</ele>
        <time>2015-09-30T13:28:53Z</time>
      </trkpt>
      <trkpt lat="44.90855" lon="6.6542">
        <ele>1613.7</ele>
        <time>2015-09-30T13:28:58Z</time>
      </trkpt>
      <trkpt lat="44.90855" lon="6.65446">
        <ele>1609.99</ele>
        <time>2015-09-30T13:29:04Z</time>
      </trkpt>
      <trkpt lat="44.90856" lon="6.65451">
        <ele>1608.45</ele>
        <time>2015-09-30T13:29:06Z</time>
      </trkpt>
      <trkpt lat="44.90861" lon="6.6548">
        <ele>1604.39</ele>
        <time>2015-09-30T13:29:12Z</time>
      </trkpt>
      <trkpt lat="44.90866" lon="6.65494">
        <ele>1601.65</ele>
        <time>2015-09-30T13:29:15Z</time>
      </trkpt>
      <trkpt lat="44.90862" lon="6.655">
        <ele>1599.03</ele>
        <time>2015-09-30T13:29:19Z</time>
      </trkpt>
      <trkpt lat="44.90848" lon="6.65487">
        <ele>1595.26</ele>
        <time>2015-09-30T13:29:25Z</time>
      </trkpt>
      <trkpt lat="44.90837" lon="6.65477">
        <ele>1592.26</ele>
        <time>2015-09-30T13:29:30Z</time>
      </trkpt>
      <trkpt lat="44.90827" lon="6.65462">
        <ele>1589.07</ele>
        <time>2015-09-30T13:29:35Z</time>
      </trkpt>
      <trkpt lat="44.90819" lon="6.65444">
        <ele>1585.69</ele>
        <time>2015-09-30T13:29:39Z</time>
      </trkpt>
      <trkpt lat="44.90816" lon="6.65425">
        <ele>1583.23</ele>
        <time>2015-09-30T13:29:43Z</time>
      </trkpt>
      <trkpt lat="44.90801" lon="6.65416">
        <ele>1579.93</ele>
        <time>2015-09-30T13:29:49Z</time>
      </trkpt>
      <trkpt lat="44.90785" lon="6.65407">
        <ele>1577.47</ele>
        <time>2015-09-30T13:29:53Z</time>
      </trkpt>
      <trkpt lat="44.90779" lon="6.65395">
        <ele>1575.28</ele>
        <time>2015-09-30T13:29:58Z</time>
      </trkpt>
      <trkpt lat="44.90773" lon="6.65372">
        <ele>1573.7</ele>
        <time>2015-09-30T13:30:04Z</time>
      </trkpt>
      <trkpt lat="44.90773" lon="6.65352">
        <ele>1572.39</ele>
        <time>2015-09-30T13:30:09Z</time>
      </trkpt>
      <trkpt lat="44.90766" lon="6.65331">
        <ele>1570.55</ele>
        <time>2015-09-30T13:30:15Z</time>
      </trkpt>
      <trkpt lat="44.90757" lon="6.65308">
        <ele>1568.06</ele>
        <time>2015-09-30T13:30:21Z</time>
      </trkpt>
      <trkpt lat="44.90757" lon="6.65303">
        <ele>1567.6</ele>
        <time>2015-09-30T13:30:22Z</time>
      </trkpt>
      <trkpt lat="44.90755" lon="6.65272">
        <ele>1564.15</ele>
        <time>2015-09-30T13:30:28Z</time>
      </trkpt>
      <trkpt lat="44.90752" lon="6.6527">
        <ele>1563.3</ele>
        <time>2015-09-30T13:30:30Z</time>
      </trkpt>
      <trkpt lat="44.90732" lon="6.65268">
        <ele>1559.24</ele>
        <time>2015-09-30T13:30:37Z</time>
      </trkpt>
      <trkpt lat="44.90719" lon="6.65271">
        <ele>1555.83</ele>
        <time>2015-09-30T13:30:41Z</time>
      </trkpt>
      <trkpt lat="44.90707" lon="6.65269">
        <ele>1552.23</ele>
        <time>2015-09-30T13:30:45Z</time>
      </trkpt>
      <trkpt lat="44.90696" lon="6.65258">
        <ele>1549.09</ele>
        <time>2015-09-30T13:30:49Z</time>
      </trkpt>
      <trkpt lat="44.90689" lon="6.6525">
        <ele>1546.44</ele>
        <time>2015-09-30T13:30:53Z</time>
      </trkpt>
      <trkpt lat="44.90688" lon="6.65248">
        <ele>1545.33</ele>
        <time>2015-09-30T13:30:54Z</time>
      </trkpt>
      <trkpt lat="44.90676" lon="6.65245">
        <ele>1542.33</ele>
        <time>2015-09-30T13:30:59Z</time>
      </trkpt>
      <trkpt lat="44.90662" lon="6.6524">
        <ele>1538.1</ele>
        <time>2015-09-30T13:31:06Z</time>
      </trkpt>
      <trkpt lat="44.90652" lon="6.65235">
        <ele>1535.1</ele>
        <time>2015-09-30T13:31:11Z</time>
      </trkpt>
      <trkpt lat="44.9064" lon="6.65227">
        <ele>1531.88</ele>
        <time>2015-09-30T13:31:17Z</time>
      </trkpt>
      <trkpt lat="44.90629" lon="6.6522">
        <ele>1528.47</ele>
        <time>2015-09-30T13:31:22Z</time>
      </trkpt>
      <trkpt lat="44.90615" lon="6.65211">
        <ele>1525.36</ele>
        <time>2015-09-30T13:31:28Z</time>
      </trkpt>
      <trkpt lat="44.90601" lon="6.65202">
        <ele>1522.14</ele>
        <time>2015-09-30T13:31:35Z</time>
      </trkpt>
      <trkpt lat="44.90591" lon="6.65192">
        <ele>1519.4</ele>
        <time>2015-09-30T13:31:41Z</time>
      </trkpt>
      <trkpt lat="44.90583" lon="6.65183">
        <ele>1516.91</ele>
        <time>2015-09-30T13:31:46Z</time>
      </trkpt>
      <trkpt lat="44.90577" lon="6.65179">
        <ele>1514.16</ele>
        <time>2015-09-30T13:31:53Z</time>
      </trkpt>
      <trkpt lat="44.90573" lon="6.65171">
        <ele>1513.03</ele>
        <time>2015-09-30T13:31:59Z</time>
      </trkpt>
      <trkpt lat="44.90566" lon="6.65157">
        <ele>1511.66</ele>
        <time>2015-09-30T13:32:05Z</time>
      </trkpt>
      <trkpt lat="44.90558" lon="6.6514">
        <ele>1508.63</ele>
        <time>2015-09-30T13:32:11Z</time>
      </trkpt>
      <trkpt lat="44.90556" lon="6.65135">
        <ele>1506.88</ele>
        <time>2015-09-30T13:32:15Z</time>
      </trkpt>
      <trkpt lat="44.90555" lon="6.65132">
        <ele>1504.11</ele>
        <time>2015-09-30T13:32:31Z</time>
      </trkpt>
      <trkpt lat="44.90554" lon="6.65134">
        <ele>1503.66</ele>
        <time>2015-09-30T13:32:37Z</time>
      </trkpt>
      <trkpt lat="44.90548" lon="6.65142">
        <ele>1502.5</ele>
        <time>2015-09-30T13:32:47Z</time>
      </trkpt>
      <trkpt lat="44.90546" lon="6.65143">
        <ele>1500.96</ele>
        <time>2015-09-30T13:32:58Z</time>
      </trkpt>
      <trkpt lat="44.90545" lon="6.65144">
        <ele>1500.58</ele>
        <time>2015-09-30T13:33:13Z</time>
      </trkpt>
      <trkpt lat="44.90544" lon="6.65144">
        <ele>1500.62</ele>
        <time>2015-09-30T13:33:35Z</time>
      </trkpt>
      <trkpt lat="44.90544" lon="6.65145">
        <ele>1500.71</ele>
        <time>2015-09-30T13:34:03Z</time>
      </trkpt>
      <trkpt lat="44.90545" lon="6.65147">
        <ele>1500.58</ele>
        <time>2015-09-30T13:34:09Z</time>
      </trkpt>
      <trkpt lat="44.90552" lon="6.65166">
        <ele>1499.68</ele>
        <time>2015-09-30T13:34:16Z</time>
      </trkpt>
      <trkpt lat="44.90559" lon="6.65185">
        <ele>1498.94</ele>
        <time>2015-09-30T13:34:24Z</time>
      </trkpt>
      <trkpt lat="44.90564" lon="6.65194">
        <ele>1497.06</ele>
        <time>2015-09-30T13:34:31Z</time>
      </trkpt>
      <trkpt lat="44.9057" lon="6.65203">
        <ele>1497.57</ele>
        <time>2015-09-30T13:34:41Z</time>
      </trkpt>
      <trkpt lat="44.90575" lon="6.65211">
        <ele>1498.73</ele>
        <time>2015-09-30T13:34:50Z</time>
      </trkpt>
      <trkpt lat="44.9058" lon="6.65218">
        <ele>1499.79</ele>
        <time>2015-09-30T13:34:59Z</time>
      </trkpt>
      <trkpt lat="44.90587" lon="6.65223">
        <ele>1500.35</ele>
        <time>2015-09-30T13:35:08Z</time>
      </trkpt>
      <trkpt lat="44.90591" lon="6.65226">
        <ele>1501.34</ele>
        <time>2015-09-30T13:35:15Z</time>
      </trkpt>
      <trkpt lat="44.90597" lon="6.65232">
        <ele>1502.34</ele>
        <time>2015-09-30T13:35:25Z</time>
      </trkpt>
      <trkpt lat="44.90604" lon="6.65236">
        <ele>1503.87</ele>
        <time>2015-09-30T13:35:37Z</time>
      </trkpt>
      <trkpt lat="44.90611" lon="6.65241">
        <ele>1505.56</ele>
        <time>2015-09-30T13:35:49Z</time>
      </trkpt>
      <trkpt lat="44.90616" lon="6.65248">
        <ele>1507.3</ele>
        <time>2015-09-30T13:36:02Z</time>
      </trkpt>
      <trkpt lat="44.90623" lon="6.65254">
        <ele>1508.85</ele>
        <time>2015-09-30T13:36:15Z</time>
      </trkpt>
      <trkpt lat="44.90629" lon="6.65262">
        <ele>1509.86</ele>
        <time>2015-09-30T13:36:23Z</time>
      </trkpt>
      <trkpt lat="44.90634" lon="6.65264">
        <ele>1510.32</ele>
        <time>2015-09-30T13:36:30Z</time>
      </trkpt>
      <trkpt lat="44.90642" lon="6.65265">
        <ele>1511.86</ele>
        <time>2015-09-30T13:36:41Z</time>
      </trkpt>
      <trkpt lat="44.9065" lon="6.65269">
        <ele>1512.8</ele>
        <time>2015-09-30T13:36:49Z</time>
      </trkpt>
      <trkpt lat="44.90659" lon="6.65274">
        <ele>1513.97</ele>
        <time>2015-09-30T13:36:59Z</time>
      </trkpt>
      <trkpt lat="44.90664" lon="6.65279">
        <ele>1515.22</ele>
        <time>2015-09-30T13:37:08Z</time>
      </trkpt>
      <trkpt lat="44.90667" lon="6.6529">
        <ele>1516.32</ele>
        <time>2015-09-30T13:37:17Z</time>
      </trkpt>
      <trkpt lat="44.90671" lon="6.65298">
        <ele>1516.55</ele>
        <time>2015-09-30T13:37:25Z</time>
      </trkpt>
      <trkpt lat="44.90672" lon="6.653">
        <ele>1516.89</ele>
        <time>2015-09-30T13:37:32Z</time>
      </trkpt>
      <trkpt lat="44.90674" lon="6.65301">
        <ele>1516.96</ele>
        <time>2015-09-30T13:37:34Z</time>
      </trkpt>
      <trkpt lat="44.90687" lon="6.65301">
        <ele>1518.23</ele>
        <time>2015-09-30T13:37:45Z</time>
      </trkpt>
      <trkpt lat="44.90695" lon="6.65304">
        <ele>1519.82</ele>
        <time>2015-09-30T13:37:54Z</time>
      </trkpt>
      <trkpt lat="44.90703" lon="6.65306">
        <ele>1521.37</ele>
        <time>2015-09-30T13:38:03Z</time>
      </trkpt>
      <trkpt lat="44.90706" lon="6.65307">
        <ele>1521.7</ele>
        <time>2015-09-30T13:38:06Z</time>
      </trkpt>
      <trkpt lat="44.90709" lon="6.65318">
        <ele>1522.05</ele>
        <time>2015-09-30T13:38:15Z</time>
      </trkpt>
      <trkpt lat="44.90709" lon="6.65319">
        <ele>1522.13</ele>
        <time>2015-09-30T13:38:16Z</time>
      </trkpt>
      <trkpt lat="44.90712" lon="6.65336">
        <ele>1522.96</ele>
        <time>2015-09-30T13:38:26Z</time>
      </trkpt>
      <trkpt lat="44.90714" lon="6.65353">
        <ele>1522.75</ele>
        <time>2015-09-30T13:38:31Z</time>
      </trkpt>
      <trkpt lat="44.90714" lon="6.65374">
        <ele>1522.29</ele>
        <time>2015-09-30T13:38:36Z</time>
      </trkpt>
      <trkpt lat="44.90716" lon="6.65386">
        <ele>1521.89</ele>
        <time>2015-09-30T13:38:41Z</time>
      </trkpt>
      <trkpt lat="44.9072" lon="6.65399">
        <ele>1521.77</ele>
        <time>2015-09-30T13:38:47Z</time>
      </trkpt>
      <trkpt lat="44.90722" lon="6.65402">
        <ele>1521.84</ele>
        <time>2015-09-30T13:38:49Z</time>
      </trkpt>
      <trkpt lat="44.90724" lon="6.65408">
        <ele>1521.94</ele>
        <time>2015-09-30T13:38:51Z</time>
      </trkpt>
      <trkpt lat="44.90735" lon="6.65427">
        <ele>1522.4</ele>
        <time>2015-09-30T13:38:59Z</time>
      </trkpt>
      <trkpt lat="44.90743" lon="6.65446">
        <ele>1523.35</ele>
        <time>2015-09-30T13:39:07Z</time>
      </trkpt>
      <trkpt lat="44.90753" lon="6.65457">
        <ele>1524.67</ele>
        <time>2015-09-30T13:39:14Z</time>
      </trkpt>
      <trkpt lat="44.90756" lon="6.6546">
        <ele>1525.32</ele>
        <time>2015-09-30T13:39:17Z</time>
      </trkpt>
      <trkpt lat="44.90759" lon="6.6547">
        <ele>1526.34</ele>
        <time>2015-09-30T13:39:23Z</time>
      </trkpt>
      <trkpt lat="44.90759" lon="6.65485">
        <ele>1526.73</ele>
        <time>2015-09-30T13:39:30Z</time>
      </trkpt>
      <trkpt lat="44.90763" lon="6.65504">
        <ele>1526.77</ele>
        <time>2015-09-30T13:39:37Z</time>
      </trkpt>
      <trkpt lat="44.90765" lon="6.65523">
        <ele>1526.94</ele>
        <time>2015-09-30T13:39:43Z</time>
      </trkpt>
      <trkpt lat="44.90765" lon="6.65541">
        <ele>1527.53</ele>
        <time>2015-09-30T13:39:50Z</time>
      </trkpt>
      <trkpt lat="44.90768" lon="6.65557">
        <ele>1528.01</ele>
        <time>2015-09-30T13:39:57Z</time>
      </trkpt>
      <trkpt lat="44.90773" lon="6.65571">
        <ele>1527.99</ele>
        <time>2015-09-30T13:40:03Z</time>
      </trkpt>
      <trkpt lat="44.90781" lon="6.65584">
        <ele>1528.03</ele>
        <time>2015-09-30T13:40:09Z</time>
      </trkpt>
      <trkpt lat="44.90793" lon="6.65599">
        <ele>1528.59</ele>
        <time>2015-09-30T13:40:18Z</time>
      </trkpt>
      <trkpt lat="44.90805" lon="6.65613">
        <ele>1529.18</ele>
        <time>2015-09-30T13:40:26Z</time>
      </trkpt>
      <trkpt lat="44.90813" lon="6.65621">
        <ele>1529.67</ele>
        <time>2015-09-30T13:40:32Z</time>
      </trkpt>
      <trkpt lat="44.90822" lon="6.65631">
        <ele>1530.12</ele>
        <time>2015-09-30T13:40:39Z</time>
      </trkpt>
      <trkpt lat="44.90833" lon="6.65644">
        <ele>1530.46</ele>
        <time>2015-09-30T13:40:46Z</time>
      </trkpt>
      <trkpt lat="44.90846" lon="6.65659">
        <ele>1531.34</ele>
        <time>2015-09-30T13:40:55Z</time>
      </trkpt>
      <trkpt lat="44.90856" lon="6.65674">
        <ele>1531.71</ele>
        <time>2015-09-30T13:41:03Z</time>
      </trkpt>
      <trkpt lat="44.90863" lon="6.65685">
        <ele>1532.04</ele>
        <time>2015-09-30T13:41:08Z</time>
      </trkpt>
      <trkpt lat="44.90875" lon="6.65702">
        <ele>1532.24</ele>
        <time>2015-09-30T13:41:14Z</time>
      </trkpt>
      <trkpt lat="44.90886" lon="6.65717">
        <ele>1531.88</ele>
        <time>2015-09-30T13:41:21Z</time>
      </trkpt>
      <trkpt lat="44.90897" lon="6.65731">
        <ele>1531.8</ele>
        <time>2015-09-30T13:41:28Z</time>
      </trkpt>
      <trkpt lat="44.9091" lon="6.65749">
        <ele>1532.29</ele>
        <time>2015-09-30T13:41:36Z</time>
      </trkpt>
      <trkpt lat="44.90919" lon="6.65766">
        <ele>1532.7</ele>
        <time>2015-09-30T13:41:43Z</time>
      </trkpt>
      <trkpt lat="44.90928" lon="6.65782">
        <ele>1532.99</ele>
        <time>2015-09-30T13:41:50Z</time>
      </trkpt>
      <trkpt lat="44.90933" lon="6.65798">
        <ele>1533.69</ele>
        <time>2015-09-30T13:41:57Z</time>
      </trkpt>
      <trkpt lat="44.90935" lon="6.65802">
        <ele>1533.85</ele>
        <time>2015-09-30T13:41:59Z</time>
      </trkpt>
      <trkpt lat="44.90938" lon="6.65809">
        <ele>1534.31</ele>
        <time>2015-09-30T13:42:04Z</time>
      </trkpt>
      <trkpt lat="44.90939" lon="6.65815">
        <ele>1534.56</ele>
        <time>2015-09-30T13:42:06Z</time>
      </trkpt>
      <trkpt lat="44.90947" lon="6.65832">
        <ele>1534.78</ele>
        <time>2015-09-30T13:42:12Z</time>
      </trkpt>
      <trkpt lat="44.90949" lon="6.65836">
        <ele>1534.76</ele>
        <time>2015-09-30T13:42:14Z</time>
      </trkpt>
      <trkpt lat="44.90956" lon="6.65854">
        <ele>1534.74</ele>
        <time>2015-09-30T13:42:22Z</time>
      </trkpt>
      <trkpt lat="44.90962" lon="6.65876">
        <ele>1534.32</ele>
        <time>2015-09-30T13:42:29Z</time>
      </trkpt>
      <trkpt lat="44.90966" lon="6.65879">
        <ele>1533.95</ele>
        <time>2015-09-30T13:42:32Z</time>
      </trkpt>
      <trkpt lat="44.90978" lon="6.65889">
        <ele>1533.8</ele>
        <time>2015-09-30T13:42:40Z</time>
      </trkpt>
      <trkpt lat="44.90991" lon="6.65891">
        <ele>1534.06</ele>
        <time>2015-09-30T13:42:45Z</time>
      </trkpt>
      <trkpt lat="44.91008" lon="6.65896">
        <ele>1533.06</ele>
        <time>2015-09-30T13:42:50Z</time>
      </trkpt>
      <trkpt lat="44.9102" lon="6.65902">
        <ele>1531.76</ele>
        <time>2015-09-30T13:42:55Z</time>
      </trkpt>
      <trkpt lat="44.91031" lon="6.65909">
        <ele>1529.63</ele>
        <time>2015-09-30T13:42:59Z</time>
      </trkpt>
      <trkpt lat="44.91031" lon="6.65912">
        <ele>1527.43</ele>
        <time>2015-09-30T13:43:03Z</time>
      </trkpt>
      <trkpt lat="44.91029" lon="6.65914">
        <ele>1524.55</ele>
        <time>2015-09-30T13:43:11Z</time>
      </trkpt>
      <trkpt lat="44.91032" lon="6.65917">
        <ele>1523.85</ele>
        <time>2015-09-30T13:43:28Z</time>
      </trkpt>
      <trkpt lat="44.91029" lon="6.6592">
        <ele>1523.73</ele>
        <time>2015-09-30T13:43:43Z</time>
      </trkpt>
      <trkpt lat="44.91021" lon="6.65924">
        <ele>1522.53</ele>
        <time>2015-09-30T13:43:49Z</time>
      </trkpt>
      <trkpt lat="44.91019" lon="6.65926">
        <ele>1521.29</ele>
        <time>2015-09-30T13:43:53Z</time>
      </trkpt>
      <trkpt lat="44.91028" lon="6.65932">
        <ele>1520.05</ele>
        <time>2015-09-30T13:43:58Z</time>
      </trkpt>
      <trkpt lat="44.91029" lon="6.65934">
        <ele>1519.68</ele>
        <time>2015-09-30T13:43:59Z</time>
      </trkpt>
      <trkpt lat="44.91041" lon="6.65948">
        <ele>1516.73</ele>
        <time>2015-09-30T13:44:05Z</time>
      </trkpt>
      <trkpt lat="44.91052" lon="6.65962">
        <ele>1513.08</ele>
        <time>2015-09-30T13:44:11Z</time>
      </trkpt>
      <trkpt lat="44.91059" lon="6.65972">
        <ele>1510.34</ele>
        <time>2015-09-30T13:44:15Z</time>
      </trkpt>
      <trkpt lat="44.91064" lon="6.65979">
        <ele>1507.69</ele>
        <time>2015-09-30T13:44:18Z</time>
      </trkpt>
      <trkpt lat="44.9107" lon="6.65987">
        <ele>1504.06</ele>
        <time>2015-09-30T13:44:23Z</time>
      </trkpt>
      <trkpt lat="44.91075" lon="6.65996">
        <ele>1501.62</ele>
        <time>2015-09-30T13:44:27Z</time>
      </trkpt>
      <trkpt lat="44.91079" lon="6.66001">
        <ele>1500.51</ele>
        <time>2015-09-30T13:44:29Z</time>
      </trkpt>
      <trkpt lat="44.91091" lon="6.66007">
        <ele>1496.56</ele>
        <time>2015-09-30T13:44:35Z</time>
      </trkpt>
      <trkpt lat="44.91094" lon="6.66005">
        <ele>1495.04</ele>
        <time>2015-09-30T13:44:37Z</time>
      </trkpt>
      <trkpt lat="44.91101" lon="6.65998">
        <ele>1490.71</ele>
        <time>2015-09-30T13:44:42Z</time>
      </trkpt>
      <trkpt lat="44.91101" lon="6.65992">
        <ele>1486.92</ele>
        <time>2015-09-30T13:44:49Z</time>
      </trkpt>
      <trkpt lat="44.91101" lon="6.65986">
        <ele>1485.41</ele>
        <time>2015-09-30T13:44:52Z</time>
      </trkpt>
      <trkpt lat="44.91104" lon="6.6598">
        <ele>1483.64</ele>
        <time>2015-09-30T13:44:55Z</time>
      </trkpt>
      <trkpt lat="44.91113" lon="6.65971">
        <ele>1479.68</ele>
        <time>2015-09-30T13:45:01Z</time>
      </trkpt>
      <trkpt lat="44.91116" lon="6.65972">
        <ele>1476.41</ele>
        <time>2015-09-30T13:45:06Z</time>
      </trkpt>
      <trkpt lat="44.91115" lon="6.65977">
        <ele>1474.87</ele>
        <time>2015-09-30T13:45:09Z</time>
      </trkpt>
      <trkpt lat="44.91118" lon="6.65987">
        <ele>1471.76</ele>
        <time>2015-09-30T13:45:17Z</time>
      </trkpt>
      <trkpt lat="44.9112" lon="6.65987">
        <ele>1471.29</ele>
        <time>2015-09-30T13:45:19Z</time>
      </trkpt>
      <trkpt lat="44.91122" lon="6.65982">
        <ele>1470.33</ele>
        <time>2015-09-30T13:45:22Z</time>
      </trkpt>
      <trkpt lat="44.91129" lon="6.65978">
        <ele>1468.93</ele>
        <time>2015-09-30T13:45:26Z</time>
      </trkpt>
      <trkpt lat="44.91135" lon="6.65981">
        <ele>1467.97</ele>
        <time>2015-09-30T13:45:29Z</time>
      </trkpt>
      <trkpt lat="44.91148" lon="6.66001">
        <ele>1464.99</ele>
        <time>2015-09-30T13:45:36Z</time>
      </trkpt>
      <trkpt lat="44.91151" lon="6.66006">
        <ele>1463.85</ele>
        <time>2015-09-30T13:45:41Z</time>
      </trkpt>
      <trkpt lat="44.91157" lon="6.66016">
        <ele>1463.22</ele>
        <time>2015-09-30T13:45:52Z</time>
      </trkpt>
      <trkpt lat="44.91168" lon="6.66033">
        <ele>1461.85</ele>
        <time>2015-09-30T13:45:58Z</time>
      </trkpt>
      <trkpt lat="44.91173" lon="6.66044">
        <ele>1461.25</ele>
        <time>2015-09-30T13:46:01Z</time>
      </trkpt>
      <trkpt lat="44.91177" lon="6.66063">
        <ele>1459.62</ele>
        <time>2015-09-30T13:46:06Z</time>
      </trkpt>
      <trkpt lat="44.91184" lon="6.66075">
        <ele>1457.82</ele>
        <time>2015-09-30T13:46:10Z</time>
      </trkpt>
      <trkpt lat="44.91193" lon="6.66088">
        <ele>1456.81</ele>
        <time>2015-09-30T13:46:17Z</time>
      </trkpt>
      <trkpt lat="44.91201" lon="6.66111">
        <ele>1456.13</ele>
        <time>2015-09-30T13:46:23Z</time>
      </trkpt>
      <trkpt lat="44.91204" lon="6.66124">
        <ele>1455.67</ele>
        <time>2015-09-30T13:46:28Z</time>
      </trkpt>
      <trkpt lat="44.91206" lon="6.66135">
        <ele>1456.29</ele>
        <time>2015-09-30T13:46:33Z</time>
      </trkpt>
      <trkpt lat="44.9121" lon="6.66144">
        <ele>1457.2</ele>
        <time>2015-09-30T13:46:38Z</time>
      </trkpt>
      <trkpt lat="44.91215" lon="6.66152">
        <ele>1458.76</ele>
        <time>2015-09-30T13:46:44Z</time>
      </trkpt>
      <trkpt lat="44.91218" lon="6.66158">
        <ele>1459.69</ele>
        <time>2015-09-30T13:46:49Z</time>
      </trkpt>
      <trkpt lat="44.91224" lon="6.66168">
        <ele>1460.55</ele>
        <time>2015-09-30T13:46:55Z</time>
      </trkpt>
      <trkpt lat="44.91229" lon="6.66177">
        <ele>1460.75</ele>
        <time>2015-09-30T13:47:02Z</time>
      </trkpt>
      <trkpt lat="44.91233" lon="6.66185">
        <ele>1462.49</ele>
        <time>2015-09-30T13:47:14Z</time>
      </trkpt>
      <trkpt lat="44.91237" lon="6.66192">
        <ele>1463.99</ele>
        <time>2015-09-30T13:47:25Z</time>
      </trkpt>
      <trkpt lat="44.91244" lon="6.66201">
        <ele>1465.02</ele>
        <time>2015-09-30T13:47:34Z</time>
      </trkpt>
      <trkpt lat="44.91252" lon="6.66209">
        <ele>1465.36</ele>
        <time>2015-09-30T13:47:43Z</time>
      </trkpt>
      <trkpt lat="44.91258" lon="6.66216">
        <ele>1465.89</ele>
        <time>2015-09-30T13:47:52Z</time>
      </trkpt>
      <trkpt lat="44.91258" lon="6.66216">
        <ele>1465.96</ele>
        <time>2015-09-30T13:47:53Z</time>
      </trkpt>
      <trkpt lat="44.91268" lon="6.66223">
        <ele>1466.8</ele>
        <time>2015-09-30T13:48:03Z</time>
      </trkpt>
      <trkpt lat="44.91275" lon="6.66233">
        <ele>1468.49</ele>
        <time>2015-09-30T13:48:15Z</time>
      </trkpt>
      <trkpt lat="44.91281" lon="6.66236">
        <ele>1469.77</ele>
        <time>2015-09-30T13:48:23Z</time>
      </trkpt>
      <trkpt lat="44.91287" lon="6.66239">
        <ele>1471.45</ele>
        <time>2015-09-30T13:48:34Z</time>
      </trkpt>
      <trkpt lat="44.91293" lon="6.66244">
        <ele>1472.84</ele>
        <time>2015-09-30T13:48:43Z</time>
      </trkpt>
      <trkpt lat="44.91299" lon="6.6625">
        <ele>1474.36</ele>
        <time>2015-09-30T13:48:53Z</time>
      </trkpt>
      <trkpt lat="44.91302" lon="6.66252">
        <ele>1475.33</ele>
        <time>2015-09-30T13:49:03Z</time>
      </trkpt>
      <trkpt lat="44.91312" lon="6.66258">
        <ele>1475.38</ele>
        <time>2015-09-30T13:49:10Z</time>
      </trkpt>
      <trkpt lat="44.91328" lon="6.66265">
        <ele>1474.93</ele>
        <time>2015-09-30T13:49:16Z</time>
      </trkpt>
      <trkpt lat="44.9134" lon="6.66281">
        <ele>1474.76</ele>
        <time>2015-09-30T13:49:24Z</time>
      </trkpt>
      <trkpt lat="44.91346" lon="6.66304">
        <ele>1474.75</ele>
        <time>2015-09-30T13:49:29Z</time>
      </trkpt>
      <trkpt lat="44.91348" lon="6.66308">
        <ele>1474.65</ele>
        <time>2015-09-30T13:49:30Z</time>
      </trkpt>
      <trkpt lat="44.91357" lon="6.66321">
        <ele>1474.08</ele>
        <time>2015-09-30T13:49:37Z</time>
      </trkpt>
      <trkpt lat="44.9136" lon="6.66326">
        <ele>1473.8</ele>
        <time>2015-09-30T13:49:39Z</time>
      </trkpt>
      <trkpt lat="44.91363" lon="6.66345">
        <ele>1471.08</ele>
        <time>2015-09-30T13:49:45Z</time>
      </trkpt>
      <trkpt lat="44.91369" lon="6.66349">
        <ele>1469.88</ele>
        <time>2015-09-30T13:49:48Z</time>
      </trkpt>
      <trkpt lat="44.91386" lon="6.66343">
        <ele>1469.11</ele>
        <time>2015-09-30T13:49:56Z</time>
      </trkpt>
      <trkpt lat="44.91403" lon="6.66333">
        <ele>1468.72</ele>
        <time>2015-09-30T13:50:02Z</time>
      </trkpt>
      <trkpt lat="44.91424" lon="6.6633">
        <ele>1468.31</ele>
        <time>2015-09-30T13:50:10Z</time>
      </trkpt>
      <trkpt lat="44.91445" lon="6.66339">
        <ele>1467.66</ele>
        <time>2015-09-30T13:50:17Z</time>
      </trkpt>
      <trkpt lat="44.91455" lon="6.66349">
        <ele>1468.1</ele>
        <time>2015-09-30T13:50:23Z</time>
      </trkpt>
      <trkpt lat="44.91469" lon="6.66358">
        <ele>1467.94</ele>
        <time>2015-09-30T13:50:28Z</time>
      </trkpt>
      <trkpt lat="44.91474" lon="6.66362">
        <ele>1466.99</ele>
        <time>2015-09-30T13:50:33Z</time>
      </trkpt>
      <trkpt lat="44.91475" lon="6.66364">
        <ele>1465.83</ele>
        <time>2015-09-30T13:50:45Z</time>
      </trkpt>
      <trkpt lat="44.91477" lon="6.66366">
        <ele>1465.58</ele>
        <time>2015-09-30T13:51:02Z</time>
      </trkpt>
      <trkpt lat="44.91479" lon="6.6637">
        <ele>1465.63</ele>
        <time>2015-09-30T13:51:23Z</time>
      </trkpt>
      <trkpt lat="44.91479" lon="6.66387">
        <ele>1465.31</ele>
        <time>2015-09-30T13:51:29Z</time>
      </trkpt>
      <trkpt lat="44.91493" lon="6.66409">
        <ele>1462.81</ele>
        <time>2015-09-30T13:51:36Z</time>
      </trkpt>
      <trkpt lat="44.91497" lon="6.66413">
        <ele>1461.89</ele>
        <time>2015-09-30T13:51:38Z</time>
      </trkpt>
      <trkpt lat="44.91503" lon="6.66426">
        <ele>1460.44</ele>
        <time>2015-09-30T13:51:43Z</time>
      </trkpt>
      <trkpt lat="44.91512" lon="6.66442">
        <ele>1460.3</ele>
        <time>2015-09-30T13:51:49Z</time>
      </trkpt>
      <trkpt lat="44.91518" lon="6.6646">
        <ele>1460.05</ele>
        <time>2015-09-30T13:51:55Z</time>
      </trkpt>
      <trkpt lat="44.91522" lon="6.66471">
        <ele>1459.8</ele>
        <time>2015-09-30T13:51:58Z</time>
      </trkpt>
      <trkpt lat="44.9153" lon="6.66488">
        <ele>1458.75</ele>
        <time>2015-09-30T13:52:03Z</time>
      </trkpt>
      <trkpt lat="44.91533" lon="6.66488">
        <ele>1458.4</ele>
        <time>2015-09-30T13:52:04Z</time>
      </trkpt>
      <trkpt lat="44.91542" lon="6.66487">
        <ele>1457.77</ele>
        <time>2015-09-30T13:52:12Z</time>
      </trkpt>
      <trkpt lat="44.91549" lon="6.6649">
        <ele>1459.36</ele>
        <time>2015-09-30T13:52:20Z</time>
      </trkpt>
      <trkpt lat="44.91557" lon="6.66495">
        <ele>1460.28</ele>
        <time>2015-09-30T13:52:28Z</time>
      </trkpt>
      <trkpt lat="44.91564" lon="6.66501">
        <ele>1461.19</ele>
        <time>2015-09-30T13:52:37Z</time>
      </trkpt>
      <trkpt lat="44.9157" lon="6.66509">
        <ele>1461.47</ele>
        <time>2015-09-30T13:52:46Z</time>
      </trkpt>
      <trkpt lat="44.91574" lon="6.66516">
        <ele>1460.33</ele>
        <time>2015-09-30T13:52:54Z</time>
      </trkpt>
      <trkpt lat="44.91576" lon="6.66524">
        <ele>1459.61</ele>
        <time>2015-09-30T13:53:01Z</time>
      </trkpt>
      <trkpt lat="44.91577" lon="6.66532">
        <ele>1460.83</ele>
        <time>2015-09-30T13:53:12Z</time>
      </trkpt>
      <trkpt lat="44.91581" lon="6.66541">
        <ele>1460.49</ele>
        <time>2015-09-30T13:53:20Z</time>
      </trkpt>
      <trkpt lat="44.91586" lon="6.66546">
        <ele>1460.23</ele>
        <time>2015-09-30T13:53:27Z</time>
      </trkpt>
      <trkpt lat="44.91589" lon="6.66549">
        <ele>1460.69</ele>
        <time>2015-09-30T13:53:32Z</time>
      </trkpt>
      <trkpt lat="44.91591" lon="6.66557">
        <ele>1461.43</ele>
        <time>2015-09-30T13:53:40Z</time>
      </trkpt>
      <trkpt lat="44.91593" lon="6.66571">
        <ele>1461.36</ele>
        <time>2015-09-30T13:53:45Z</time>
      </trkpt>
      <trkpt lat="44.91593" lon="6.66574">
        <ele>1461.2</ele>
        <time>2015-09-30T13:53:46Z</time>
      </trkpt>
      <trkpt lat="44.91589" lon="6.66588">
        <ele>1460.08</ele>
        <time>2015-09-30T13:53:51Z</time>
      </trkpt>
      <trkpt lat="44.91588" lon="6.666">
        <ele>1458.98</ele>
        <time>2015-09-30T13:53:54Z</time>
      </trkpt>
      <trkpt lat="44.91593" lon="6.66624">
        <ele>1456.83</ele>
        <time>2015-09-30T13:53:59Z</time>
      </trkpt>
      <trkpt lat="44.91589" lon="6.66646">
        <ele>1454.89</ele>
        <time>2015-09-30T13:54:04Z</time>
      </trkpt>
      <trkpt lat="44.91586" lon="6.66665">
        <ele>1453.33</ele>
        <time>2015-09-30T13:54:08Z</time>
      </trkpt>
      <trkpt lat="44.91584" lon="6.66678">
        <ele>1451.84</ele>
        <time>2015-09-30T13:54:11Z</time>
      </trkpt>
      <trkpt lat="44.91588" lon="6.66707">
        <ele>1447.66</ele>
        <time>2015-09-30T13:54:16Z</time>
      </trkpt>
      <trkpt lat="44.91592" lon="6.6673">
        <ele>1444.4</ele>
        <time>2015-09-30T13:54:21Z</time>
      </trkpt>
      <trkpt lat="44.91599" lon="6.66754">
        <ele>1440.81</ele>
        <time>2015-09-30T13:54:26Z</time>
      </trkpt>
      <trkpt lat="44.91608" lon="6.66776">
        <ele>1437.69</ele>
        <time>2015-09-30T13:54:31Z</time>
      </trkpt>
      <trkpt lat="44.91613" lon="6.66791">
        <ele>1435.95</ele>
        <time>2015-09-30T13:54:34Z</time>
      </trkpt>
      <trkpt lat="44.91615" lon="6.66817">
        <ele>1432.96</ele>
        <time>2015-09-30T13:54:38Z</time>
      </trkpt>
      <trkpt lat="44.91612" lon="6.66837">
        <ele>1431.03</ele>
        <time>2015-09-30T13:54:41Z</time>
      </trkpt>
      <trkpt lat="44.91616" lon="6.66868">
        <ele>1427.49</ele>
        <time>2015-09-30T13:54:46Z</time>
      </trkpt>
      <trkpt lat="44.91627" lon="6.669">
        <ele>1423</ele>
        <time>2015-09-30T13:54:51Z</time>
      </trkpt>
      <trkpt lat="44.91636" lon="6.66928">
        <ele>1419.75</ele>
        <time>2015-09-30T13:54:55Z</time>
      </trkpt>
      <trkpt lat="44.91645" lon="6.66958">
        <ele>1416.69</ele>
        <time>2015-09-30T13:54:59Z</time>
      </trkpt>
      <trkpt lat="44.91648" lon="6.66965">
        <ele>1415.93</ele>
        <time>2015-09-30T13:55:00Z</time>
      </trkpt>
      <trkpt lat="44.91651" lon="6.66982">
        <ele>1413.76</ele>
        <time>2015-09-30T13:55:03Z</time>
      </trkpt>
      <trkpt lat="44.91652" lon="6.67003">
        <ele>1410.5</ele>
        <time>2015-09-30T13:55:07Z</time>
      </trkpt>
      <trkpt lat="44.9165" lon="6.67029">
        <ele>1407.69</ele>
        <time>2015-09-30T13:55:11Z</time>
      </trkpt>
      <trkpt lat="44.91654" lon="6.67057">
        <ele>1403.82</ele>
        <time>2015-09-30T13:55:17Z</time>
      </trkpt>
      <trkpt lat="44.91659" lon="6.6708">
        <ele>1400.79</ele>
        <time>2015-09-30T13:55:23Z</time>
      </trkpt>
      <trkpt lat="44.91664" lon="6.67106">
        <ele>1397.58</ele>
        <time>2015-09-30T13:55:29Z</time>
      </trkpt>
      <trkpt lat="44.91665" lon="6.67126">
        <ele>1395.17</ele>
        <time>2015-09-30T13:55:35Z</time>
      </trkpt>
      <trkpt lat="44.91666" lon="6.67172">
        <ele>1392.54</ele>
        <time>2015-09-30T13:55:42Z</time>
      </trkpt>
      <trkpt lat="44.91668" lon="6.67202">
        <ele>1389.05</ele>
        <time>2015-09-30T13:55:48Z</time>
      </trkpt>
      <trkpt lat="44.91667" lon="6.67215">
        <ele>1387.61</ele>
        <time>2015-09-30T13:55:51Z</time>
      </trkpt>
      <trkpt lat="44.91666" lon="6.67235">
        <ele>1384.52</ele>
        <time>2015-09-30T13:55:57Z</time>
      </trkpt>
      <trkpt lat="44.91666" lon="6.67238">
        <ele>1384.15</ele>
        <time>2015-09-30T13:55:58Z</time>
      </trkpt>
      <trkpt lat="44.91667" lon="6.67242">
        <ele>1383.47</ele>
        <time>2015-09-30T13:56:00Z</time>
      </trkpt>
      <trkpt lat="44.91666" lon="6.67251">
        <ele>1382.36</ele>
        <time>2015-09-30T13:56:04Z</time>
      </trkpt>
      <trkpt lat="44.91666" lon="6.67276">
        <ele>1380.69</ele>
        <time>2015-09-30T13:56:12Z</time>
      </trkpt>
      <trkpt lat="44.91664" lon="6.67307">
        <ele>1378.47</ele>
        <time>2015-09-30T13:56:18Z</time>
      </trkpt>
      <trkpt lat="44.91662" lon="6.6732">
        <ele>1377.05</ele>
        <time>2015-09-30T13:56:21Z</time>
      </trkpt>
      <trkpt lat="44.91654" lon="6.67331">
        <ele>1374.6</ele>
        <time>2015-09-30T13:56:26Z</time>
      </trkpt>
      <trkpt lat="44.91658" lon="6.67337">
        <ele>1372.24</ele>
        <time>2015-09-30T13:56:32Z</time>
      </trkpt>
      <trkpt lat="44.91658" lon="6.67337">
        <ele>1371.24</ele>
        <time>2015-09-30T13:56:44Z</time>
      </trkpt>
      <trkpt lat="44.91658" lon="6.67337">
        <ele>1371.39</ele>
        <time>2015-09-30T13:56:48Z</time>
      </trkpt>
      <trkpt lat="44.91672" lon="6.67341">
        <ele>1370.84</ele>
        <time>2015-09-30T13:56:57Z</time>
      </trkpt>
      <trkpt lat="44.91674" lon="6.67341">
        <ele>1370.83</ele>
        <time>2015-09-30T13:56:58Z</time>
      </trkpt>
      <trkpt lat="44.91695" lon="6.67347">
        <ele>1370.85</ele>
        <time>2015-09-30T13:57:05Z</time>
      </trkpt>
      <trkpt lat="44.91724" lon="6.67354">
        <ele>1370.5</ele>
        <time>2015-09-30T13:57:12Z</time>
      </trkpt>
      <trkpt lat="44.91735" lon="6.67356">
        <ele>1370.22</ele>
        <time>2015-09-30T13:57:14Z</time>
      </trkpt>
      <trkpt lat="44.91751" lon="6.67359">
        <ele>1369.62</ele>
        <time>2015-09-30T13:57:17Z</time>
      </trkpt>
      <trkpt lat="44.918" lon="6.6737">
        <ele>1368.01</ele>
        <time>2015-09-30T13:57:25Z</time>
      </trkpt>
      <trkpt lat="44.91838" lon="6.67379">
        <ele>1366.41</ele>
        <time>2015-09-30T13:57:31Z</time>
      </trkpt>
      <trkpt lat="44.9188" lon="6.67405">
        <ele>1365.2</ele>
        <time>2015-09-30T13:57:39Z</time>
      </trkpt>
      <trkpt lat="44.91901" lon="6.67424">
        <ele>1365.37</ele>
        <time>2015-09-30T13:57:44Z</time>
      </trkpt>
      <trkpt lat="44.91915" lon="6.67441">
        <ele>1365.48</ele>
        <time>2015-09-30T13:57:48Z</time>
      </trkpt>
      <trkpt lat="44.91921" lon="6.67449">
        <ele>1365.51</ele>
        <time>2015-09-30T13:57:50Z</time>
      </trkpt>
      <trkpt lat="44.91945" lon="6.67493">
        <ele>1365.59</ele>
        <time>2015-09-30T13:57:59Z</time>
      </trkpt>
      <trkpt lat="44.91968" lon="6.67542">
        <ele>1366.05</ele>
        <time>2015-09-30T13:58:09Z</time>
      </trkpt>
      <trkpt lat="44.9199" lon="6.67572">
        <ele>1366.61</ele>
        <time>2015-09-30T13:58:17Z</time>
      </trkpt>
      <trkpt lat="44.92012" lon="6.67594">
        <ele>1367.32</ele>
        <time>2015-09-30T13:58:24Z</time>
      </trkpt>
      <trkpt lat="44.92033" lon="6.67617">
        <ele>1367.79</ele>
        <time>2015-09-30T13:58:32Z</time>
      </trkpt>
      <trkpt lat="44.92059" lon="6.67646">
        <ele>1368.7</ele>
        <time>2015-09-30T13:58:41Z</time>
      </trkpt>
      <trkpt lat="44.92094" lon="6.67686">
        <ele>1369.64</ele>
        <time>2015-09-30T13:58:53Z</time>
      </trkpt>
      <trkpt lat="44.92121" lon="6.67715">
        <ele>1370.34</ele>
        <time>2015-09-30T13:59:02Z</time>
      </trkpt>
      <trkpt lat="44.9215" lon="6.67749">
        <ele>1371.1</ele>
        <time>2015-09-30T13:59:12Z</time>
      </trkpt>
      <trkpt lat="44.92186" lon="6.67782">
        <ele>1371.21</ele>
        <time>2015-09-30T13:59:22Z</time>
      </trkpt>
      <trkpt lat="44.92221" lon="6.67809">
        <ele>1371.17</ele>
        <time>2015-09-30T13:59:31Z</time>
      </trkpt>
      <trkpt lat="44.92255" lon="6.67835">
        <ele>1371.29</ele>
        <time>2015-09-30T13:59:40Z</time>
      </trkpt>
      <trkpt lat="44.92285" lon="6.67855">
        <ele>1371.93</ele>
        <time>2015-09-30T13:59:48Z</time>
      </trkpt>
      <trkpt lat="44.92289" lon="6.67857">
        <ele>1371.96</ele>
        <time>2015-09-30T13:59:49Z</time>
      </trkpt>
      <trkpt lat="44.92337" lon="6.67874">
        <ele>1371.8</ele>
        <time>2015-09-30T14:00:00Z</time>
      </trkpt>
      <trkpt lat="44.92366" lon="6.67885">
        <ele>1371.56</ele>
        <time>2015-09-30T14:00:07Z</time>
      </trkpt>
      <trkpt lat="44.92411" lon="6.67903">
        <ele>1371.68</ele>
        <time>2015-09-30T14:00:17Z</time>
      </trkpt>
      <trkpt lat="44.92455" lon="6.67921">
        <ele>1372.46</ele>
        <time>2015-09-30T14:00:27Z</time>
      </trkpt>
      <trkpt lat="44.92502" lon="6.67937">
        <ele>1372.8</ele>
        <time>2015-09-30T14:00:37Z</time>
      </trkpt>
      <trkpt lat="44.92507" lon="6.67937">
        <ele>1372.84</ele>
        <time>2015-09-30T14:00:38Z</time>
      </trkpt>
      <trkpt lat="44.92568" lon="6.67936">
        <ele>1373.18</ele>
        <time>2015-09-30T14:00:51Z</time>
      </trkpt>
      <trkpt lat="44.92607" lon="6.67934">
        <ele>1373.45</ele>
        <time>2015-09-30T14:01:00Z</time>
      </trkpt>
      <trkpt lat="44.92654" lon="6.67932">
        <ele>1373.56</ele>
        <time>2015-09-30T14:01:10Z</time>
      </trkpt>
      <trkpt lat="44.92695" lon="6.67933">
        <ele>1373.55</ele>
        <time>2015-09-30T14:01:18Z</time>
      </trkpt>
      <trkpt lat="44.92747" lon="6.67932">
        <ele>1374.28</ele>
        <time>2015-09-30T14:01:30Z</time>
      </trkpt>
      <trkpt lat="44.92775" lon="6.67929">
        <ele>1374.71</ele>
        <time>2015-09-30T14:01:36Z</time>
      </trkpt>
      <trkpt lat="44.92817" lon="6.67918">
        <ele>1375.25</ele>
        <time>2015-09-30T14:01:45Z</time>
      </trkpt>
      <trkpt lat="44.92853" lon="6.67909">
        <ele>1375.31</ele>
        <time>2015-09-30T14:01:53Z</time>
      </trkpt>
      <trkpt lat="44.92888" lon="6.67907">
        <ele>1375.51</ele>
        <time>2015-09-30T14:02:01Z</time>
      </trkpt>
      <trkpt lat="44.92938" lon="6.67917">
        <ele>1375.93</ele>
        <time>2015-09-30T14:02:12Z</time>
      </trkpt>
      <trkpt lat="44.92974" lon="6.67924">
        <ele>1376.15</ele>
        <time>2015-09-30T14:02:20Z</time>
      </trkpt>
      <trkpt lat="44.93009" lon="6.67932">
        <ele>1376.37</ele>
        <time>2015-09-30T14:02:28Z</time>
      </trkpt>
      <trkpt lat="44.93041" lon="6.67937">
        <ele>1376.65</ele>
        <time>2015-09-30T14:02:35Z</time>
      </trkpt>
      <trkpt lat="44.93054" lon="6.67939">
        <ele>1376.9</ele>
        <time>2015-09-30T14:02:38Z</time>
      </trkpt>
      <trkpt lat="44.93092" lon="6.67936">
        <ele>1377.77</ele>
        <time>2015-09-30T14:02:47Z</time>
      </trkpt>
      <trkpt lat="44.931" lon="6.67935">
        <ele>1377.92</ele>
        <time>2015-09-30T14:02:49Z</time>
      </trkpt>
      <trkpt lat="44.93129" lon="6.67927">
        <ele>1379.44</ele>
        <time>2015-09-30T14:02:57Z</time>
      </trkpt>
      <trkpt lat="44.93153" lon="6.67921">
        <ele>1380.67</ele>
        <time>2015-09-30T14:03:04Z</time>
      </trkpt>
      <trkpt lat="44.93183" lon="6.67913">
        <ele>1381.57</ele>
        <time>2015-09-30T14:03:12Z</time>
      </trkpt>
      <trkpt lat="44.93223" lon="6.67902">
        <ele>1382.24</ele>
        <time>2015-09-30T14:03:22Z</time>
      </trkpt>
      <trkpt lat="44.93259" lon="6.67892">
        <ele>1382.96</ele>
        <time>2015-09-30T14:03:32Z</time>
      </trkpt>
      <trkpt lat="44.93285" lon="6.67896">
        <ele>1383.32</ele>
        <time>2015-09-30T14:03:39Z</time>
      </trkpt>
      <trkpt lat="44.93307" lon="6.679">
        <ele>1384.24</ele>
        <time>2015-09-30T14:03:46Z</time>
      </trkpt>
      <trkpt lat="44.93326" lon="6.67902">
        <ele>1384.83</ele>
        <time>2015-09-30T14:03:51Z</time>
      </trkpt>
      <trkpt lat="44.93343" lon="6.67904">
        <ele>1384.95</ele>
        <time>2015-09-30T14:03:55Z</time>
      </trkpt>
      <trkpt lat="44.93352" lon="6.67904">
        <ele>1384.96</ele>
        <time>2015-09-30T14:03:57Z</time>
      </trkpt>
      <trkpt lat="44.93385" lon="6.67891">
        <ele>1385.21</ele>
        <time>2015-09-30T14:04:04Z</time>
      </trkpt>
      <trkpt lat="44.93397" lon="6.67884">
        <ele>1385.38</ele>
        <time>2015-09-30T14:04:07Z</time>
      </trkpt>
      <trkpt lat="44.93424" lon="6.67863">
        <ele>1385.33</ele>
        <time>2015-09-30T14:04:13Z</time>
      </trkpt>
      <trkpt lat="44.93444" lon="6.67847">
        <ele>1385.51</ele>
        <time>2015-09-30T14:04:17Z</time>
      </trkpt>
      <trkpt lat="44.93466" lon="6.6783">
        <ele>1385.56</ele>
        <time>2015-09-30T14:04:21Z</time>
      </trkpt>
      <trkpt lat="44.93505" lon="6.67818">
        <ele>1384.95</ele>
        <time>2015-09-30T14:04:27Z</time>
      </trkpt>
      <trkpt lat="44.93576" lon="6.67836">
        <ele>1383.45</ele>
        <time>2015-09-30T14:04:37Z</time>
      </trkpt>
      <trkpt lat="44.9366" lon="6.67862">
        <ele>1382.81</ele>
        <time>2015-09-30T14:04:50Z</time>
      </trkpt>
      <trkpt lat="44.93721" lon="6.67878">
        <ele>1382.75</ele>
        <time>2015-09-30T14:05:00Z</time>
      </trkpt>
      <trkpt lat="44.93758" lon="6.67891">
        <ele>1382.8</ele>
        <time>2015-09-30T14:05:08Z</time>
      </trkpt>
      <trkpt lat="44.93796" lon="6.67907">
        <ele>1382.79</ele>
        <time>2015-09-30T14:05:17Z</time>
      </trkpt>
      <trkpt lat="44.93804" lon="6.67912">
        <ele>1383.03</ele>
        <time>2015-09-30T14:05:19Z</time>
      </trkpt>
      <trkpt lat="44.93826" lon="6.67932">
        <ele>1383.84</ele>
        <time>2015-09-30T14:05:25Z</time>
      </trkpt>
      <trkpt lat="44.93854" lon="6.67981">
        <ele>1384.65</ele>
        <time>2015-09-30T14:05:35Z</time>
      </trkpt>
      <trkpt lat="44.93874" lon="6.68025">
        <ele>1385.61</ele>
        <time>2015-09-30T14:05:44Z</time>
      </trkpt>
      <trkpt lat="44.93899" lon="6.68063">
        <ele>1386.19</ele>
        <time>2015-09-30T14:05:53Z</time>
      </trkpt>
      <trkpt lat="44.93921" lon="6.68091">
        <ele>1386.66</ele>
        <time>2015-09-30T14:06:01Z</time>
      </trkpt>
      <trkpt lat="44.93941" lon="6.68103">
        <ele>1387.17</ele>
        <time>2015-09-30T14:06:08Z</time>
      </trkpt>
      <trkpt lat="44.9396" lon="6.68113">
        <ele>1387.71</ele>
        <time>2015-09-30T14:06:15Z</time>
      </trkpt>
      <trkpt lat="44.93972" lon="6.68113">
        <ele>1387.88</ele>
        <time>2015-09-30T14:06:20Z</time>
      </trkpt>
      <trkpt lat="44.93978" lon="6.6811">
        <ele>1388.15</ele>
        <time>2015-09-30T14:06:26Z</time>
      </trkpt>
      <trkpt lat="44.9398" lon="6.6811">
        <ele>1388.41</ele>
        <time>2015-09-30T14:06:35Z</time>
      </trkpt>
      <trkpt lat="44.93979" lon="6.6811">
        <ele>1388.55</ele>
        <time>2015-09-30T14:06:49Z</time>
      </trkpt>
      <trkpt lat="44.93979" lon="6.68125">
        <ele>1388.3</ele>
        <time>2015-09-30T14:06:55Z</time>
      </trkpt>
      <trkpt lat="44.93982" lon="6.68137">
        <ele>1388.15</ele>
        <time>2015-09-30T14:06:58Z</time>
      </trkpt>
      <trkpt lat="44.93991" lon="6.68159">
        <ele>1387.58</ele>
        <time>2015-09-30T14:07:02Z</time>
      </trkpt>
      <trkpt lat="44.94005" lon="6.68201">
        <ele>1386.51</ele>
        <time>2015-09-30T14:07:10Z</time>
      </trkpt>
      <trkpt lat="44.94007" lon="6.68224">
        <ele>1386.19</ele>
        <time>2015-09-30T14:07:15Z</time>
      </trkpt>
      <trkpt lat="44.94004" lon="6.68229">
        <ele>1386.31</ele>
        <time>2015-09-30T14:07:17Z</time>
      </trkpt>
      <trkpt lat="44.93985" lon="6.68234">
        <ele>1386.43</ele>
        <time>2015-09-30T14:07:24Z</time>
      </trkpt>
      <trkpt lat="44.93984" lon="6.68235">
        <ele>1386.32</ele>
        <time>2015-09-30T14:07:28Z</time>
      </trkpt>
      <trkpt lat="44.93984" lon="6.68235">
        <ele>1386.44</ele>
        <time>2015-09-30T14:07:46Z</time>
      </trkpt>
      <trkpt lat="44.93984" lon="6.68234">
        <ele>1386.26</ele>
        <time>2015-09-30T14:08:08Z</time>
      </trkpt>
      <trkpt lat="44.93984" lon="6.68234">
        <ele>1386.34</ele>
        <time>2015-09-30T14:08:24Z</time>
      </trkpt>
      <trkpt lat="44.93983" lon="6.68233">
        <ele>1385.83</ele>
        <time>2015-09-30T14:08:38Z</time>
      </trkpt>
      <trkpt lat="44.93983" lon="6.68232">
        <ele>1385.96</ele>
        <time>2015-09-30T14:08:50Z</time>
      </trkpt>
      <trkpt lat="44.93984" lon="6.6823">
        <ele>1385.71</ele>
        <time>2015-09-30T14:09:08Z</time>
      </trkpt>
      <trkpt lat="44.93985" lon="6.68228">
        <ele>1385.71</ele>
        <time>2015-09-30T14:09:24Z</time>
      </trkpt>
      <trkpt lat="44.93984" lon="6.6823">
        <ele>1385.16</ele>
        <time>2015-09-30T14:09:39Z</time>
      </trkpt>
      <trkpt lat="44.93984" lon="6.68233">
        <ele>1385.07</ele>
        <time>2015-09-30T14:10:00Z</time>
      </trkpt>
      <trkpt lat="44.93983" lon="6.68234">
        <ele>1384.76</ele>
        <time>2015-09-30T14:10:25Z</time>
      </trkpt>
      <trkpt lat="44.93984" lon="6.68233">
        <ele>1384.77</ele>
        <time>2015-09-30T14:11:13Z</time>
      </trkpt>
      <trkpt lat="44.93983" lon="6.68233">
        <ele>1384.66</ele>
        <time>2015-09-30T14:11:46Z</time>
      </trkpt>
      <trkpt lat="44.93983" lon="6.68233">
        <ele>1384.3</ele>
        <time>2015-09-30T14:12:17Z</time>
      </trkpt>
      <trkpt lat="44.93984" lon="6.68232">
        <ele>1384.87</ele>
        <time>2015-09-30T14:12:32Z</time>
      </trkpt>
      <trkpt lat="44.93983" lon="6.6823">
        <ele>1385.19</ele>
        <time>2015-09-30T14:12:55Z</time>
      </trkpt>
      <trkpt lat="44.93983" lon="6.6823">
        <ele>1385.08</ele>
        <time>2015-09-30T14:13:26Z</time>
      </trkpt>
      <trkpt lat="44.93982" lon="6.68229">
        <ele>1385.15</ele>
        <time>2015-09-30T14:13:50Z</time>
      </trkpt>
      <trkpt lat="44.93984" lon="6.68231">
        <ele>1384.83</ele>
        <time>2015-09-30T14:14:19Z</time>
      </trkpt>
      <trkpt lat="44.93984" lon="6.6823">
        <ele>1385.15</ele>
        <time>2015-09-30T14:14:51Z</time>
      </trkpt>
      <trkpt lat="44.93984" lon="6.68231">
        <ele>1384.88</ele>
        <time>2015-09-30T14:15:25Z</time>
      </trkpt>
      <trkpt lat="44.93984" lon="6.68228">
        <ele>1385.02</ele>
        <time>2015-09-30T14:16:06Z</time>
      </trkpt>
      <trkpt lat="44.93984" lon="6.68228">
        <ele>1384.77</ele>
        <time>2015-09-30T14:16:29Z</time>
      </trkpt>
      <trkpt lat="44.93985" lon="6.68232">
        <ele>1384.45</ele>
        <time>2015-09-30T14:16:54Z</time>
      </trkpt>
      <trkpt lat="44.93985" lon="6.68233">
        <ele>1384.46</ele>
        <time>2015-09-30T14:16:55Z</time>
      </trkpt>
      <trkpt lat="44.93988" lon="6.68235">
        <ele>1384.6</ele>
        <time>2015-09-30T14:17:02Z</time>
      </trkpt>
      <trkpt lat="44.93991" lon="6.68235">
        <ele>1384.6</ele>
        <time>2015-09-30T14:17:03Z</time>
      </trkpt>
      <trkpt lat="44.94003" lon="6.68247">
        <ele>1384.62</ele>
        <time>2015-09-30T14:17:11Z</time>
      </trkpt>
      <trkpt lat="44.93998" lon="6.68248">
        <ele>1384.69</ele>
        <time>2015-09-30T14:17:17Z</time>
      </trkpt>
      <trkpt lat="44.94003" lon="6.68234">
        <ele>1384.68</ele>
        <time>2015-09-30T14:17:22Z</time>
      </trkpt>
      <trkpt lat="44.94006" lon="6.68232">
        <ele>1384.6</ele>
        <time>2015-09-30T14:17:24Z</time>
      </trkpt>
    </trkseg>
  </trk>
</gpx>